<?xml version="1.0" encoding="UTF-8" standalone="no" ?>
<gpx xmlns="http://www.topografix.com/GPX/1/1" xmlns:xsi="http://www.w3.org/2001/XMLSchema-instance" xsi:schemaLocation="http://www.topografix.com/GPX/1/1 http://www.topografix.com/GPX/1/1/gpx.xsd" version="1.1" creator="VisuGPX - https://www.visugpx.com">
  <metadata>
    <name>Grenoble  Col du Coq  Bellefond  Chambery sur TraceDeTrail.fr</name>
  </metadata>
  <trk>
    <name><![CDATA[Grenoble  Col du Coq  Bellefond  Chambery sur TraceDeTrail.fr]]></name>
    <extensions>
      <line xmlns="http://www.topografix.com/GPX/gpx_style/0/2">
        <color>0000FF</color>
        <width>4</width>
      </line>
    </extensions>
    <trkseg>
      <trkpt lat="45.1912" lon="5.7156">
        <ele>211</ele>
        <time>2000-01-01T00:52:52.000Z</time>
      </trkpt>
      <trkpt lat="45.19127" lon="5.71557">
        <ele>211</ele>
        <time>2000-01-01T00:53:12.000Z</time>
      </trkpt>
      <trkpt lat="45.19146" lon="5.71651">
        <ele>210</ele>
        <time>2000-01-01T00:53:22.000Z</time>
      </trkpt>
      <trkpt lat="45.19156" lon="5.71701">
        <ele>210</ele>
        <time>2000-01-01T00:53:32.000Z</time>
      </trkpt>
      <trkpt lat="45.19169" lon="5.71764">
        <ele>210</ele>
        <time>2000-01-01T00:53:42.000Z</time>
      </trkpt>
      <trkpt lat="45.19171" lon="5.71774">
        <ele>211</ele>
        <time>2000-01-01T00:53:52.000Z</time>
      </trkpt>
      <trkpt lat="45.19185" lon="5.71845">
        <ele>210</ele>
        <time>2000-01-01T00:54:02.000Z</time>
      </trkpt>
      <trkpt lat="45.19194" lon="5.7189">
        <ele>211</ele>
        <time>2000-01-01T00:54:12.000Z</time>
      </trkpt>
      <trkpt lat="45.19203" lon="5.71935">
        <ele>211</ele>
        <time>2000-01-01T00:54:22.000Z</time>
      </trkpt>
      <trkpt lat="45.19215" lon="5.71994">
        <ele>212</ele>
        <time>2000-01-01T00:54:32.000Z</time>
      </trkpt>
      <trkpt lat="45.19223" lon="5.72032">
        <ele>212</ele>
        <time>2000-01-01T00:54:42.000Z</time>
      </trkpt>
      <trkpt lat="45.19227" lon="5.72033">
        <ele>212.1</ele>
        <time>2000-01-01T00:54:52.000Z</time>
      </trkpt>
      <trkpt lat="45.19229" lon="5.72035">
        <ele>211.7</ele>
        <time>2000-01-01T00:55:02.000Z</time>
      </trkpt>
      <trkpt lat="45.19232" lon="5.72038">
        <ele>211.1</ele>
        <time>2000-01-01T00:55:12.000Z</time>
      </trkpt>
      <trkpt lat="45.19233" lon="5.72041">
        <ele>210.9</ele>
        <time>2000-01-01T00:55:22.000Z</time>
      </trkpt>
      <trkpt lat="45.19233" lon="5.72047">
        <ele>210.8</ele>
        <time>2000-01-01T00:55:32.000Z</time>
      </trkpt>
      <trkpt lat="45.19233" lon="5.72051">
        <ele>213</ele>
        <time>2000-01-01T00:55:42.000Z</time>
      </trkpt>
      <trkpt lat="45.19231" lon="5.72056">
        <ele>211.1</ele>
        <time>2000-01-01T00:55:52.000Z</time>
      </trkpt>
      <trkpt lat="45.19227" lon="5.7206">
        <ele>212</ele>
        <time>2000-01-01T00:56:02.000Z</time>
      </trkpt>
      <trkpt lat="45.19227" lon="5.72061">
        <ele>212</ele>
        <time>2000-01-01T00:56:12.000Z</time>
      </trkpt>
      <trkpt lat="45.19231" lon="5.7208">
        <ele>213</ele>
        <time>2000-01-01T00:56:22.000Z</time>
      </trkpt>
      <trkpt lat="45.19231" lon="5.72085">
        <ele>211.1</ele>
        <time>2000-01-01T00:56:32.000Z</time>
      </trkpt>
      <trkpt lat="45.19235" lon="5.72112">
        <ele>212</ele>
        <time>2000-01-01T00:56:42.000Z</time>
      </trkpt>
      <trkpt lat="45.19241" lon="5.72172">
        <ele>212</ele>
        <time>2000-01-01T00:56:52.000Z</time>
      </trkpt>
      <trkpt lat="45.19246" lon="5.72214">
        <ele>212</ele>
        <time>2000-01-01T00:57:02.000Z</time>
      </trkpt>
      <trkpt lat="45.19249" lon="5.72248">
        <ele>212</ele>
        <time>2000-01-01T00:57:12.000Z</time>
      </trkpt>
      <trkpt lat="45.19253" lon="5.72285">
        <ele>212</ele>
        <time>2000-01-01T00:57:22.000Z</time>
      </trkpt>
      <trkpt lat="45.19259" lon="5.72284">
        <ele>210.4</ele>
        <time>2000-01-01T00:57:32.000Z</time>
      </trkpt>
      <trkpt lat="45.19263" lon="5.72291">
        <ele>209.7</ele>
        <time>2000-01-01T00:57:42.000Z</time>
      </trkpt>
      <trkpt lat="45.19267" lon="5.72318">
        <ele>212</ele>
        <time>2000-01-01T00:57:52.000Z</time>
      </trkpt>
      <trkpt lat="45.19271" lon="5.7233">
        <ele>208.9</ele>
        <time>2000-01-01T00:58:02.000Z</time>
      </trkpt>
      <trkpt lat="45.19271" lon="5.72351">
        <ele>211</ele>
        <time>2000-01-01T00:58:12.000Z</time>
      </trkpt>
      <trkpt lat="45.19273" lon="5.72376">
        <ele>208.7</ele>
        <time>2000-01-01T00:58:22.000Z</time>
      </trkpt>
      <trkpt lat="45.19276" lon="5.72399">
        <ele>210</ele>
        <time>2000-01-01T00:58:32.000Z</time>
      </trkpt>
      <trkpt lat="45.19278" lon="5.72413">
        <ele>208</ele>
        <time>2000-01-01T00:58:42.000Z</time>
      </trkpt>
      <trkpt lat="45.19282" lon="5.72442">
        <ele>211</ele>
        <time>2000-01-01T00:58:52.000Z</time>
      </trkpt>
      <trkpt lat="45.19285" lon="5.72464">
        <ele>210.8</ele>
        <time>2000-01-01T00:59:02.000Z</time>
      </trkpt>
      <trkpt lat="45.19288" lon="5.72475">
        <ele>209</ele>
        <time>2000-01-01T00:59:12.000Z</time>
      </trkpt>
      <trkpt lat="45.1929" lon="5.72483">
        <ele>210.1</ele>
        <time>2000-01-01T00:59:22.000Z</time>
      </trkpt>
      <trkpt lat="45.19303" lon="5.7253">
        <ele>208</ele>
        <time>2000-01-01T00:59:32.000Z</time>
      </trkpt>
      <trkpt lat="45.19311" lon="5.72564">
        <ele>208</ele>
        <time>2000-01-01T00:59:42.000Z</time>
      </trkpt>
      <trkpt lat="45.1932" lon="5.72605">
        <ele>208</ele>
        <time>2000-01-01T00:59:52.000Z</time>
      </trkpt>
      <trkpt lat="45.19334" lon="5.72666">
        <ele>208</ele>
        <time>2000-01-01T01:00:02.000Z</time>
      </trkpt>
      <trkpt lat="45.19336" lon="5.72686">
        <ele>208.6</ele>
        <time>2000-01-01T01:00:12.000Z</time>
      </trkpt>
      <trkpt lat="45.19339" lon="5.72701">
        <ele>209</ele>
        <time>2000-01-01T01:00:22.000Z</time>
      </trkpt>
      <trkpt lat="45.19351" lon="5.72752">
        <ele>209</ele>
        <time>2000-01-01T01:00:32.000Z</time>
      </trkpt>
      <trkpt lat="45.19364" lon="5.72811">
        <ele>209</ele>
        <time>2000-01-01T01:00:42.000Z</time>
      </trkpt>
      <trkpt lat="45.19373" lon="5.72846">
        <ele>208</ele>
        <time>2000-01-01T01:00:52.000Z</time>
      </trkpt>
      <trkpt lat="45.1938" lon="5.72873">
        <ele>208</ele>
        <time>2000-01-01T01:01:02.000Z</time>
      </trkpt>
      <trkpt lat="45.19384" lon="5.72884">
        <ele>208.7</ele>
        <time>2000-01-01T01:01:12.000Z</time>
      </trkpt>
      <trkpt lat="45.19392" lon="5.72903">
        <ele>208</ele>
        <time>2000-01-01T01:01:22.000Z</time>
      </trkpt>
      <trkpt lat="45.19404" lon="5.72926">
        <ele>208</ele>
        <time>2000-01-01T01:01:32.000Z</time>
      </trkpt>
      <trkpt lat="45.19407" lon="5.72931">
        <ele>209.9</ele>
        <time>2000-01-01T01:01:42.000Z</time>
      </trkpt>
      <trkpt lat="45.19404" lon="5.72926">
        <ele>210.2</ele>
        <time>2000-01-01T01:01:52.000Z</time>
      </trkpt>
      <trkpt lat="45.19392" lon="5.72903">
        <ele>208</ele>
        <time>2000-01-01T01:02:02.000Z</time>
      </trkpt>
      <trkpt lat="45.19384" lon="5.72884">
        <ele>208.7</ele>
        <time>2000-01-01T01:02:12.000Z</time>
      </trkpt>
      <trkpt lat="45.1938" lon="5.72873">
        <ele>208</ele>
        <time>2000-01-01T01:02:22.000Z</time>
      </trkpt>
      <trkpt lat="45.19373" lon="5.72846">
        <ele>208</ele>
        <time>2000-01-01T01:02:32.000Z</time>
      </trkpt>
      <trkpt lat="45.19364" lon="5.72811">
        <ele>209</ele>
        <time>2000-01-01T01:02:42.000Z</time>
      </trkpt>
      <trkpt lat="45.19351" lon="5.72752">
        <ele>210</ele>
        <time>2000-01-01T01:02:52.000Z</time>
      </trkpt>
      <trkpt lat="45.19339" lon="5.72701">
        <ele>209</ele>
        <time>2000-01-01T01:03:02.000Z</time>
      </trkpt>
      <trkpt lat="45.19336" lon="5.72686">
        <ele>208.6</ele>
        <time>2000-01-01T01:03:12.000Z</time>
      </trkpt>
      <trkpt lat="45.19334" lon="5.72666">
        <ele>209</ele>
        <time>2000-01-01T01:03:22.000Z</time>
      </trkpt>
      <trkpt lat="45.1932" lon="5.72605">
        <ele>209</ele>
        <time>2000-01-01T01:03:32.000Z</time>
      </trkpt>
      <trkpt lat="45.19312" lon="5.72571">
        <ele>208</ele>
        <time>2000-01-01T01:03:42.000Z</time>
      </trkpt>
      <trkpt lat="45.19303" lon="5.7253">
        <ele>208</ele>
        <time>2000-01-01T01:03:52.000Z</time>
      </trkpt>
      <trkpt lat="45.1929" lon="5.72483">
        <ele>208</ele>
        <time>2000-01-01T01:04:02.000Z</time>
      </trkpt>
      <trkpt lat="45.19291" lon="5.72538">
        <ele>211</ele>
        <time>2000-01-01T01:04:12.000Z</time>
      </trkpt>
      <trkpt lat="45.193" lon="5.72576">
        <ele>211</ele>
        <time>2000-01-01T01:04:22.000Z</time>
      </trkpt>
      <trkpt lat="45.19301" lon="5.72577">
        <ele>211.7</ele>
        <time>2000-01-01T01:04:32.000Z</time>
      </trkpt>
      <trkpt lat="45.19304" lon="5.72592">
        <ele>212.1</ele>
        <time>2000-01-01T01:04:42.000Z</time>
      </trkpt>
      <trkpt lat="45.19307" lon="5.72609">
        <ele>211</ele>
        <time>2000-01-01T01:04:52.000Z</time>
      </trkpt>
      <trkpt lat="45.1931" lon="5.72618">
        <ele>211.2</ele>
        <time>2000-01-01T01:05:02.000Z</time>
      </trkpt>
      <trkpt lat="45.1935" lon="5.72786">
        <ele>212</ele>
        <time>2000-01-01T01:05:12.000Z</time>
      </trkpt>
      <trkpt lat="45.19358" lon="5.72821">
        <ele>212</ele>
        <time>2000-01-01T01:05:22.000Z</time>
      </trkpt>
      <trkpt lat="45.19367" lon="5.72862">
        <ele>212</ele>
        <time>2000-01-01T01:05:32.000Z</time>
      </trkpt>
      <trkpt lat="45.19375" lon="5.72892">
        <ele>212</ele>
        <time>2000-01-01T01:05:42.000Z</time>
      </trkpt>
      <trkpt lat="45.19377" lon="5.72898">
        <ele>210.5</ele>
        <time>2000-01-01T01:05:52.000Z</time>
      </trkpt>
      <trkpt lat="45.19381" lon="5.72908">
        <ele>211.1</ele>
        <time>2000-01-01T01:06:02.000Z</time>
      </trkpt>
      <trkpt lat="45.19385" lon="5.72916">
        <ele>212</ele>
        <time>2000-01-01T01:06:12.000Z</time>
      </trkpt>
      <trkpt lat="45.19405" lon="5.72951">
        <ele>212</ele>
        <time>2000-01-01T01:06:22.000Z</time>
      </trkpt>
      <trkpt lat="45.19429" lon="5.72924">
        <ele>212</ele>
        <time>2000-01-01T01:06:32.000Z</time>
      </trkpt>
      <trkpt lat="45.19473" lon="5.72878">
        <ele>212</ele>
        <time>2000-01-01T01:06:42.000Z</time>
      </trkpt>
      <trkpt lat="45.19466" lon="5.72861">
        <ele>211.9</ele>
        <time>2000-01-01T01:06:52.000Z</time>
      </trkpt>
      <trkpt lat="45.19479" lon="5.72852">
        <ele>212</ele>
        <time>2000-01-01T01:07:02.000Z</time>
      </trkpt>
      <trkpt lat="45.1949" lon="5.7286">
        <ele>213.7</ele>
        <time>2000-01-01T01:07:12.000Z</time>
      </trkpt>
      <trkpt lat="45.19496" lon="5.72852">
        <ele>214</ele>
        <time>2000-01-01T01:07:22.000Z</time>
      </trkpt>
      <trkpt lat="45.195" lon="5.72851">
        <ele>215.5</ele>
        <time>2000-01-01T01:07:32.000Z</time>
      </trkpt>
      <trkpt lat="45.19513" lon="5.7285">
        <ele>217.8</ele>
        <time>2000-01-01T01:07:42.000Z</time>
      </trkpt>
      <trkpt lat="45.19516" lon="5.72847">
        <ele>222</ele>
        <time>2000-01-01T01:07:52.000Z</time>
      </trkpt>
      <trkpt lat="45.19518" lon="5.72842">
        <ele>221.4</ele>
        <time>2000-01-01T01:08:02.000Z</time>
      </trkpt>
      <trkpt lat="45.19519" lon="5.72841">
        <ele>222</ele>
        <time>2000-01-01T01:08:12.000Z</time>
      </trkpt>
      <trkpt lat="45.19506" lon="5.72818">
        <ele>227</ele>
        <time>2000-01-01T01:08:22.000Z</time>
      </trkpt>
      <trkpt lat="45.19498" lon="5.728">
        <ele>230.4</ele>
        <time>2000-01-01T01:08:32.000Z</time>
      </trkpt>
      <trkpt lat="45.19504" lon="5.72798">
        <ele>231</ele>
        <time>2000-01-01T01:08:42.000Z</time>
      </trkpt>
      <trkpt lat="45.1951" lon="5.72797">
        <ele>236.1</ele>
        <time>2000-01-01T01:08:52.000Z</time>
      </trkpt>
      <trkpt lat="45.19516" lon="5.72798">
        <ele>237.8</ele>
        <time>2000-01-01T01:09:02.000Z</time>
      </trkpt>
      <trkpt lat="45.19521" lon="5.72801">
        <ele>238.7</ele>
        <time>2000-01-01T01:09:12.000Z</time>
      </trkpt>
      <trkpt lat="45.19524" lon="5.72802">
        <ele>235</ele>
        <time>2000-01-01T01:09:22.000Z</time>
      </trkpt>
      <trkpt lat="45.19524" lon="5.72798">
        <ele>240.6</ele>
        <time>2000-01-01T01:09:32.000Z</time>
      </trkpt>
      <trkpt lat="45.1953" lon="5.72788">
        <ele>245.2</ele>
        <time>2000-01-01T01:09:42.000Z</time>
      </trkpt>
      <trkpt lat="45.19531" lon="5.72785">
        <ele>246.4</ele>
        <time>2000-01-01T01:09:52.000Z</time>
      </trkpt>
      <trkpt lat="45.19534" lon="5.72779">
        <ele>247</ele>
        <time>2000-01-01T01:10:02.000Z</time>
      </trkpt>
      <trkpt lat="45.19537" lon="5.72767">
        <ele>252.3</ele>
        <time>2000-01-01T01:10:12.000Z</time>
      </trkpt>
      <trkpt lat="45.19538" lon="5.72763">
        <ele>253.3</ele>
        <time>2000-01-01T01:10:22.000Z</time>
      </trkpt>
      <trkpt lat="45.19541" lon="5.72761">
        <ele>254.7</ele>
        <time>2000-01-01T01:10:32.000Z</time>
      </trkpt>
      <trkpt lat="45.19543" lon="5.72761">
        <ele>255.4</ele>
        <time>2000-01-01T01:10:42.000Z</time>
      </trkpt>
      <trkpt lat="45.19545" lon="5.72763">
        <ele>253</ele>
        <time>2000-01-01T01:10:52.000Z</time>
      </trkpt>
      <trkpt lat="45.1956" lon="5.72787">
        <ele>258</ele>
        <time>2000-01-01T01:11:02.000Z</time>
      </trkpt>
      <trkpt lat="45.19565" lon="5.72789">
        <ele>257.2</ele>
        <time>2000-01-01T01:11:12.000Z</time>
      </trkpt>
      <trkpt lat="45.19571" lon="5.72791">
        <ele>258.4</ele>
        <time>2000-01-01T01:11:22.000Z</time>
      </trkpt>
      <trkpt lat="45.19581" lon="5.72794">
        <ele>263</ele>
        <time>2000-01-01T01:11:32.000Z</time>
      </trkpt>
      <trkpt lat="45.19608" lon="5.72805">
        <ele>265</ele>
        <time>2000-01-01T01:11:42.000Z</time>
      </trkpt>
      <trkpt lat="45.19646" lon="5.72821">
        <ele>273</ele>
        <time>2000-01-01T01:11:52.000Z</time>
      </trkpt>
      <trkpt lat="45.19657" lon="5.72823">
        <ele>279.9</ele>
        <time>2000-01-01T01:12:02.000Z</time>
      </trkpt>
      <trkpt lat="45.19666" lon="5.72827">
        <ele>283</ele>
        <time>2000-01-01T01:12:12.000Z</time>
      </trkpt>
      <trkpt lat="45.19669" lon="5.7283">
        <ele>283.1</ele>
        <time>2000-01-01T01:12:22.000Z</time>
      </trkpt>
      <trkpt lat="45.19695" lon="5.72855">
        <ele>287</ele>
        <time>2000-01-01T01:12:32.000Z</time>
      </trkpt>
      <trkpt lat="45.19713" lon="5.72868">
        <ele>289</ele>
        <time>2000-01-01T01:12:42.000Z</time>
      </trkpt>
      <trkpt lat="45.19721" lon="5.72871">
        <ele>292.3</ele>
        <time>2000-01-01T01:12:52.000Z</time>
      </trkpt>
      <trkpt lat="45.19728" lon="5.72875">
        <ele>293.6</ele>
        <time>2000-01-01T01:13:02.000Z</time>
      </trkpt>
      <trkpt lat="45.19734" lon="5.72879">
        <ele>291</ele>
        <time>2000-01-01T01:13:12.000Z</time>
      </trkpt>
      <trkpt lat="45.1976" lon="5.72906">
        <ele>293</ele>
        <time>2000-01-01T01:13:22.000Z</time>
      </trkpt>
      <trkpt lat="45.19771" lon="5.72915">
        <ele>295.1</ele>
        <time>2000-01-01T01:13:32.000Z</time>
      </trkpt>
      <trkpt lat="45.19777" lon="5.72918">
        <ele>296</ele>
        <time>2000-01-01T01:13:42.000Z</time>
      </trkpt>
      <trkpt lat="45.19783" lon="5.72921">
        <ele>296.9</ele>
        <time>2000-01-01T01:13:52.000Z</time>
      </trkpt>
      <trkpt lat="45.19791" lon="5.72923">
        <ele>298.5</ele>
        <time>2000-01-01T01:14:02.000Z</time>
      </trkpt>
      <trkpt lat="45.19799" lon="5.72926">
        <ele>299</ele>
        <time>2000-01-01T01:14:12.000Z</time>
      </trkpt>
      <trkpt lat="45.19802" lon="5.72926">
        <ele>300.6</ele>
        <time>2000-01-01T01:14:22.000Z</time>
      </trkpt>
      <trkpt lat="45.19802" lon="5.72922">
        <ele>302.1</ele>
        <time>2000-01-01T01:14:32.000Z</time>
      </trkpt>
      <trkpt lat="45.19797" lon="5.72915">
        <ele>303.3</ele>
        <time>2000-01-01T01:14:42.000Z</time>
      </trkpt>
      <trkpt lat="45.1979" lon="5.72907">
        <ele>304</ele>
        <time>2000-01-01T01:14:52.000Z</time>
      </trkpt>
      <trkpt lat="45.19776" lon="5.72886">
        <ele>307</ele>
        <time>2000-01-01T01:15:02.000Z</time>
      </trkpt>
      <trkpt lat="45.19761" lon="5.72871">
        <ele>307.2</ele>
        <time>2000-01-01T01:15:12.000Z</time>
      </trkpt>
      <trkpt lat="45.19754" lon="5.72862">
        <ele>307</ele>
        <time>2000-01-01T01:15:22.000Z</time>
      </trkpt>
      <trkpt lat="45.19747" lon="5.72849">
        <ele>310.2</ele>
        <time>2000-01-01T01:15:32.000Z</time>
      </trkpt>
      <trkpt lat="45.19743" lon="5.72845">
        <ele>310</ele>
        <time>2000-01-01T01:15:42.000Z</time>
      </trkpt>
      <trkpt lat="45.19741" lon="5.7284">
        <ele>311</ele>
        <time>2000-01-01T01:15:52.000Z</time>
      </trkpt>
      <trkpt lat="45.19742" lon="5.72834">
        <ele>313.6</ele>
        <time>2000-01-01T01:16:02.000Z</time>
      </trkpt>
      <trkpt lat="45.19746" lon="5.72834">
        <ele>315.2</ele>
        <time>2000-01-01T01:16:12.000Z</time>
      </trkpt>
      <trkpt lat="45.19758" lon="5.72846">
        <ele>313</ele>
        <time>2000-01-01T01:16:22.000Z</time>
      </trkpt>
      <trkpt lat="45.19776" lon="5.72861">
        <ele>314</ele>
        <time>2000-01-01T01:16:32.000Z</time>
      </trkpt>
      <trkpt lat="45.19791" lon="5.72869">
        <ele>319.4</ele>
        <time>2000-01-01T01:16:42.000Z</time>
      </trkpt>
      <trkpt lat="45.19801" lon="5.72878">
        <ele>320</ele>
        <time>2000-01-01T01:16:52.000Z</time>
      </trkpt>
      <trkpt lat="45.19809" lon="5.72881">
        <ele>322.4</ele>
        <time>2000-01-01T01:17:02.000Z</time>
      </trkpt>
      <trkpt lat="45.19811" lon="5.7288">
        <ele>323.7</ele>
        <time>2000-01-01T01:17:12.000Z</time>
      </trkpt>
      <trkpt lat="45.19811" lon="5.72877">
        <ele>324.7</ele>
        <time>2000-01-01T01:17:22.000Z</time>
      </trkpt>
      <trkpt lat="45.19794" lon="5.72859">
        <ele>326</ele>
        <time>2000-01-01T01:17:32.000Z</time>
      </trkpt>
      <trkpt lat="45.19784" lon="5.72847">
        <ele>325.6</ele>
        <time>2000-01-01T01:17:42.000Z</time>
      </trkpt>
      <trkpt lat="45.19774" lon="5.72832">
        <ele>326</ele>
        <time>2000-01-01T01:17:52.000Z</time>
      </trkpt>
      <trkpt lat="45.19761" lon="5.72816">
        <ele>329.6</ele>
        <time>2000-01-01T01:18:02.000Z</time>
      </trkpt>
      <trkpt lat="45.19759" lon="5.72811">
        <ele>329</ele>
        <time>2000-01-01T01:18:12.000Z</time>
      </trkpt>
      <trkpt lat="45.19762" lon="5.72809">
        <ele>333.2</ele>
        <time>2000-01-01T01:18:22.000Z</time>
      </trkpt>
      <trkpt lat="45.19765" lon="5.72812">
        <ele>333</ele>
        <time>2000-01-01T01:18:32.000Z</time>
      </trkpt>
      <trkpt lat="45.19804" lon="5.72837">
        <ele>337</ele>
        <time>2000-01-01T01:18:42.000Z</time>
      </trkpt>
      <trkpt lat="45.1982" lon="5.72844">
        <ele>341</ele>
        <time>2000-01-01T01:18:52.000Z</time>
      </trkpt>
      <trkpt lat="45.19823" lon="5.72844">
        <ele>340</ele>
        <time>2000-01-01T01:19:02.000Z</time>
      </trkpt>
      <trkpt lat="45.19823" lon="5.72841">
        <ele>343.3</ele>
        <time>2000-01-01T01:19:12.000Z</time>
      </trkpt>
      <trkpt lat="45.19821" lon="5.72838">
        <ele>343.7</ele>
        <time>2000-01-01T01:19:22.000Z</time>
      </trkpt>
      <trkpt lat="45.19807" lon="5.72828">
        <ele>343</ele>
        <time>2000-01-01T01:19:32.000Z</time>
      </trkpt>
      <trkpt lat="45.19793" lon="5.72815">
        <ele>343.3</ele>
        <time>2000-01-01T01:19:42.000Z</time>
      </trkpt>
      <trkpt lat="45.19791" lon="5.72811">
        <ele>343</ele>
        <time>2000-01-01T01:19:52.000Z</time>
      </trkpt>
      <trkpt lat="45.19794" lon="5.72809">
        <ele>346.4</ele>
        <time>2000-01-01T01:20:02.000Z</time>
      </trkpt>
      <trkpt lat="45.19814" lon="5.72826">
        <ele>345</ele>
        <time>2000-01-01T01:20:12.000Z</time>
      </trkpt>
      <trkpt lat="45.19823" lon="5.72831">
        <ele>347.4</ele>
        <time>2000-01-01T01:20:22.000Z</time>
      </trkpt>
      <trkpt lat="45.1983" lon="5.72835">
        <ele>348.2</ele>
        <time>2000-01-01T01:20:32.000Z</time>
      </trkpt>
      <trkpt lat="45.19832" lon="5.72835">
        <ele>348</ele>
        <time>2000-01-01T01:20:42.000Z</time>
      </trkpt>
      <trkpt lat="45.19835" lon="5.72835">
        <ele>350.4</ele>
        <time>2000-01-01T01:20:52.000Z</time>
      </trkpt>
      <trkpt lat="45.19835" lon="5.72832">
        <ele>351.7</ele>
        <time>2000-01-01T01:21:02.000Z</time>
      </trkpt>
      <trkpt lat="45.19831" lon="5.72828">
        <ele>351.8</ele>
        <time>2000-01-01T01:21:12.000Z</time>
      </trkpt>
      <trkpt lat="45.19816" lon="5.72819">
        <ele>351</ele>
        <time>2000-01-01T01:21:22.000Z</time>
      </trkpt>
      <trkpt lat="45.19815" lon="5.72816">
        <ele>351.7</ele>
        <time>2000-01-01T01:21:32.000Z</time>
      </trkpt>
      <trkpt lat="45.19816" lon="5.72813">
        <ele>353.6</ele>
        <time>2000-01-01T01:21:42.000Z</time>
      </trkpt>
      <trkpt lat="45.19818" lon="5.72813">
        <ele>354.3</ele>
        <time>2000-01-01T01:21:52.000Z</time>
      </trkpt>
      <trkpt lat="45.1984" lon="5.72828">
        <ele>353</ele>
        <time>2000-01-01T01:22:02.000Z</time>
      </trkpt>
      <trkpt lat="45.19844" lon="5.7283">
        <ele>358.1</ele>
        <time>2000-01-01T01:22:12.000Z</time>
      </trkpt>
      <trkpt lat="45.19846" lon="5.7283">
        <ele>359.3</ele>
        <time>2000-01-01T01:22:22.000Z</time>
      </trkpt>
      <trkpt lat="45.19847" lon="5.72827">
        <ele>361.3</ele>
        <time>2000-01-01T01:22:32.000Z</time>
      </trkpt>
      <trkpt lat="45.19845" lon="5.72824">
        <ele>361.6</ele>
        <time>2000-01-01T01:22:42.000Z</time>
      </trkpt>
      <trkpt lat="45.19835" lon="5.72818">
        <ele>358</ele>
        <time>2000-01-01T01:22:52.000Z</time>
      </trkpt>
      <trkpt lat="45.19822" lon="5.72804">
        <ele>360.3</ele>
        <time>2000-01-01T01:23:02.000Z</time>
      </trkpt>
      <trkpt lat="45.19803" lon="5.72787">
        <ele>362</ele>
        <time>2000-01-01T01:23:12.000Z</time>
      </trkpt>
      <trkpt lat="45.198" lon="5.72783">
        <ele>361</ele>
        <time>2000-01-01T01:23:22.000Z</time>
      </trkpt>
      <trkpt lat="45.19798" lon="5.7278">
        <ele>361.4</ele>
        <time>2000-01-01T01:23:32.000Z</time>
      </trkpt>
      <trkpt lat="45.19799" lon="5.72777">
        <ele>363.3</ele>
        <time>2000-01-01T01:23:42.000Z</time>
      </trkpt>
      <trkpt lat="45.19801" lon="5.72776">
        <ele>364.6</ele>
        <time>2000-01-01T01:23:52.000Z</time>
      </trkpt>
      <trkpt lat="45.19804" lon="5.72777">
        <ele>365.6</ele>
        <time>2000-01-01T01:24:02.000Z</time>
      </trkpt>
      <trkpt lat="45.19819" lon="5.7279">
        <ele>363</ele>
        <time>2000-01-01T01:24:12.000Z</time>
      </trkpt>
      <trkpt lat="45.19836" lon="5.72802">
        <ele>364</ele>
        <time>2000-01-01T01:24:22.000Z</time>
      </trkpt>
      <trkpt lat="45.19845" lon="5.72806">
        <ele>370.1</ele>
        <time>2000-01-01T01:24:32.000Z</time>
      </trkpt>
      <trkpt lat="45.19848" lon="5.72804">
        <ele>373</ele>
        <time>2000-01-01T01:24:42.000Z</time>
      </trkpt>
      <trkpt lat="45.19847" lon="5.72801">
        <ele>374.4</ele>
        <time>2000-01-01T01:24:52.000Z</time>
      </trkpt>
      <trkpt lat="45.19845" lon="5.72799">
        <ele>374.5</ele>
        <time>2000-01-01T01:25:02.000Z</time>
      </trkpt>
      <trkpt lat="45.19839" lon="5.72795">
        <ele>370</ele>
        <time>2000-01-01T01:25:12.000Z</time>
      </trkpt>
      <trkpt lat="45.19824" lon="5.7278">
        <ele>373.5</ele>
        <time>2000-01-01T01:25:22.000Z</time>
      </trkpt>
      <trkpt lat="45.19817" lon="5.72772">
        <ele>373</ele>
        <time>2000-01-01T01:25:32.000Z</time>
      </trkpt>
      <trkpt lat="45.19812" lon="5.72765">
        <ele>375</ele>
        <time>2000-01-01T01:25:42.000Z</time>
      </trkpt>
      <trkpt lat="45.19808" lon="5.72757">
        <ele>376.4</ele>
        <time>2000-01-01T01:25:52.000Z</time>
      </trkpt>
      <trkpt lat="45.19792" lon="5.72738">
        <ele>375</ele>
        <time>2000-01-01T01:26:02.000Z</time>
      </trkpt>
      <trkpt lat="45.19791" lon="5.72735">
        <ele>379.3</ele>
        <time>2000-01-01T01:26:12.000Z</time>
      </trkpt>
      <trkpt lat="45.19791" lon="5.72732">
        <ele>380.9</ele>
        <time>2000-01-01T01:26:22.000Z</time>
      </trkpt>
      <trkpt lat="45.19794" lon="5.72731">
        <ele>383</ele>
        <time>2000-01-01T01:26:32.000Z</time>
      </trkpt>
      <trkpt lat="45.19797" lon="5.72733">
        <ele>383.4</ele>
        <time>2000-01-01T01:26:42.000Z</time>
      </trkpt>
      <trkpt lat="45.19805" lon="5.7274">
        <ele>378</ele>
        <time>2000-01-01T01:26:52.000Z</time>
      </trkpt>
      <trkpt lat="45.19816" lon="5.72753">
        <ele>382.9</ele>
        <time>2000-01-01T01:27:02.000Z</time>
      </trkpt>
      <trkpt lat="45.19822" lon="5.72759">
        <ele>384</ele>
        <time>2000-01-01T01:27:12.000Z</time>
      </trkpt>
      <trkpt lat="45.19827" lon="5.7276">
        <ele>385.7</ele>
        <time>2000-01-01T01:27:22.000Z</time>
      </trkpt>
      <trkpt lat="45.19834" lon="5.72766">
        <ele>386.3</ele>
        <time>2000-01-01T01:27:32.000Z</time>
      </trkpt>
      <trkpt lat="45.19852" lon="5.72783">
        <ele>385</ele>
        <time>2000-01-01T01:27:42.000Z</time>
      </trkpt>
      <trkpt lat="45.19855" lon="5.72783">
        <ele>392.3</ele>
        <time>2000-01-01T01:27:52.000Z</time>
      </trkpt>
      <trkpt lat="45.19855" lon="5.7278">
        <ele>394.5</ele>
        <time>2000-01-01T01:28:02.000Z</time>
      </trkpt>
      <trkpt lat="45.19853" lon="5.72776">
        <ele>395.4</ele>
        <time>2000-01-01T01:28:12.000Z</time>
      </trkpt>
      <trkpt lat="45.19849" lon="5.72772">
        <ele>394.3</ele>
        <time>2000-01-01T01:28:22.000Z</time>
      </trkpt>
      <trkpt lat="45.19847" lon="5.72769">
        <ele>394.3</ele>
        <time>2000-01-01T01:28:32.000Z</time>
      </trkpt>
      <trkpt lat="45.1985" lon="5.72768">
        <ele>391</ele>
        <time>2000-01-01T01:28:42.000Z</time>
      </trkpt>
      <trkpt lat="45.19859" lon="5.72773">
        <ele>401.4</ele>
        <time>2000-01-01T01:28:52.000Z</time>
      </trkpt>
      <trkpt lat="45.19861" lon="5.72775">
        <ele>402.1</ele>
        <time>2000-01-01T01:29:02.000Z</time>
      </trkpt>
      <trkpt lat="45.19863" lon="5.72772">
        <ele>403.4</ele>
        <time>2000-01-01T01:29:12.000Z</time>
      </trkpt>
      <trkpt lat="45.19864" lon="5.72771">
        <ele>403.8</ele>
        <time>2000-01-01T01:29:22.000Z</time>
      </trkpt>
      <trkpt lat="45.19857" lon="5.7276">
        <ele>406</ele>
        <time>2000-01-01T01:29:32.000Z</time>
      </trkpt>
      <trkpt lat="45.19856" lon="5.72755">
        <ele>407.4</ele>
        <time>2000-01-01T01:29:42.000Z</time>
      </trkpt>
      <trkpt lat="45.19856" lon="5.72749">
        <ele>410.3</ele>
        <time>2000-01-01T01:29:52.000Z</time>
      </trkpt>
      <trkpt lat="45.19855" lon="5.72743">
        <ele>413.6</ele>
        <time>2000-01-01T01:30:02.000Z</time>
      </trkpt>
      <trkpt lat="45.19853" lon="5.7274">
        <ele>414.4</ele>
        <time>2000-01-01T01:30:12.000Z</time>
      </trkpt>
      <trkpt lat="45.19849" lon="5.72738">
        <ele>421</ele>
        <time>2000-01-01T01:30:22.000Z</time>
      </trkpt>
      <trkpt lat="45.19851" lon="5.72729">
        <ele>420.7</ele>
        <time>2000-01-01T01:30:32.000Z</time>
      </trkpt>
      <trkpt lat="45.19858" lon="5.72729">
        <ele>424.3</ele>
        <time>2000-01-01T01:30:42.000Z</time>
      </trkpt>
      <trkpt lat="45.19861" lon="5.72728">
        <ele>426.4</ele>
        <time>2000-01-01T01:30:52.000Z</time>
      </trkpt>
      <trkpt lat="45.19862" lon="5.72726">
        <ele>427.8</ele>
        <time>2000-01-01T01:31:02.000Z</time>
      </trkpt>
      <trkpt lat="45.1986" lon="5.72723">
        <ele>428</ele>
        <time>2000-01-01T01:31:12.000Z</time>
      </trkpt>
      <trkpt lat="45.1986" lon="5.72718">
        <ele>431.3</ele>
        <time>2000-01-01T01:31:22.000Z</time>
      </trkpt>
      <trkpt lat="45.19854" lon="5.72707">
        <ele>433.1</ele>
        <time>2000-01-01T01:31:32.000Z</time>
      </trkpt>
      <trkpt lat="45.19846" lon="5.72691">
        <ele>434</ele>
        <time>2000-01-01T01:31:42.000Z</time>
      </trkpt>
      <trkpt lat="45.19832" lon="5.7267">
        <ele>436</ele>
        <time>2000-01-01T01:31:52.000Z</time>
      </trkpt>
      <trkpt lat="45.19816" lon="5.7265">
        <ele>438</ele>
        <time>2000-01-01T01:32:02.000Z</time>
      </trkpt>
      <trkpt lat="45.19812" lon="5.7264">
        <ele>438.4</ele>
        <time>2000-01-01T01:32:12.000Z</time>
      </trkpt>
      <trkpt lat="45.19816" lon="5.72644">
        <ele>438.8</ele>
        <time>2000-01-01T01:32:22.000Z</time>
      </trkpt>
      <trkpt lat="45.19831" lon="5.72662">
        <ele>440</ele>
        <time>2000-01-01T01:32:32.000Z</time>
      </trkpt>
      <trkpt lat="45.1984" lon="5.72671">
        <ele>441.1</ele>
        <time>2000-01-01T01:32:42.000Z</time>
      </trkpt>
      <trkpt lat="45.19851" lon="5.72677">
        <ele>442</ele>
        <time>2000-01-01T01:32:52.000Z</time>
      </trkpt>
      <trkpt lat="45.19856" lon="5.72676">
        <ele>446.3</ele>
        <time>2000-01-01T01:33:02.000Z</time>
      </trkpt>
      <trkpt lat="45.19856" lon="5.72674">
        <ele>447.1</ele>
        <time>2000-01-01T01:33:12.000Z</time>
      </trkpt>
      <trkpt lat="45.19861" lon="5.72684">
        <ele>445.7</ele>
        <time>2000-01-01T01:33:22.000Z</time>
      </trkpt>
      <trkpt lat="45.19867" lon="5.72687">
        <ele>444</ele>
        <time>2000-01-01T01:33:32.000Z</time>
      </trkpt>
      <trkpt lat="45.19868" lon="5.72697">
        <ele>443.7</ele>
        <time>2000-01-01T01:33:42.000Z</time>
      </trkpt>
      <trkpt lat="45.19869" lon="5.72698">
        <ele>443.5</ele>
        <time>2000-01-01T01:33:52.000Z</time>
      </trkpt>
      <trkpt lat="45.1987" lon="5.72684">
        <ele>449.2</ele>
        <time>2000-01-01T01:34:02.000Z</time>
      </trkpt>
      <trkpt lat="45.19876" lon="5.72685">
        <ele>453</ele>
        <time>2000-01-01T01:34:12.000Z</time>
      </trkpt>
      <trkpt lat="45.19876" lon="5.72675">
        <ele>454.3</ele>
        <time>2000-01-01T01:34:22.000Z</time>
      </trkpt>
      <trkpt lat="45.19867" lon="5.72628">
        <ele>462</ele>
        <time>2000-01-01T01:34:32.000Z</time>
      </trkpt>
      <trkpt lat="45.19866" lon="5.72607">
        <ele>468.8</ele>
        <time>2000-01-01T01:34:42.000Z</time>
      </trkpt>
      <trkpt lat="45.19859" lon="5.72592">
        <ele>465</ele>
        <time>2000-01-01T01:34:52.000Z</time>
      </trkpt>
      <trkpt lat="45.19857" lon="5.72575">
        <ele>469.6</ele>
        <time>2000-01-01T01:35:02.000Z</time>
      </trkpt>
      <trkpt lat="45.19859" lon="5.72554">
        <ele>467</ele>
        <time>2000-01-01T01:35:12.000Z</time>
      </trkpt>
      <trkpt lat="45.1986" lon="5.72552">
        <ele>473.1</ele>
        <time>2000-01-01T01:35:22.000Z</time>
      </trkpt>
      <trkpt lat="45.19859" lon="5.72518">
        <ele>469</ele>
        <time>2000-01-01T01:35:32.000Z</time>
      </trkpt>
      <trkpt lat="45.19859" lon="5.72499">
        <ele>475.8</ele>
        <time>2000-01-01T01:35:42.000Z</time>
      </trkpt>
      <trkpt lat="45.19859" lon="5.72493">
        <ele>475.6</ele>
        <time>2000-01-01T01:35:52.000Z</time>
      </trkpt>
      <trkpt lat="45.19862" lon="5.72481">
        <ele>476</ele>
        <time>2000-01-01T01:36:02.000Z</time>
      </trkpt>
      <trkpt lat="45.19864" lon="5.72478">
        <ele>477.6</ele>
        <time>2000-01-01T01:36:12.000Z</time>
      </trkpt>
      <trkpt lat="45.19866" lon="5.72476">
        <ele>478.6</ele>
        <time>2000-01-01T01:36:22.000Z</time>
      </trkpt>
      <trkpt lat="45.19869" lon="5.72475">
        <ele>480</ele>
        <time>2000-01-01T01:36:32.000Z</time>
      </trkpt>
      <trkpt lat="45.19872" lon="5.72474">
        <ele>481.5</ele>
        <time>2000-01-01T01:36:42.000Z</time>
      </trkpt>
      <trkpt lat="45.19887" lon="5.72472">
        <ele>475</ele>
        <time>2000-01-01T01:36:52.000Z</time>
      </trkpt>
      <trkpt lat="45.19888" lon="5.72465">
        <ele>485.8</ele>
        <time>2000-01-01T01:37:02.000Z</time>
      </trkpt>
      <trkpt lat="45.19889" lon="5.72457">
        <ele>481.8</ele>
        <time>2000-01-01T01:37:12.000Z</time>
      </trkpt>
      <trkpt lat="45.19889" lon="5.72454">
        <ele>480.2</ele>
        <time>2000-01-01T01:37:22.000Z</time>
      </trkpt>
      <trkpt lat="45.19889" lon="5.72449">
        <ele>477.5</ele>
        <time>2000-01-01T01:37:32.000Z</time>
      </trkpt>
      <trkpt lat="45.19891" lon="5.72443">
        <ele>474</ele>
        <time>2000-01-01T01:37:42.000Z</time>
      </trkpt>
      <trkpt lat="45.19893" lon="5.7244">
        <ele>474.5</ele>
        <time>2000-01-01T01:37:52.000Z</time>
      </trkpt>
      <trkpt lat="45.19904" lon="5.72435">
        <ele>475.2</ele>
        <time>2000-01-01T01:38:02.000Z</time>
      </trkpt>
      <trkpt lat="45.19933" lon="5.72425">
        <ele>474</ele>
        <time>2000-01-01T01:38:12.000Z</time>
      </trkpt>
      <trkpt lat="45.19944" lon="5.72423">
        <ele>472.9</ele>
        <time>2000-01-01T01:38:22.000Z</time>
      </trkpt>
      <trkpt lat="45.1998" lon="5.72425">
        <ele>474</ele>
        <time>2000-01-01T01:38:32.000Z</time>
      </trkpt>
      <trkpt lat="45.2" lon="5.72428">
        <ele>474</ele>
        <time>2000-01-01T01:38:42.000Z</time>
      </trkpt>
      <trkpt lat="45.20024" lon="5.72428">
        <ele>475</ele>
        <time>2000-01-01T01:38:52.000Z</time>
      </trkpt>
      <trkpt lat="45.20056" lon="5.72431">
        <ele>483</ele>
        <time>2000-01-01T01:39:02.000Z</time>
      </trkpt>
      <trkpt lat="45.20062" lon="5.72432">
        <ele>483.3</ele>
        <time>2000-01-01T01:39:12.000Z</time>
      </trkpt>
      <trkpt lat="45.20064" lon="5.72435">
        <ele>484.1</ele>
        <time>2000-01-01T01:39:22.000Z</time>
      </trkpt>
      <trkpt lat="45.20067" lon="5.72438">
        <ele>485</ele>
        <time>2000-01-01T01:39:32.000Z</time>
      </trkpt>
      <trkpt lat="45.20071" lon="5.72443">
        <ele>486.2</ele>
        <time>2000-01-01T01:39:42.000Z</time>
      </trkpt>
      <trkpt lat="45.20072" lon="5.72446">
        <ele>486</ele>
        <time>2000-01-01T01:39:52.000Z</time>
      </trkpt>
      <trkpt lat="45.20072" lon="5.72449">
        <ele>487</ele>
        <time>2000-01-01T01:40:02.000Z</time>
      </trkpt>
      <trkpt lat="45.20075" lon="5.72468">
        <ele>488.7</ele>
        <time>2000-01-01T01:40:12.000Z</time>
      </trkpt>
      <trkpt lat="45.20076" lon="5.72474">
        <ele>488</ele>
        <time>2000-01-01T01:40:22.000Z</time>
      </trkpt>
      <trkpt lat="45.20075" lon="5.72486">
        <ele>490.2</ele>
        <time>2000-01-01T01:40:32.000Z</time>
      </trkpt>
      <trkpt lat="45.20072" lon="5.725">
        <ele>491.2</ele>
        <time>2000-01-01T01:40:42.000Z</time>
      </trkpt>
      <trkpt lat="45.20068" lon="5.72519">
        <ele>490</ele>
        <time>2000-01-01T01:40:52.000Z</time>
      </trkpt>
      <trkpt lat="45.20068" lon="5.72523">
        <ele>491.3</ele>
        <time>2000-01-01T01:41:02.000Z</time>
      </trkpt>
      <trkpt lat="45.20068" lon="5.72525">
        <ele>491.3</ele>
        <time>2000-01-01T01:41:12.000Z</time>
      </trkpt>
      <trkpt lat="45.20069" lon="5.7253">
        <ele>491.3</ele>
        <time>2000-01-01T01:41:22.000Z</time>
      </trkpt>
      <trkpt lat="45.20074" lon="5.72537">
        <ele>491.4</ele>
        <time>2000-01-01T01:41:32.000Z</time>
      </trkpt>
      <trkpt lat="45.20081" lon="5.72547">
        <ele>491</ele>
        <time>2000-01-01T01:41:42.000Z</time>
      </trkpt>
      <trkpt lat="45.20088" lon="5.72545">
        <ele>492.8</ele>
        <time>2000-01-01T01:41:52.000Z</time>
      </trkpt>
      <trkpt lat="45.20103" lon="5.72543">
        <ele>495</ele>
        <time>2000-01-01T01:42:02.000Z</time>
      </trkpt>
      <trkpt lat="45.20108" lon="5.72544">
        <ele>497.4</ele>
        <time>2000-01-01T01:42:12.000Z</time>
      </trkpt>
      <trkpt lat="45.20109" lon="5.72544">
        <ele>497.6</ele>
        <time>2000-01-01T01:42:22.000Z</time>
      </trkpt>
      <trkpt lat="45.20123" lon="5.72548">
        <ele>501</ele>
        <time>2000-01-01T01:42:32.000Z</time>
      </trkpt>
      <trkpt lat="45.20137" lon="5.72553">
        <ele>502.2</ele>
        <time>2000-01-01T01:42:42.000Z</time>
      </trkpt>
      <trkpt lat="45.20162" lon="5.72562">
        <ele>504</ele>
        <time>2000-01-01T01:42:52.000Z</time>
      </trkpt>
      <trkpt lat="45.20167" lon="5.72565">
        <ele>506.4</ele>
        <time>2000-01-01T01:43:02.000Z</time>
      </trkpt>
      <trkpt lat="45.20189" lon="5.7258">
        <ele>509</ele>
        <time>2000-01-01T01:43:12.000Z</time>
      </trkpt>
      <trkpt lat="45.20197" lon="5.72585">
        <ele>511.2</ele>
        <time>2000-01-01T01:43:22.000Z</time>
      </trkpt>
      <trkpt lat="45.20215" lon="5.72595">
        <ele>513</ele>
        <time>2000-01-01T01:43:32.000Z</time>
      </trkpt>
      <trkpt lat="45.20227" lon="5.72603">
        <ele>515.1</ele>
        <time>2000-01-01T01:43:42.000Z</time>
      </trkpt>
      <trkpt lat="45.20238" lon="5.72608">
        <ele>516</ele>
        <time>2000-01-01T01:43:52.000Z</time>
      </trkpt>
      <trkpt lat="45.20249" lon="5.7261">
        <ele>520</ele>
        <time>2000-01-01T01:44:02.000Z</time>
      </trkpt>
      <trkpt lat="45.2026" lon="5.72609">
        <ele>523</ele>
        <time>2000-01-01T01:44:12.000Z</time>
      </trkpt>
      <trkpt lat="45.20279" lon="5.72606">
        <ele>525</ele>
        <time>2000-01-01T01:44:22.000Z</time>
      </trkpt>
      <trkpt lat="45.20296" lon="5.72607">
        <ele>526.9</ele>
        <time>2000-01-01T01:44:32.000Z</time>
      </trkpt>
      <trkpt lat="45.20309" lon="5.72609">
        <ele>529</ele>
        <time>2000-01-01T01:44:42.000Z</time>
      </trkpt>
      <trkpt lat="45.20328" lon="5.72615">
        <ele>530</ele>
        <time>2000-01-01T01:44:52.000Z</time>
      </trkpt>
      <trkpt lat="45.20332" lon="5.72616">
        <ele>533.2</ele>
        <time>2000-01-01T01:45:02.000Z</time>
      </trkpt>
      <trkpt lat="45.20335" lon="5.72618">
        <ele>533.9</ele>
        <time>2000-01-01T01:45:12.000Z</time>
      </trkpt>
      <trkpt lat="45.20343" lon="5.72625">
        <ele>535.7</ele>
        <time>2000-01-01T01:45:22.000Z</time>
      </trkpt>
      <trkpt lat="45.20371" lon="5.72649">
        <ele>541</ele>
        <time>2000-01-01T01:45:32.000Z</time>
      </trkpt>
      <trkpt lat="45.20392" lon="5.72672">
        <ele>541</ele>
        <time>2000-01-01T01:45:42.000Z</time>
      </trkpt>
      <trkpt lat="45.20403" lon="5.72688">
        <ele>544.4</ele>
        <time>2000-01-01T01:45:52.000Z</time>
      </trkpt>
      <trkpt lat="45.2041" lon="5.72694">
        <ele>541</ele>
        <time>2000-01-01T01:46:02.000Z</time>
      </trkpt>
      <trkpt lat="45.20423" lon="5.72706">
        <ele>547.2</ele>
        <time>2000-01-01T01:46:12.000Z</time>
      </trkpt>
      <trkpt lat="45.20433" lon="5.72712">
        <ele>548</ele>
        <time>2000-01-01T01:46:22.000Z</time>
      </trkpt>
      <trkpt lat="45.20436" lon="5.72713">
        <ele>549</ele>
        <time>2000-01-01T01:46:32.000Z</time>
      </trkpt>
      <trkpt lat="45.20444" lon="5.72716">
        <ele>550.5</ele>
        <time>2000-01-01T01:46:42.000Z</time>
      </trkpt>
      <trkpt lat="45.20459" lon="5.72719">
        <ele>553</ele>
        <time>2000-01-01T01:46:52.000Z</time>
      </trkpt>
      <trkpt lat="45.20482" lon="5.72724">
        <ele>556</ele>
        <time>2000-01-01T01:47:02.000Z</time>
      </trkpt>
      <trkpt lat="45.20491" lon="5.72728">
        <ele>556.9</ele>
        <time>2000-01-01T01:47:12.000Z</time>
      </trkpt>
      <trkpt lat="45.20502" lon="5.72734">
        <ele>557</ele>
        <time>2000-01-01T01:47:22.000Z</time>
      </trkpt>
      <trkpt lat="45.20527" lon="5.72751">
        <ele>558</ele>
        <time>2000-01-01T01:47:32.000Z</time>
      </trkpt>
      <trkpt lat="45.2052" lon="5.72739">
        <ele>561.3</ele>
        <time>2000-01-01T01:47:42.000Z</time>
      </trkpt>
      <trkpt lat="45.20515" lon="5.72733">
        <ele>562.1</ele>
        <time>2000-01-01T01:47:52.000Z</time>
      </trkpt>
      <trkpt lat="45.2046" lon="5.72682">
        <ele>566</ele>
        <time>2000-01-01T01:48:02.000Z</time>
      </trkpt>
      <trkpt lat="45.20452" lon="5.72677">
        <ele>569.4</ele>
        <time>2000-01-01T01:48:12.000Z</time>
      </trkpt>
      <trkpt lat="45.2044" lon="5.72671">
        <ele>570</ele>
        <time>2000-01-01T01:48:22.000Z</time>
      </trkpt>
      <trkpt lat="45.20435" lon="5.72666">
        <ele>569.2</ele>
        <time>2000-01-01T01:48:32.000Z</time>
      </trkpt>
      <trkpt lat="45.20431" lon="5.7266">
        <ele>569.6</ele>
        <time>2000-01-01T01:48:42.000Z</time>
      </trkpt>
      <trkpt lat="45.20423" lon="5.72644">
        <ele>573</ele>
        <time>2000-01-01T01:48:52.000Z</time>
      </trkpt>
      <trkpt lat="45.20417" lon="5.72635">
        <ele>573.7</ele>
        <time>2000-01-01T01:49:02.000Z</time>
      </trkpt>
      <trkpt lat="45.20416" lon="5.72631">
        <ele>574.7</ele>
        <time>2000-01-01T01:49:12.000Z</time>
      </trkpt>
      <trkpt lat="45.20416" lon="5.72627">
        <ele>576.3</ele>
        <time>2000-01-01T01:49:22.000Z</time>
      </trkpt>
      <trkpt lat="45.20418" lon="5.72625">
        <ele>578.1</ele>
        <time>2000-01-01T01:49:32.000Z</time>
      </trkpt>
      <trkpt lat="45.20422" lon="5.72628">
        <ele>576</ele>
        <time>2000-01-01T01:49:42.000Z</time>
      </trkpt>
      <trkpt lat="45.20431" lon="5.7264">
        <ele>576.8</ele>
        <time>2000-01-01T01:49:52.000Z</time>
      </trkpt>
      <trkpt lat="45.20445" lon="5.72648">
        <ele>579</ele>
        <time>2000-01-01T01:50:02.000Z</time>
      </trkpt>
      <trkpt lat="45.20457" lon="5.72648">
        <ele>581.8</ele>
        <time>2000-01-01T01:50:12.000Z</time>
      </trkpt>
      <trkpt lat="45.20464" lon="5.72651">
        <ele>580</ele>
        <time>2000-01-01T01:50:22.000Z</time>
      </trkpt>
      <trkpt lat="45.20476" lon="5.72656">
        <ele>582.9</ele>
        <time>2000-01-01T01:50:32.000Z</time>
      </trkpt>
      <trkpt lat="45.20483" lon="5.72661">
        <ele>583</ele>
        <time>2000-01-01T01:50:42.000Z</time>
      </trkpt>
      <trkpt lat="45.20495" lon="5.72666">
        <ele>584.7</ele>
        <time>2000-01-01T01:50:52.000Z</time>
      </trkpt>
      <trkpt lat="45.20502" lon="5.72669">
        <ele>588</ele>
        <time>2000-01-01T01:51:02.000Z</time>
      </trkpt>
      <trkpt lat="45.20507" lon="5.72672">
        <ele>586.4</ele>
        <time>2000-01-01T01:51:12.000Z</time>
      </trkpt>
      <trkpt lat="45.20519" lon="5.72676">
        <ele>589</ele>
        <time>2000-01-01T01:51:22.000Z</time>
      </trkpt>
      <trkpt lat="45.20526" lon="5.7268">
        <ele>591</ele>
        <time>2000-01-01T01:51:32.000Z</time>
      </trkpt>
      <trkpt lat="45.20539" lon="5.72689">
        <ele>590.3</ele>
        <time>2000-01-01T01:51:42.000Z</time>
      </trkpt>
      <trkpt lat="45.20564" lon="5.72708">
        <ele>594</ele>
        <time>2000-01-01T01:51:52.000Z</time>
      </trkpt>
      <trkpt lat="45.2057" lon="5.72711">
        <ele>592.7</ele>
        <time>2000-01-01T01:52:02.000Z</time>
      </trkpt>
      <trkpt lat="45.20574" lon="5.72712">
        <ele>593.8</ele>
        <time>2000-01-01T01:52:12.000Z</time>
      </trkpt>
      <trkpt lat="45.20582" lon="5.72713">
        <ele>596.5</ele>
        <time>2000-01-01T01:52:22.000Z</time>
      </trkpt>
      <trkpt lat="45.20585" lon="5.72711">
        <ele>597</ele>
        <time>2000-01-01T01:52:32.000Z</time>
      </trkpt>
      <trkpt lat="45.20585" lon="5.72706">
        <ele>600</ele>
        <time>2000-01-01T01:52:42.000Z</time>
      </trkpt>
      <trkpt lat="45.20581" lon="5.72701">
        <ele>600.1</ele>
        <time>2000-01-01T01:52:52.000Z</time>
      </trkpt>
      <trkpt lat="45.20569" lon="5.72695">
        <ele>598</ele>
        <time>2000-01-01T01:53:02.000Z</time>
      </trkpt>
      <trkpt lat="45.20546" lon="5.72673">
        <ele>600</ele>
        <time>2000-01-01T01:53:12.000Z</time>
      </trkpt>
      <trkpt lat="45.20523" lon="5.72641">
        <ele>603</ele>
        <time>2000-01-01T01:53:22.000Z</time>
      </trkpt>
      <trkpt lat="45.20519" lon="5.72635">
        <ele>604.6</ele>
        <time>2000-01-01T01:53:32.000Z</time>
      </trkpt>
      <trkpt lat="45.20515" lon="5.72632">
        <ele>605</ele>
        <time>2000-01-01T01:53:42.000Z</time>
      </trkpt>
      <trkpt lat="45.2051" lon="5.72629">
        <ele>605.5</ele>
        <time>2000-01-01T01:53:52.000Z</time>
      </trkpt>
      <trkpt lat="45.20499" lon="5.72625">
        <ele>606</ele>
        <time>2000-01-01T01:54:02.000Z</time>
      </trkpt>
      <trkpt lat="45.2049" lon="5.72617">
        <ele>607.3</ele>
        <time>2000-01-01T01:54:12.000Z</time>
      </trkpt>
      <trkpt lat="45.20483" lon="5.72611">
        <ele>608.8</ele>
        <time>2000-01-01T01:54:22.000Z</time>
      </trkpt>
      <trkpt lat="45.2048" lon="5.72607">
        <ele>608</ele>
        <time>2000-01-01T01:54:32.000Z</time>
      </trkpt>
      <trkpt lat="45.20479" lon="5.72606">
        <ele>609.5</ele>
        <time>2000-01-01T01:54:42.000Z</time>
      </trkpt>
      <trkpt lat="45.20475" lon="5.72601">
        <ele>610</ele>
        <time>2000-01-01T01:54:52.000Z</time>
      </trkpt>
      <trkpt lat="45.20468" lon="5.72588">
        <ele>612</ele>
        <time>2000-01-01T01:55:02.000Z</time>
      </trkpt>
      <trkpt lat="45.20461" lon="5.72577">
        <ele>613</ele>
        <time>2000-01-01T01:55:12.000Z</time>
      </trkpt>
      <trkpt lat="45.20453" lon="5.72565">
        <ele>612.7</ele>
        <time>2000-01-01T01:55:22.000Z</time>
      </trkpt>
      <trkpt lat="45.20445" lon="5.72543">
        <ele>613</ele>
        <time>2000-01-01T01:55:32.000Z</time>
      </trkpt>
      <trkpt lat="45.20442" lon="5.72529">
        <ele>615.9</ele>
        <time>2000-01-01T01:55:42.000Z</time>
      </trkpt>
      <trkpt lat="45.20442" lon="5.72523">
        <ele>616.8</ele>
        <time>2000-01-01T01:55:52.000Z</time>
      </trkpt>
      <trkpt lat="45.20444" lon="5.72517">
        <ele>617</ele>
        <time>2000-01-01T01:56:02.000Z</time>
      </trkpt>
      <trkpt lat="45.20449" lon="5.72516">
        <ele>620</ele>
        <time>2000-01-01T01:56:12.000Z</time>
      </trkpt>
      <trkpt lat="45.20453" lon="5.7252">
        <ele>620.7</ele>
        <time>2000-01-01T01:56:22.000Z</time>
      </trkpt>
      <trkpt lat="45.20455" lon="5.72527">
        <ele>620.5</ele>
        <time>2000-01-01T01:56:32.000Z</time>
      </trkpt>
      <trkpt lat="45.20458" lon="5.72533">
        <ele>619</ele>
        <time>2000-01-01T01:56:42.000Z</time>
      </trkpt>
      <trkpt lat="45.20483" lon="5.72564">
        <ele>623</ele>
        <time>2000-01-01T01:56:52.000Z</time>
      </trkpt>
      <trkpt lat="45.20489" lon="5.72566">
        <ele>623.7</ele>
        <time>2000-01-01T01:57:02.000Z</time>
      </trkpt>
      <trkpt lat="45.20491" lon="5.72564">
        <ele>624.5</ele>
        <time>2000-01-01T01:57:12.000Z</time>
      </trkpt>
      <trkpt lat="45.20497" lon="5.72571">
        <ele>624.9</ele>
        <time>2000-01-01T01:57:22.000Z</time>
      </trkpt>
      <trkpt lat="45.20504" lon="5.72578">
        <ele>624</ele>
        <time>2000-01-01T01:57:32.000Z</time>
      </trkpt>
      <trkpt lat="45.20514" lon="5.72576">
        <ele>625</ele>
        <time>2000-01-01T01:57:42.000Z</time>
      </trkpt>
      <trkpt lat="45.20524" lon="5.72574">
        <ele>628</ele>
        <time>2000-01-01T01:57:52.000Z</time>
      </trkpt>
      <trkpt lat="45.2053" lon="5.72568">
        <ele>626.9</ele>
        <time>2000-01-01T01:58:02.000Z</time>
      </trkpt>
      <trkpt lat="45.20543" lon="5.72561">
        <ele>628</ele>
        <time>2000-01-01T01:58:12.000Z</time>
      </trkpt>
      <trkpt lat="45.20562" lon="5.72562">
        <ele>629</ele>
        <time>2000-01-01T01:58:22.000Z</time>
      </trkpt>
      <trkpt lat="45.20574" lon="5.72566">
        <ele>630.9</ele>
        <time>2000-01-01T01:58:32.000Z</time>
      </trkpt>
      <trkpt lat="45.2058" lon="5.72569">
        <ele>631.9</ele>
        <time>2000-01-01T01:58:42.000Z</time>
      </trkpt>
      <trkpt lat="45.20588" lon="5.72574">
        <ele>631</ele>
        <time>2000-01-01T01:58:52.000Z</time>
      </trkpt>
      <trkpt lat="45.20602" lon="5.72584">
        <ele>633.6</ele>
        <time>2000-01-01T01:59:02.000Z</time>
      </trkpt>
      <trkpt lat="45.2061" lon="5.72593">
        <ele>634</ele>
        <time>2000-01-01T01:59:12.000Z</time>
      </trkpt>
      <trkpt lat="45.2062" lon="5.72603">
        <ele>634.6</ele>
        <time>2000-01-01T01:59:22.000Z</time>
      </trkpt>
      <trkpt lat="45.20625" lon="5.7261">
        <ele>635</ele>
        <time>2000-01-01T01:59:32.000Z</time>
      </trkpt>
      <trkpt lat="45.20632" lon="5.72624">
        <ele>636</ele>
        <time>2000-01-01T01:59:42.000Z</time>
      </trkpt>
      <trkpt lat="45.20652" lon="5.72602">
        <ele>638</ele>
        <time>2000-01-01T01:59:52.000Z</time>
      </trkpt>
      <trkpt lat="45.20655" lon="5.72598">
        <ele>639.9</ele>
        <time>2000-01-01T02:00:02.000Z</time>
      </trkpt>
      <trkpt lat="45.20659" lon="5.72592">
        <ele>640</ele>
        <time>2000-01-01T02:00:12.000Z</time>
      </trkpt>
      <trkpt lat="45.20669" lon="5.72583">
        <ele>638</ele>
        <time>2000-01-01T02:00:22.000Z</time>
      </trkpt>
      <trkpt lat="45.20686" lon="5.72573">
        <ele>643.5</ele>
        <time>2000-01-01T02:00:32.000Z</time>
      </trkpt>
      <trkpt lat="45.20693" lon="5.72571">
        <ele>644</ele>
        <time>2000-01-01T02:00:42.000Z</time>
      </trkpt>
      <trkpt lat="45.20698" lon="5.72572">
        <ele>646</ele>
        <time>2000-01-01T02:00:52.000Z</time>
      </trkpt>
      <trkpt lat="45.20704" lon="5.72574">
        <ele>647.3</ele>
        <time>2000-01-01T02:01:02.000Z</time>
      </trkpt>
      <trkpt lat="45.20715" lon="5.72583">
        <ele>648</ele>
        <time>2000-01-01T02:01:12.000Z</time>
      </trkpt>
      <trkpt lat="45.20722" lon="5.72573">
        <ele>650.1</ele>
        <time>2000-01-01T02:01:22.000Z</time>
      </trkpt>
      <trkpt lat="45.20731" lon="5.72563">
        <ele>649</ele>
        <time>2000-01-01T02:01:32.000Z</time>
      </trkpt>
      <trkpt lat="45.20737" lon="5.7256">
        <ele>649.1</ele>
        <time>2000-01-01T02:01:42.000Z</time>
      </trkpt>
      <trkpt lat="45.20742" lon="5.72558">
        <ele>649.1</ele>
        <time>2000-01-01T02:01:52.000Z</time>
      </trkpt>
      <trkpt lat="45.20763" lon="5.72556">
        <ele>650</ele>
        <time>2000-01-01T02:02:02.000Z</time>
      </trkpt>
      <trkpt lat="45.20787" lon="5.72562">
        <ele>659</ele>
        <time>2000-01-01T02:02:12.000Z</time>
      </trkpt>
      <trkpt lat="45.20812" lon="5.72568">
        <ele>671</ele>
        <time>2000-01-01T02:02:22.000Z</time>
      </trkpt>
      <trkpt lat="45.20818" lon="5.72574">
        <ele>677</ele>
        <time>2000-01-01T02:02:32.000Z</time>
      </trkpt>
      <trkpt lat="45.20823" lon="5.72581">
        <ele>680.7</ele>
        <time>2000-01-01T02:02:42.000Z</time>
      </trkpt>
      <trkpt lat="45.20826" lon="5.72588">
        <ele>678</ele>
        <time>2000-01-01T02:02:52.000Z</time>
      </trkpt>
      <trkpt lat="45.20827" lon="5.72592">
        <ele>685.4</ele>
        <time>2000-01-01T02:03:02.000Z</time>
      </trkpt>
      <trkpt lat="45.20823" lon="5.72604">
        <ele>687.2</ele>
        <time>2000-01-01T02:03:12.000Z</time>
      </trkpt>
      <trkpt lat="45.20823" lon="5.72612">
        <ele>689.4</ele>
        <time>2000-01-01T02:03:22.000Z</time>
      </trkpt>
      <trkpt lat="45.20824" lon="5.72616">
        <ele>686</ele>
        <time>2000-01-01T02:03:32.000Z</time>
      </trkpt>
      <trkpt lat="45.20838" lon="5.7263">
        <ele>698.2</ele>
        <time>2000-01-01T02:03:42.000Z</time>
      </trkpt>
      <trkpt lat="45.20838" lon="5.72638">
        <ele>696</ele>
        <time>2000-01-01T02:03:52.000Z</time>
      </trkpt>
      <trkpt lat="45.20835" lon="5.7265">
        <ele>699.8</ele>
        <time>2000-01-01T02:04:02.000Z</time>
      </trkpt>
      <trkpt lat="45.20835" lon="5.72651">
        <ele>699.9</ele>
        <time>2000-01-01T02:04:12.000Z</time>
      </trkpt>
      <trkpt lat="45.20837" lon="5.7265">
        <ele>700.5</ele>
        <time>2000-01-01T02:04:22.000Z</time>
      </trkpt>
      <trkpt lat="45.20841" lon="5.72644">
        <ele>701.3</ele>
        <time>2000-01-01T02:04:32.000Z</time>
      </trkpt>
      <trkpt lat="45.2086" lon="5.72622">
        <ele>706</ele>
        <time>2000-01-01T02:04:42.000Z</time>
      </trkpt>
      <trkpt lat="45.20869" lon="5.72612">
        <ele>710.3</ele>
        <time>2000-01-01T02:04:52.000Z</time>
      </trkpt>
      <trkpt lat="45.20874" lon="5.72609">
        <ele>712.6</ele>
        <time>2000-01-01T02:05:02.000Z</time>
      </trkpt>
      <trkpt lat="45.20878" lon="5.72609">
        <ele>712</ele>
        <time>2000-01-01T02:05:12.000Z</time>
      </trkpt>
      <trkpt lat="45.20896" lon="5.72614">
        <ele>721</ele>
        <time>2000-01-01T02:05:22.000Z</time>
      </trkpt>
      <trkpt lat="45.20904" lon="5.72621">
        <ele>725</ele>
        <time>2000-01-01T02:05:32.000Z</time>
      </trkpt>
      <trkpt lat="45.20916" lon="5.72631">
        <ele>723.8</ele>
        <time>2000-01-01T02:05:42.000Z</time>
      </trkpt>
      <trkpt lat="45.20928" lon="5.72644">
        <ele>725</ele>
        <time>2000-01-01T02:05:52.000Z</time>
      </trkpt>
      <trkpt lat="45.20942" lon="5.72663">
        <ele>728</ele>
        <time>2000-01-01T02:06:02.000Z</time>
      </trkpt>
      <trkpt lat="45.2096" lon="5.72686">
        <ele>730</ele>
        <time>2000-01-01T02:06:12.000Z</time>
      </trkpt>
      <trkpt lat="45.20973" lon="5.72704">
        <ele>741.2</ele>
        <time>2000-01-01T02:06:22.000Z</time>
      </trkpt>
      <trkpt lat="45.2098" lon="5.72712">
        <ele>746</ele>
        <time>2000-01-01T02:06:32.000Z</time>
      </trkpt>
      <trkpt lat="45.20996" lon="5.7272">
        <ele>751.6</ele>
        <time>2000-01-01T02:06:42.000Z</time>
      </trkpt>
      <trkpt lat="45.21003" lon="5.72721">
        <ele>753</ele>
        <time>2000-01-01T02:06:52.000Z</time>
      </trkpt>
      <trkpt lat="45.21012" lon="5.72729">
        <ele>758.6</ele>
        <time>2000-01-01T02:07:02.000Z</time>
      </trkpt>
      <trkpt lat="45.21017" lon="5.72734">
        <ele>761.5</ele>
        <time>2000-01-01T02:07:12.000Z</time>
      </trkpt>
      <trkpt lat="45.2102" lon="5.72737">
        <ele>762</ele>
        <time>2000-01-01T02:07:22.000Z</time>
      </trkpt>
      <trkpt lat="45.21023" lon="5.72737">
        <ele>764.6</ele>
        <time>2000-01-01T02:07:32.000Z</time>
      </trkpt>
      <trkpt lat="45.21031" lon="5.72733">
        <ele>765.9</ele>
        <time>2000-01-01T02:07:42.000Z</time>
      </trkpt>
      <trkpt lat="45.21033" lon="5.72733">
        <ele>766.5</ele>
        <time>2000-01-01T02:07:52.000Z</time>
      </trkpt>
      <trkpt lat="45.21037" lon="5.72736">
        <ele>768.6</ele>
        <time>2000-01-01T02:08:02.000Z</time>
      </trkpt>
      <trkpt lat="45.21051" lon="5.72749">
        <ele>774</ele>
        <time>2000-01-01T02:08:12.000Z</time>
      </trkpt>
      <trkpt lat="45.21058" lon="5.72752">
        <ele>776.8</ele>
        <time>2000-01-01T02:08:22.000Z</time>
      </trkpt>
      <trkpt lat="45.21051" lon="5.72749">
        <ele>775</ele>
        <time>2000-01-01T02:08:32.000Z</time>
      </trkpt>
      <trkpt lat="45.21059" lon="5.72761">
        <ele>775</ele>
        <time>2000-01-01T02:08:42.000Z</time>
      </trkpt>
      <trkpt lat="45.2107" lon="5.72782">
        <ele>782.7</ele>
        <time>2000-01-01T02:08:52.000Z</time>
      </trkpt>
      <trkpt lat="45.2109" lon="5.72817">
        <ele>778</ele>
        <time>2000-01-01T02:09:02.000Z</time>
      </trkpt>
      <trkpt lat="45.21091" lon="5.7282">
        <ele>785</ele>
        <time>2000-01-01T02:09:12.000Z</time>
      </trkpt>
      <trkpt lat="45.21095" lon="5.72827">
        <ele>786</ele>
        <time>2000-01-01T02:09:22.000Z</time>
      </trkpt>
      <trkpt lat="45.21097" lon="5.7284">
        <ele>784.5</ele>
        <time>2000-01-01T02:09:32.000Z</time>
      </trkpt>
      <trkpt lat="45.21099" lon="5.72847">
        <ele>780</ele>
        <time>2000-01-01T02:09:42.000Z</time>
      </trkpt>
      <trkpt lat="45.21102" lon="5.72853">
        <ele>783.4</ele>
        <time>2000-01-01T02:09:52.000Z</time>
      </trkpt>
      <trkpt lat="45.21107" lon="5.7286">
        <ele>783.1</ele>
        <time>2000-01-01T02:10:02.000Z</time>
      </trkpt>
      <trkpt lat="45.21113" lon="5.72865">
        <ele>783</ele>
        <time>2000-01-01T02:10:12.000Z</time>
      </trkpt>
      <trkpt lat="45.2112" lon="5.72873">
        <ele>786.3</ele>
        <time>2000-01-01T02:10:22.000Z</time>
      </trkpt>
      <trkpt lat="45.21126" lon="5.72877">
        <ele>787.8</ele>
        <time>2000-01-01T02:10:32.000Z</time>
      </trkpt>
      <trkpt lat="45.21131" lon="5.72881">
        <ele>787</ele>
        <time>2000-01-01T02:10:42.000Z</time>
      </trkpt>
      <trkpt lat="45.21136" lon="5.72881">
        <ele>790.5</ele>
        <time>2000-01-01T02:10:52.000Z</time>
      </trkpt>
      <trkpt lat="45.21145" lon="5.7288">
        <ele>793.1</ele>
        <time>2000-01-01T02:11:02.000Z</time>
      </trkpt>
      <trkpt lat="45.21148" lon="5.7288">
        <ele>793.8</ele>
        <time>2000-01-01T02:11:12.000Z</time>
      </trkpt>
      <trkpt lat="45.21154" lon="5.72891">
        <ele>792</ele>
        <time>2000-01-01T02:11:22.000Z</time>
      </trkpt>
      <trkpt lat="45.21163" lon="5.729">
        <ele>792.8</ele>
        <time>2000-01-01T02:11:32.000Z</time>
      </trkpt>
      <trkpt lat="45.21168" lon="5.72901">
        <ele>794.1</ele>
        <time>2000-01-01T02:11:42.000Z</time>
      </trkpt>
      <trkpt lat="45.21171" lon="5.72901">
        <ele>794</ele>
        <time>2000-01-01T02:11:52.000Z</time>
      </trkpt>
      <trkpt lat="45.21197" lon="5.7292">
        <ele>797</ele>
        <time>2000-01-01T02:12:02.000Z</time>
      </trkpt>
      <trkpt lat="45.21199" lon="5.72921">
        <ele>802.9</ele>
        <time>2000-01-01T02:12:12.000Z</time>
      </trkpt>
      <trkpt lat="45.21203" lon="5.72922">
        <ele>804.4</ele>
        <time>2000-01-01T02:12:22.000Z</time>
      </trkpt>
      <trkpt lat="45.21212" lon="5.72919">
        <ele>809</ele>
        <time>2000-01-01T02:12:32.000Z</time>
      </trkpt>
      <trkpt lat="45.21216" lon="5.72916">
        <ele>810</ele>
        <time>2000-01-01T02:12:42.000Z</time>
      </trkpt>
      <trkpt lat="45.21219" lon="5.72918">
        <ele>812.3</ele>
        <time>2000-01-01T02:12:52.000Z</time>
      </trkpt>
      <trkpt lat="45.21223" lon="5.72922">
        <ele>813</ele>
        <time>2000-01-01T02:13:02.000Z</time>
      </trkpt>
      <trkpt lat="45.21225" lon="5.72924">
        <ele>812.9</ele>
        <time>2000-01-01T02:13:12.000Z</time>
      </trkpt>
      <trkpt lat="45.21229" lon="5.72931">
        <ele>812.5</ele>
        <time>2000-01-01T02:13:22.000Z</time>
      </trkpt>
      <trkpt lat="45.21233" lon="5.72934">
        <ele>814</ele>
        <time>2000-01-01T02:13:32.000Z</time>
      </trkpt>
      <trkpt lat="45.21247" lon="5.7294">
        <ele>817.5</ele>
        <time>2000-01-01T02:13:42.000Z</time>
      </trkpt>
      <trkpt lat="45.2125" lon="5.7294">
        <ele>818.5</ele>
        <time>2000-01-01T02:13:52.000Z</time>
      </trkpt>
      <trkpt lat="45.21257" lon="5.72947">
        <ele>819</ele>
        <time>2000-01-01T02:14:02.000Z</time>
      </trkpt>
      <trkpt lat="45.21268" lon="5.72951">
        <ele>823.6</ele>
        <time>2000-01-01T02:14:12.000Z</time>
      </trkpt>
      <trkpt lat="45.21286" lon="5.72967">
        <ele>828</ele>
        <time>2000-01-01T02:14:22.000Z</time>
      </trkpt>
      <trkpt lat="45.21291" lon="5.7297">
        <ele>831.6</ele>
        <time>2000-01-01T02:14:32.000Z</time>
      </trkpt>
      <trkpt lat="45.21293" lon="5.72972">
        <ele>832.5</ele>
        <time>2000-01-01T02:14:42.000Z</time>
      </trkpt>
      <trkpt lat="45.21295" lon="5.72977">
        <ele>832.3</ele>
        <time>2000-01-01T02:14:52.000Z</time>
      </trkpt>
      <trkpt lat="45.21297" lon="5.7298">
        <ele>832.5</ele>
        <time>2000-01-01T02:15:02.000Z</time>
      </trkpt>
      <trkpt lat="45.21302" lon="5.72982">
        <ele>833</ele>
        <time>2000-01-01T02:15:12.000Z</time>
      </trkpt>
      <trkpt lat="45.2131" lon="5.72992">
        <ele>836.6</ele>
        <time>2000-01-01T02:15:22.000Z</time>
      </trkpt>
      <trkpt lat="45.21319" lon="5.73002">
        <ele>834</ele>
        <time>2000-01-01T02:15:32.000Z</time>
      </trkpt>
      <trkpt lat="45.21339" lon="5.73031">
        <ele>840</ele>
        <time>2000-01-01T02:15:42.000Z</time>
      </trkpt>
      <trkpt lat="45.21348" lon="5.73044">
        <ele>848.6</ele>
        <time>2000-01-01T02:15:52.000Z</time>
      </trkpt>
      <trkpt lat="45.21355" lon="5.73057">
        <ele>846</ele>
        <time>2000-01-01T02:16:02.000Z</time>
      </trkpt>
      <trkpt lat="45.21361" lon="5.73064">
        <ele>851.9</ele>
        <time>2000-01-01T02:16:12.000Z</time>
      </trkpt>
      <trkpt lat="45.2137" lon="5.73071">
        <ele>855.3</ele>
        <time>2000-01-01T02:16:22.000Z</time>
      </trkpt>
      <trkpt lat="45.21375" lon="5.73082">
        <ele>851</ele>
        <time>2000-01-01T02:16:32.000Z</time>
      </trkpt>
      <trkpt lat="45.21402" lon="5.7312">
        <ele>852</ele>
        <time>2000-01-01T02:16:42.000Z</time>
      </trkpt>
      <trkpt lat="45.21415" lon="5.73137">
        <ele>860.4</ele>
        <time>2000-01-01T02:16:52.000Z</time>
      </trkpt>
      <trkpt lat="45.21416" lon="5.73141">
        <ele>854</ele>
        <time>2000-01-01T02:17:02.000Z</time>
      </trkpt>
      <trkpt lat="45.21435" lon="5.73159">
        <ele>861</ele>
        <time>2000-01-01T02:17:12.000Z</time>
      </trkpt>
      <trkpt lat="45.21444" lon="5.73165">
        <ele>856.9</ele>
        <time>2000-01-01T02:17:22.000Z</time>
      </trkpt>
      <trkpt lat="45.21453" lon="5.73169">
        <ele>861</ele>
        <time>2000-01-01T02:17:32.000Z</time>
      </trkpt>
      <trkpt lat="45.21458" lon="5.73177">
        <ele>864.1</ele>
        <time>2000-01-01T02:17:42.000Z</time>
      </trkpt>
      <trkpt lat="45.21461" lon="5.73182">
        <ele>865.4</ele>
        <time>2000-01-01T02:17:52.000Z</time>
      </trkpt>
      <trkpt lat="45.21462" lon="5.73186">
        <ele>865.2</ele>
        <time>2000-01-01T02:18:02.000Z</time>
      </trkpt>
      <trkpt lat="45.21466" lon="5.73192">
        <ele>861</ele>
        <time>2000-01-01T02:18:12.000Z</time>
      </trkpt>
      <trkpt lat="45.21468" lon="5.73198">
        <ele>868.2</ele>
        <time>2000-01-01T02:18:22.000Z</time>
      </trkpt>
      <trkpt lat="45.21469" lon="5.73206">
        <ele>868.8</ele>
        <time>2000-01-01T02:18:32.000Z</time>
      </trkpt>
      <trkpt lat="45.21476" lon="5.73222">
        <ele>870</ele>
        <time>2000-01-01T02:18:42.000Z</time>
      </trkpt>
      <trkpt lat="45.21486" lon="5.73235">
        <ele>876.3</ele>
        <time>2000-01-01T02:18:52.000Z</time>
      </trkpt>
      <trkpt lat="45.21496" lon="5.73245">
        <ele>872</ele>
        <time>2000-01-01T02:19:02.000Z</time>
      </trkpt>
      <trkpt lat="45.21507" lon="5.73262">
        <ele>884.3</ele>
        <time>2000-01-01T02:19:12.000Z</time>
      </trkpt>
      <trkpt lat="45.21509" lon="5.73266">
        <ele>875</ele>
        <time>2000-01-01T02:19:22.000Z</time>
      </trkpt>
      <trkpt lat="45.2151" lon="5.73278">
        <ele>882.9</ele>
        <time>2000-01-01T02:19:32.000Z</time>
      </trkpt>
      <trkpt lat="45.21512" lon="5.73291">
        <ele>881.1</ele>
        <time>2000-01-01T02:19:42.000Z</time>
      </trkpt>
      <trkpt lat="45.21515" lon="5.73316">
        <ele>881</ele>
        <time>2000-01-01T02:19:52.000Z</time>
      </trkpt>
      <trkpt lat="45.21517" lon="5.73317">
        <ele>876.9</ele>
        <time>2000-01-01T02:20:02.000Z</time>
      </trkpt>
      <trkpt lat="45.21544" lon="5.73321">
        <ele>888</ele>
        <time>2000-01-01T02:20:12.000Z</time>
      </trkpt>
      <trkpt lat="45.21555" lon="5.73324">
        <ele>891.2</ele>
        <time>2000-01-01T02:20:22.000Z</time>
      </trkpt>
      <trkpt lat="45.21569" lon="5.7333">
        <ele>889</ele>
        <time>2000-01-01T02:20:32.000Z</time>
      </trkpt>
      <trkpt lat="45.21579" lon="5.73339">
        <ele>894.3</ele>
        <time>2000-01-01T02:20:42.000Z</time>
      </trkpt>
      <trkpt lat="45.21591" lon="5.73348">
        <ele>897</ele>
        <time>2000-01-01T02:20:52.000Z</time>
      </trkpt>
      <trkpt lat="45.216" lon="5.73361">
        <ele>898.6</ele>
        <time>2000-01-01T02:21:02.000Z</time>
      </trkpt>
      <trkpt lat="45.21607" lon="5.73371">
        <ele>897</ele>
        <time>2000-01-01T02:21:12.000Z</time>
      </trkpt>
      <trkpt lat="45.2161" lon="5.73374">
        <ele>900.2</ele>
        <time>2000-01-01T02:21:22.000Z</time>
      </trkpt>
      <trkpt lat="45.21623" lon="5.73385">
        <ele>903</ele>
        <time>2000-01-01T02:21:32.000Z</time>
      </trkpt>
      <trkpt lat="45.21628" lon="5.73388">
        <ele>902</ele>
        <time>2000-01-01T02:21:42.000Z</time>
      </trkpt>
      <trkpt lat="45.21639" lon="5.73397">
        <ele>906.1</ele>
        <time>2000-01-01T02:21:52.000Z</time>
      </trkpt>
      <trkpt lat="45.21642" lon="5.734">
        <ele>906.8</ele>
        <time>2000-01-01T02:22:02.000Z</time>
      </trkpt>
      <trkpt lat="45.21646" lon="5.73406">
        <ele>905</ele>
        <time>2000-01-01T02:22:12.000Z</time>
      </trkpt>
      <trkpt lat="45.21661" lon="5.73437">
        <ele>906</ele>
        <time>2000-01-01T02:22:22.000Z</time>
      </trkpt>
      <trkpt lat="45.21663" lon="5.73447">
        <ele>910</ele>
        <time>2000-01-01T02:22:32.000Z</time>
      </trkpt>
      <trkpt lat="45.21667" lon="5.7347">
        <ele>907</ele>
        <time>2000-01-01T02:22:42.000Z</time>
      </trkpt>
      <trkpt lat="45.2167" lon="5.73481">
        <ele>910</ele>
        <time>2000-01-01T02:22:52.000Z</time>
      </trkpt>
      <trkpt lat="45.21673" lon="5.73487">
        <ele>909.8</ele>
        <time>2000-01-01T02:23:02.000Z</time>
      </trkpt>
      <trkpt lat="45.2168" lon="5.7349">
        <ele>911</ele>
        <time>2000-01-01T02:23:12.000Z</time>
      </trkpt>
      <trkpt lat="45.21702" lon="5.73496">
        <ele>913</ele>
        <time>2000-01-01T02:23:22.000Z</time>
      </trkpt>
      <trkpt lat="45.21717" lon="5.73502">
        <ele>914.8</ele>
        <time>2000-01-01T02:23:32.000Z</time>
      </trkpt>
      <trkpt lat="45.21725" lon="5.73507">
        <ele>915</ele>
        <time>2000-01-01T02:23:42.000Z</time>
      </trkpt>
      <trkpt lat="45.21731" lon="5.73515">
        <ele>912.3</ele>
        <time>2000-01-01T02:23:52.000Z</time>
      </trkpt>
      <trkpt lat="45.21737" lon="5.73519">
        <ele>912</ele>
        <time>2000-01-01T02:24:02.000Z</time>
      </trkpt>
      <trkpt lat="45.21765" lon="5.73525">
        <ele>913</ele>
        <time>2000-01-01T02:24:12.000Z</time>
      </trkpt>
      <trkpt lat="45.21774" lon="5.7353">
        <ele>914.9</ele>
        <time>2000-01-01T02:24:22.000Z</time>
      </trkpt>
      <trkpt lat="45.21782" lon="5.73537">
        <ele>913.5</ele>
        <time>2000-01-01T02:24:32.000Z</time>
      </trkpt>
      <trkpt lat="45.21785" lon="5.7354">
        <ele>911</ele>
        <time>2000-01-01T02:24:42.000Z</time>
      </trkpt>
      <trkpt lat="45.21793" lon="5.73553">
        <ele>910</ele>
        <time>2000-01-01T02:24:52.000Z</time>
      </trkpt>
      <trkpt lat="45.21794" lon="5.73556">
        <ele>909</ele>
        <time>2000-01-01T02:25:02.000Z</time>
      </trkpt>
      <trkpt lat="45.21796" lon="5.73565">
        <ele>908</ele>
        <time>2000-01-01T02:25:12.000Z</time>
      </trkpt>
      <trkpt lat="45.21798" lon="5.73569">
        <ele>905.7</ele>
        <time>2000-01-01T02:25:22.000Z</time>
      </trkpt>
      <trkpt lat="45.21813" lon="5.73586">
        <ele>906</ele>
        <time>2000-01-01T02:25:32.000Z</time>
      </trkpt>
      <trkpt lat="45.21821" lon="5.73597">
        <ele>903</ele>
        <time>2000-01-01T02:25:42.000Z</time>
      </trkpt>
      <trkpt lat="45.21826" lon="5.73608">
        <ele>900</ele>
        <time>2000-01-01T02:25:52.000Z</time>
      </trkpt>
      <trkpt lat="45.21839" lon="5.73637">
        <ele>899</ele>
        <time>2000-01-01T02:26:02.000Z</time>
      </trkpt>
      <trkpt lat="45.21843" lon="5.73647">
        <ele>897.1</ele>
        <time>2000-01-01T02:26:12.000Z</time>
      </trkpt>
      <trkpt lat="45.21846" lon="5.73651">
        <ele>897.1</ele>
        <time>2000-01-01T02:26:22.000Z</time>
      </trkpt>
      <trkpt lat="45.21863" lon="5.73666">
        <ele>898</ele>
        <time>2000-01-01T02:26:32.000Z</time>
      </trkpt>
      <trkpt lat="45.21879" lon="5.73685">
        <ele>898</ele>
        <time>2000-01-01T02:26:42.000Z</time>
      </trkpt>
      <trkpt lat="45.21883" lon="5.73693">
        <ele>898.5</ele>
        <time>2000-01-01T02:26:52.000Z</time>
      </trkpt>
      <trkpt lat="45.21889" lon="5.73702">
        <ele>897.7</ele>
        <time>2000-01-01T02:27:02.000Z</time>
      </trkpt>
      <trkpt lat="45.21892" lon="5.73705">
        <ele>895</ele>
        <time>2000-01-01T02:27:12.000Z</time>
      </trkpt>
      <trkpt lat="45.21912" lon="5.73711">
        <ele>893</ele>
        <time>2000-01-01T02:27:22.000Z</time>
      </trkpt>
      <trkpt lat="45.21923" lon="5.73718">
        <ele>890.7</ele>
        <time>2000-01-01T02:27:32.000Z</time>
      </trkpt>
      <trkpt lat="45.21939" lon="5.73731">
        <ele>885</ele>
        <time>2000-01-01T02:27:42.000Z</time>
      </trkpt>
      <trkpt lat="45.21946" lon="5.73738">
        <ele>887</ele>
        <time>2000-01-01T02:27:52.000Z</time>
      </trkpt>
      <trkpt lat="45.21952" lon="5.73747">
        <ele>886.6</ele>
        <time>2000-01-01T02:28:02.000Z</time>
      </trkpt>
      <trkpt lat="45.21959" lon="5.73761">
        <ele>880</ele>
        <time>2000-01-01T02:28:12.000Z</time>
      </trkpt>
      <trkpt lat="45.21966" lon="5.73784">
        <ele>882.1</ele>
        <time>2000-01-01T02:28:22.000Z</time>
      </trkpt>
      <trkpt lat="45.2197" lon="5.7379">
        <ele>878</ele>
        <time>2000-01-01T02:28:32.000Z</time>
      </trkpt>
      <trkpt lat="45.21982" lon="5.73803">
        <ele>879.6</ele>
        <time>2000-01-01T02:28:42.000Z</time>
      </trkpt>
      <trkpt lat="45.22028" lon="5.73842">
        <ele>871</ele>
        <time>2000-01-01T02:28:52.000Z</time>
      </trkpt>
      <trkpt lat="45.22046" lon="5.73856">
        <ele>871</ele>
        <time>2000-01-01T02:29:02.000Z</time>
      </trkpt>
      <trkpt lat="45.22063" lon="5.73867">
        <ele>870</ele>
        <time>2000-01-01T02:29:12.000Z</time>
      </trkpt>
      <trkpt lat="45.22076" lon="5.73875">
        <ele>868.9</ele>
        <time>2000-01-01T02:29:22.000Z</time>
      </trkpt>
      <trkpt lat="45.22096" lon="5.73883">
        <ele>870</ele>
        <time>2000-01-01T02:29:32.000Z</time>
      </trkpt>
      <trkpt lat="45.22131" lon="5.73896">
        <ele>874</ele>
        <time>2000-01-01T02:29:42.000Z</time>
      </trkpt>
      <trkpt lat="45.22142" lon="5.73902">
        <ele>873.7</ele>
        <time>2000-01-01T02:29:52.000Z</time>
      </trkpt>
      <trkpt lat="45.22161" lon="5.73909">
        <ele>875</ele>
        <time>2000-01-01T02:30:02.000Z</time>
      </trkpt>
      <trkpt lat="45.22167" lon="5.73913">
        <ele>876.6</ele>
        <time>2000-01-01T02:30:12.000Z</time>
      </trkpt>
      <trkpt lat="45.22186" lon="5.73926">
        <ele>877</ele>
        <time>2000-01-01T02:30:22.000Z</time>
      </trkpt>
      <trkpt lat="45.22215" lon="5.73952">
        <ele>878</ele>
        <time>2000-01-01T02:30:32.000Z</time>
      </trkpt>
      <trkpt lat="45.22238" lon="5.73968">
        <ele>886</ele>
        <time>2000-01-01T02:30:42.000Z</time>
      </trkpt>
      <trkpt lat="45.22263" lon="5.73986">
        <ele>888</ele>
        <time>2000-01-01T02:30:52.000Z</time>
      </trkpt>
      <trkpt lat="45.22294" lon="5.74006">
        <ele>891</ele>
        <time>2000-01-01T02:31:02.000Z</time>
      </trkpt>
      <trkpt lat="45.22326" lon="5.74026">
        <ele>891</ele>
        <time>2000-01-01T02:31:12.000Z</time>
      </trkpt>
      <trkpt lat="45.22376" lon="5.74059">
        <ele>894</ele>
        <time>2000-01-01T02:31:22.000Z</time>
      </trkpt>
      <trkpt lat="45.22395" lon="5.74075">
        <ele>892</ele>
        <time>2000-01-01T02:31:32.000Z</time>
      </trkpt>
      <trkpt lat="45.22403" lon="5.74089">
        <ele>894.9</ele>
        <time>2000-01-01T02:31:42.000Z</time>
      </trkpt>
      <trkpt lat="45.22416" lon="5.74104">
        <ele>891</ele>
        <time>2000-01-01T02:31:52.000Z</time>
      </trkpt>
      <trkpt lat="45.22431" lon="5.7413">
        <ele>890</ele>
        <time>2000-01-01T02:32:02.000Z</time>
      </trkpt>
      <trkpt lat="45.22439" lon="5.74141">
        <ele>888.2</ele>
        <time>2000-01-01T02:32:12.000Z</time>
      </trkpt>
      <trkpt lat="45.22448" lon="5.74156">
        <ele>885</ele>
        <time>2000-01-01T02:32:22.000Z</time>
      </trkpt>
      <trkpt lat="45.22459" lon="5.74172">
        <ele>884.2</ele>
        <time>2000-01-01T02:32:32.000Z</time>
      </trkpt>
      <trkpt lat="45.2248" lon="5.74195">
        <ele>885</ele>
        <time>2000-01-01T02:32:42.000Z</time>
      </trkpt>
      <trkpt lat="45.22497" lon="5.74209">
        <ele>880.6</ele>
        <time>2000-01-01T02:32:52.000Z</time>
      </trkpt>
      <trkpt lat="45.22513" lon="5.7422">
        <ele>880</ele>
        <time>2000-01-01T02:33:02.000Z</time>
      </trkpt>
      <trkpt lat="45.22549" lon="5.74238">
        <ele>877</ele>
        <time>2000-01-01T02:33:12.000Z</time>
      </trkpt>
      <trkpt lat="45.22575" lon="5.74252">
        <ele>873</ele>
        <time>2000-01-01T02:33:22.000Z</time>
      </trkpt>
      <trkpt lat="45.22583" lon="5.74255">
        <ele>872</ele>
        <time>2000-01-01T02:33:32.000Z</time>
      </trkpt>
      <trkpt lat="45.22592" lon="5.74259">
        <ele>870.7</ele>
        <time>2000-01-01T02:33:42.000Z</time>
      </trkpt>
      <trkpt lat="45.2261" lon="5.74262">
        <ele>870</ele>
        <time>2000-01-01T02:33:52.000Z</time>
      </trkpt>
      <trkpt lat="45.22629" lon="5.74268">
        <ele>870</ele>
        <time>2000-01-01T02:34:02.000Z</time>
      </trkpt>
      <trkpt lat="45.22646" lon="5.74274">
        <ele>865.1</ele>
        <time>2000-01-01T02:34:12.000Z</time>
      </trkpt>
      <trkpt lat="45.22658" lon="5.74279">
        <ele>865</ele>
        <time>2000-01-01T02:34:22.000Z</time>
      </trkpt>
      <trkpt lat="45.22672" lon="5.74283">
        <ele>860.8</ele>
        <time>2000-01-01T02:34:32.000Z</time>
      </trkpt>
      <trkpt lat="45.22682" lon="5.74289">
        <ele>862</ele>
        <time>2000-01-01T02:34:42.000Z</time>
      </trkpt>
      <trkpt lat="45.2269" lon="5.74296">
        <ele>859.6</ele>
        <time>2000-01-01T02:34:52.000Z</time>
      </trkpt>
      <trkpt lat="45.22702" lon="5.74313">
        <ele>858</ele>
        <time>2000-01-01T02:35:02.000Z</time>
      </trkpt>
      <trkpt lat="45.22729" lon="5.74331">
        <ele>854</ele>
        <time>2000-01-01T02:35:12.000Z</time>
      </trkpt>
      <trkpt lat="45.22773" lon="5.74361">
        <ele>849</ele>
        <time>2000-01-01T02:35:22.000Z</time>
      </trkpt>
      <trkpt lat="45.22801" lon="5.74382">
        <ele>847</ele>
        <time>2000-01-01T02:35:32.000Z</time>
      </trkpt>
      <trkpt lat="45.22823" lon="5.74396">
        <ele>846</ele>
        <time>2000-01-01T02:35:42.000Z</time>
      </trkpt>
      <trkpt lat="45.22846" lon="5.7441">
        <ele>839</ele>
        <time>2000-01-01T02:35:52.000Z</time>
      </trkpt>
      <trkpt lat="45.22862" lon="5.74423">
        <ele>838</ele>
        <time>2000-01-01T02:36:02.000Z</time>
      </trkpt>
      <trkpt lat="45.2287" lon="5.74429">
        <ele>837.5</ele>
        <time>2000-01-01T02:36:12.000Z</time>
      </trkpt>
      <trkpt lat="45.22888" lon="5.74446">
        <ele>836</ele>
        <time>2000-01-01T02:36:22.000Z</time>
      </trkpt>
      <trkpt lat="45.22909" lon="5.74465">
        <ele>833</ele>
        <time>2000-01-01T02:36:32.000Z</time>
      </trkpt>
      <trkpt lat="45.22933" lon="5.74487">
        <ele>830</ele>
        <time>2000-01-01T02:36:42.000Z</time>
      </trkpt>
      <trkpt lat="45.22942" lon="5.74496">
        <ele>827.8</ele>
        <time>2000-01-01T02:36:52.000Z</time>
      </trkpt>
      <trkpt lat="45.22957" lon="5.74516">
        <ele>824</ele>
        <time>2000-01-01T02:37:02.000Z</time>
      </trkpt>
      <trkpt lat="45.22975" lon="5.74536">
        <ele>823</ele>
        <time>2000-01-01T02:37:12.000Z</time>
      </trkpt>
      <trkpt lat="45.22995" lon="5.74562">
        <ele>817</ele>
        <time>2000-01-01T02:37:22.000Z</time>
      </trkpt>
      <trkpt lat="45.23014" lon="5.74586">
        <ele>816</ele>
        <time>2000-01-01T02:37:32.000Z</time>
      </trkpt>
      <trkpt lat="45.23034" lon="5.74609">
        <ele>814</ele>
        <time>2000-01-01T02:37:42.000Z</time>
      </trkpt>
      <trkpt lat="45.23058" lon="5.74635">
        <ele>810</ele>
        <time>2000-01-01T02:37:52.000Z</time>
      </trkpt>
      <trkpt lat="45.23078" lon="5.74663">
        <ele>803</ele>
        <time>2000-01-01T02:38:02.000Z</time>
      </trkpt>
      <trkpt lat="45.23108" lon="5.74705">
        <ele>801</ele>
        <time>2000-01-01T02:38:12.000Z</time>
      </trkpt>
      <trkpt lat="45.23117" lon="5.74716">
        <ele>801.9</ele>
        <time>2000-01-01T02:38:22.000Z</time>
      </trkpt>
      <trkpt lat="45.23123" lon="5.74727">
        <ele>801</ele>
        <time>2000-01-01T02:38:32.000Z</time>
      </trkpt>
      <trkpt lat="45.23126" lon="5.74733">
        <ele>799.6</ele>
        <time>2000-01-01T02:38:42.000Z</time>
      </trkpt>
      <trkpt lat="45.2314" lon="5.74753">
        <ele>798</ele>
        <time>2000-01-01T02:38:52.000Z</time>
      </trkpt>
      <trkpt lat="45.23147" lon="5.74766">
        <ele>796.7</ele>
        <time>2000-01-01T02:39:02.000Z</time>
      </trkpt>
      <trkpt lat="45.23152" lon="5.74776">
        <ele>796</ele>
        <time>2000-01-01T02:39:12.000Z</time>
      </trkpt>
      <trkpt lat="45.23157" lon="5.74785">
        <ele>794.5</ele>
        <time>2000-01-01T02:39:22.000Z</time>
      </trkpt>
      <trkpt lat="45.23182" lon="5.74832">
        <ele>790</ele>
        <time>2000-01-01T02:39:32.000Z</time>
      </trkpt>
      <trkpt lat="45.23188" lon="5.7484">
        <ele>789.4</ele>
        <time>2000-01-01T02:39:42.000Z</time>
      </trkpt>
      <trkpt lat="45.23194" lon="5.74845">
        <ele>789.8</ele>
        <time>2000-01-01T02:39:52.000Z</time>
      </trkpt>
      <trkpt lat="45.23208" lon="5.74856">
        <ele>788</ele>
        <time>2000-01-01T02:40:02.000Z</time>
      </trkpt>
      <trkpt lat="45.23211" lon="5.74859">
        <ele>787.5</ele>
        <time>2000-01-01T02:40:12.000Z</time>
      </trkpt>
      <trkpt lat="45.23215" lon="5.74863">
        <ele>786.8</ele>
        <time>2000-01-01T02:40:22.000Z</time>
      </trkpt>
      <trkpt lat="45.23219" lon="5.74876">
        <ele>783.8</ele>
        <time>2000-01-01T02:40:32.000Z</time>
      </trkpt>
      <trkpt lat="45.23221" lon="5.74882">
        <ele>782</ele>
        <time>2000-01-01T02:40:42.000Z</time>
      </trkpt>
      <trkpt lat="45.23229" lon="5.74898">
        <ele>781.3</ele>
        <time>2000-01-01T02:40:52.000Z</time>
      </trkpt>
      <trkpt lat="45.23231" lon="5.74901">
        <ele>781.3</ele>
        <time>2000-01-01T02:41:02.000Z</time>
      </trkpt>
      <trkpt lat="45.23239" lon="5.7491">
        <ele>778</ele>
        <time>2000-01-01T02:41:12.000Z</time>
      </trkpt>
      <trkpt lat="45.23243" lon="5.74914">
        <ele>781.7</ele>
        <time>2000-01-01T02:41:22.000Z</time>
      </trkpt>
      <trkpt lat="45.23268" lon="5.74944">
        <ele>778</ele>
        <time>2000-01-01T02:41:32.000Z</time>
      </trkpt>
      <trkpt lat="45.23274" lon="5.74952">
        <ele>778.9</ele>
        <time>2000-01-01T02:41:42.000Z</time>
      </trkpt>
      <trkpt lat="45.23279" lon="5.74963">
        <ele>777</ele>
        <time>2000-01-01T02:41:52.000Z</time>
      </trkpt>
      <trkpt lat="45.23284" lon="5.74972">
        <ele>775</ele>
        <time>2000-01-01T02:42:02.000Z</time>
      </trkpt>
      <trkpt lat="45.233" lon="5.75004">
        <ele>773</ele>
        <time>2000-01-01T02:42:12.000Z</time>
      </trkpt>
      <trkpt lat="45.23311" lon="5.75024">
        <ele>770.9</ele>
        <time>2000-01-01T02:42:22.000Z</time>
      </trkpt>
      <trkpt lat="45.23318" lon="5.75035">
        <ele>769</ele>
        <time>2000-01-01T02:42:32.000Z</time>
      </trkpt>
      <trkpt lat="45.23323" lon="5.75046">
        <ele>769.7</ele>
        <time>2000-01-01T02:42:42.000Z</time>
      </trkpt>
      <trkpt lat="45.23327" lon="5.75057">
        <ele>768.8</ele>
        <time>2000-01-01T02:42:52.000Z</time>
      </trkpt>
      <trkpt lat="45.23327" lon="5.75068">
        <ele>767</ele>
        <time>2000-01-01T02:43:02.000Z</time>
      </trkpt>
      <trkpt lat="45.23326" lon="5.75083">
        <ele>767</ele>
        <time>2000-01-01T02:43:12.000Z</time>
      </trkpt>
      <trkpt lat="45.23323" lon="5.75097">
        <ele>767</ele>
        <time>2000-01-01T02:43:22.000Z</time>
      </trkpt>
      <trkpt lat="45.23318" lon="5.75113">
        <ele>767.2</ele>
        <time>2000-01-01T02:43:32.000Z</time>
      </trkpt>
      <trkpt lat="45.23335" lon="5.75111">
        <ele>768</ele>
        <time>2000-01-01T02:43:42.000Z</time>
      </trkpt>
      <trkpt lat="45.23342" lon="5.75109">
        <ele>768.9</ele>
        <time>2000-01-01T02:43:52.000Z</time>
      </trkpt>
      <trkpt lat="45.23357" lon="5.75108">
        <ele>768</ele>
        <time>2000-01-01T02:44:02.000Z</time>
      </trkpt>
      <trkpt lat="45.23364" lon="5.75108">
        <ele>771</ele>
        <time>2000-01-01T02:44:12.000Z</time>
      </trkpt>
      <trkpt lat="45.23391" lon="5.75111">
        <ele>772</ele>
        <time>2000-01-01T02:44:22.000Z</time>
      </trkpt>
      <trkpt lat="45.23408" lon="5.75114">
        <ele>774.4</ele>
        <time>2000-01-01T02:44:32.000Z</time>
      </trkpt>
      <trkpt lat="45.23415" lon="5.75114">
        <ele>773</ele>
        <time>2000-01-01T02:44:42.000Z</time>
      </trkpt>
      <trkpt lat="45.23432" lon="5.75112">
        <ele>775.9</ele>
        <time>2000-01-01T02:44:52.000Z</time>
      </trkpt>
      <trkpt lat="45.2346" lon="5.751">
        <ele>776</ele>
        <time>2000-01-01T02:45:02.000Z</time>
      </trkpt>
      <trkpt lat="45.23461" lon="5.751">
        <ele>777.4</ele>
        <time>2000-01-01T02:45:12.000Z</time>
      </trkpt>
      <trkpt lat="45.23483" lon="5.75091">
        <ele>777</ele>
        <time>2000-01-01T02:45:22.000Z</time>
      </trkpt>
      <trkpt lat="45.23503" lon="5.75086">
        <ele>778</ele>
        <time>2000-01-01T02:45:32.000Z</time>
      </trkpt>
      <trkpt lat="45.23515" lon="5.75085">
        <ele>780.1</ele>
        <time>2000-01-01T02:45:42.000Z</time>
      </trkpt>
      <trkpt lat="45.23527" lon="5.75086">
        <ele>779</ele>
        <time>2000-01-01T02:45:52.000Z</time>
      </trkpt>
      <trkpt lat="45.23536" lon="5.75087">
        <ele>781.1</ele>
        <time>2000-01-01T02:46:02.000Z</time>
      </trkpt>
      <trkpt lat="45.23542" lon="5.75096">
        <ele>784.5</ele>
        <time>2000-01-01T02:46:12.000Z</time>
      </trkpt>
      <trkpt lat="45.23547" lon="5.75132">
        <ele>807</ele>
        <time>2000-01-01T02:46:22.000Z</time>
      </trkpt>
      <trkpt lat="45.23553" lon="5.75158">
        <ele>817</ele>
        <time>2000-01-01T02:46:32.000Z</time>
      </trkpt>
      <trkpt lat="45.2355" lon="5.75159">
        <ele>820.5</ele>
        <time>2000-01-01T02:46:42.000Z</time>
      </trkpt>
      <trkpt lat="45.235" lon="5.75211">
        <ele>828</ele>
        <time>2000-01-01T02:46:52.000Z</time>
      </trkpt>
      <trkpt lat="45.23469" lon="5.75235">
        <ele>839</ele>
        <time>2000-01-01T02:47:02.000Z</time>
      </trkpt>
      <trkpt lat="45.23465" lon="5.75243">
        <ele>845.2</ele>
        <time>2000-01-01T02:47:12.000Z</time>
      </trkpt>
      <trkpt lat="45.2345" lon="5.75267">
        <ele>848</ele>
        <time>2000-01-01T02:47:22.000Z</time>
      </trkpt>
      <trkpt lat="45.23432" lon="5.75303">
        <ele>860</ele>
        <time>2000-01-01T02:47:32.000Z</time>
      </trkpt>
      <trkpt lat="45.23426" lon="5.75316">
        <ele>864.3</ele>
        <time>2000-01-01T02:47:52.000Z</time>
      </trkpt>
      <trkpt lat="45.23418" lon="5.7533">
        <ele>863</ele>
        <time>2000-01-01T02:48:02.000Z</time>
      </trkpt>
      <trkpt lat="45.23408" lon="5.75342">
        <ele>869.2</ele>
        <time>2000-01-01T02:48:12.000Z</time>
      </trkpt>
      <trkpt lat="45.23283" lon="5.75445">
        <ele>881</ele>
        <time>2000-01-01T02:48:22.000Z</time>
      </trkpt>
      <trkpt lat="45.23279" lon="5.75453">
        <ele>885.3</ele>
        <time>2000-01-01T02:48:32.000Z</time>
      </trkpt>
      <trkpt lat="45.23269" lon="5.7549">
        <ele>885</ele>
        <time>2000-01-01T02:48:42.000Z</time>
      </trkpt>
      <trkpt lat="45.2327" lon="5.75495">
        <ele>894.8</ele>
        <time>2000-01-01T02:48:52.000Z</time>
      </trkpt>
      <trkpt lat="45.23272" lon="5.755">
        <ele>898</ele>
        <time>2000-01-01T02:49:02.000Z</time>
      </trkpt>
      <trkpt lat="45.23275" lon="5.75502">
        <ele>901.1</ele>
        <time>2000-01-01T02:49:12.000Z</time>
      </trkpt>
      <trkpt lat="45.23279" lon="5.75504">
        <ele>904.6</ele>
        <time>2000-01-01T02:49:22.000Z</time>
      </trkpt>
      <trkpt lat="45.23282" lon="5.75503">
        <ele>905.7</ele>
        <time>2000-01-01T02:49:32.000Z</time>
      </trkpt>
      <trkpt lat="45.23287" lon="5.755">
        <ele>897</ele>
        <time>2000-01-01T02:49:42.000Z</time>
      </trkpt>
      <trkpt lat="45.2329" lon="5.755">
        <ele>908.2</ele>
        <time>2000-01-01T02:49:52.000Z</time>
      </trkpt>
      <trkpt lat="45.23336" lon="5.75488">
        <ele>917</ele>
        <time>2000-01-01T02:50:02.000Z</time>
      </trkpt>
      <trkpt lat="45.23374" lon="5.7548">
        <ele>931</ele>
        <time>2000-01-01T02:50:12.000Z</time>
      </trkpt>
      <trkpt lat="45.23399" lon="5.7548">
        <ele>933</ele>
        <time>2000-01-01T02:50:22.000Z</time>
      </trkpt>
      <trkpt lat="45.23426" lon="5.75482">
        <ele>945</ele>
        <time>2000-01-01T02:50:32.000Z</time>
      </trkpt>
      <trkpt lat="45.23434" lon="5.75485">
        <ele>949.8</ele>
        <time>2000-01-01T02:50:42.000Z</time>
      </trkpt>
      <trkpt lat="45.23437" lon="5.75487">
        <ele>951.4</ele>
        <time>2000-01-01T02:50:52.000Z</time>
      </trkpt>
      <trkpt lat="45.23441" lon="5.75492">
        <ele>955.2</ele>
        <time>2000-01-01T02:51:02.000Z</time>
      </trkpt>
      <trkpt lat="45.2344" lon="5.75496">
        <ele>952</ele>
        <time>2000-01-01T02:51:12.000Z</time>
      </trkpt>
      <trkpt lat="45.2343" lon="5.75505">
        <ele>962.9</ele>
        <time>2000-01-01T02:51:22.000Z</time>
      </trkpt>
      <trkpt lat="45.23406" lon="5.75526">
        <ele>965</ele>
        <time>2000-01-01T02:51:32.000Z</time>
      </trkpt>
      <trkpt lat="45.23397" lon="5.75541">
        <ele>977.6</ele>
        <time>2000-01-01T02:51:42.000Z</time>
      </trkpt>
      <trkpt lat="45.23342" lon="5.75585">
        <ele>972</ele>
        <time>2000-01-01T02:51:52.000Z</time>
      </trkpt>
      <trkpt lat="45.23336" lon="5.75593">
        <ele>975.9</ele>
        <time>2000-01-01T02:52:02.000Z</time>
      </trkpt>
      <trkpt lat="45.23334" lon="5.75597">
        <ele>975.9</ele>
        <time>2000-01-01T02:52:12.000Z</time>
      </trkpt>
      <trkpt lat="45.23334" lon="5.75601">
        <ele>977.2</ele>
        <time>2000-01-01T02:52:22.000Z</time>
      </trkpt>
      <trkpt lat="45.23336" lon="5.75604">
        <ele>979.7</ele>
        <time>2000-01-01T02:52:32.000Z</time>
      </trkpt>
      <trkpt lat="45.23349" lon="5.75606">
        <ele>981</ele>
        <time>2000-01-01T02:52:42.000Z</time>
      </trkpt>
      <trkpt lat="45.23359" lon="5.7561">
        <ele>999.7</ele>
        <time>2000-01-01T02:52:52.000Z</time>
      </trkpt>
      <trkpt lat="45.23387" lon="5.75601">
        <ele>1006</ele>
        <time>2000-01-01T02:53:02.000Z</time>
      </trkpt>
      <trkpt lat="45.23422" lon="5.75594">
        <ele>1016</ele>
        <time>2000-01-01T02:53:12.000Z</time>
      </trkpt>
      <trkpt lat="45.2347" lon="5.75592">
        <ele>1024</ele>
        <time>2000-01-01T02:53:32.000Z</time>
      </trkpt>
      <trkpt lat="45.23476" lon="5.75595">
        <ele>1029.7</ele>
        <time>2000-01-01T02:53:42.000Z</time>
      </trkpt>
      <trkpt lat="45.23485" lon="5.75601">
        <ele>1034.6</ele>
        <time>2000-01-01T02:53:52.000Z</time>
      </trkpt>
      <trkpt lat="45.23502" lon="5.75611">
        <ele>1040</ele>
        <time>2000-01-01T02:54:02.000Z</time>
      </trkpt>
      <trkpt lat="45.23518" lon="5.75622">
        <ele>1049.2</ele>
        <time>2000-01-01T02:54:12.000Z</time>
      </trkpt>
      <trkpt lat="45.2355" lon="5.75629">
        <ele>1047</ele>
        <time>2000-01-01T02:54:22.000Z</time>
      </trkpt>
      <trkpt lat="45.23525" lon="5.75636">
        <ele>1055</ele>
        <time>2000-01-01T02:54:32.000Z</time>
      </trkpt>
      <trkpt lat="45.2349" lon="5.75642">
        <ele>1057</ele>
        <time>2000-01-01T02:54:42.000Z</time>
      </trkpt>
      <trkpt lat="45.23464" lon="5.75648">
        <ele>1060</ele>
        <time>2000-01-01T02:54:52.000Z</time>
      </trkpt>
      <trkpt lat="45.23423" lon="5.75663">
        <ele>1064</ele>
        <time>2000-01-01T02:55:02.000Z</time>
      </trkpt>
      <trkpt lat="45.23414" lon="5.75674">
        <ele>1066.6</ele>
        <time>2000-01-01T02:55:12.000Z</time>
      </trkpt>
      <trkpt lat="45.23416" lon="5.75726">
        <ele>1077</ele>
        <time>2000-01-01T02:55:22.000Z</time>
      </trkpt>
      <trkpt lat="45.23404" lon="5.75755">
        <ele>1080</ele>
        <time>2000-01-01T02:55:32.000Z</time>
      </trkpt>
      <trkpt lat="45.23378" lon="5.75802">
        <ele>1088</ele>
        <time>2000-01-01T02:55:42.000Z</time>
      </trkpt>
      <trkpt lat="45.23362" lon="5.75823">
        <ele>1096</ele>
        <time>2000-01-01T02:55:52.000Z</time>
      </trkpt>
      <trkpt lat="45.23345" lon="5.7585">
        <ele>1098</ele>
        <time>2000-01-01T02:56:02.000Z</time>
      </trkpt>
      <trkpt lat="45.23352" lon="5.75887">
        <ele>1112</ele>
        <time>2000-01-01T02:56:12.000Z</time>
      </trkpt>
      <trkpt lat="45.23364" lon="5.7592">
        <ele>1120</ele>
        <time>2000-01-01T02:56:22.000Z</time>
      </trkpt>
      <trkpt lat="45.23375" lon="5.75895">
        <ele>1120</ele>
        <time>2000-01-01T02:56:32.000Z</time>
      </trkpt>
      <trkpt lat="45.23388" lon="5.75867">
        <ele>1121</ele>
        <time>2000-01-01T02:56:42.000Z</time>
      </trkpt>
      <trkpt lat="45.23389" lon="5.75866">
        <ele>1127.6</ele>
        <time>2000-01-01T02:56:52.000Z</time>
      </trkpt>
      <trkpt lat="45.23403" lon="5.75859">
        <ele>1131.2</ele>
        <time>2000-01-01T02:57:02.000Z</time>
      </trkpt>
      <trkpt lat="45.23423" lon="5.75853">
        <ele>1135</ele>
        <time>2000-01-01T02:57:12.000Z</time>
      </trkpt>
      <trkpt lat="45.23446" lon="5.75849">
        <ele>1139</ele>
        <time>2000-01-01T02:57:22.000Z</time>
      </trkpt>
      <trkpt lat="45.23463" lon="5.75826">
        <ele>1142</ele>
        <time>2000-01-01T02:57:32.000Z</time>
      </trkpt>
      <trkpt lat="45.23491" lon="5.75815">
        <ele>1157</ele>
        <time>2000-01-01T02:57:42.000Z</time>
      </trkpt>
      <trkpt lat="45.23517" lon="5.75801">
        <ele>1164</ele>
        <time>2000-01-01T02:57:52.000Z</time>
      </trkpt>
      <trkpt lat="45.23559" lon="5.75778">
        <ele>1165</ele>
        <time>2000-01-01T02:58:02.000Z</time>
      </trkpt>
      <trkpt lat="45.23588" lon="5.75763">
        <ele>1165</ele>
        <time>2000-01-01T02:58:12.000Z</time>
      </trkpt>
      <trkpt lat="45.23638" lon="5.75738">
        <ele>1166</ele>
        <time>2000-01-01T02:58:22.000Z</time>
      </trkpt>
      <trkpt lat="45.23662" lon="5.75744">
        <ele>1167</ele>
        <time>2000-01-01T02:58:32.000Z</time>
      </trkpt>
      <trkpt lat="45.23657" lon="5.75758">
        <ele>1179.9</ele>
        <time>2000-01-01T02:58:42.000Z</time>
      </trkpt>
      <trkpt lat="45.23634" lon="5.75776">
        <ele>1192</ele>
        <time>2000-01-01T02:58:52.000Z</time>
      </trkpt>
      <trkpt lat="45.23609" lon="5.75797">
        <ele>1194</ele>
        <time>2000-01-01T02:59:02.000Z</time>
      </trkpt>
      <trkpt lat="45.23595" lon="5.7581">
        <ele>1203.9</ele>
        <time>2000-01-01T02:59:12.000Z</time>
      </trkpt>
      <trkpt lat="45.2354" lon="5.75876">
        <ele>1206</ele>
        <time>2000-01-01T02:59:22.000Z</time>
      </trkpt>
      <trkpt lat="45.23523" lon="5.75904">
        <ele>1206</ele>
        <time>2000-01-01T02:59:32.000Z</time>
      </trkpt>
      <trkpt lat="45.235" lon="5.75941">
        <ele>1208</ele>
        <time>2000-01-01T02:59:42.000Z</time>
      </trkpt>
      <trkpt lat="45.23482" lon="5.75988">
        <ele>1210</ele>
        <time>2000-01-01T02:59:52.000Z</time>
      </trkpt>
      <trkpt lat="45.23488" lon="5.76004">
        <ele>1221.1</ele>
        <time>2000-01-01T03:00:02.000Z</time>
      </trkpt>
      <trkpt lat="45.23497" lon="5.76001">
        <ele>1221</ele>
        <time>2000-01-01T03:00:12.000Z</time>
      </trkpt>
      <trkpt lat="45.23527" lon="5.7597">
        <ele>1228</ele>
        <time>2000-01-01T03:00:22.000Z</time>
      </trkpt>
      <trkpt lat="45.23556" lon="5.75946">
        <ele>1234</ele>
        <time>2000-01-01T03:00:32.000Z</time>
      </trkpt>
      <trkpt lat="45.23578" lon="5.75931">
        <ele>1242</ele>
        <time>2000-01-01T03:00:42.000Z</time>
      </trkpt>
      <trkpt lat="45.23601" lon="5.75914">
        <ele>1249</ele>
        <time>2000-01-01T03:00:52.000Z</time>
      </trkpt>
      <trkpt lat="45.23641" lon="5.75903">
        <ele>1259</ele>
        <time>2000-01-01T03:01:02.000Z</time>
      </trkpt>
      <trkpt lat="45.23641" lon="5.75911">
        <ele>1263</ele>
        <time>2000-01-01T03:01:12.000Z</time>
      </trkpt>
      <trkpt lat="45.23599" lon="5.75963">
        <ele>1262</ele>
        <time>2000-01-01T03:01:22.000Z</time>
      </trkpt>
      <trkpt lat="45.23584" lon="5.75998">
        <ele>1263</ele>
        <time>2000-01-01T03:01:32.000Z</time>
      </trkpt>
      <trkpt lat="45.23547" lon="5.76036">
        <ele>1265</ele>
        <time>2000-01-01T03:01:42.000Z</time>
      </trkpt>
      <trkpt lat="45.23545" lon="5.76046">
        <ele>1276.1</ele>
        <time>2000-01-01T03:01:52.000Z</time>
      </trkpt>
      <trkpt lat="45.23552" lon="5.76045">
        <ele>1279</ele>
        <time>2000-01-01T03:02:02.000Z</time>
      </trkpt>
      <trkpt lat="45.23569" lon="5.76036">
        <ele>1273</ele>
        <time>2000-01-01T03:02:12.000Z</time>
      </trkpt>
      <trkpt lat="45.23569" lon="5.76042">
        <ele>1285.2</ele>
        <time>2000-01-01T03:02:22.000Z</time>
      </trkpt>
      <trkpt lat="45.2356" lon="5.7606">
        <ele>1288</ele>
        <time>2000-01-01T03:02:32.000Z</time>
      </trkpt>
      <trkpt lat="45.23556" lon="5.76065">
        <ele>1291.3</ele>
        <time>2000-01-01T03:02:42.000Z</time>
      </trkpt>
      <trkpt lat="45.23553" lon="5.76072">
        <ele>1293.7</ele>
        <time>2000-01-01T03:02:52.000Z</time>
      </trkpt>
      <trkpt lat="45.23554" lon="5.76074">
        <ele>1295.2</ele>
        <time>2000-01-01T03:03:02.000Z</time>
      </trkpt>
      <trkpt lat="45.23557" lon="5.76075">
        <ele>1297.1</ele>
        <time>2000-01-01T03:03:12.000Z</time>
      </trkpt>
      <trkpt lat="45.23574" lon="5.76064">
        <ele>1293</ele>
        <time>2000-01-01T03:03:22.000Z</time>
      </trkpt>
      <trkpt lat="45.23579" lon="5.76065">
        <ele>1301.2</ele>
        <time>2000-01-01T03:03:32.000Z</time>
      </trkpt>
      <trkpt lat="45.23581" lon="5.76071">
        <ele>1305.3</ele>
        <time>2000-01-01T03:03:42.000Z</time>
      </trkpt>
      <trkpt lat="45.23569" lon="5.76085">
        <ele>1300</ele>
        <time>2000-01-01T03:03:52.000Z</time>
      </trkpt>
      <trkpt lat="45.23554" lon="5.761">
        <ele>1308.6</ele>
        <time>2000-01-01T03:04:02.000Z</time>
      </trkpt>
      <trkpt lat="45.23549" lon="5.76107">
        <ele>1303</ele>
        <time>2000-01-01T03:04:12.000Z</time>
      </trkpt>
      <trkpt lat="45.2355" lon="5.7611">
        <ele>1311.6</ele>
        <time>2000-01-01T03:04:22.000Z</time>
      </trkpt>
      <trkpt lat="45.23559" lon="5.76108">
        <ele>1315.3</ele>
        <time>2000-01-01T03:04:32.000Z</time>
      </trkpt>
      <trkpt lat="45.23576" lon="5.761">
        <ele>1317</ele>
        <time>2000-01-01T03:04:42.000Z</time>
      </trkpt>
      <trkpt lat="45.23581" lon="5.761">
        <ele>1322</ele>
        <time>2000-01-01T03:04:52.000Z</time>
      </trkpt>
      <trkpt lat="45.2358" lon="5.76105">
        <ele>1324.5</ele>
        <time>2000-01-01T03:05:02.000Z</time>
      </trkpt>
      <trkpt lat="45.23573" lon="5.76112">
        <ele>1324.8</ele>
        <time>2000-01-01T03:05:12.000Z</time>
      </trkpt>
      <trkpt lat="45.23558" lon="5.76125">
        <ele>1317</ele>
        <time>2000-01-01T03:05:22.000Z</time>
      </trkpt>
      <trkpt lat="45.2354" lon="5.7615">
        <ele>1318</ele>
        <time>2000-01-01T03:05:32.000Z</time>
      </trkpt>
      <trkpt lat="45.23553" lon="5.76158">
        <ele>1331.4</ele>
        <time>2000-01-01T03:05:42.000Z</time>
      </trkpt>
      <trkpt lat="45.23555" lon="5.76159">
        <ele>1331.9</ele>
        <time>2000-01-01T03:05:52.000Z</time>
      </trkpt>
      <trkpt lat="45.2356" lon="5.76169">
        <ele>1323</ele>
        <time>2000-01-01T03:06:02.000Z</time>
      </trkpt>
      <trkpt lat="45.23571" lon="5.76174">
        <ele>1331.1</ele>
        <time>2000-01-01T03:06:12.000Z</time>
      </trkpt>
      <trkpt lat="45.23577" lon="5.76181">
        <ele>1320</ele>
        <time>2000-01-01T03:06:22.000Z</time>
      </trkpt>
      <trkpt lat="45.23583" lon="5.76195">
        <ele>1323.9</ele>
        <time>2000-01-01T03:06:32.000Z</time>
      </trkpt>
      <trkpt lat="45.23584" lon="5.76202">
        <ele>1321.5</ele>
        <time>2000-01-01T03:06:42.000Z</time>
      </trkpt>
      <trkpt lat="45.23584" lon="5.76217">
        <ele>1318</ele>
        <time>2000-01-01T03:06:52.000Z</time>
      </trkpt>
      <trkpt lat="45.23591" lon="5.76255">
        <ele>1306</ele>
        <time>2000-01-01T03:07:02.000Z</time>
      </trkpt>
      <trkpt lat="45.23615" lon="5.76294">
        <ele>1303</ele>
        <time>2000-01-01T03:07:12.000Z</time>
      </trkpt>
      <trkpt lat="45.23606" lon="5.76305">
        <ele>1292.6</ele>
        <time>2000-01-01T03:07:22.000Z</time>
      </trkpt>
      <trkpt lat="45.23602" lon="5.7631">
        <ele>1293.2</ele>
        <time>2000-01-01T03:07:32.000Z</time>
      </trkpt>
      <trkpt lat="45.23579" lon="5.76354">
        <ele>1300</ele>
        <time>2000-01-01T03:07:42.000Z</time>
      </trkpt>
      <trkpt lat="45.23577" lon="5.7636">
        <ele>1298.3</ele>
        <time>2000-01-01T03:07:52.000Z</time>
      </trkpt>
      <trkpt lat="45.2357" lon="5.76389">
        <ele>1300</ele>
        <time>2000-01-01T03:08:02.000Z</time>
      </trkpt>
      <trkpt lat="45.23561" lon="5.76435">
        <ele>1308</ele>
        <time>2000-01-01T03:08:12.000Z</time>
      </trkpt>
      <trkpt lat="45.23565" lon="5.76456">
        <ele>1307.6</ele>
        <time>2000-01-01T03:08:22.000Z</time>
      </trkpt>
      <trkpt lat="45.23568" lon="5.765">
        <ele>1312</ele>
        <time>2000-01-01T03:08:32.000Z</time>
      </trkpt>
      <trkpt lat="45.23568" lon="5.76529">
        <ele>1312</ele>
        <time>2000-01-01T03:08:42.000Z</time>
      </trkpt>
      <trkpt lat="45.23565" lon="5.76559">
        <ele>1312</ele>
        <time>2000-01-01T03:08:52.000Z</time>
      </trkpt>
      <trkpt lat="45.2356" lon="5.76597">
        <ele>1312</ele>
        <time>2000-01-01T03:09:02.000Z</time>
      </trkpt>
      <trkpt lat="45.23558" lon="5.76603">
        <ele>1310.8</ele>
        <time>2000-01-01T03:09:12.000Z</time>
      </trkpt>
      <trkpt lat="45.23556" lon="5.76606">
        <ele>1310.5</ele>
        <time>2000-01-01T03:09:22.000Z</time>
      </trkpt>
      <trkpt lat="45.23553" lon="5.76609">
        <ele>1307.5</ele>
        <time>2000-01-01T03:09:32.000Z</time>
      </trkpt>
      <trkpt lat="45.23554" lon="5.76624">
        <ele>1305</ele>
        <time>2000-01-01T03:09:42.000Z</time>
      </trkpt>
      <trkpt lat="45.23555" lon="5.76631">
        <ele>1307.1</ele>
        <time>2000-01-01T03:09:52.000Z</time>
      </trkpt>
      <trkpt lat="45.23557" lon="5.76639">
        <ele>1307.2</ele>
        <time>2000-01-01T03:10:02.000Z</time>
      </trkpt>
      <trkpt lat="45.23569" lon="5.76669">
        <ele>1305</ele>
        <time>2000-01-01T03:10:12.000Z</time>
      </trkpt>
      <trkpt lat="45.23585" lon="5.76721">
        <ele>1303</ele>
        <time>2000-01-01T03:10:22.000Z</time>
      </trkpt>
      <trkpt lat="45.23587" lon="5.76728">
        <ele>1305.6</ele>
        <time>2000-01-01T03:10:32.000Z</time>
      </trkpt>
      <trkpt lat="45.23597" lon="5.76754">
        <ele>1301</ele>
        <time>2000-01-01T03:10:42.000Z</time>
      </trkpt>
      <trkpt lat="45.23613" lon="5.76798">
        <ele>1301</ele>
        <time>2000-01-01T03:10:52.000Z</time>
      </trkpt>
      <trkpt lat="45.23631" lon="5.76843">
        <ele>1299</ele>
        <time>2000-01-01T03:11:02.000Z</time>
      </trkpt>
      <trkpt lat="45.23649" lon="5.76888">
        <ele>1302</ele>
        <time>2000-01-01T03:11:12.000Z</time>
      </trkpt>
      <trkpt lat="45.23667" lon="5.76934">
        <ele>1305</ele>
        <time>2000-01-01T03:11:22.000Z</time>
      </trkpt>
      <trkpt lat="45.23692" lon="5.76996">
        <ele>1305</ele>
        <time>2000-01-01T03:11:32.000Z</time>
      </trkpt>
      <trkpt lat="45.23711" lon="5.77028">
        <ele>1309</ele>
        <time>2000-01-01T03:11:42.000Z</time>
      </trkpt>
      <trkpt lat="45.23742" lon="5.77079">
        <ele>1308</ele>
        <time>2000-01-01T03:11:52.000Z</time>
      </trkpt>
      <trkpt lat="45.23761" lon="5.77116">
        <ele>1308</ele>
        <time>2000-01-01T03:12:02.000Z</time>
      </trkpt>
      <trkpt lat="45.2378" lon="5.77152">
        <ele>1300</ele>
        <time>2000-01-01T03:12:12.000Z</time>
      </trkpt>
      <trkpt lat="45.238" lon="5.77192">
        <ele>1301</ele>
        <time>2000-01-01T03:12:22.000Z</time>
      </trkpt>
      <trkpt lat="45.23816" lon="5.77224">
        <ele>1302</ele>
        <time>2000-01-01T03:12:32.000Z</time>
      </trkpt>
      <trkpt lat="45.23837" lon="5.77268">
        <ele>1305</ele>
        <time>2000-01-01T03:12:42.000Z</time>
      </trkpt>
      <trkpt lat="45.23861" lon="5.77302">
        <ele>1308</ele>
        <time>2000-01-01T03:12:52.000Z</time>
      </trkpt>
      <trkpt lat="45.23885" lon="5.77335">
        <ele>1310</ele>
        <time>2000-01-01T03:13:02.000Z</time>
      </trkpt>
      <trkpt lat="45.23921" lon="5.77385">
        <ele>1313</ele>
        <time>2000-01-01T03:13:12.000Z</time>
      </trkpt>
      <trkpt lat="45.23945" lon="5.77424">
        <ele>1311</ele>
        <time>2000-01-01T03:13:22.000Z</time>
      </trkpt>
      <trkpt lat="45.23963" lon="5.77469">
        <ele>1310</ele>
        <time>2000-01-01T03:13:32.000Z</time>
      </trkpt>
      <trkpt lat="45.2398" lon="5.7751">
        <ele>1304</ele>
        <time>2000-01-01T03:13:42.000Z</time>
      </trkpt>
      <trkpt lat="45.24016" lon="5.77542">
        <ele>1303</ele>
        <time>2000-01-01T03:13:52.000Z</time>
      </trkpt>
      <trkpt lat="45.24037" lon="5.77563">
        <ele>1303</ele>
        <time>2000-01-01T03:14:02.000Z</time>
      </trkpt>
      <trkpt lat="45.24061" lon="5.77587">
        <ele>1305</ele>
        <time>2000-01-01T03:14:12.000Z</time>
      </trkpt>
      <trkpt lat="45.24072" lon="5.77605">
        <ele>1310.3</ele>
        <time>2000-01-01T03:14:22.000Z</time>
      </trkpt>
      <trkpt lat="45.2408" lon="5.77642">
        <ele>1304</ele>
        <time>2000-01-01T03:14:32.000Z</time>
      </trkpt>
      <trkpt lat="45.24097" lon="5.77662">
        <ele>1304</ele>
        <time>2000-01-01T03:14:42.000Z</time>
      </trkpt>
      <trkpt lat="45.24117" lon="5.77685">
        <ele>1306</ele>
        <time>2000-01-01T03:14:52.000Z</time>
      </trkpt>
      <trkpt lat="45.24141" lon="5.77711">
        <ele>1315</ele>
        <time>2000-01-01T03:15:02.000Z</time>
      </trkpt>
      <trkpt lat="45.2416" lon="5.77735">
        <ele>1322</ele>
        <time>2000-01-01T03:15:12.000Z</time>
      </trkpt>
      <trkpt lat="45.24182" lon="5.77763">
        <ele>1320</ele>
        <time>2000-01-01T03:15:22.000Z</time>
      </trkpt>
      <trkpt lat="45.24193" lon="5.77782">
        <ele>1324.8</ele>
        <time>2000-01-01T03:15:32.000Z</time>
      </trkpt>
      <trkpt lat="45.24228" lon="5.7784">
        <ele>1323</ele>
        <time>2000-01-01T03:15:42.000Z</time>
      </trkpt>
      <trkpt lat="45.24257" lon="5.77876">
        <ele>1326</ele>
        <time>2000-01-01T03:15:52.000Z</time>
      </trkpt>
      <trkpt lat="45.24286" lon="5.77909">
        <ele>1329</ele>
        <time>2000-01-01T03:16:02.000Z</time>
      </trkpt>
      <trkpt lat="45.24307" lon="5.77921">
        <ele>1332</ele>
        <time>2000-01-01T03:16:12.000Z</time>
      </trkpt>
      <trkpt lat="45.24324" lon="5.77942">
        <ele>1331</ele>
        <time>2000-01-01T03:16:22.000Z</time>
      </trkpt>
      <trkpt lat="45.24339" lon="5.77974">
        <ele>1331</ele>
        <time>2000-01-01T03:16:32.000Z</time>
      </trkpt>
      <trkpt lat="45.24345" lon="5.77994">
        <ele>1324.7</ele>
        <time>2000-01-01T03:16:42.000Z</time>
      </trkpt>
      <trkpt lat="45.24359" lon="5.78017">
        <ele>1331</ele>
        <time>2000-01-01T03:16:52.000Z</time>
      </trkpt>
      <trkpt lat="45.24397" lon="5.78042">
        <ele>1331</ele>
        <time>2000-01-01T03:17:02.000Z</time>
      </trkpt>
      <trkpt lat="45.24427" lon="5.78061">
        <ele>1331</ele>
        <time>2000-01-01T03:17:12.000Z</time>
      </trkpt>
      <trkpt lat="45.24438" lon="5.78094">
        <ele>1330</ele>
        <time>2000-01-01T03:17:22.000Z</time>
      </trkpt>
      <trkpt lat="45.24449" lon="5.78132">
        <ele>1335</ele>
        <time>2000-01-01T03:17:32.000Z</time>
      </trkpt>
      <trkpt lat="45.24456" lon="5.78153">
        <ele>1332.4</ele>
        <time>2000-01-01T03:17:42.000Z</time>
      </trkpt>
      <trkpt lat="45.24495" lon="5.78167">
        <ele>1341</ele>
        <time>2000-01-01T03:17:52.000Z</time>
      </trkpt>
      <trkpt lat="45.24509" lon="5.7819">
        <ele>1342</ele>
        <time>2000-01-01T03:18:02.000Z</time>
      </trkpt>
      <trkpt lat="45.24532" lon="5.78239">
        <ele>1345</ele>
        <time>2000-01-01T03:18:12.000Z</time>
      </trkpt>
      <trkpt lat="45.24553" lon="5.78272">
        <ele>1348</ele>
        <time>2000-01-01T03:18:22.000Z</time>
      </trkpt>
      <trkpt lat="45.24572" lon="5.78292">
        <ele>1347</ele>
        <time>2000-01-01T03:18:32.000Z</time>
      </trkpt>
      <trkpt lat="45.24595" lon="5.78343">
        <ele>1347</ele>
        <time>2000-01-01T03:18:42.000Z</time>
      </trkpt>
      <trkpt lat="45.24602" lon="5.78349">
        <ele>1346.9</ele>
        <time>2000-01-01T03:18:52.000Z</time>
      </trkpt>
      <trkpt lat="45.24625" lon="5.78366">
        <ele>1353</ele>
        <time>2000-01-01T03:19:02.000Z</time>
      </trkpt>
      <trkpt lat="45.24651" lon="5.7837">
        <ele>1351</ele>
        <time>2000-01-01T03:19:12.000Z</time>
      </trkpt>
      <trkpt lat="45.24684" lon="5.78374">
        <ele>1349</ele>
        <time>2000-01-01T03:19:22.000Z</time>
      </trkpt>
      <trkpt lat="45.24722" lon="5.78363">
        <ele>1333</ele>
        <time>2000-01-01T03:19:32.000Z</time>
      </trkpt>
      <trkpt lat="45.24748" lon="5.7838">
        <ele>1329</ele>
        <time>2000-01-01T03:19:42.000Z</time>
      </trkpt>
      <trkpt lat="45.24765" lon="5.78382">
        <ele>1315.8</ele>
        <time>2000-01-01T03:19:52.000Z</time>
      </trkpt>
      <trkpt lat="45.24792" lon="5.78395">
        <ele>1309</ele>
        <time>2000-01-01T03:20:02.000Z</time>
      </trkpt>
      <trkpt lat="45.24821" lon="5.784">
        <ele>1302</ele>
        <time>2000-01-01T03:20:12.000Z</time>
      </trkpt>
      <trkpt lat="45.24857" lon="5.78413">
        <ele>1296</ele>
        <time>2000-01-01T03:20:22.000Z</time>
      </trkpt>
      <trkpt lat="45.24886" lon="5.78423">
        <ele>1288</ele>
        <time>2000-01-01T03:20:32.000Z</time>
      </trkpt>
      <trkpt lat="45.24936" lon="5.7844">
        <ele>1273</ele>
        <time>2000-01-01T03:20:42.000Z</time>
      </trkpt>
      <trkpt lat="45.24962" lon="5.78457">
        <ele>1268</ele>
        <time>2000-01-01T03:20:52.000Z</time>
      </trkpt>
      <trkpt lat="45.25001" lon="5.78482">
        <ele>1261</ele>
        <time>2000-01-01T03:21:02.000Z</time>
      </trkpt>
      <trkpt lat="45.25006" lon="5.78486">
        <ele>1261.7</ele>
        <time>2000-01-01T03:21:12.000Z</time>
      </trkpt>
      <trkpt lat="45.25044" lon="5.78511">
        <ele>1257</ele>
        <time>2000-01-01T03:21:22.000Z</time>
      </trkpt>
      <trkpt lat="45.25054" lon="5.78515">
        <ele>1254.4</ele>
        <time>2000-01-01T03:21:32.000Z</time>
      </trkpt>
      <trkpt lat="45.2507" lon="5.78523">
        <ele>1253</ele>
        <time>2000-01-01T03:21:42.000Z</time>
      </trkpt>
      <trkpt lat="45.2509" lon="5.78531">
        <ele>1247</ele>
        <time>2000-01-01T03:21:52.000Z</time>
      </trkpt>
      <trkpt lat="45.25121" lon="5.7854">
        <ele>1238</ele>
        <time>2000-01-01T03:22:02.000Z</time>
      </trkpt>
      <trkpt lat="45.25152" lon="5.78548">
        <ele>1233</ele>
        <time>2000-01-01T03:22:12.000Z</time>
      </trkpt>
      <trkpt lat="45.25183" lon="5.78557">
        <ele>1227</ele>
        <time>2000-01-01T03:22:22.000Z</time>
      </trkpt>
      <trkpt lat="45.25211" lon="5.78561">
        <ele>1223</ele>
        <time>2000-01-01T03:22:32.000Z</time>
      </trkpt>
      <trkpt lat="45.25225" lon="5.78552">
        <ele>1218.3</ele>
        <time>2000-01-01T03:22:42.000Z</time>
      </trkpt>
      <trkpt lat="45.2523" lon="5.78551">
        <ele>1215</ele>
        <time>2000-01-01T03:22:52.000Z</time>
      </trkpt>
      <trkpt lat="45.25258" lon="5.78557">
        <ele>1211</ele>
        <time>2000-01-01T03:23:02.000Z</time>
      </trkpt>
      <trkpt lat="45.25263" lon="5.78559">
        <ele>1209.4</ele>
        <time>2000-01-01T03:23:12.000Z</time>
      </trkpt>
      <trkpt lat="45.25267" lon="5.78557">
        <ele>1208</ele>
        <time>2000-01-01T03:23:22.000Z</time>
      </trkpt>
      <trkpt lat="45.25267" lon="5.78553">
        <ele>1207.2</ele>
        <time>2000-01-01T03:23:32.000Z</time>
      </trkpt>
      <trkpt lat="45.25267" lon="5.7855">
        <ele>1206.6</ele>
        <time>2000-01-01T03:23:42.000Z</time>
      </trkpt>
      <trkpt lat="45.25267" lon="5.78545">
        <ele>1205.7</ele>
        <time>2000-01-01T03:23:52.000Z</time>
      </trkpt>
      <trkpt lat="45.25266" lon="5.78537">
        <ele>1204</ele>
        <time>2000-01-01T03:24:02.000Z</time>
      </trkpt>
      <trkpt lat="45.25261" lon="5.78514">
        <ele>1200.6</ele>
        <time>2000-01-01T03:24:12.000Z</time>
      </trkpt>
      <trkpt lat="45.25253" lon="5.78487">
        <ele>1195</ele>
        <time>2000-01-01T03:24:22.000Z</time>
      </trkpt>
      <trkpt lat="45.25253" lon="5.78483">
        <ele>1195.1</ele>
        <time>2000-01-01T03:24:32.000Z</time>
      </trkpt>
      <trkpt lat="45.25253" lon="5.78478">
        <ele>1193.9</ele>
        <time>2000-01-01T03:24:42.000Z</time>
      </trkpt>
      <trkpt lat="45.25255" lon="5.78475">
        <ele>1192.8</ele>
        <time>2000-01-01T03:24:52.000Z</time>
      </trkpt>
      <trkpt lat="45.25258" lon="5.78475">
        <ele>1192.2</ele>
        <time>2000-01-01T03:25:02.000Z</time>
      </trkpt>
      <trkpt lat="45.25262" lon="5.78475">
        <ele>1191.5</ele>
        <time>2000-01-01T03:25:12.000Z</time>
      </trkpt>
      <trkpt lat="45.25268" lon="5.78475">
        <ele>1190</ele>
        <time>2000-01-01T03:25:22.000Z</time>
      </trkpt>
      <trkpt lat="45.25279" lon="5.78475">
        <ele>1188.4</ele>
        <time>2000-01-01T03:25:32.000Z</time>
      </trkpt>
      <trkpt lat="45.25284" lon="5.78474">
        <ele>1187.2</ele>
        <time>2000-01-01T03:25:42.000Z</time>
      </trkpt>
      <trkpt lat="45.25286" lon="5.78469">
        <ele>1185</ele>
        <time>2000-01-01T03:25:52.000Z</time>
      </trkpt>
      <trkpt lat="45.25286" lon="5.78466">
        <ele>1185.4</ele>
        <time>2000-01-01T03:26:02.000Z</time>
      </trkpt>
      <trkpt lat="45.25286" lon="5.7846">
        <ele>1184.3</ele>
        <time>2000-01-01T03:26:12.000Z</time>
      </trkpt>
      <trkpt lat="45.25284" lon="5.78454">
        <ele>1183.6</ele>
        <time>2000-01-01T03:26:22.000Z</time>
      </trkpt>
      <trkpt lat="45.25278" lon="5.78431">
        <ele>1180</ele>
        <time>2000-01-01T03:26:32.000Z</time>
      </trkpt>
      <trkpt lat="45.25271" lon="5.78412">
        <ele>1176.3</ele>
        <time>2000-01-01T03:26:42.000Z</time>
      </trkpt>
      <trkpt lat="45.25266" lon="5.7839">
        <ele>1171</ele>
        <time>2000-01-01T03:26:52.000Z</time>
      </trkpt>
      <trkpt lat="45.25263" lon="5.78383">
        <ele>1169.5</ele>
        <time>2000-01-01T03:27:02.000Z</time>
      </trkpt>
      <trkpt lat="45.25262" lon="5.78376">
        <ele>1167.6</ele>
        <time>2000-01-01T03:27:12.000Z</time>
      </trkpt>
      <trkpt lat="45.25263" lon="5.78368">
        <ele>1165.4</ele>
        <time>2000-01-01T03:27:22.000Z</time>
      </trkpt>
      <trkpt lat="45.25265" lon="5.78363">
        <ele>1163</ele>
        <time>2000-01-01T03:27:32.000Z</time>
      </trkpt>
      <trkpt lat="45.25267" lon="5.7836">
        <ele>1163.1</ele>
        <time>2000-01-01T03:27:42.000Z</time>
      </trkpt>
      <trkpt lat="45.25272" lon="5.78356">
        <ele>1161.7</ele>
        <time>2000-01-01T03:27:52.000Z</time>
      </trkpt>
      <trkpt lat="45.25292" lon="5.78346">
        <ele>1154</ele>
        <time>2000-01-01T03:28:02.000Z</time>
      </trkpt>
      <trkpt lat="45.25302" lon="5.78343">
        <ele>1153.4</ele>
        <time>2000-01-01T03:28:12.000Z</time>
      </trkpt>
      <trkpt lat="45.25307" lon="5.78342">
        <ele>1152.2</ele>
        <time>2000-01-01T03:28:22.000Z</time>
      </trkpt>
      <trkpt lat="45.25308" lon="5.78336">
        <ele>1150</ele>
        <time>2000-01-01T03:28:32.000Z</time>
      </trkpt>
      <trkpt lat="45.25306" lon="5.78329">
        <ele>1148.8</ele>
        <time>2000-01-01T03:28:42.000Z</time>
      </trkpt>
      <trkpt lat="45.25304" lon="5.78323">
        <ele>1147.7</ele>
        <time>2000-01-01T03:28:52.000Z</time>
      </trkpt>
      <trkpt lat="45.25298" lon="5.78314">
        <ele>1146.3</ele>
        <time>2000-01-01T03:29:02.000Z</time>
      </trkpt>
      <trkpt lat="45.25295" lon="5.78307">
        <ele>1144</ele>
        <time>2000-01-01T03:29:12.000Z</time>
      </trkpt>
      <trkpt lat="45.25277" lon="5.78258">
        <ele>1133</ele>
        <time>2000-01-01T03:29:22.000Z</time>
      </trkpt>
      <trkpt lat="45.25266" lon="5.7822">
        <ele>1126</ele>
        <time>2000-01-01T03:29:32.000Z</time>
      </trkpt>
      <trkpt lat="45.25264" lon="5.7821">
        <ele>1122.7</ele>
        <time>2000-01-01T03:29:42.000Z</time>
      </trkpt>
      <trkpt lat="45.25264" lon="5.782">
        <ele>1120</ele>
        <time>2000-01-01T03:29:52.000Z</time>
      </trkpt>
      <trkpt lat="45.25264" lon="5.78188">
        <ele>1114</ele>
        <time>2000-01-01T03:30:02.000Z</time>
      </trkpt>
      <trkpt lat="45.2527" lon="5.78156">
        <ele>1104</ele>
        <time>2000-01-01T03:30:12.000Z</time>
      </trkpt>
      <trkpt lat="45.25272" lon="5.78146">
        <ele>1103.8</ele>
        <time>2000-01-01T03:30:22.000Z</time>
      </trkpt>
      <trkpt lat="45.25274" lon="5.78141">
        <ele>1102.1</ele>
        <time>2000-01-01T03:30:32.000Z</time>
      </trkpt>
      <trkpt lat="45.25279" lon="5.78136">
        <ele>1100</ele>
        <time>2000-01-01T03:30:42.000Z</time>
      </trkpt>
      <trkpt lat="45.25307" lon="5.78125">
        <ele>1092</ele>
        <time>2000-01-01T03:30:52.000Z</time>
      </trkpt>
      <trkpt lat="45.25342" lon="5.78113">
        <ele>1085</ele>
        <time>2000-01-01T03:31:02.000Z</time>
      </trkpt>
      <trkpt lat="45.25361" lon="5.78106">
        <ele>1078</ele>
        <time>2000-01-01T03:31:12.000Z</time>
      </trkpt>
      <trkpt lat="45.25379" lon="5.781">
        <ele>1073.4</ele>
        <time>2000-01-01T03:31:22.000Z</time>
      </trkpt>
      <trkpt lat="45.2542" lon="5.78095">
        <ele>1063</ele>
        <time>2000-01-01T03:31:32.000Z</time>
      </trkpt>
      <trkpt lat="45.25441" lon="5.78098">
        <ele>1055</ele>
        <time>2000-01-01T03:31:42.000Z</time>
      </trkpt>
      <trkpt lat="45.25457" lon="5.78107">
        <ele>1054.8</ele>
        <time>2000-01-01T03:31:52.000Z</time>
      </trkpt>
      <trkpt lat="45.2546" lon="5.78109">
        <ele>1055</ele>
        <time>2000-01-01T03:32:02.000Z</time>
      </trkpt>
      <trkpt lat="45.25481" lon="5.78123">
        <ele>1049</ele>
        <time>2000-01-01T03:32:12.000Z</time>
      </trkpt>
      <trkpt lat="45.25489" lon="5.78128">
        <ele>1049.4</ele>
        <time>2000-01-01T03:32:22.000Z</time>
      </trkpt>
      <trkpt lat="45.255" lon="5.78132">
        <ele>1049</ele>
        <time>2000-01-01T03:32:32.000Z</time>
      </trkpt>
      <trkpt lat="45.25513" lon="5.78133">
        <ele>1042.8</ele>
        <time>2000-01-01T03:32:42.000Z</time>
      </trkpt>
      <trkpt lat="45.25519" lon="5.78131">
        <ele>1040.6</ele>
        <time>2000-01-01T03:32:52.000Z</time>
      </trkpt>
      <trkpt lat="45.25523" lon="5.78128">
        <ele>1038</ele>
        <time>2000-01-01T03:33:02.000Z</time>
      </trkpt>
      <trkpt lat="45.25526" lon="5.78124">
        <ele>1037.4</ele>
        <time>2000-01-01T03:33:12.000Z</time>
      </trkpt>
      <trkpt lat="45.25527" lon="5.7812">
        <ele>1036.5</ele>
        <time>2000-01-01T03:33:22.000Z</time>
      </trkpt>
      <trkpt lat="45.25528" lon="5.78115">
        <ele>1035.5</ele>
        <time>2000-01-01T03:33:32.000Z</time>
      </trkpt>
      <trkpt lat="45.25528" lon="5.7811">
        <ele>1034.7</ele>
        <time>2000-01-01T03:33:42.000Z</time>
      </trkpt>
      <trkpt lat="45.25527" lon="5.78105">
        <ele>1034.1</ele>
        <time>2000-01-01T03:33:52.000Z</time>
      </trkpt>
      <trkpt lat="45.25518" lon="5.78091">
        <ele>1035</ele>
        <time>2000-01-01T03:34:02.000Z</time>
      </trkpt>
      <trkpt lat="45.25506" lon="5.78072">
        <ele>1032.7</ele>
        <time>2000-01-01T03:34:12.000Z</time>
      </trkpt>
      <trkpt lat="45.25502" lon="5.78067">
        <ele>1031</ele>
        <time>2000-01-01T03:34:22.000Z</time>
      </trkpt>
      <trkpt lat="45.25489" lon="5.78042">
        <ele>1030</ele>
        <time>2000-01-01T03:34:32.000Z</time>
      </trkpt>
      <trkpt lat="45.2549" lon="5.78028">
        <ele>1025.2</ele>
        <time>2000-01-01T03:34:42.000Z</time>
      </trkpt>
      <trkpt lat="45.255" lon="5.78014">
        <ele>1020</ele>
        <time>2000-01-01T03:34:52.000Z</time>
      </trkpt>
      <trkpt lat="45.25505" lon="5.78013">
        <ele>1019</ele>
        <time>2000-01-01T03:35:02.000Z</time>
      </trkpt>
      <trkpt lat="45.25526" lon="5.78014">
        <ele>1016</ele>
        <time>2000-01-01T03:35:12.000Z</time>
      </trkpt>
      <trkpt lat="45.25546" lon="5.78034">
        <ele>1015</ele>
        <time>2000-01-01T03:35:22.000Z</time>
      </trkpt>
      <trkpt lat="45.25575" lon="5.78074">
        <ele>1015</ele>
        <time>2000-01-01T03:35:32.000Z</time>
      </trkpt>
      <trkpt lat="45.25606" lon="5.78114">
        <ele>1013</ele>
        <time>2000-01-01T03:35:42.000Z</time>
      </trkpt>
      <trkpt lat="45.25639" lon="5.78134">
        <ele>1007</ele>
        <time>2000-01-01T03:35:52.000Z</time>
      </trkpt>
      <trkpt lat="45.25677" lon="5.78145">
        <ele>997</ele>
        <time>2000-01-01T03:36:02.000Z</time>
      </trkpt>
      <trkpt lat="45.25699" lon="5.78134">
        <ele>993</ele>
        <time>2000-01-01T03:36:12.000Z</time>
      </trkpt>
      <trkpt lat="45.25727" lon="5.78094">
        <ele>988</ele>
        <time>2000-01-01T03:36:22.000Z</time>
      </trkpt>
      <trkpt lat="45.25741" lon="5.7807">
        <ele>989</ele>
        <time>2000-01-01T03:36:32.000Z</time>
      </trkpt>
      <trkpt lat="45.25767" lon="5.78023">
        <ele>990</ele>
        <time>2000-01-01T03:36:42.000Z</time>
      </trkpt>
      <trkpt lat="45.25773" lon="5.78007">
        <ele>992.9</ele>
        <time>2000-01-01T03:36:52.000Z</time>
      </trkpt>
      <trkpt lat="45.25776" lon="5.77996">
        <ele>992</ele>
        <time>2000-01-01T03:37:02.000Z</time>
      </trkpt>
      <trkpt lat="45.25785" lon="5.77967">
        <ele>994</ele>
        <time>2000-01-01T03:37:12.000Z</time>
      </trkpt>
      <trkpt lat="45.25792" lon="5.77947">
        <ele>996.6</ele>
        <time>2000-01-01T03:37:22.000Z</time>
      </trkpt>
      <trkpt lat="45.258" lon="5.77935">
        <ele>996</ele>
        <time>2000-01-01T03:37:32.000Z</time>
      </trkpt>
      <trkpt lat="45.25804" lon="5.77931">
        <ele>998.7</ele>
        <time>2000-01-01T03:37:42.000Z</time>
      </trkpt>
      <trkpt lat="45.2581" lon="5.77925">
        <ele>999.4</ele>
        <time>2000-01-01T03:37:52.000Z</time>
      </trkpt>
      <trkpt lat="45.25815" lon="5.77924">
        <ele>999.9</ele>
        <time>2000-01-01T03:38:02.000Z</time>
      </trkpt>
      <trkpt lat="45.25843" lon="5.77915">
        <ele>1000</ele>
        <time>2000-01-01T03:38:12.000Z</time>
      </trkpt>
      <trkpt lat="45.25866" lon="5.77907">
        <ele>1000</ele>
        <time>2000-01-01T03:38:22.000Z</time>
      </trkpt>
      <trkpt lat="45.25875" lon="5.77901">
        <ele>1001.9</ele>
        <time>2000-01-01T03:38:32.000Z</time>
      </trkpt>
      <trkpt lat="45.25879" lon="5.77895">
        <ele>1002.2</ele>
        <time>2000-01-01T03:38:42.000Z</time>
      </trkpt>
      <trkpt lat="45.25884" lon="5.77882">
        <ele>1001</ele>
        <time>2000-01-01T03:38:52.000Z</time>
      </trkpt>
      <trkpt lat="45.25887" lon="5.77876">
        <ele>1002.3</ele>
        <time>2000-01-01T03:39:02.000Z</time>
      </trkpt>
      <trkpt lat="45.25893" lon="5.77867">
        <ele>1002.7</ele>
        <time>2000-01-01T03:39:12.000Z</time>
      </trkpt>
      <trkpt lat="45.25927" lon="5.77836">
        <ele>1003</ele>
        <time>2000-01-01T03:39:22.000Z</time>
      </trkpt>
      <trkpt lat="45.25934" lon="5.7783">
        <ele>1004.3</ele>
        <time>2000-01-01T03:39:32.000Z</time>
      </trkpt>
      <trkpt lat="45.25947" lon="5.77858">
        <ele>1006</ele>
        <time>2000-01-01T03:39:42.000Z</time>
      </trkpt>
      <trkpt lat="45.25967" lon="5.77893">
        <ele>1012</ele>
        <time>2000-01-01T03:39:52.000Z</time>
      </trkpt>
      <trkpt lat="45.25982" lon="5.77915">
        <ele>1017</ele>
        <time>2000-01-01T03:40:02.000Z</time>
      </trkpt>
      <trkpt lat="45.25992" lon="5.77933">
        <ele>1021</ele>
        <time>2000-01-01T03:40:12.000Z</time>
      </trkpt>
      <trkpt lat="45.26021" lon="5.77973">
        <ele>1027</ele>
        <time>2000-01-01T03:40:22.000Z</time>
      </trkpt>
      <trkpt lat="45.2605" lon="5.78002">
        <ele>1032</ele>
        <time>2000-01-01T03:40:32.000Z</time>
      </trkpt>
      <trkpt lat="45.26077" lon="5.78028">
        <ele>1037</ele>
        <time>2000-01-01T03:40:42.000Z</time>
      </trkpt>
      <trkpt lat="45.26079" lon="5.7803">
        <ele>1039.6</ele>
        <time>2000-01-01T03:40:52.000Z</time>
      </trkpt>
      <trkpt lat="45.26097" lon="5.78049">
        <ele>1042</ele>
        <time>2000-01-01T03:41:02.000Z</time>
      </trkpt>
      <trkpt lat="45.26109" lon="5.78068">
        <ele>1047.6</ele>
        <time>2000-01-01T03:41:12.000Z</time>
      </trkpt>
      <trkpt lat="45.2612" lon="5.78088">
        <ele>1049</ele>
        <time>2000-01-01T03:41:22.000Z</time>
      </trkpt>
      <trkpt lat="45.26127" lon="5.78106">
        <ele>1051.2</ele>
        <time>2000-01-01T03:41:32.000Z</time>
      </trkpt>
      <trkpt lat="45.26137" lon="5.7812">
        <ele>1052</ele>
        <time>2000-01-01T03:41:42.000Z</time>
      </trkpt>
      <trkpt lat="45.26138" lon="5.78123">
        <ele>1053.3</ele>
        <time>2000-01-01T03:41:52.000Z</time>
      </trkpt>
      <trkpt lat="45.26142" lon="5.78126">
        <ele>1054</ele>
        <time>2000-01-01T03:42:02.000Z</time>
      </trkpt>
      <trkpt lat="45.26147" lon="5.7813">
        <ele>1054.8</ele>
        <time>2000-01-01T03:42:12.000Z</time>
      </trkpt>
      <trkpt lat="45.26164" lon="5.78141">
        <ele>1056</ele>
        <time>2000-01-01T03:42:22.000Z</time>
      </trkpt>
      <trkpt lat="45.26169" lon="5.78144">
        <ele>1058.3</ele>
        <time>2000-01-01T03:42:32.000Z</time>
      </trkpt>
      <trkpt lat="45.26187" lon="5.78163">
        <ele>1059</ele>
        <time>2000-01-01T03:42:42.000Z</time>
      </trkpt>
      <trkpt lat="45.26197" lon="5.78177">
        <ele>1062.7</ele>
        <time>2000-01-01T03:42:52.000Z</time>
      </trkpt>
      <trkpt lat="45.26205" lon="5.78183">
        <ele>1063</ele>
        <time>2000-01-01T03:43:02.000Z</time>
      </trkpt>
      <trkpt lat="45.26209" lon="5.78187">
        <ele>1064.7</ele>
        <time>2000-01-01T03:43:12.000Z</time>
      </trkpt>
      <trkpt lat="45.26222" lon="5.78194">
        <ele>1066</ele>
        <time>2000-01-01T03:43:22.000Z</time>
      </trkpt>
      <trkpt lat="45.26247" lon="5.78211">
        <ele>1070</ele>
        <time>2000-01-01T03:43:32.000Z</time>
      </trkpt>
      <trkpt lat="45.26281" lon="5.78235">
        <ele>1077</ele>
        <time>2000-01-01T03:43:42.000Z</time>
      </trkpt>
      <trkpt lat="45.26297" lon="5.78249">
        <ele>1079</ele>
        <time>2000-01-01T03:43:52.000Z</time>
      </trkpt>
      <trkpt lat="45.26309" lon="5.78257">
        <ele>1083</ele>
        <time>2000-01-01T03:44:02.000Z</time>
      </trkpt>
      <trkpt lat="45.26315" lon="5.78261">
        <ele>1083</ele>
        <time>2000-01-01T03:44:12.000Z</time>
      </trkpt>
      <trkpt lat="45.26318" lon="5.78264">
        <ele>1084.8</ele>
        <time>2000-01-01T03:44:22.000Z</time>
      </trkpt>
      <trkpt lat="45.26319" lon="5.78267">
        <ele>1085.2</ele>
        <time>2000-01-01T03:44:32.000Z</time>
      </trkpt>
      <trkpt lat="45.26321" lon="5.78276">
        <ele>1086.1</ele>
        <time>2000-01-01T03:44:42.000Z</time>
      </trkpt>
      <trkpt lat="45.26323" lon="5.78281">
        <ele>1086.6</ele>
        <time>2000-01-01T03:44:52.000Z</time>
      </trkpt>
      <trkpt lat="45.26325" lon="5.78285">
        <ele>1086</ele>
        <time>2000-01-01T03:45:02.000Z</time>
      </trkpt>
      <trkpt lat="45.2633" lon="5.78286">
        <ele>1087.8</ele>
        <time>2000-01-01T03:45:12.000Z</time>
      </trkpt>
      <trkpt lat="45.26336" lon="5.78288">
        <ele>1088.7</ele>
        <time>2000-01-01T03:45:22.000Z</time>
      </trkpt>
      <trkpt lat="45.26344" lon="5.7829">
        <ele>1088</ele>
        <time>2000-01-01T03:45:32.000Z</time>
      </trkpt>
      <trkpt lat="45.26359" lon="5.78297">
        <ele>1092.1</ele>
        <time>2000-01-01T03:45:42.000Z</time>
      </trkpt>
      <trkpt lat="45.26382" lon="5.78312">
        <ele>1094</ele>
        <time>2000-01-01T03:45:52.000Z</time>
      </trkpt>
      <trkpt lat="45.26402" lon="5.78327">
        <ele>1097</ele>
        <time>2000-01-01T03:46:02.000Z</time>
      </trkpt>
      <trkpt lat="45.26425" lon="5.78339">
        <ele>1099</ele>
        <time>2000-01-01T03:46:12.000Z</time>
      </trkpt>
      <trkpt lat="45.26432" lon="5.78343">
        <ele>1101.7</ele>
        <time>2000-01-01T03:46:22.000Z</time>
      </trkpt>
      <trkpt lat="45.26443" lon="5.78354">
        <ele>1103</ele>
        <time>2000-01-01T03:46:32.000Z</time>
      </trkpt>
      <trkpt lat="45.26463" lon="5.78379">
        <ele>1106</ele>
        <time>2000-01-01T03:46:42.000Z</time>
      </trkpt>
      <trkpt lat="45.26492" lon="5.78415">
        <ele>1113</ele>
        <time>2000-01-01T03:46:52.000Z</time>
      </trkpt>
      <trkpt lat="45.2651" lon="5.78438">
        <ele>1116</ele>
        <time>2000-01-01T03:47:02.000Z</time>
      </trkpt>
      <trkpt lat="45.26531" lon="5.78464">
        <ele>1122</ele>
        <time>2000-01-01T03:47:12.000Z</time>
      </trkpt>
      <trkpt lat="45.26545" lon="5.78483">
        <ele>1126</ele>
        <time>2000-01-01T03:47:22.000Z</time>
      </trkpt>
      <trkpt lat="45.26543" lon="5.78486">
        <ele>1127.3</ele>
        <time>2000-01-01T03:47:32.000Z</time>
      </trkpt>
      <trkpt lat="45.26542" lon="5.78494">
        <ele>1128.5</ele>
        <time>2000-01-01T03:47:42.000Z</time>
      </trkpt>
      <trkpt lat="45.2654" lon="5.78518">
        <ele>1130</ele>
        <time>2000-01-01T03:47:52.000Z</time>
      </trkpt>
      <trkpt lat="45.26538" lon="5.78545">
        <ele>1131</ele>
        <time>2000-01-01T03:48:02.000Z</time>
      </trkpt>
      <trkpt lat="45.26538" lon="5.78567">
        <ele>1134</ele>
        <time>2000-01-01T03:48:12.000Z</time>
      </trkpt>
      <trkpt lat="45.26538" lon="5.78584">
        <ele>1132</ele>
        <time>2000-01-01T03:48:22.000Z</time>
      </trkpt>
      <trkpt lat="45.26541" lon="5.78605">
        <ele>1135.4</ele>
        <time>2000-01-01T03:48:32.000Z</time>
      </trkpt>
      <trkpt lat="45.26546" lon="5.78628">
        <ele>1136</ele>
        <time>2000-01-01T03:48:42.000Z</time>
      </trkpt>
      <trkpt lat="45.26558" lon="5.78665">
        <ele>1138</ele>
        <time>2000-01-01T03:48:52.000Z</time>
      </trkpt>
      <trkpt lat="45.26572" lon="5.78704">
        <ele>1143</ele>
        <time>2000-01-01T03:49:02.000Z</time>
      </trkpt>
      <trkpt lat="45.26587" lon="5.78743">
        <ele>1145</ele>
        <time>2000-01-01T03:49:12.000Z</time>
      </trkpt>
      <trkpt lat="45.26592" lon="5.78755">
        <ele>1147.6</ele>
        <time>2000-01-01T03:49:22.000Z</time>
      </trkpt>
      <trkpt lat="45.26597" lon="5.78767">
        <ele>1146</ele>
        <time>2000-01-01T03:49:32.000Z</time>
      </trkpt>
      <trkpt lat="45.26604" lon="5.78782">
        <ele>1149.7</ele>
        <time>2000-01-01T03:49:42.000Z</time>
      </trkpt>
      <trkpt lat="45.26614" lon="5.788">
        <ele>1151</ele>
        <time>2000-01-01T03:49:52.000Z</time>
      </trkpt>
      <trkpt lat="45.26621" lon="5.78812">
        <ele>1153.1</ele>
        <time>2000-01-01T03:50:02.000Z</time>
      </trkpt>
      <trkpt lat="45.26623" lon="5.78818">
        <ele>1153.6</ele>
        <time>2000-01-01T03:50:12.000Z</time>
      </trkpt>
      <trkpt lat="45.26625" lon="5.78823">
        <ele>1152</ele>
        <time>2000-01-01T03:50:22.000Z</time>
      </trkpt>
      <trkpt lat="45.26627" lon="5.7883">
        <ele>1154.4</ele>
        <time>2000-01-01T03:50:32.000Z</time>
      </trkpt>
      <trkpt lat="45.26636" lon="5.7887">
        <ele>1155</ele>
        <time>2000-01-01T03:50:42.000Z</time>
      </trkpt>
      <trkpt lat="45.26645" lon="5.7889">
        <ele>1158.1</ele>
        <time>2000-01-01T03:50:52.000Z</time>
      </trkpt>
      <trkpt lat="45.26646" lon="5.78894">
        <ele>1156</ele>
        <time>2000-01-01T03:51:02.000Z</time>
      </trkpt>
      <trkpt lat="45.26656" lon="5.78925">
        <ele>1158</ele>
        <time>2000-01-01T03:51:12.000Z</time>
      </trkpt>
      <trkpt lat="45.26666" lon="5.78959">
        <ele>1160</ele>
        <time>2000-01-01T03:51:22.000Z</time>
      </trkpt>
      <trkpt lat="45.26683" lon="5.79013">
        <ele>1164</ele>
        <time>2000-01-01T03:51:32.000Z</time>
      </trkpt>
      <trkpt lat="45.26695" lon="5.7905">
        <ele>1168</ele>
        <time>2000-01-01T03:51:42.000Z</time>
      </trkpt>
      <trkpt lat="45.26713" lon="5.79106">
        <ele>1173</ele>
        <time>2000-01-01T03:51:52.000Z</time>
      </trkpt>
      <trkpt lat="45.26731" lon="5.79156">
        <ele>1179</ele>
        <time>2000-01-01T03:52:02.000Z</time>
      </trkpt>
      <trkpt lat="45.26755" lon="5.79208">
        <ele>1179</ele>
        <time>2000-01-01T03:52:12.000Z</time>
      </trkpt>
      <trkpt lat="45.26764" lon="5.79258">
        <ele>1179</ele>
        <time>2000-01-01T03:52:22.000Z</time>
      </trkpt>
      <trkpt lat="45.26755" lon="5.79208">
        <ele>1183</ele>
        <time>2000-01-01T03:52:32.000Z</time>
      </trkpt>
      <trkpt lat="45.26771" lon="5.79243">
        <ele>1181</ele>
        <time>2000-01-01T03:52:42.000Z</time>
      </trkpt>
      <trkpt lat="45.26799" lon="5.79303">
        <ele>1182</ele>
        <time>2000-01-01T03:52:52.000Z</time>
      </trkpt>
      <trkpt lat="45.26824" lon="5.7933">
        <ele>1183</ele>
        <time>2000-01-01T03:53:02.000Z</time>
      </trkpt>
      <trkpt lat="45.26838" lon="5.79347">
        <ele>1185.1</ele>
        <time>2000-01-01T03:53:12.000Z</time>
      </trkpt>
      <trkpt lat="45.26855" lon="5.79358">
        <ele>1187</ele>
        <time>2000-01-01T03:53:22.000Z</time>
      </trkpt>
      <trkpt lat="45.26871" lon="5.79363">
        <ele>1187.7</ele>
        <time>2000-01-01T03:53:32.000Z</time>
      </trkpt>
      <trkpt lat="45.2689" lon="5.79365">
        <ele>1190</ele>
        <time>2000-01-01T03:53:42.000Z</time>
      </trkpt>
      <trkpt lat="45.26906" lon="5.79366">
        <ele>1189.2</ele>
        <time>2000-01-01T03:53:52.000Z</time>
      </trkpt>
      <trkpt lat="45.26925" lon="5.79356">
        <ele>1191</ele>
        <time>2000-01-01T03:54:02.000Z</time>
      </trkpt>
      <trkpt lat="45.26945" lon="5.7934">
        <ele>1191</ele>
        <time>2000-01-01T03:54:12.000Z</time>
      </trkpt>
      <trkpt lat="45.26965" lon="5.79327">
        <ele>1191</ele>
        <time>2000-01-01T03:54:22.000Z</time>
      </trkpt>
      <trkpt lat="45.26983" lon="5.7932">
        <ele>1191</ele>
        <time>2000-01-01T03:54:32.000Z</time>
      </trkpt>
      <trkpt lat="45.27002" lon="5.79324">
        <ele>1190</ele>
        <time>2000-01-01T03:54:42.000Z</time>
      </trkpt>
      <trkpt lat="45.27028" lon="5.79333">
        <ele>1190</ele>
        <time>2000-01-01T03:54:52.000Z</time>
      </trkpt>
      <trkpt lat="45.27047" lon="5.79337">
        <ele>1191.5</ele>
        <time>2000-01-01T03:55:02.000Z</time>
      </trkpt>
      <trkpt lat="45.27047" lon="5.79338">
        <ele>1190</ele>
        <time>2000-01-01T03:55:12.000Z</time>
      </trkpt>
      <trkpt lat="45.27052" lon="5.79344">
        <ele>1191.8</ele>
        <time>2000-01-01T03:55:22.000Z</time>
      </trkpt>
      <trkpt lat="45.27053" lon="5.79351">
        <ele>1191.4</ele>
        <time>2000-01-01T03:55:32.000Z</time>
      </trkpt>
      <trkpt lat="45.27053" lon="5.79357">
        <ele>1191</ele>
        <time>2000-01-01T03:55:42.000Z</time>
      </trkpt>
      <trkpt lat="45.27054" lon="5.79387">
        <ele>1189</ele>
        <time>2000-01-01T03:55:52.000Z</time>
      </trkpt>
      <trkpt lat="45.27055" lon="5.79417">
        <ele>1188</ele>
        <time>2000-01-01T03:56:02.000Z</time>
      </trkpt>
      <trkpt lat="45.27055" lon="5.7942">
        <ele>1189.8</ele>
        <time>2000-01-01T03:56:12.000Z</time>
      </trkpt>
      <trkpt lat="45.27056" lon="5.79441">
        <ele>1189.3</ele>
        <time>2000-01-01T03:56:22.000Z</time>
      </trkpt>
      <trkpt lat="45.27058" lon="5.79447">
        <ele>1190</ele>
        <time>2000-01-01T03:56:32.000Z</time>
      </trkpt>
      <trkpt lat="45.27071" lon="5.7949">
        <ele>1193</ele>
        <time>2000-01-01T03:56:42.000Z</time>
      </trkpt>
      <trkpt lat="45.27074" lon="5.795">
        <ele>1196</ele>
        <time>2000-01-01T03:56:52.000Z</time>
      </trkpt>
      <trkpt lat="45.27075" lon="5.79511">
        <ele>1196.4</ele>
        <time>2000-01-01T03:57:02.000Z</time>
      </trkpt>
      <trkpt lat="45.2708" lon="5.79525">
        <ele>1193</ele>
        <time>2000-01-01T03:57:12.000Z</time>
      </trkpt>
      <trkpt lat="45.27089" lon="5.79562">
        <ele>1199</ele>
        <time>2000-01-01T03:57:22.000Z</time>
      </trkpt>
      <trkpt lat="45.27096" lon="5.79575">
        <ele>1205.6</ele>
        <time>2000-01-01T03:57:32.000Z</time>
      </trkpt>
      <trkpt lat="45.27098" lon="5.79586">
        <ele>1203</ele>
        <time>2000-01-01T03:57:42.000Z</time>
      </trkpt>
      <trkpt lat="45.27102" lon="5.79621">
        <ele>1205</ele>
        <time>2000-01-01T03:57:52.000Z</time>
      </trkpt>
      <trkpt lat="45.27108" lon="5.79645">
        <ele>1207.3</ele>
        <time>2000-01-01T03:58:02.000Z</time>
      </trkpt>
      <trkpt lat="45.27116" lon="5.79667">
        <ele>1207</ele>
        <time>2000-01-01T03:58:12.000Z</time>
      </trkpt>
      <trkpt lat="45.27126" lon="5.79692">
        <ele>1207</ele>
        <time>2000-01-01T03:58:22.000Z</time>
      </trkpt>
      <trkpt lat="45.27132" lon="5.79705">
        <ele>1208.5</ele>
        <time>2000-01-01T03:58:32.000Z</time>
      </trkpt>
      <trkpt lat="45.27148" lon="5.79724">
        <ele>1209</ele>
        <time>2000-01-01T03:58:42.000Z</time>
      </trkpt>
      <trkpt lat="45.27175" lon="5.79752">
        <ele>1212</ele>
        <time>2000-01-01T03:58:52.000Z</time>
      </trkpt>
      <trkpt lat="45.27194" lon="5.79765">
        <ele>1214</ele>
        <time>2000-01-01T03:59:02.000Z</time>
      </trkpt>
      <trkpt lat="45.27203" lon="5.79769">
        <ele>1213.9</ele>
        <time>2000-01-01T03:59:12.000Z</time>
      </trkpt>
      <trkpt lat="45.27213" lon="5.79773">
        <ele>1215</ele>
        <time>2000-01-01T03:59:22.000Z</time>
      </trkpt>
      <trkpt lat="45.27247" lon="5.79779">
        <ele>1222</ele>
        <time>2000-01-01T03:59:32.000Z</time>
      </trkpt>
      <trkpt lat="45.27278" lon="5.79782">
        <ele>1222</ele>
        <time>2000-01-01T03:59:42.000Z</time>
      </trkpt>
      <trkpt lat="45.27283" lon="5.79784">
        <ele>1226.7</ele>
        <time>2000-01-01T03:59:52.000Z</time>
      </trkpt>
      <trkpt lat="45.27289" lon="5.79788">
        <ele>1226.4</ele>
        <time>2000-01-01T04:00:02.000Z</time>
      </trkpt>
      <trkpt lat="45.27309" lon="5.79805">
        <ele>1223</ele>
        <time>2000-01-01T04:00:12.000Z</time>
      </trkpt>
      <trkpt lat="45.27326" lon="5.79814">
        <ele>1223.3</ele>
        <time>2000-01-01T04:00:22.000Z</time>
      </trkpt>
      <trkpt lat="45.27338" lon="5.79816">
        <ele>1226</ele>
        <time>2000-01-01T04:00:32.000Z</time>
      </trkpt>
      <trkpt lat="45.27349" lon="5.79816">
        <ele>1226.1</ele>
        <time>2000-01-01T04:00:42.000Z</time>
      </trkpt>
      <trkpt lat="45.27355" lon="5.79815">
        <ele>1227.4</ele>
        <time>2000-01-01T04:00:52.000Z</time>
      </trkpt>
      <trkpt lat="45.27368" lon="5.79811">
        <ele>1230</ele>
        <time>2000-01-01T04:01:02.000Z</time>
      </trkpt>
      <trkpt lat="45.27389" lon="5.79797">
        <ele>1238</ele>
        <time>2000-01-01T04:01:12.000Z</time>
      </trkpt>
      <trkpt lat="45.27413" lon="5.7978">
        <ele>1239</ele>
        <time>2000-01-01T04:01:22.000Z</time>
      </trkpt>
      <trkpt lat="45.27444" lon="5.79758">
        <ele>1244</ele>
        <time>2000-01-01T04:01:32.000Z</time>
      </trkpt>
      <trkpt lat="45.27459" lon="5.79746">
        <ele>1243.6</ele>
        <time>2000-01-01T04:01:42.000Z</time>
      </trkpt>
      <trkpt lat="45.27466" lon="5.7974">
        <ele>1250</ele>
        <time>2000-01-01T04:01:52.000Z</time>
      </trkpt>
      <trkpt lat="45.2748" lon="5.79731">
        <ele>1248.9</ele>
        <time>2000-01-01T04:02:02.000Z</time>
      </trkpt>
      <trkpt lat="45.27487" lon="5.79728">
        <ele>1253</ele>
        <time>2000-01-01T04:02:12.000Z</time>
      </trkpt>
      <trkpt lat="45.27491" lon="5.79728">
        <ele>1251</ele>
        <time>2000-01-01T04:02:22.000Z</time>
      </trkpt>
      <trkpt lat="45.27493" lon="5.79728">
        <ele>1251.2</ele>
        <time>2000-01-01T04:02:32.000Z</time>
      </trkpt>
      <trkpt lat="45.27512" lon="5.79734">
        <ele>1253</ele>
        <time>2000-01-01T04:02:42.000Z</time>
      </trkpt>
      <trkpt lat="45.27527" lon="5.79749">
        <ele>1249.2</ele>
        <time>2000-01-01T04:02:52.000Z</time>
      </trkpt>
      <trkpt lat="45.27542" lon="5.79761">
        <ele>1255</ele>
        <time>2000-01-01T04:03:02.000Z</time>
      </trkpt>
      <trkpt lat="45.27555" lon="5.79756">
        <ele>1254.5</ele>
        <time>2000-01-01T04:03:12.000Z</time>
      </trkpt>
      <trkpt lat="45.27588" lon="5.79763">
        <ele>1256</ele>
        <time>2000-01-01T04:03:22.000Z</time>
      </trkpt>
      <trkpt lat="45.27615" lon="5.7977">
        <ele>1257</ele>
        <time>2000-01-01T04:03:32.000Z</time>
      </trkpt>
      <trkpt lat="45.27649" lon="5.7978">
        <ele>1255</ele>
        <time>2000-01-01T04:03:42.000Z</time>
      </trkpt>
      <trkpt lat="45.27653" lon="5.79782">
        <ele>1259</ele>
        <time>2000-01-01T04:03:52.000Z</time>
      </trkpt>
      <trkpt lat="45.27655" lon="5.79785">
        <ele>1258.4</ele>
        <time>2000-01-01T04:04:02.000Z</time>
      </trkpt>
      <trkpt lat="45.27658" lon="5.79789">
        <ele>1257.7</ele>
        <time>2000-01-01T04:04:12.000Z</time>
      </trkpt>
      <trkpt lat="45.27661" lon="5.79807">
        <ele>1254</ele>
        <time>2000-01-01T04:04:22.000Z</time>
      </trkpt>
      <trkpt lat="45.27663" lon="5.7984">
        <ele>1252</ele>
        <time>2000-01-01T04:04:32.000Z</time>
      </trkpt>
      <trkpt lat="45.27664" lon="5.79849">
        <ele>1253.3</ele>
        <time>2000-01-01T04:04:42.000Z</time>
      </trkpt>
      <trkpt lat="45.27666" lon="5.79868">
        <ele>1252</ele>
        <time>2000-01-01T04:04:52.000Z</time>
      </trkpt>
      <trkpt lat="45.27666" lon="5.79887">
        <ele>1254.7</ele>
        <time>2000-01-01T04:05:02.000Z</time>
      </trkpt>
      <trkpt lat="45.27665" lon="5.79913">
        <ele>1252</ele>
        <time>2000-01-01T04:05:12.000Z</time>
      </trkpt>
      <trkpt lat="45.27664" lon="5.79942">
        <ele>1252</ele>
        <time>2000-01-01T04:05:22.000Z</time>
      </trkpt>
      <trkpt lat="45.27659" lon="5.79971">
        <ele>1252</ele>
        <time>2000-01-01T04:05:32.000Z</time>
      </trkpt>
      <trkpt lat="45.27675" lon="5.79994">
        <ele>1252</ele>
        <time>2000-01-01T04:05:42.000Z</time>
      </trkpt>
      <trkpt lat="45.27696" lon="5.80012">
        <ele>1256</ele>
        <time>2000-01-01T04:05:52.000Z</time>
      </trkpt>
      <trkpt lat="45.27726" lon="5.80027">
        <ele>1263</ele>
        <time>2000-01-01T04:06:02.000Z</time>
      </trkpt>
      <trkpt lat="45.27755" lon="5.80042">
        <ele>1266</ele>
        <time>2000-01-01T04:06:12.000Z</time>
      </trkpt>
      <trkpt lat="45.27804" lon="5.80068">
        <ele>1265</ele>
        <time>2000-01-01T04:06:22.000Z</time>
      </trkpt>
      <trkpt lat="45.27828" lon="5.80079">
        <ele>1265</ele>
        <time>2000-01-01T04:06:32.000Z</time>
      </trkpt>
      <trkpt lat="45.27856" lon="5.80091">
        <ele>1266</ele>
        <time>2000-01-01T04:06:42.000Z</time>
      </trkpt>
      <trkpt lat="45.27892" lon="5.8009">
        <ele>1268</ele>
        <time>2000-01-01T04:06:52.000Z</time>
      </trkpt>
      <trkpt lat="45.2791" lon="5.80099">
        <ele>1271.6</ele>
        <time>2000-01-01T04:07:02.000Z</time>
      </trkpt>
      <trkpt lat="45.27921" lon="5.80127">
        <ele>1268</ele>
        <time>2000-01-01T04:07:12.000Z</time>
      </trkpt>
      <trkpt lat="45.27928" lon="5.8014">
        <ele>1269.7</ele>
        <time>2000-01-01T04:07:22.000Z</time>
      </trkpt>
      <trkpt lat="45.27936" lon="5.80155">
        <ele>1269</ele>
        <time>2000-01-01T04:07:32.000Z</time>
      </trkpt>
      <trkpt lat="45.27956" lon="5.80175">
        <ele>1271</ele>
        <time>2000-01-01T04:07:42.000Z</time>
      </trkpt>
      <trkpt lat="45.27973" lon="5.80196">
        <ele>1275</ele>
        <time>2000-01-01T04:07:52.000Z</time>
      </trkpt>
      <trkpt lat="45.2799" lon="5.80216">
        <ele>1276</ele>
        <time>2000-01-01T04:08:02.000Z</time>
      </trkpt>
      <trkpt lat="45.27996" lon="5.80218">
        <ele>1280.4</ele>
        <time>2000-01-01T04:08:12.000Z</time>
      </trkpt>
      <trkpt lat="45.28104" lon="5.80252">
        <ele>1300</ele>
        <time>2000-01-01T04:08:22.000Z</time>
      </trkpt>
      <trkpt lat="45.28118" lon="5.80253">
        <ele>1303.1</ele>
        <time>2000-01-01T04:08:32.000Z</time>
      </trkpt>
      <trkpt lat="45.28126" lon="5.80253">
        <ele>1303</ele>
        <time>2000-01-01T04:08:42.000Z</time>
      </trkpt>
      <trkpt lat="45.28135" lon="5.80251">
        <ele>1305.5</ele>
        <time>2000-01-01T04:08:52.000Z</time>
      </trkpt>
      <trkpt lat="45.2814" lon="5.80247">
        <ele>1306.4</ele>
        <time>2000-01-01T04:09:02.000Z</time>
      </trkpt>
      <trkpt lat="45.28176" lon="5.80234">
        <ele>1312</ele>
        <time>2000-01-01T04:09:12.000Z</time>
      </trkpt>
      <trkpt lat="45.282" lon="5.80228">
        <ele>1317</ele>
        <time>2000-01-01T04:09:22.000Z</time>
      </trkpt>
      <trkpt lat="45.28215" lon="5.80226">
        <ele>1322.3</ele>
        <time>2000-01-01T04:09:32.000Z</time>
      </trkpt>
      <trkpt lat="45.28235" lon="5.80224">
        <ele>1325</ele>
        <time>2000-01-01T04:09:42.000Z</time>
      </trkpt>
      <trkpt lat="45.28244" lon="5.80225">
        <ele>1326.2</ele>
        <time>2000-01-01T04:09:52.000Z</time>
      </trkpt>
      <trkpt lat="45.28269" lon="5.80248">
        <ele>1327</ele>
        <time>2000-01-01T04:10:02.000Z</time>
      </trkpt>
      <trkpt lat="45.28271" lon="5.80258">
        <ele>1329.2</ele>
        <time>2000-01-01T04:10:12.000Z</time>
      </trkpt>
      <trkpt lat="45.28272" lon="5.80265">
        <ele>1329.6</ele>
        <time>2000-01-01T04:10:22.000Z</time>
      </trkpt>
      <trkpt lat="45.28271" lon="5.80271">
        <ele>1329.6</ele>
        <time>2000-01-01T04:10:32.000Z</time>
      </trkpt>
      <trkpt lat="45.28269" lon="5.80275">
        <ele>1327</ele>
        <time>2000-01-01T04:10:42.000Z</time>
      </trkpt>
      <trkpt lat="45.28254" lon="5.80298">
        <ele>1327</ele>
        <time>2000-01-01T04:10:52.000Z</time>
      </trkpt>
      <trkpt lat="45.28247" lon="5.80314">
        <ele>1331.3</ele>
        <time>2000-01-01T04:11:02.000Z</time>
      </trkpt>
      <trkpt lat="45.28231" lon="5.80325">
        <ele>1329</ele>
        <time>2000-01-01T04:11:12.000Z</time>
      </trkpt>
      <trkpt lat="45.28218" lon="5.80339">
        <ele>1331.3</ele>
        <time>2000-01-01T04:11:22.000Z</time>
      </trkpt>
      <trkpt lat="45.28211" lon="5.80362">
        <ele>1330</ele>
        <time>2000-01-01T04:11:32.000Z</time>
      </trkpt>
      <trkpt lat="45.28189" lon="5.8039">
        <ele>1331</ele>
        <time>2000-01-01T04:11:42.000Z</time>
      </trkpt>
      <trkpt lat="45.28176" lon="5.80411">
        <ele>1336</ele>
        <time>2000-01-01T04:11:52.000Z</time>
      </trkpt>
      <trkpt lat="45.28164" lon="5.80446">
        <ele>1338</ele>
        <time>2000-01-01T04:12:02.000Z</time>
      </trkpt>
      <trkpt lat="45.28161" lon="5.80457">
        <ele>1341.8</ele>
        <time>2000-01-01T04:12:12.000Z</time>
      </trkpt>
      <trkpt lat="45.2816" lon="5.8046">
        <ele>1342.1</ele>
        <time>2000-01-01T04:12:22.000Z</time>
      </trkpt>
      <trkpt lat="45.28158" lon="5.80465">
        <ele>1342.5</ele>
        <time>2000-01-01T04:12:32.000Z</time>
      </trkpt>
      <trkpt lat="45.28146" lon="5.80492">
        <ele>1341</ele>
        <time>2000-01-01T04:12:42.000Z</time>
      </trkpt>
      <trkpt lat="45.28145" lon="5.805">
        <ele>1344</ele>
        <time>2000-01-01T04:12:52.000Z</time>
      </trkpt>
      <trkpt lat="45.28144" lon="5.80507">
        <ele>1344.7</ele>
        <time>2000-01-01T04:13:02.000Z</time>
      </trkpt>
      <trkpt lat="45.2813" lon="5.80544">
        <ele>1342</ele>
        <time>2000-01-01T04:13:12.000Z</time>
      </trkpt>
      <trkpt lat="45.28125" lon="5.80556">
        <ele>1346.6</ele>
        <time>2000-01-01T04:13:22.000Z</time>
      </trkpt>
      <trkpt lat="45.28118" lon="5.8057">
        <ele>1343</ele>
        <time>2000-01-01T04:13:32.000Z</time>
      </trkpt>
      <trkpt lat="45.28109" lon="5.8058">
        <ele>1346</ele>
        <time>2000-01-01T04:13:42.000Z</time>
      </trkpt>
      <trkpt lat="45.28101" lon="5.80588">
        <ele>1343</ele>
        <time>2000-01-01T04:13:52.000Z</time>
      </trkpt>
      <trkpt lat="45.28091" lon="5.80604">
        <ele>1345.1</ele>
        <time>2000-01-01T04:14:02.000Z</time>
      </trkpt>
      <trkpt lat="45.28085" lon="5.80619">
        <ele>1342</ele>
        <time>2000-01-01T04:14:12.000Z</time>
      </trkpt>
      <trkpt lat="45.28076" lon="5.80633">
        <ele>1345.6</ele>
        <time>2000-01-01T04:14:22.000Z</time>
      </trkpt>
      <trkpt lat="45.28065" lon="5.80647">
        <ele>1342</ele>
        <time>2000-01-01T04:14:32.000Z</time>
      </trkpt>
      <trkpt lat="45.28061" lon="5.8065">
        <ele>1345.7</ele>
        <time>2000-01-01T04:14:42.000Z</time>
      </trkpt>
      <trkpt lat="45.28054" lon="5.80654">
        <ele>1345.3</ele>
        <time>2000-01-01T04:14:52.000Z</time>
      </trkpt>
      <trkpt lat="45.28044" lon="5.80657">
        <ele>1343</ele>
        <time>2000-01-01T04:15:02.000Z</time>
      </trkpt>
      <trkpt lat="45.28036" lon="5.80659">
        <ele>1346.7</ele>
        <time>2000-01-01T04:15:12.000Z</time>
      </trkpt>
      <trkpt lat="45.28033" lon="5.80659">
        <ele>1346.7</ele>
        <time>2000-01-01T04:15:22.000Z</time>
      </trkpt>
      <trkpt lat="45.28024" lon="5.80655">
        <ele>1343</ele>
        <time>2000-01-01T04:15:32.000Z</time>
      </trkpt>
      <trkpt lat="45.28017" lon="5.80652">
        <ele>1345.7</ele>
        <time>2000-01-01T04:15:42.000Z</time>
      </trkpt>
      <trkpt lat="45.28011" lon="5.80646">
        <ele>1344.4</ele>
        <time>2000-01-01T04:15:52.000Z</time>
      </trkpt>
      <trkpt lat="45.28001" lon="5.80644">
        <ele>1343</ele>
        <time>2000-01-01T04:16:02.000Z</time>
      </trkpt>
      <trkpt lat="45.27991" lon="5.80646">
        <ele>1346.3</ele>
        <time>2000-01-01T04:16:12.000Z</time>
      </trkpt>
      <trkpt lat="45.27978" lon="5.80652">
        <ele>1350</ele>
        <time>2000-01-01T04:16:22.000Z</time>
      </trkpt>
      <trkpt lat="45.2797" lon="5.80655">
        <ele>1351.4</ele>
        <time>2000-01-01T04:16:32.000Z</time>
      </trkpt>
      <trkpt lat="45.27956" lon="5.80656">
        <ele>1349</ele>
        <time>2000-01-01T04:16:42.000Z</time>
      </trkpt>
      <trkpt lat="45.27941" lon="5.80654">
        <ele>1353.6</ele>
        <time>2000-01-01T04:16:52.000Z</time>
      </trkpt>
      <trkpt lat="45.27932" lon="5.80648">
        <ele>1349</ele>
        <time>2000-01-01T04:17:02.000Z</time>
      </trkpt>
      <trkpt lat="45.27918" lon="5.80642">
        <ele>1351.8</ele>
        <time>2000-01-01T04:17:12.000Z</time>
      </trkpt>
      <trkpt lat="45.27899" lon="5.80636">
        <ele>1350</ele>
        <time>2000-01-01T04:17:22.000Z</time>
      </trkpt>
      <trkpt lat="45.27881" lon="5.80628">
        <ele>1350.3</ele>
        <time>2000-01-01T04:17:32.000Z</time>
      </trkpt>
      <trkpt lat="45.27987" lon="5.80787">
        <ele>1384</ele>
        <time>2000-01-01T04:17:42.000Z</time>
      </trkpt>
      <trkpt lat="45.28001" lon="5.80796">
        <ele>1388.4</ele>
        <time>2000-01-01T04:17:52.000Z</time>
      </trkpt>
      <trkpt lat="45.28014" lon="5.80801">
        <ele>1390</ele>
        <time>2000-01-01T04:18:02.000Z</time>
      </trkpt>
      <trkpt lat="45.28031" lon="5.80812">
        <ele>1393.5</ele>
        <time>2000-01-01T04:18:12.000Z</time>
      </trkpt>
      <trkpt lat="45.28043" lon="5.80823">
        <ele>1394</ele>
        <time>2000-01-01T04:18:22.000Z</time>
      </trkpt>
      <trkpt lat="45.28059" lon="5.80835">
        <ele>1397.7</ele>
        <time>2000-01-01T04:18:32.000Z</time>
      </trkpt>
      <trkpt lat="45.28067" lon="5.80837">
        <ele>1398</ele>
        <time>2000-01-01T04:18:42.000Z</time>
      </trkpt>
      <trkpt lat="45.28076" lon="5.80846">
        <ele>1401.1</ele>
        <time>2000-01-01T04:18:52.000Z</time>
      </trkpt>
      <trkpt lat="45.28099" lon="5.80867">
        <ele>1403</ele>
        <time>2000-01-01T04:19:02.000Z</time>
      </trkpt>
      <trkpt lat="45.28121" lon="5.80895">
        <ele>1410</ele>
        <time>2000-01-01T04:19:12.000Z</time>
      </trkpt>
      <trkpt lat="45.28132" lon="5.80908">
        <ele>1414.1</ele>
        <time>2000-01-01T04:19:22.000Z</time>
      </trkpt>
      <trkpt lat="45.28139" lon="5.80918">
        <ele>1413</ele>
        <time>2000-01-01T04:19:32.000Z</time>
      </trkpt>
      <trkpt lat="45.28146" lon="5.80934">
        <ele>1418.3</ele>
        <time>2000-01-01T04:19:42.000Z</time>
      </trkpt>
      <trkpt lat="45.2815" lon="5.80945">
        <ele>1419</ele>
        <time>2000-01-01T04:19:52.000Z</time>
      </trkpt>
      <trkpt lat="45.28153" lon="5.80962">
        <ele>1422.2</ele>
        <time>2000-01-01T04:20:02.000Z</time>
      </trkpt>
      <trkpt lat="45.28153" lon="5.80989">
        <ele>1424</ele>
        <time>2000-01-01T04:20:12.000Z</time>
      </trkpt>
      <trkpt lat="45.28147" lon="5.8102">
        <ele>1426</ele>
        <time>2000-01-01T04:20:22.000Z</time>
      </trkpt>
      <trkpt lat="45.28143" lon="5.81024">
        <ele>1427.8</ele>
        <time>2000-01-01T04:20:32.000Z</time>
      </trkpt>
      <trkpt lat="45.28135" lon="5.81043">
        <ele>1429</ele>
        <time>2000-01-01T04:20:42.000Z</time>
      </trkpt>
      <trkpt lat="45.28131" lon="5.81058">
        <ele>1430.9</ele>
        <time>2000-01-01T04:20:52.000Z</time>
      </trkpt>
      <trkpt lat="45.28125" lon="5.81072">
        <ele>1431</ele>
        <time>2000-01-01T04:21:02.000Z</time>
      </trkpt>
      <trkpt lat="45.28116" lon="5.8109">
        <ele>1434.1</ele>
        <time>2000-01-01T04:21:12.000Z</time>
      </trkpt>
      <trkpt lat="45.28107" lon="5.81108">
        <ele>1437</ele>
        <time>2000-01-01T04:21:22.000Z</time>
      </trkpt>
      <trkpt lat="45.281" lon="5.81118">
        <ele>1440.3</ele>
        <time>2000-01-01T04:21:32.000Z</time>
      </trkpt>
      <trkpt lat="45.2809" lon="5.81131">
        <ele>1443</ele>
        <time>2000-01-01T04:21:42.000Z</time>
      </trkpt>
      <trkpt lat="45.28084" lon="5.81143">
        <ele>1445.5</ele>
        <time>2000-01-01T04:21:52.000Z</time>
      </trkpt>
      <trkpt lat="45.28081" lon="5.81153">
        <ele>1447.2</ele>
        <time>2000-01-01T04:22:02.000Z</time>
      </trkpt>
      <trkpt lat="45.28071" lon="5.81179">
        <ele>1451</ele>
        <time>2000-01-01T04:22:12.000Z</time>
      </trkpt>
      <trkpt lat="45.28058" lon="5.81219">
        <ele>1459</ele>
        <time>2000-01-01T04:22:22.000Z</time>
      </trkpt>
      <trkpt lat="45.28048" lon="5.81244">
        <ele>1467</ele>
        <time>2000-01-01T04:22:42.000Z</time>
      </trkpt>
      <trkpt lat="45.28038" lon="5.81271">
        <ele>1473</ele>
        <time>2000-01-01T04:22:52.000Z</time>
      </trkpt>
      <trkpt lat="45.28025" lon="5.81307">
        <ele>1479</ele>
        <time>2000-01-01T04:23:02.000Z</time>
      </trkpt>
      <trkpt lat="45.28022" lon="5.81323">
        <ele>1483.4</ele>
        <time>2000-01-01T04:23:12.000Z</time>
      </trkpt>
      <trkpt lat="45.2802" lon="5.81343">
        <ele>1486</ele>
        <time>2000-01-01T04:23:22.000Z</time>
      </trkpt>
      <trkpt lat="45.28019" lon="5.81361">
        <ele>1487.3</ele>
        <time>2000-01-01T04:23:32.000Z</time>
      </trkpt>
      <trkpt lat="45.28018" lon="5.81375">
        <ele>1489</ele>
        <time>2000-01-01T04:23:42.000Z</time>
      </trkpt>
      <trkpt lat="45.28016" lon="5.81391">
        <ele>1488.5</ele>
        <time>2000-01-01T04:23:52.000Z</time>
      </trkpt>
      <trkpt lat="45.28011" lon="5.81415">
        <ele>1489</ele>
        <time>2000-01-01T04:24:02.000Z</time>
      </trkpt>
      <trkpt lat="45.28008" lon="5.81432">
        <ele>1489.3</ele>
        <time>2000-01-01T04:24:12.000Z</time>
      </trkpt>
      <trkpt lat="45.28007" lon="5.8145">
        <ele>1489</ele>
        <time>2000-01-01T04:24:22.000Z</time>
      </trkpt>
      <trkpt lat="45.28003" lon="5.81471">
        <ele>1486.8</ele>
        <time>2000-01-01T04:24:32.000Z</time>
      </trkpt>
      <trkpt lat="45.28002" lon="5.81479">
        <ele>1487</ele>
        <time>2000-01-01T04:24:42.000Z</time>
      </trkpt>
      <trkpt lat="45.28003" lon="5.81483">
        <ele>1485.2</ele>
        <time>2000-01-01T04:24:52.000Z</time>
      </trkpt>
      <trkpt lat="45.28004" lon="5.81491">
        <ele>1484</ele>
        <time>2000-01-01T04:25:02.000Z</time>
      </trkpt>
      <trkpt lat="45.28004" lon="5.81497">
        <ele>1483.1</ele>
        <time>2000-01-01T04:25:12.000Z</time>
      </trkpt>
      <trkpt lat="45.28004" lon="5.81506">
        <ele>1483</ele>
        <time>2000-01-01T04:25:22.000Z</time>
      </trkpt>
      <trkpt lat="45.28005" lon="5.81517">
        <ele>1481</ele>
        <time>2000-01-01T04:25:32.000Z</time>
      </trkpt>
      <trkpt lat="45.2801" lon="5.81523">
        <ele>1480.4</ele>
        <time>2000-01-01T04:25:42.000Z</time>
      </trkpt>
      <trkpt lat="45.28017" lon="5.81528">
        <ele>1481</ele>
        <time>2000-01-01T04:25:52.000Z</time>
      </trkpt>
      <trkpt lat="45.28018" lon="5.81546">
        <ele>1478.9</ele>
        <time>2000-01-01T04:26:02.000Z</time>
      </trkpt>
      <trkpt lat="45.28021" lon="5.8156">
        <ele>1478</ele>
        <time>2000-01-01T04:26:12.000Z</time>
      </trkpt>
      <trkpt lat="45.28023" lon="5.81565">
        <ele>1477.7</ele>
        <time>2000-01-01T04:26:22.000Z</time>
      </trkpt>
      <trkpt lat="45.2803" lon="5.81574">
        <ele>1477.4</ele>
        <time>2000-01-01T04:26:32.000Z</time>
      </trkpt>
      <trkpt lat="45.28041" lon="5.81586">
        <ele>1477</ele>
        <time>2000-01-01T04:26:42.000Z</time>
      </trkpt>
      <trkpt lat="45.28047" lon="5.81593">
        <ele>1474.3</ele>
        <time>2000-01-01T04:26:52.000Z</time>
      </trkpt>
      <trkpt lat="45.28052" lon="5.816">
        <ele>1473.9</ele>
        <time>2000-01-01T04:27:02.000Z</time>
      </trkpt>
      <trkpt lat="45.28066" lon="5.81614">
        <ele>1474</ele>
        <time>2000-01-01T04:27:12.000Z</time>
      </trkpt>
      <trkpt lat="45.2807" lon="5.81619">
        <ele>1468.7</ele>
        <time>2000-01-01T04:27:22.000Z</time>
      </trkpt>
      <trkpt lat="45.28073" lon="5.81623">
        <ele>1467.7</ele>
        <time>2000-01-01T04:27:32.000Z</time>
      </trkpt>
      <trkpt lat="45.28074" lon="5.81626">
        <ele>1467.2</ele>
        <time>2000-01-01T04:27:42.000Z</time>
      </trkpt>
      <trkpt lat="45.28074" lon="5.81628">
        <ele>1467.1</ele>
        <time>2000-01-01T04:27:52.000Z</time>
      </trkpt>
      <trkpt lat="45.28073" lon="5.8163">
        <ele>1467</ele>
        <time>2000-01-01T04:28:02.000Z</time>
      </trkpt>
      <trkpt lat="45.28073" lon="5.81634">
        <ele>1466.5</ele>
        <time>2000-01-01T04:28:12.000Z</time>
      </trkpt>
      <trkpt lat="45.28075" lon="5.8164">
        <ele>1467</ele>
        <time>2000-01-01T04:28:22.000Z</time>
      </trkpt>
      <trkpt lat="45.28078" lon="5.81646">
        <ele>1464.6</ele>
        <time>2000-01-01T04:28:32.000Z</time>
      </trkpt>
      <trkpt lat="45.2808" lon="5.81649">
        <ele>1464.2</ele>
        <time>2000-01-01T04:28:42.000Z</time>
      </trkpt>
      <trkpt lat="45.28086" lon="5.81652">
        <ele>1463</ele>
        <time>2000-01-01T04:28:52.000Z</time>
      </trkpt>
      <trkpt lat="45.28088" lon="5.81655">
        <ele>1461.8</ele>
        <time>2000-01-01T04:29:02.000Z</time>
      </trkpt>
      <trkpt lat="45.28089" lon="5.8166">
        <ele>1463</ele>
        <time>2000-01-01T04:29:12.000Z</time>
      </trkpt>
      <trkpt lat="45.28089" lon="5.81665">
        <ele>1460.2</ele>
        <time>2000-01-01T04:29:22.000Z</time>
      </trkpt>
      <trkpt lat="45.2809" lon="5.81671">
        <ele>1458.3</ele>
        <time>2000-01-01T04:29:32.000Z</time>
      </trkpt>
      <trkpt lat="45.2809" lon="5.81674">
        <ele>1457.4</ele>
        <time>2000-01-01T04:29:42.000Z</time>
      </trkpt>
      <trkpt lat="45.2809" lon="5.81677">
        <ele>1456.5</ele>
        <time>2000-01-01T04:29:52.000Z</time>
      </trkpt>
      <trkpt lat="45.2809" lon="5.8168">
        <ele>1455.6</ele>
        <time>2000-01-01T04:30:02.000Z</time>
      </trkpt>
      <trkpt lat="45.28092" lon="5.81686">
        <ele>1458</ele>
        <time>2000-01-01T04:30:12.000Z</time>
      </trkpt>
      <trkpt lat="45.28094" lon="5.8169">
        <ele>1452</ele>
        <time>2000-01-01T04:30:22.000Z</time>
      </trkpt>
      <trkpt lat="45.28096" lon="5.81693">
        <ele>1451</ele>
        <time>2000-01-01T04:30:32.000Z</time>
      </trkpt>
      <trkpt lat="45.28099" lon="5.81697">
        <ele>1449.2</ele>
        <time>2000-01-01T04:30:42.000Z</time>
      </trkpt>
      <trkpt lat="45.28101" lon="5.81698">
        <ele>1448.6</ele>
        <time>2000-01-01T04:30:52.000Z</time>
      </trkpt>
      <trkpt lat="45.28104" lon="5.81699">
        <ele>1447.9</ele>
        <time>2000-01-01T04:31:02.000Z</time>
      </trkpt>
      <trkpt lat="45.2811" lon="5.81701">
        <ele>1452</ele>
        <time>2000-01-01T04:31:12.000Z</time>
      </trkpt>
      <trkpt lat="45.28114" lon="5.81701">
        <ele>1445.7</ele>
        <time>2000-01-01T04:31:22.000Z</time>
      </trkpt>
      <trkpt lat="45.28118" lon="5.81701">
        <ele>1444.4</ele>
        <time>2000-01-01T04:31:32.000Z</time>
      </trkpt>
      <trkpt lat="45.28123" lon="5.817">
        <ele>1443.1</ele>
        <time>2000-01-01T04:31:42.000Z</time>
      </trkpt>
      <trkpt lat="45.28128" lon="5.81701">
        <ele>1441.2</ele>
        <time>2000-01-01T04:31:52.000Z</time>
      </trkpt>
      <trkpt lat="45.28133" lon="5.81702">
        <ele>1442</ele>
        <time>2000-01-01T04:32:02.000Z</time>
      </trkpt>
      <trkpt lat="45.28137" lon="5.81705">
        <ele>1438.1</ele>
        <time>2000-01-01T04:32:12.000Z</time>
      </trkpt>
      <trkpt lat="45.28145" lon="5.81708">
        <ele>1436.1</ele>
        <time>2000-01-01T04:32:22.000Z</time>
      </trkpt>
      <trkpt lat="45.28151" lon="5.81711">
        <ele>1437</ele>
        <time>2000-01-01T04:32:32.000Z</time>
      </trkpt>
      <trkpt lat="45.28156" lon="5.81712">
        <ele>1433.9</ele>
        <time>2000-01-01T04:32:42.000Z</time>
      </trkpt>
      <trkpt lat="45.28164" lon="5.81709">
        <ele>1431.8</ele>
        <time>2000-01-01T04:32:52.000Z</time>
      </trkpt>
      <trkpt lat="45.2821" lon="5.81733">
        <ele>1424</ele>
        <time>2000-01-01T04:33:02.000Z</time>
      </trkpt>
      <trkpt lat="45.28242" lon="5.81752">
        <ele>1419</ele>
        <time>2000-01-01T04:33:12.000Z</time>
      </trkpt>
      <trkpt lat="45.28274" lon="5.81771">
        <ele>1419</ele>
        <time>2000-01-01T04:33:22.000Z</time>
      </trkpt>
      <trkpt lat="45.28327" lon="5.81802">
        <ele>1420</ele>
        <time>2000-01-01T04:33:32.000Z</time>
      </trkpt>
      <trkpt lat="45.28357" lon="5.81827">
        <ele>1420</ele>
        <time>2000-01-01T04:33:42.000Z</time>
      </trkpt>
      <trkpt lat="45.28387" lon="5.81852">
        <ele>1420</ele>
        <time>2000-01-01T04:33:52.000Z</time>
      </trkpt>
      <trkpt lat="45.28441" lon="5.81897">
        <ele>1420</ele>
        <time>2000-01-01T04:34:02.000Z</time>
      </trkpt>
      <trkpt lat="45.28472" lon="5.81916">
        <ele>1417</ele>
        <time>2000-01-01T04:34:12.000Z</time>
      </trkpt>
      <trkpt lat="45.28514" lon="5.81931">
        <ele>1414</ele>
        <time>2000-01-01T04:34:22.000Z</time>
      </trkpt>
      <trkpt lat="45.28541" lon="5.81951">
        <ele>1413</ele>
        <time>2000-01-01T04:34:32.000Z</time>
      </trkpt>
      <trkpt lat="45.28587" lon="5.81984">
        <ele>1412</ele>
        <time>2000-01-01T04:34:42.000Z</time>
      </trkpt>
      <trkpt lat="45.28614" lon="5.82">
        <ele>1411</ele>
        <time>2000-01-01T04:34:52.000Z</time>
      </trkpt>
      <trkpt lat="45.28656" lon="5.82025">
        <ele>1409</ele>
        <time>2000-01-01T04:35:02.000Z</time>
      </trkpt>
      <trkpt lat="45.28685" lon="5.8204">
        <ele>1415</ele>
        <time>2000-01-01T04:35:12.000Z</time>
      </trkpt>
      <trkpt lat="45.28743" lon="5.82071">
        <ele>1421</ele>
        <time>2000-01-01T04:35:22.000Z</time>
      </trkpt>
      <trkpt lat="45.28768" lon="5.82077">
        <ele>1426</ele>
        <time>2000-01-01T04:35:32.000Z</time>
      </trkpt>
      <trkpt lat="45.288" lon="5.82065">
        <ele>1426</ele>
        <time>2000-01-01T04:35:42.000Z</time>
      </trkpt>
      <trkpt lat="45.28841" lon="5.82057">
        <ele>1424</ele>
        <time>2000-01-01T04:35:52.000Z</time>
      </trkpt>
      <trkpt lat="45.28871" lon="5.82071">
        <ele>1423</ele>
        <time>2000-01-01T04:36:02.000Z</time>
      </trkpt>
      <trkpt lat="45.28903" lon="5.82093">
        <ele>1423</ele>
        <time>2000-01-01T04:36:12.000Z</time>
      </trkpt>
      <trkpt lat="45.28927" lon="5.82123">
        <ele>1426</ele>
        <time>2000-01-01T04:36:22.000Z</time>
      </trkpt>
      <trkpt lat="45.28968" lon="5.82135">
        <ele>1424</ele>
        <time>2000-01-01T04:36:32.000Z</time>
      </trkpt>
      <trkpt lat="45.29008" lon="5.82136">
        <ele>1422</ele>
        <time>2000-01-01T04:36:42.000Z</time>
      </trkpt>
      <trkpt lat="45.29042" lon="5.82134">
        <ele>1421</ele>
        <time>2000-01-01T04:36:52.000Z</time>
      </trkpt>
      <trkpt lat="45.29063" lon="5.82117">
        <ele>1415</ele>
        <time>2000-01-01T04:37:02.000Z</time>
      </trkpt>
      <trkpt lat="45.29087" lon="5.82092">
        <ele>1409</ele>
        <time>2000-01-01T04:37:12.000Z</time>
      </trkpt>
      <trkpt lat="45.29098" lon="5.82085">
        <ele>1410.5</ele>
        <time>2000-01-01T04:37:22.000Z</time>
      </trkpt>
      <trkpt lat="45.29103" lon="5.82082">
        <ele>1409.9</ele>
        <time>2000-01-01T04:37:32.000Z</time>
      </trkpt>
      <trkpt lat="45.29109" lon="5.82082">
        <ele>1409</ele>
        <time>2000-01-01T04:37:42.000Z</time>
      </trkpt>
      <trkpt lat="45.29116" lon="5.82081">
        <ele>1411.9</ele>
        <time>2000-01-01T04:37:52.000Z</time>
      </trkpt>
      <trkpt lat="45.29125" lon="5.82081">
        <ele>1413.8</ele>
        <time>2000-01-01T04:38:02.000Z</time>
      </trkpt>
      <trkpt lat="45.29132" lon="5.82077">
        <ele>1409</ele>
        <time>2000-01-01T04:38:12.000Z</time>
      </trkpt>
      <trkpt lat="45.29139" lon="5.8207">
        <ele>1410.8</ele>
        <time>2000-01-01T04:38:22.000Z</time>
      </trkpt>
      <trkpt lat="45.2915" lon="5.82068">
        <ele>1413</ele>
        <time>2000-01-01T04:38:32.000Z</time>
      </trkpt>
      <trkpt lat="45.29159" lon="5.82067">
        <ele>1412.4</ele>
        <time>2000-01-01T04:38:42.000Z</time>
      </trkpt>
      <trkpt lat="45.29174" lon="5.82071">
        <ele>1417</ele>
        <time>2000-01-01T04:38:52.000Z</time>
      </trkpt>
      <trkpt lat="45.29187" lon="5.82074">
        <ele>1420.3</ele>
        <time>2000-01-01T04:39:02.000Z</time>
      </trkpt>
      <trkpt lat="45.29203" lon="5.8208">
        <ele>1425</ele>
        <time>2000-01-01T04:39:12.000Z</time>
      </trkpt>
      <trkpt lat="45.29212" lon="5.82084">
        <ele>1428.6</ele>
        <time>2000-01-01T04:39:22.000Z</time>
      </trkpt>
      <trkpt lat="45.29226" lon="5.82086">
        <ele>1426</ele>
        <time>2000-01-01T04:39:32.000Z</time>
      </trkpt>
      <trkpt lat="45.29259" lon="5.82096">
        <ele>1428</ele>
        <time>2000-01-01T04:39:42.000Z</time>
      </trkpt>
      <trkpt lat="45.29289" lon="5.821">
        <ele>1430</ele>
        <time>2000-01-01T04:39:52.000Z</time>
      </trkpt>
      <trkpt lat="45.29343" lon="5.82107">
        <ele>1433</ele>
        <time>2000-01-01T04:40:02.000Z</time>
      </trkpt>
      <trkpt lat="45.29369" lon="5.82117">
        <ele>1435</ele>
        <time>2000-01-01T04:40:12.000Z</time>
      </trkpt>
      <trkpt lat="45.29402" lon="5.82131">
        <ele>1443</ele>
        <time>2000-01-01T04:40:22.000Z</time>
      </trkpt>
      <trkpt lat="45.29429" lon="5.82143">
        <ele>1446</ele>
        <time>2000-01-01T04:40:32.000Z</time>
      </trkpt>
      <trkpt lat="45.29456" lon="5.82156">
        <ele>1448</ele>
        <time>2000-01-01T04:40:42.000Z</time>
      </trkpt>
      <trkpt lat="45.29498" lon="5.82177">
        <ele>1456</ele>
        <time>2000-01-01T04:40:52.000Z</time>
      </trkpt>
      <trkpt lat="45.29525" lon="5.82186">
        <ele>1458</ele>
        <time>2000-01-01T04:41:02.000Z</time>
      </trkpt>
      <trkpt lat="45.29561" lon="5.82198">
        <ele>1461</ele>
        <time>2000-01-01T04:41:12.000Z</time>
      </trkpt>
      <trkpt lat="45.29592" lon="5.8222">
        <ele>1474</ele>
        <time>2000-01-01T04:41:22.000Z</time>
      </trkpt>
      <trkpt lat="45.29624" lon="5.82242">
        <ele>1479</ele>
        <time>2000-01-01T04:41:32.000Z</time>
      </trkpt>
      <trkpt lat="45.29685" lon="5.82284">
        <ele>1492</ele>
        <time>2000-01-01T04:41:42.000Z</time>
      </trkpt>
      <trkpt lat="45.29726" lon="5.82301">
        <ele>1498</ele>
        <time>2000-01-01T04:41:52.000Z</time>
      </trkpt>
      <trkpt lat="45.2977" lon="5.82307">
        <ele>1498</ele>
        <time>2000-01-01T04:42:02.000Z</time>
      </trkpt>
      <trkpt lat="45.29799" lon="5.82307">
        <ele>1498</ele>
        <time>2000-01-01T04:42:12.000Z</time>
      </trkpt>
      <trkpt lat="45.29843" lon="5.82308">
        <ele>1498</ele>
        <time>2000-01-01T04:42:22.000Z</time>
      </trkpt>
      <trkpt lat="45.29868" lon="5.82307">
        <ele>1497</ele>
        <time>2000-01-01T04:42:32.000Z</time>
      </trkpt>
      <trkpt lat="45.29896" lon="5.82305">
        <ele>1498</ele>
        <time>2000-01-01T04:42:42.000Z</time>
      </trkpt>
      <trkpt lat="45.29921" lon="5.82311">
        <ele>1497</ele>
        <time>2000-01-01T04:42:52.000Z</time>
      </trkpt>
      <trkpt lat="45.2995" lon="5.82317">
        <ele>1497</ele>
        <time>2000-01-01T04:43:02.000Z</time>
      </trkpt>
      <trkpt lat="45.29969" lon="5.82339">
        <ele>1498</ele>
        <time>2000-01-01T04:43:12.000Z</time>
      </trkpt>
      <trkpt lat="45.29992" lon="5.82363">
        <ele>1500</ele>
        <time>2000-01-01T04:43:22.000Z</time>
      </trkpt>
      <trkpt lat="45.3001" lon="5.82402">
        <ele>1511</ele>
        <time>2000-01-01T04:43:32.000Z</time>
      </trkpt>
      <trkpt lat="45.30008" lon="5.82432">
        <ele>1517</ele>
        <time>2000-01-01T04:43:42.000Z</time>
      </trkpt>
      <trkpt lat="45.30004" lon="5.82456">
        <ele>1524.5</ele>
        <time>2000-01-01T04:43:52.000Z</time>
      </trkpt>
      <trkpt lat="45.30002" lon="5.82491">
        <ele>1516</ele>
        <time>2000-01-01T04:44:02.000Z</time>
      </trkpt>
      <trkpt lat="45.30005" lon="5.82528">
        <ele>1516</ele>
        <time>2000-01-01T04:44:12.000Z</time>
      </trkpt>
      <trkpt lat="45.30009" lon="5.82574">
        <ele>1503</ele>
        <time>2000-01-01T04:44:22.000Z</time>
      </trkpt>
      <trkpt lat="45.30021" lon="5.82611">
        <ele>1486</ele>
        <time>2000-01-01T04:44:32.000Z</time>
      </trkpt>
      <trkpt lat="45.30038" lon="5.82667">
        <ele>1479</ele>
        <time>2000-01-01T04:44:42.000Z</time>
      </trkpt>
      <trkpt lat="45.30053" lon="5.82695">
        <ele>1469</ele>
        <time>2000-01-01T04:44:52.000Z</time>
      </trkpt>
      <trkpt lat="45.30068" lon="5.82725">
        <ele>1469</ele>
        <time>2000-01-01T04:45:02.000Z</time>
      </trkpt>
      <trkpt lat="45.30086" lon="5.82753">
        <ele>1460</ele>
        <time>2000-01-01T04:45:12.000Z</time>
      </trkpt>
      <trkpt lat="45.30111" lon="5.82791">
        <ele>1444</ele>
        <time>2000-01-01T04:45:22.000Z</time>
      </trkpt>
      <trkpt lat="45.30137" lon="5.82814">
        <ele>1434</ele>
        <time>2000-01-01T04:45:32.000Z</time>
      </trkpt>
      <trkpt lat="45.30183" lon="5.82854">
        <ele>1416</ele>
        <time>2000-01-01T04:45:42.000Z</time>
      </trkpt>
      <trkpt lat="45.30217" lon="5.829">
        <ele>1413</ele>
        <time>2000-01-01T04:45:52.000Z</time>
      </trkpt>
      <trkpt lat="45.3022" lon="5.8294">
        <ele>1410</ele>
        <time>2000-01-01T04:46:02.000Z</time>
      </trkpt>
      <trkpt lat="45.30219" lon="5.82972">
        <ele>1408</ele>
        <time>2000-01-01T04:46:12.000Z</time>
      </trkpt>
      <trkpt lat="45.30196" lon="5.83024">
        <ele>1403</ele>
        <time>2000-01-01T04:46:22.000Z</time>
      </trkpt>
      <trkpt lat="45.30191" lon="5.83043">
        <ele>1398.5</ele>
        <time>2000-01-01T04:46:32.000Z</time>
      </trkpt>
      <trkpt lat="45.30181" lon="5.83076">
        <ele>1396</ele>
        <time>2000-01-01T04:46:42.000Z</time>
      </trkpt>
      <trkpt lat="45.30175" lon="5.83102">
        <ele>1393</ele>
        <time>2000-01-01T04:46:52.000Z</time>
      </trkpt>
      <trkpt lat="45.30173" lon="5.83113">
        <ele>1392.4</ele>
        <time>2000-01-01T04:47:02.000Z</time>
      </trkpt>
      <trkpt lat="45.30171" lon="5.83121">
        <ele>1392.6</ele>
        <time>2000-01-01T04:47:12.000Z</time>
      </trkpt>
      <trkpt lat="45.30171" lon="5.83126">
        <ele>1392.3</ele>
        <time>2000-01-01T04:47:22.000Z</time>
      </trkpt>
      <trkpt lat="45.30171" lon="5.8313">
        <ele>1393</ele>
        <time>2000-01-01T04:47:32.000Z</time>
      </trkpt>
      <trkpt lat="45.3017" lon="5.83134">
        <ele>1392.1</ele>
        <time>2000-01-01T04:47:42.000Z</time>
      </trkpt>
      <trkpt lat="45.30167" lon="5.83139">
        <ele>1392.9</ele>
        <time>2000-01-01T04:47:52.000Z</time>
      </trkpt>
      <trkpt lat="45.30165" lon="5.83143">
        <ele>1393.4</ele>
        <time>2000-01-01T04:48:02.000Z</time>
      </trkpt>
      <trkpt lat="45.30164" lon="5.83148">
        <ele>1393.3</ele>
        <time>2000-01-01T04:48:12.000Z</time>
      </trkpt>
      <trkpt lat="45.30164" lon="5.83154">
        <ele>1391</ele>
        <time>2000-01-01T04:48:22.000Z</time>
      </trkpt>
      <trkpt lat="45.30166" lon="5.83161">
        <ele>1391</ele>
        <time>2000-01-01T04:48:32.000Z</time>
      </trkpt>
      <trkpt lat="45.30168" lon="5.83167">
        <ele>1389.7</ele>
        <time>2000-01-01T04:48:42.000Z</time>
      </trkpt>
      <trkpt lat="45.30171" lon="5.83175">
        <ele>1390.8</ele>
        <time>2000-01-01T04:48:52.000Z</time>
      </trkpt>
      <trkpt lat="45.30172" lon="5.83182">
        <ele>1392</ele>
        <time>2000-01-01T04:49:02.000Z</time>
      </trkpt>
      <trkpt lat="45.30178" lon="5.83198">
        <ele>1394</ele>
        <time>2000-01-01T04:49:12.000Z</time>
      </trkpt>
      <trkpt lat="45.30182" lon="5.83209">
        <ele>1393</ele>
        <time>2000-01-01T04:49:22.000Z</time>
      </trkpt>
      <trkpt lat="45.30183" lon="5.83212">
        <ele>1395.2</ele>
        <time>2000-01-01T04:49:32.000Z</time>
      </trkpt>
      <trkpt lat="45.30184" lon="5.83215">
        <ele>1395.5</ele>
        <time>2000-01-01T04:49:42.000Z</time>
      </trkpt>
      <trkpt lat="45.30184" lon="5.83217">
        <ele>1396</ele>
        <time>2000-01-01T04:49:52.000Z</time>
      </trkpt>
      <trkpt lat="45.30184" lon="5.8322">
        <ele>1396.6</ele>
        <time>2000-01-01T04:50:02.000Z</time>
      </trkpt>
      <trkpt lat="45.30183" lon="5.83239">
        <ele>1395</ele>
        <time>2000-01-01T04:50:12.000Z</time>
      </trkpt>
      <trkpt lat="45.30184" lon="5.8325">
        <ele>1398.6</ele>
        <time>2000-01-01T04:50:22.000Z</time>
      </trkpt>
      <trkpt lat="45.30185" lon="5.83257">
        <ele>1398.7</ele>
        <time>2000-01-01T04:50:32.000Z</time>
      </trkpt>
      <trkpt lat="45.3019" lon="5.83266">
        <ele>1398</ele>
        <time>2000-01-01T04:50:42.000Z</time>
      </trkpt>
      <trkpt lat="45.30191" lon="5.83269">
        <ele>1398.1</ele>
        <time>2000-01-01T04:50:52.000Z</time>
      </trkpt>
      <trkpt lat="45.30192" lon="5.83275">
        <ele>1398.3</ele>
        <time>2000-01-01T04:51:02.000Z</time>
      </trkpt>
      <trkpt lat="45.30191" lon="5.83289">
        <ele>1398.6</ele>
        <time>2000-01-01T04:51:12.000Z</time>
      </trkpt>
      <trkpt lat="45.30191" lon="5.83295">
        <ele>1398</ele>
        <time>2000-01-01T04:51:22.000Z</time>
      </trkpt>
      <trkpt lat="45.30186" lon="5.83323">
        <ele>1400</ele>
        <time>2000-01-01T04:51:32.000Z</time>
      </trkpt>
      <trkpt lat="45.30183" lon="5.83343">
        <ele>1401.4</ele>
        <time>2000-01-01T04:51:42.000Z</time>
      </trkpt>
      <trkpt lat="45.30174" lon="5.83378">
        <ele>1401</ele>
        <time>2000-01-01T04:51:52.000Z</time>
      </trkpt>
      <trkpt lat="45.30168" lon="5.83397">
        <ele>1401.7</ele>
        <time>2000-01-01T04:52:02.000Z</time>
      </trkpt>
      <trkpt lat="45.30171" lon="5.8343">
        <ele>1402</ele>
        <time>2000-01-01T04:52:12.000Z</time>
      </trkpt>
      <trkpt lat="45.30176" lon="5.83449">
        <ele>1403.9</ele>
        <time>2000-01-01T04:52:22.000Z</time>
      </trkpt>
      <trkpt lat="45.30185" lon="5.8349">
        <ele>1407</ele>
        <time>2000-01-01T04:52:32.000Z</time>
      </trkpt>
      <trkpt lat="45.3019" lon="5.83506">
        <ele>1408.8</ele>
        <time>2000-01-01T04:52:42.000Z</time>
      </trkpt>
      <trkpt lat="45.30195" lon="5.83515">
        <ele>1408</ele>
        <time>2000-01-01T04:52:52.000Z</time>
      </trkpt>
      <trkpt lat="45.30208" lon="5.8353">
        <ele>1410.2</ele>
        <time>2000-01-01T04:53:02.000Z</time>
      </trkpt>
      <trkpt lat="45.30222" lon="5.83543">
        <ele>1409</ele>
        <time>2000-01-01T04:53:12.000Z</time>
      </trkpt>
      <trkpt lat="45.30241" lon="5.83552">
        <ele>1410</ele>
        <time>2000-01-01T04:53:22.000Z</time>
      </trkpt>
      <trkpt lat="45.30242" lon="5.83552">
        <ele>1412.1</ele>
        <time>2000-01-01T04:53:32.000Z</time>
      </trkpt>
      <trkpt lat="45.30258" lon="5.83553">
        <ele>1412</ele>
        <time>2000-01-01T04:53:42.000Z</time>
      </trkpt>
      <trkpt lat="45.30272" lon="5.83551">
        <ele>1411</ele>
        <time>2000-01-01T04:53:52.000Z</time>
      </trkpt>
      <trkpt lat="45.3028" lon="5.83547">
        <ele>1412.5</ele>
        <time>2000-01-01T04:54:02.000Z</time>
      </trkpt>
      <trkpt lat="45.30289" lon="5.83541">
        <ele>1413.8</ele>
        <time>2000-01-01T04:54:12.000Z</time>
      </trkpt>
      <trkpt lat="45.30308" lon="5.83531">
        <ele>1414</ele>
        <time>2000-01-01T04:54:22.000Z</time>
      </trkpt>
      <trkpt lat="45.30345" lon="5.83493">
        <ele>1418</ele>
        <time>2000-01-01T04:54:32.000Z</time>
      </trkpt>
      <trkpt lat="45.30362" lon="5.83472">
        <ele>1422</ele>
        <time>2000-01-01T04:54:42.000Z</time>
      </trkpt>
      <trkpt lat="45.30364" lon="5.83472">
        <ele>1423</ele>
        <time>2000-01-01T04:54:52.000Z</time>
      </trkpt>
      <trkpt lat="45.30365" lon="5.83472">
        <ele>1423.3</ele>
        <time>2000-01-01T04:55:02.000Z</time>
      </trkpt>
      <trkpt lat="45.30367" lon="5.83473">
        <ele>1424.2</ele>
        <time>2000-01-01T04:55:12.000Z</time>
      </trkpt>
      <trkpt lat="45.30368" lon="5.83476">
        <ele>1425.1</ele>
        <time>2000-01-01T04:55:22.000Z</time>
      </trkpt>
      <trkpt lat="45.30368" lon="5.83479">
        <ele>1425.5</ele>
        <time>2000-01-01T04:55:32.000Z</time>
      </trkpt>
      <trkpt lat="45.30367" lon="5.83484">
        <ele>1425.8</ele>
        <time>2000-01-01T04:55:42.000Z</time>
      </trkpt>
      <trkpt lat="45.30364" lon="5.83491">
        <ele>1424</ele>
        <time>2000-01-01T04:55:52.000Z</time>
      </trkpt>
      <trkpt lat="45.30351" lon="5.83513">
        <ele>1425</ele>
        <time>2000-01-01T04:56:02.000Z</time>
      </trkpt>
      <trkpt lat="45.3033" lon="5.83538">
        <ele>1425</ele>
        <time>2000-01-01T04:56:12.000Z</time>
      </trkpt>
      <trkpt lat="45.30303" lon="5.83572">
        <ele>1427</ele>
        <time>2000-01-01T04:56:22.000Z</time>
      </trkpt>
      <trkpt lat="45.30287" lon="5.83592">
        <ele>1428</ele>
        <time>2000-01-01T04:56:32.000Z</time>
      </trkpt>
      <trkpt lat="45.30283" lon="5.83599">
        <ele>1429.7</ele>
        <time>2000-01-01T04:56:42.000Z</time>
      </trkpt>
      <trkpt lat="45.30285" lon="5.83602">
        <ele>1431</ele>
        <time>2000-01-01T04:56:52.000Z</time>
      </trkpt>
      <trkpt lat="45.30286" lon="5.83603">
        <ele>1431.5</ele>
        <time>2000-01-01T04:57:02.000Z</time>
      </trkpt>
      <trkpt lat="45.30286" lon="5.83605">
        <ele>1431.9</ele>
        <time>2000-01-01T04:57:12.000Z</time>
      </trkpt>
      <trkpt lat="45.30285" lon="5.83609">
        <ele>1432.1</ele>
        <time>2000-01-01T04:57:22.000Z</time>
      </trkpt>
      <trkpt lat="45.30284" lon="5.83617">
        <ele>1429</ele>
        <time>2000-01-01T04:57:32.000Z</time>
      </trkpt>
      <trkpt lat="45.30282" lon="5.83625">
        <ele>1432.8</ele>
        <time>2000-01-01T04:57:42.000Z</time>
      </trkpt>
      <trkpt lat="45.30275" lon="5.8364">
        <ele>1432.4</ele>
        <time>2000-01-01T04:57:52.000Z</time>
      </trkpt>
      <trkpt lat="45.30263" lon="5.83657">
        <ele>1432</ele>
        <time>2000-01-01T04:58:02.000Z</time>
      </trkpt>
      <trkpt lat="45.3025" lon="5.8367">
        <ele>1434</ele>
        <time>2000-01-01T04:58:12.000Z</time>
      </trkpt>
      <trkpt lat="45.30247" lon="5.83673">
        <ele>1434</ele>
        <time>2000-01-01T04:58:22.000Z</time>
      </trkpt>
      <trkpt lat="45.30244" lon="5.83679">
        <ele>1435.3</ele>
        <time>2000-01-01T04:58:32.000Z</time>
      </trkpt>
      <trkpt lat="45.30242" lon="5.83685">
        <ele>1435.3</ele>
        <time>2000-01-01T04:58:42.000Z</time>
      </trkpt>
      <trkpt lat="45.30244" lon="5.83692">
        <ele>1434.6</ele>
        <time>2000-01-01T04:58:52.000Z</time>
      </trkpt>
      <trkpt lat="45.30264" lon="5.83693">
        <ele>1435</ele>
        <time>2000-01-01T04:59:02.000Z</time>
      </trkpt>
      <trkpt lat="45.30292" lon="5.83701">
        <ele>1442</ele>
        <time>2000-01-01T04:59:12.000Z</time>
      </trkpt>
      <trkpt lat="45.30336" lon="5.83714">
        <ele>1446</ele>
        <time>2000-01-01T04:59:22.000Z</time>
      </trkpt>
      <trkpt lat="45.30367" lon="5.83719">
        <ele>1453</ele>
        <time>2000-01-01T04:59:32.000Z</time>
      </trkpt>
      <trkpt lat="45.30394" lon="5.83725">
        <ele>1457</ele>
        <time>2000-01-01T04:59:42.000Z</time>
      </trkpt>
      <trkpt lat="45.30431" lon="5.83732">
        <ele>1457</ele>
        <time>2000-01-01T04:59:52.000Z</time>
      </trkpt>
      <trkpt lat="45.30461" lon="5.83738">
        <ele>1460</ele>
        <time>2000-01-01T05:00:02.000Z</time>
      </trkpt>
      <trkpt lat="45.30515" lon="5.83749">
        <ele>1460</ele>
        <time>2000-01-01T05:00:12.000Z</time>
      </trkpt>
      <trkpt lat="45.30529" lon="5.83767">
        <ele>1461.2</ele>
        <time>2000-01-01T05:00:22.000Z</time>
      </trkpt>
      <trkpt lat="45.30549" lon="5.83794">
        <ele>1460</ele>
        <time>2000-01-01T05:00:32.000Z</time>
      </trkpt>
      <trkpt lat="45.3057" lon="5.8382">
        <ele>1468</ele>
        <time>2000-01-01T05:00:42.000Z</time>
      </trkpt>
      <trkpt lat="45.30603" lon="5.83852">
        <ele>1468</ele>
        <time>2000-01-01T05:00:52.000Z</time>
      </trkpt>
      <trkpt lat="45.30624" lon="5.83872">
        <ele>1468</ele>
        <time>2000-01-01T05:01:02.000Z</time>
      </trkpt>
      <trkpt lat="45.3065" lon="5.83897">
        <ele>1469</ele>
        <time>2000-01-01T05:01:12.000Z</time>
      </trkpt>
      <trkpt lat="45.30672" lon="5.83914">
        <ele>1469</ele>
        <time>2000-01-01T05:01:22.000Z</time>
      </trkpt>
      <trkpt lat="45.30697" lon="5.83933">
        <ele>1469</ele>
        <time>2000-01-01T05:01:32.000Z</time>
      </trkpt>
      <trkpt lat="45.3073" lon="5.83957">
        <ele>1472</ele>
        <time>2000-01-01T05:01:42.000Z</time>
      </trkpt>
      <trkpt lat="45.30752" lon="5.83973">
        <ele>1483</ele>
        <time>2000-01-01T05:01:52.000Z</time>
      </trkpt>
      <trkpt lat="45.30759" lon="5.83982">
        <ele>1483.2</ele>
        <time>2000-01-01T05:02:02.000Z</time>
      </trkpt>
      <trkpt lat="45.30765" lon="5.83991">
        <ele>1483.6</ele>
        <time>2000-01-01T05:02:12.000Z</time>
      </trkpt>
      <trkpt lat="45.30772" lon="5.83999">
        <ele>1485</ele>
        <time>2000-01-01T05:02:22.000Z</time>
      </trkpt>
      <trkpt lat="45.30779" lon="5.84006">
        <ele>1484.7</ele>
        <time>2000-01-01T05:02:32.000Z</time>
      </trkpt>
      <trkpt lat="45.30785" lon="5.84011">
        <ele>1485.6</ele>
        <time>2000-01-01T05:02:42.000Z</time>
      </trkpt>
      <trkpt lat="45.30791" lon="5.84015">
        <ele>1485</ele>
        <time>2000-01-01T05:02:52.000Z</time>
      </trkpt>
      <trkpt lat="45.30795" lon="5.8402">
        <ele>1487.6</ele>
        <time>2000-01-01T05:03:02.000Z</time>
      </trkpt>
      <trkpt lat="45.30799" lon="5.84026">
        <ele>1488.2</ele>
        <time>2000-01-01T05:03:12.000Z</time>
      </trkpt>
      <trkpt lat="45.308" lon="5.84036">
        <ele>1486.6</ele>
        <time>2000-01-01T05:03:22.000Z</time>
      </trkpt>
      <trkpt lat="45.30802" lon="5.84042">
        <ele>1485</ele>
        <time>2000-01-01T05:03:32.000Z</time>
      </trkpt>
      <trkpt lat="45.30808" lon="5.84047">
        <ele>1487.7</ele>
        <time>2000-01-01T05:03:42.000Z</time>
      </trkpt>
      <trkpt lat="45.30813" lon="5.84051">
        <ele>1488.6</ele>
        <time>2000-01-01T05:03:52.000Z</time>
      </trkpt>
      <trkpt lat="45.30819" lon="5.84056">
        <ele>1488</ele>
        <time>2000-01-01T05:04:02.000Z</time>
      </trkpt>
      <trkpt lat="45.30821" lon="5.84061">
        <ele>1489.5</ele>
        <time>2000-01-01T05:04:12.000Z</time>
      </trkpt>
      <trkpt lat="45.30822" lon="5.84066">
        <ele>1488.8</ele>
        <time>2000-01-01T05:04:22.000Z</time>
      </trkpt>
      <trkpt lat="45.30824" lon="5.8407">
        <ele>1488.7</ele>
        <time>2000-01-01T05:04:32.000Z</time>
      </trkpt>
      <trkpt lat="45.30828" lon="5.84075">
        <ele>1489</ele>
        <time>2000-01-01T05:04:42.000Z</time>
      </trkpt>
      <trkpt lat="45.30833" lon="5.84084">
        <ele>1488</ele>
        <time>2000-01-01T05:04:52.000Z</time>
      </trkpt>
      <trkpt lat="45.30834" lon="5.84086">
        <ele>1488.9</ele>
        <time>2000-01-01T05:05:02.000Z</time>
      </trkpt>
      <trkpt lat="45.30836" lon="5.84091">
        <ele>1489</ele>
        <time>2000-01-01T05:05:12.000Z</time>
      </trkpt>
      <trkpt lat="45.30838" lon="5.84099">
        <ele>1488.6</ele>
        <time>2000-01-01T05:05:22.000Z</time>
      </trkpt>
      <trkpt lat="45.30842" lon="5.84108">
        <ele>1488.9</ele>
        <time>2000-01-01T05:05:32.000Z</time>
      </trkpt>
      <trkpt lat="45.30849" lon="5.8412">
        <ele>1487</ele>
        <time>2000-01-01T05:05:42.000Z</time>
      </trkpt>
      <trkpt lat="45.30851" lon="5.8413">
        <ele>1490.9</ele>
        <time>2000-01-01T05:05:52.000Z</time>
      </trkpt>
      <trkpt lat="45.30852" lon="5.84137">
        <ele>1490.8</ele>
        <time>2000-01-01T05:06:02.000Z</time>
      </trkpt>
      <trkpt lat="45.30851" lon="5.84142">
        <ele>1490.6</ele>
        <time>2000-01-01T05:06:12.000Z</time>
      </trkpt>
      <trkpt lat="45.30848" lon="5.84149">
        <ele>1487</ele>
        <time>2000-01-01T05:06:22.000Z</time>
      </trkpt>
      <trkpt lat="45.30848" lon="5.84155">
        <ele>1490.4</ele>
        <time>2000-01-01T05:06:32.000Z</time>
      </trkpt>
      <trkpt lat="45.3085" lon="5.84163">
        <ele>1491.6</ele>
        <time>2000-01-01T05:06:42.000Z</time>
      </trkpt>
      <trkpt lat="45.30852" lon="5.84171">
        <ele>1492.7</ele>
        <time>2000-01-01T05:06:52.000Z</time>
      </trkpt>
      <trkpt lat="45.3085" lon="5.84179">
        <ele>1487</ele>
        <time>2000-01-01T05:07:02.000Z</time>
      </trkpt>
      <trkpt lat="45.30849" lon="5.84186">
        <ele>1493.2</ele>
        <time>2000-01-01T05:07:12.000Z</time>
      </trkpt>
      <trkpt lat="45.30845" lon="5.8419">
        <ele>1492.5</ele>
        <time>2000-01-01T05:07:22.000Z</time>
      </trkpt>
      <trkpt lat="45.30841" lon="5.84194">
        <ele>1491.9</ele>
        <time>2000-01-01T05:07:32.000Z</time>
      </trkpt>
      <trkpt lat="45.30836" lon="5.84198">
        <ele>1488</ele>
        <time>2000-01-01T05:07:42.000Z</time>
      </trkpt>
      <trkpt lat="45.30842" lon="5.84203">
        <ele>1493.7</ele>
        <time>2000-01-01T05:07:52.000Z</time>
      </trkpt>
      <trkpt lat="45.30845" lon="5.84205">
        <ele>1494.9</ele>
        <time>2000-01-01T05:08:02.000Z</time>
      </trkpt>
      <trkpt lat="45.30848" lon="5.84206">
        <ele>1496</ele>
        <time>2000-01-01T05:08:12.000Z</time>
      </trkpt>
      <trkpt lat="45.30852" lon="5.84206">
        <ele>1497.2</ele>
        <time>2000-01-01T05:08:22.000Z</time>
      </trkpt>
      <trkpt lat="45.30857" lon="5.84208">
        <ele>1494</ele>
        <time>2000-01-01T05:08:32.000Z</time>
      </trkpt>
      <trkpt lat="45.30863" lon="5.84207">
        <ele>1500.7</ele>
        <time>2000-01-01T05:08:42.000Z</time>
      </trkpt>
      <trkpt lat="45.30868" lon="5.84206">
        <ele>1502</ele>
        <time>2000-01-01T05:08:52.000Z</time>
      </trkpt>
      <trkpt lat="45.30871" lon="5.84206">
        <ele>1503</ele>
        <time>2000-01-01T05:09:02.000Z</time>
      </trkpt>
      <trkpt lat="45.30874" lon="5.84207">
        <ele>1504.1</ele>
        <time>2000-01-01T05:09:12.000Z</time>
      </trkpt>
      <trkpt lat="45.30884" lon="5.84205">
        <ele>1504</ele>
        <time>2000-01-01T05:09:22.000Z</time>
      </trkpt>
      <trkpt lat="45.30897" lon="5.84207">
        <ele>1510.9</ele>
        <time>2000-01-01T05:09:32.000Z</time>
      </trkpt>
      <trkpt lat="45.3091" lon="5.8421">
        <ele>1511</ele>
        <time>2000-01-01T05:09:42.000Z</time>
      </trkpt>
      <trkpt lat="45.30919" lon="5.84213">
        <ele>1517.8</ele>
        <time>2000-01-01T05:09:52.000Z</time>
      </trkpt>
      <trkpt lat="45.30928" lon="5.8422">
        <ele>1519</ele>
        <time>2000-01-01T05:10:02.000Z</time>
      </trkpt>
      <trkpt lat="45.30937" lon="5.8423">
        <ele>1523.8</ele>
        <time>2000-01-01T05:10:12.000Z</time>
      </trkpt>
      <trkpt lat="45.30939" lon="5.84233">
        <ele>1524.6</ele>
        <time>2000-01-01T05:10:22.000Z</time>
      </trkpt>
      <trkpt lat="45.30946" lon="5.84241">
        <ele>1525</ele>
        <time>2000-01-01T05:10:32.000Z</time>
      </trkpt>
      <trkpt lat="45.30959" lon="5.84257">
        <ele>1532.3</ele>
        <time>2000-01-01T05:10:42.000Z</time>
      </trkpt>
      <trkpt lat="45.30966" lon="5.84267">
        <ele>1533</ele>
        <time>2000-01-01T05:10:52.000Z</time>
      </trkpt>
      <trkpt lat="45.3097" lon="5.84282">
        <ele>1540.4</ele>
        <time>2000-01-01T05:11:02.000Z</time>
      </trkpt>
      <trkpt lat="45.30975" lon="5.84305">
        <ele>1543</ele>
        <time>2000-01-01T05:11:12.000Z</time>
      </trkpt>
      <trkpt lat="45.30979" lon="5.8432">
        <ele>1550.9</ele>
        <time>2000-01-01T05:11:22.000Z</time>
      </trkpt>
      <trkpt lat="45.30981" lon="5.84323">
        <ele>1552</ele>
        <time>2000-01-01T05:11:32.000Z</time>
      </trkpt>
      <trkpt lat="45.30983" lon="5.84326">
        <ele>1553.1</ele>
        <time>2000-01-01T05:11:42.000Z</time>
      </trkpt>
      <trkpt lat="45.30993" lon="5.8433">
        <ele>1553</ele>
        <time>2000-01-01T05:11:52.000Z</time>
      </trkpt>
      <trkpt lat="45.31002" lon="5.84334">
        <ele>1557.7</ele>
        <time>2000-01-01T05:12:02.000Z</time>
      </trkpt>
      <trkpt lat="45.31013" lon="5.84338">
        <ele>1557</ele>
        <time>2000-01-01T05:12:12.000Z</time>
      </trkpt>
      <trkpt lat="45.31011" lon="5.84344">
        <ele>1559.1</ele>
        <time>2000-01-01T05:12:22.000Z</time>
      </trkpt>
      <trkpt lat="45.31008" lon="5.8435">
        <ele>1561.6</ele>
        <time>2000-01-01T05:12:32.000Z</time>
      </trkpt>
      <trkpt lat="45.31003" lon="5.84359">
        <ele>1565.1</ele>
        <time>2000-01-01T05:12:42.000Z</time>
      </trkpt>
      <trkpt lat="45.30997" lon="5.84364">
        <ele>1564</ele>
        <time>2000-01-01T05:12:52.000Z</time>
      </trkpt>
      <trkpt lat="45.30992" lon="5.84369">
        <ele>1567</ele>
        <time>2000-01-01T05:13:02.000Z</time>
      </trkpt>
      <trkpt lat="45.30999" lon="5.84375">
        <ele>1570.3</ele>
        <time>2000-01-01T05:13:12.000Z</time>
      </trkpt>
      <trkpt lat="45.31007" lon="5.84379">
        <ele>1569</ele>
        <time>2000-01-01T05:13:22.000Z</time>
      </trkpt>
      <trkpt lat="45.31013" lon="5.84381">
        <ele>1571.8</ele>
        <time>2000-01-01T05:13:32.000Z</time>
      </trkpt>
      <trkpt lat="45.31018" lon="5.84382">
        <ele>1572</ele>
        <time>2000-01-01T05:13:42.000Z</time>
      </trkpt>
      <trkpt lat="45.31021" lon="5.84385">
        <ele>1572.9</ele>
        <time>2000-01-01T05:13:52.000Z</time>
      </trkpt>
      <trkpt lat="45.31023" lon="5.84392">
        <ele>1575</ele>
        <time>2000-01-01T05:14:02.000Z</time>
      </trkpt>
      <trkpt lat="45.31025" lon="5.84397">
        <ele>1576.7</ele>
        <time>2000-01-01T05:14:12.000Z</time>
      </trkpt>
      <trkpt lat="45.31028" lon="5.84401">
        <ele>1577.8</ele>
        <time>2000-01-01T05:14:22.000Z</time>
      </trkpt>
      <trkpt lat="45.31033" lon="5.84405">
        <ele>1577.1</ele>
        <time>2000-01-01T05:14:32.000Z</time>
      </trkpt>
      <trkpt lat="45.31029" lon="5.84408">
        <ele>1579.7</ele>
        <time>2000-01-01T05:14:42.000Z</time>
      </trkpt>
      <trkpt lat="45.31025" lon="5.8441">
        <ele>1579</ele>
        <time>2000-01-01T05:14:52.000Z</time>
      </trkpt>
      <trkpt lat="45.3102" lon="5.84408">
        <ele>1580.3</ele>
        <time>2000-01-01T05:15:02.000Z</time>
      </trkpt>
      <trkpt lat="45.31016" lon="5.84409">
        <ele>1580.6</ele>
        <time>2000-01-01T05:15:12.000Z</time>
      </trkpt>
      <trkpt lat="45.31012" lon="5.84413">
        <ele>1581.9</ele>
        <time>2000-01-01T05:15:22.000Z</time>
      </trkpt>
      <trkpt lat="45.31009" lon="5.84416">
        <ele>1582.8</ele>
        <time>2000-01-01T05:15:32.000Z</time>
      </trkpt>
      <trkpt lat="45.31018" lon="5.84425">
        <ele>1585</ele>
        <time>2000-01-01T05:15:42.000Z</time>
      </trkpt>
      <trkpt lat="45.31025" lon="5.84433">
        <ele>1589.4</ele>
        <time>2000-01-01T05:15:52.000Z</time>
      </trkpt>
      <trkpt lat="45.31034" lon="5.8444">
        <ele>1588</ele>
        <time>2000-01-01T05:16:02.000Z</time>
      </trkpt>
      <trkpt lat="45.31041" lon="5.84445">
        <ele>1589.5</ele>
        <time>2000-01-01T05:16:12.000Z</time>
      </trkpt>
      <trkpt lat="45.31032" lon="5.8445">
        <ele>1594.6</ele>
        <time>2000-01-01T05:16:22.000Z</time>
      </trkpt>
      <trkpt lat="45.31024" lon="5.84454">
        <ele>1595</ele>
        <time>2000-01-01T05:16:32.000Z</time>
      </trkpt>
      <trkpt lat="45.3102" lon="5.84456">
        <ele>1597.4</ele>
        <time>2000-01-01T05:16:42.000Z</time>
      </trkpt>
      <trkpt lat="45.31016" lon="5.84461">
        <ele>1598.6</ele>
        <time>2000-01-01T05:16:52.000Z</time>
      </trkpt>
      <trkpt lat="45.31022" lon="5.84463">
        <ele>1600</ele>
        <time>2000-01-01T05:17:02.000Z</time>
      </trkpt>
      <trkpt lat="45.3103" lon="5.84469">
        <ele>1600</ele>
        <time>2000-01-01T05:17:12.000Z</time>
      </trkpt>
      <trkpt lat="45.31036" lon="5.84476">
        <ele>1603.7</ele>
        <time>2000-01-01T05:17:22.000Z</time>
      </trkpt>
      <trkpt lat="45.31041" lon="5.84484">
        <ele>1606</ele>
        <time>2000-01-01T05:17:32.000Z</time>
      </trkpt>
      <trkpt lat="45.31047" lon="5.84491">
        <ele>1609</ele>
        <time>2000-01-01T05:17:42.000Z</time>
      </trkpt>
      <trkpt lat="45.31052" lon="5.84494">
        <ele>1608.7</ele>
        <time>2000-01-01T05:17:52.000Z</time>
      </trkpt>
      <trkpt lat="45.31054" lon="5.84496">
        <ele>1609.3</ele>
        <time>2000-01-01T05:18:02.000Z</time>
      </trkpt>
      <trkpt lat="45.31049" lon="5.84499">
        <ele>1611.3</ele>
        <time>2000-01-01T05:18:12.000Z</time>
      </trkpt>
      <trkpt lat="45.31042" lon="5.84501">
        <ele>1612</ele>
        <time>2000-01-01T05:18:22.000Z</time>
      </trkpt>
      <trkpt lat="45.31036" lon="5.845">
        <ele>1613.1</ele>
        <time>2000-01-01T05:18:32.000Z</time>
      </trkpt>
      <trkpt lat="45.31032" lon="5.84499">
        <ele>1613.2</ele>
        <time>2000-01-01T05:18:42.000Z</time>
      </trkpt>
      <trkpt lat="45.31037" lon="5.84507">
        <ele>1615.5</ele>
        <time>2000-01-01T05:18:52.000Z</time>
      </trkpt>
      <trkpt lat="45.31043" lon="5.84514">
        <ele>1616</ele>
        <time>2000-01-01T05:19:02.000Z</time>
      </trkpt>
      <trkpt lat="45.31048" lon="5.84519">
        <ele>1618.7</ele>
        <time>2000-01-01T05:19:12.000Z</time>
      </trkpt>
      <trkpt lat="45.31052" lon="5.84522">
        <ele>1619.3</ele>
        <time>2000-01-01T05:19:22.000Z</time>
      </trkpt>
      <trkpt lat="45.31045" lon="5.84524">
        <ele>1620.8</ele>
        <time>2000-01-01T05:19:32.000Z</time>
      </trkpt>
      <trkpt lat="45.31034" lon="5.84525">
        <ele>1622</ele>
        <time>2000-01-01T05:19:42.000Z</time>
      </trkpt>
      <trkpt lat="45.31044" lon="5.84537">
        <ele>1625.7</ele>
        <time>2000-01-01T05:19:52.000Z</time>
      </trkpt>
      <trkpt lat="45.3105" lon="5.84546">
        <ele>1628</ele>
        <time>2000-01-01T05:20:02.000Z</time>
      </trkpt>
      <trkpt lat="45.31056" lon="5.84552">
        <ele>1632.2</ele>
        <time>2000-01-01T05:20:12.000Z</time>
      </trkpt>
      <trkpt lat="45.31059" lon="5.84555">
        <ele>1632.6</ele>
        <time>2000-01-01T05:20:22.000Z</time>
      </trkpt>
      <trkpt lat="45.31053" lon="5.84558">
        <ele>1634.8</ele>
        <time>2000-01-01T05:20:32.000Z</time>
      </trkpt>
      <trkpt lat="45.31046" lon="5.8456">
        <ele>1636</ele>
        <time>2000-01-01T05:20:42.000Z</time>
      </trkpt>
      <trkpt lat="45.31052" lon="5.84569">
        <ele>1639.3</ele>
        <time>2000-01-01T05:20:52.000Z</time>
      </trkpt>
      <trkpt lat="45.31059" lon="5.84578">
        <ele>1643.3</ele>
        <time>2000-01-01T05:21:02.000Z</time>
      </trkpt>
      <trkpt lat="45.31067" lon="5.84584">
        <ele>1645</ele>
        <time>2000-01-01T05:21:12.000Z</time>
      </trkpt>
      <trkpt lat="45.31075" lon="5.84587">
        <ele>1646.4</ele>
        <time>2000-01-01T05:21:22.000Z</time>
      </trkpt>
      <trkpt lat="45.31082" lon="5.8459">
        <ele>1647.5</ele>
        <time>2000-01-01T05:21:32.000Z</time>
      </trkpt>
      <trkpt lat="45.31093" lon="5.84597">
        <ele>1644</ele>
        <time>2000-01-01T05:21:42.000Z</time>
      </trkpt>
      <trkpt lat="45.31102" lon="5.84603">
        <ele>1649.7</ele>
        <time>2000-01-01T05:21:52.000Z</time>
      </trkpt>
      <trkpt lat="45.31114" lon="5.84609">
        <ele>1644</ele>
        <time>2000-01-01T05:22:02.000Z</time>
      </trkpt>
      <trkpt lat="45.31129" lon="5.84619">
        <ele>1655.3</ele>
        <time>2000-01-01T05:22:12.000Z</time>
      </trkpt>
      <trkpt lat="45.31138" lon="5.84626">
        <ele>1657</ele>
        <time>2000-01-01T05:22:22.000Z</time>
      </trkpt>
      <trkpt lat="45.31145" lon="5.84637">
        <ele>1659.9</ele>
        <time>2000-01-01T05:22:32.000Z</time>
      </trkpt>
      <trkpt lat="45.31154" lon="5.84648">
        <ele>1660</ele>
        <time>2000-01-01T05:22:42.000Z</time>
      </trkpt>
      <trkpt lat="45.31164" lon="5.84657">
        <ele>1661.6</ele>
        <time>2000-01-01T05:22:52.000Z</time>
      </trkpt>
      <trkpt lat="45.31177" lon="5.84667">
        <ele>1660</ele>
        <time>2000-01-01T05:23:02.000Z</time>
      </trkpt>
      <trkpt lat="45.31182" lon="5.84665">
        <ele>1666.6</ele>
        <time>2000-01-01T05:23:12.000Z</time>
      </trkpt>
      <trkpt lat="45.31187" lon="5.84659">
        <ele>1663.2</ele>
        <time>2000-01-01T05:23:22.000Z</time>
      </trkpt>
      <trkpt lat="45.31199" lon="5.84662">
        <ele>1664</ele>
        <time>2000-01-01T05:23:32.000Z</time>
      </trkpt>
      <trkpt lat="45.31207" lon="5.8467">
        <ele>1666.8</ele>
        <time>2000-01-01T05:23:42.000Z</time>
      </trkpt>
      <trkpt lat="45.31215" lon="5.84676">
        <ele>1668</ele>
        <time>2000-01-01T05:23:52.000Z</time>
      </trkpt>
      <trkpt lat="45.31227" lon="5.84681">
        <ele>1671</ele>
        <time>2000-01-01T05:24:02.000Z</time>
      </trkpt>
      <trkpt lat="45.31237" lon="5.84685">
        <ele>1674</ele>
        <time>2000-01-01T05:24:12.000Z</time>
      </trkpt>
      <trkpt lat="45.31244" lon="5.8469">
        <ele>1675.5</ele>
        <time>2000-01-01T05:24:22.000Z</time>
      </trkpt>
      <trkpt lat="45.31252" lon="5.84699">
        <ele>1679.4</ele>
        <time>2000-01-01T05:24:32.000Z</time>
      </trkpt>
      <trkpt lat="45.31265" lon="5.8471">
        <ele>1682</ele>
        <time>2000-01-01T05:24:42.000Z</time>
      </trkpt>
      <trkpt lat="45.31278" lon="5.8472">
        <ele>1679.8</ele>
        <time>2000-01-01T05:24:52.000Z</time>
      </trkpt>
      <trkpt lat="45.31288" lon="5.84738">
        <ele>1683</ele>
        <time>2000-01-01T05:25:02.000Z</time>
      </trkpt>
      <trkpt lat="45.31297" lon="5.84748">
        <ele>1683.8</ele>
        <time>2000-01-01T05:25:12.000Z</time>
      </trkpt>
      <trkpt lat="45.31302" lon="5.84758">
        <ele>1683</ele>
        <time>2000-01-01T05:25:22.000Z</time>
      </trkpt>
      <trkpt lat="45.31309" lon="5.84769">
        <ele>1686.8</ele>
        <time>2000-01-01T05:25:32.000Z</time>
      </trkpt>
      <trkpt lat="45.31319" lon="5.84785">
        <ele>1692</ele>
        <time>2000-01-01T05:25:42.000Z</time>
      </trkpt>
      <trkpt lat="45.31326" lon="5.848">
        <ele>1690.9</ele>
        <time>2000-01-01T05:25:52.000Z</time>
      </trkpt>
      <trkpt lat="45.31334" lon="5.84816">
        <ele>1692</ele>
        <time>2000-01-01T05:26:02.000Z</time>
      </trkpt>
      <trkpt lat="45.31339" lon="5.84826">
        <ele>1692.9</ele>
        <time>2000-01-01T05:26:12.000Z</time>
      </trkpt>
      <trkpt lat="45.31347" lon="5.84834">
        <ele>1691</ele>
        <time>2000-01-01T05:26:22.000Z</time>
      </trkpt>
      <trkpt lat="45.31358" lon="5.84844">
        <ele>1690.1</ele>
        <time>2000-01-01T05:26:32.000Z</time>
      </trkpt>
      <trkpt lat="45.31364" lon="5.84854">
        <ele>1691</ele>
        <time>2000-01-01T05:26:42.000Z</time>
      </trkpt>
      <trkpt lat="45.31371" lon="5.84865">
        <ele>1694.6</ele>
        <time>2000-01-01T05:26:52.000Z</time>
      </trkpt>
      <trkpt lat="45.31379" lon="5.84875">
        <ele>1697</ele>
        <time>2000-01-01T05:27:02.000Z</time>
      </trkpt>
      <trkpt lat="45.31386" lon="5.84883">
        <ele>1697.2</ele>
        <time>2000-01-01T05:27:12.000Z</time>
      </trkpt>
      <trkpt lat="45.31396" lon="5.84891">
        <ele>1695</ele>
        <time>2000-01-01T05:27:22.000Z</time>
      </trkpt>
      <trkpt lat="45.31405" lon="5.84895">
        <ele>1697.9</ele>
        <time>2000-01-01T05:27:32.000Z</time>
      </trkpt>
      <trkpt lat="45.31415" lon="5.84898">
        <ele>1697</ele>
        <time>2000-01-01T05:27:42.000Z</time>
      </trkpt>
      <trkpt lat="45.31418" lon="5.849">
        <ele>1696.9</ele>
        <time>2000-01-01T05:27:52.000Z</time>
      </trkpt>
      <trkpt lat="45.31425" lon="5.84907">
        <ele>1697.9</ele>
        <time>2000-01-01T05:28:02.000Z</time>
      </trkpt>
      <trkpt lat="45.31433" lon="5.84917">
        <ele>1700</ele>
        <time>2000-01-01T05:28:12.000Z</time>
      </trkpt>
      <trkpt lat="45.31441" lon="5.84926">
        <ele>1699.8</ele>
        <time>2000-01-01T05:28:22.000Z</time>
      </trkpt>
      <trkpt lat="45.31449" lon="5.84938">
        <ele>1700</ele>
        <time>2000-01-01T05:28:32.000Z</time>
      </trkpt>
      <trkpt lat="45.31455" lon="5.84949">
        <ele>1704.2</ele>
        <time>2000-01-01T05:28:42.000Z</time>
      </trkpt>
      <trkpt lat="45.31463" lon="5.84958">
        <ele>1703</ele>
        <time>2000-01-01T05:28:52.000Z</time>
      </trkpt>
      <trkpt lat="45.315" lon="5.84994">
        <ele>1696</ele>
        <time>2000-01-01T05:29:02.000Z</time>
      </trkpt>
      <trkpt lat="45.31508" lon="5.85">
        <ele>1704.8</ele>
        <time>2000-01-01T05:29:12.000Z</time>
      </trkpt>
      <trkpt lat="45.31517" lon="5.85003">
        <ele>1699.4</ele>
        <time>2000-01-01T05:29:22.000Z</time>
      </trkpt>
      <trkpt lat="45.31524" lon="5.85003">
        <ele>1696</ele>
        <time>2000-01-01T05:29:32.000Z</time>
      </trkpt>
      <trkpt lat="45.31533" lon="5.85004">
        <ele>1691</ele>
        <time>2000-01-01T05:29:42.000Z</time>
      </trkpt>
      <trkpt lat="45.31537" lon="5.85007">
        <ele>1693.8</ele>
        <time>2000-01-01T05:29:52.000Z</time>
      </trkpt>
      <trkpt lat="45.31542" lon="5.85014">
        <ele>1696</ele>
        <time>2000-01-01T05:30:02.000Z</time>
      </trkpt>
      <trkpt lat="45.3155" lon="5.85017">
        <ele>1702.1</ele>
        <time>2000-01-01T05:30:12.000Z</time>
      </trkpt>
      <trkpt lat="45.31556" lon="5.85022">
        <ele>1705.5</ele>
        <time>2000-01-01T05:30:22.000Z</time>
      </trkpt>
      <trkpt lat="45.31564" lon="5.85029">
        <ele>1702</ele>
        <time>2000-01-01T05:30:32.000Z</time>
      </trkpt>
      <trkpt lat="45.31571" lon="5.85036">
        <ele>1709.4</ele>
        <time>2000-01-01T05:30:42.000Z</time>
      </trkpt>
      <trkpt lat="45.31577" lon="5.85045">
        <ele>1711.8</ele>
        <time>2000-01-01T05:30:52.000Z</time>
      </trkpt>
      <trkpt lat="45.31582" lon="5.85054">
        <ele>1713</ele>
        <time>2000-01-01T05:31:02.000Z</time>
      </trkpt>
      <trkpt lat="45.31587" lon="5.85062">
        <ele>1717.2</ele>
        <time>2000-01-01T05:31:12.000Z</time>
      </trkpt>
      <trkpt lat="45.31593" lon="5.85067">
        <ele>1717.4</ele>
        <time>2000-01-01T05:31:22.000Z</time>
      </trkpt>
      <trkpt lat="45.31603" lon="5.85075">
        <ele>1713</ele>
        <time>2000-01-01T05:31:32.000Z</time>
      </trkpt>
      <trkpt lat="45.31611" lon="5.85086">
        <ele>1722</ele>
        <time>2000-01-01T05:31:42.000Z</time>
      </trkpt>
      <trkpt lat="45.31617" lon="5.85094">
        <ele>1725</ele>
        <time>2000-01-01T05:31:52.000Z</time>
      </trkpt>
      <trkpt lat="45.31626" lon="5.85097">
        <ele>1725.9</ele>
        <time>2000-01-01T05:32:02.000Z</time>
      </trkpt>
      <trkpt lat="45.31645" lon="5.85117">
        <ele>1724</ele>
        <time>2000-01-01T05:32:12.000Z</time>
      </trkpt>
      <trkpt lat="45.31669" lon="5.85122">
        <ele>1724</ele>
        <time>2000-01-01T05:32:22.000Z</time>
      </trkpt>
      <trkpt lat="45.31696" lon="5.85126">
        <ele>1697</ele>
        <time>2000-01-01T05:32:32.000Z</time>
      </trkpt>
      <trkpt lat="45.31733" lon="5.85132">
        <ele>1704</ele>
        <time>2000-01-01T05:32:42.000Z</time>
      </trkpt>
      <trkpt lat="45.31747" lon="5.85143">
        <ele>1689.2</ele>
        <time>2000-01-01T05:32:52.000Z</time>
      </trkpt>
      <trkpt lat="45.31751" lon="5.85169">
        <ele>1711</ele>
        <time>2000-01-01T05:33:02.000Z</time>
      </trkpt>
      <trkpt lat="45.31751" lon="5.85215">
        <ele>1774</ele>
        <time>2000-01-01T05:33:12.000Z</time>
      </trkpt>
      <trkpt lat="45.3176" lon="5.85241">
        <ele>1787</ele>
        <time>2000-01-01T05:33:22.000Z</time>
      </trkpt>
      <trkpt lat="45.31777" lon="5.85263">
        <ele>1786</ele>
        <time>2000-01-01T05:33:32.000Z</time>
      </trkpt>
      <trkpt lat="45.318" lon="5.85281">
        <ele>1786</ele>
        <time>2000-01-01T05:33:42.000Z</time>
      </trkpt>
      <trkpt lat="45.31829" lon="5.85304">
        <ele>1779</ele>
        <time>2000-01-01T05:33:52.000Z</time>
      </trkpt>
      <trkpt lat="45.31874" lon="5.85305">
        <ele>1754</ele>
        <time>2000-01-01T05:34:02.000Z</time>
      </trkpt>
      <trkpt lat="45.31905" lon="5.85311">
        <ele>1756</ele>
        <time>2000-01-01T05:34:12.000Z</time>
      </trkpt>
      <trkpt lat="45.31921" lon="5.8534">
        <ele>1759</ele>
        <time>2000-01-01T05:34:22.000Z</time>
      </trkpt>
      <trkpt lat="45.31919" lon="5.85346">
        <ele>1762.2</ele>
        <time>2000-01-01T05:34:32.000Z</time>
      </trkpt>
      <trkpt lat="45.31916" lon="5.85353">
        <ele>1764.5</ele>
        <time>2000-01-01T05:34:42.000Z</time>
      </trkpt>
      <trkpt lat="45.31914" lon="5.85357">
        <ele>1766.2</ele>
        <time>2000-01-01T05:34:52.000Z</time>
      </trkpt>
      <trkpt lat="45.31912" lon="5.85364">
        <ele>1765</ele>
        <time>2000-01-01T05:35:02.000Z</time>
      </trkpt>
      <trkpt lat="45.3191" lon="5.85377">
        <ele>1772.1</ele>
        <time>2000-01-01T05:35:12.000Z</time>
      </trkpt>
      <trkpt lat="45.31907" lon="5.85391">
        <ele>1772</ele>
        <time>2000-01-01T05:35:22.000Z</time>
      </trkpt>
      <trkpt lat="45.31905" lon="5.85402">
        <ele>1776.6</ele>
        <time>2000-01-01T05:35:32.000Z</time>
      </trkpt>
      <trkpt lat="45.31902" lon="5.85409">
        <ele>1777.4</ele>
        <time>2000-01-01T05:35:42.000Z</time>
      </trkpt>
      <trkpt lat="45.31898" lon="5.85416">
        <ele>1777</ele>
        <time>2000-01-01T05:35:52.000Z</time>
      </trkpt>
      <trkpt lat="45.31895" lon="5.85422">
        <ele>1778.9</ele>
        <time>2000-01-01T05:36:02.000Z</time>
      </trkpt>
      <trkpt lat="45.31894" lon="5.85428">
        <ele>1779.7</ele>
        <time>2000-01-01T05:36:12.000Z</time>
      </trkpt>
      <trkpt lat="45.31893" lon="5.85436">
        <ele>1780.7</ele>
        <time>2000-01-01T05:36:22.000Z</time>
      </trkpt>
      <trkpt lat="45.31893" lon="5.85445">
        <ele>1781</ele>
        <time>2000-01-01T05:36:32.000Z</time>
      </trkpt>
      <trkpt lat="45.31894" lon="5.85458">
        <ele>1782.6</ele>
        <time>2000-01-01T05:36:42.000Z</time>
      </trkpt>
      <trkpt lat="45.31897" lon="5.85471">
        <ele>1783.1</ele>
        <time>2000-01-01T05:36:52.000Z</time>
      </trkpt>
      <trkpt lat="45.31905" lon="5.8548">
        <ele>1780</ele>
        <time>2000-01-01T05:37:02.000Z</time>
      </trkpt>
      <trkpt lat="45.31915" lon="5.8549">
        <ele>1780.6</ele>
        <time>2000-01-01T05:37:12.000Z</time>
      </trkpt>
      <trkpt lat="45.31924" lon="5.85501">
        <ele>1779</ele>
        <time>2000-01-01T05:37:22.000Z</time>
      </trkpt>
      <trkpt lat="45.3193" lon="5.85511">
        <ele>1777.9</ele>
        <time>2000-01-01T05:37:32.000Z</time>
      </trkpt>
      <trkpt lat="45.31939" lon="5.8552">
        <ele>1777</ele>
        <time>2000-01-01T05:37:42.000Z</time>
      </trkpt>
      <trkpt lat="45.31948" lon="5.85528">
        <ele>1773.9</ele>
        <time>2000-01-01T05:37:52.000Z</time>
      </trkpt>
      <trkpt lat="45.31955" lon="5.85535">
        <ele>1773</ele>
        <time>2000-01-01T05:38:02.000Z</time>
      </trkpt>
      <trkpt lat="45.31964" lon="5.85543">
        <ele>1771.4</ele>
        <time>2000-01-01T05:38:12.000Z</time>
      </trkpt>
      <trkpt lat="45.31973" lon="5.8555">
        <ele>1770</ele>
        <time>2000-01-01T05:38:22.000Z</time>
      </trkpt>
      <trkpt lat="45.31981" lon="5.85557">
        <ele>1768.5</ele>
        <time>2000-01-01T05:38:32.000Z</time>
      </trkpt>
      <trkpt lat="45.31987" lon="5.85563">
        <ele>1767.6</ele>
        <time>2000-01-01T05:38:42.000Z</time>
      </trkpt>
      <trkpt lat="45.31994" lon="5.85569">
        <ele>1766</ele>
        <time>2000-01-01T05:38:52.000Z</time>
      </trkpt>
      <trkpt lat="45.31995" lon="5.8557">
        <ele>1766.3</ele>
        <time>2000-01-01T05:39:02.000Z</time>
      </trkpt>
      <trkpt lat="45.32" lon="5.85574">
        <ele>1765.3</ele>
        <time>2000-01-01T05:39:12.000Z</time>
      </trkpt>
      <trkpt lat="45.32006" lon="5.85583">
        <ele>1763.6</ele>
        <time>2000-01-01T05:39:22.000Z</time>
      </trkpt>
      <trkpt lat="45.3201" lon="5.85593">
        <ele>1763</ele>
        <time>2000-01-01T05:39:32.000Z</time>
      </trkpt>
      <trkpt lat="45.32012" lon="5.856">
        <ele>1761.7</ele>
        <time>2000-01-01T05:39:42.000Z</time>
      </trkpt>
      <trkpt lat="45.32016" lon="5.85608">
        <ele>1760.6</ele>
        <time>2000-01-01T05:39:52.000Z</time>
      </trkpt>
      <trkpt lat="45.32022" lon="5.85613">
        <ele>1759</ele>
        <time>2000-01-01T05:40:02.000Z</time>
      </trkpt>
      <trkpt lat="45.32026" lon="5.85619">
        <ele>1758.9</ele>
        <time>2000-01-01T05:40:12.000Z</time>
      </trkpt>
      <trkpt lat="45.3203" lon="5.85633">
        <ele>1758.1</ele>
        <time>2000-01-01T05:40:22.000Z</time>
      </trkpt>
      <trkpt lat="45.32034" lon="5.85643">
        <ele>1758</ele>
        <time>2000-01-01T05:40:32.000Z</time>
      </trkpt>
      <trkpt lat="45.32038" lon="5.85654">
        <ele>1756.7</ele>
        <time>2000-01-01T05:40:42.000Z</time>
      </trkpt>
      <trkpt lat="45.3204" lon="5.85665">
        <ele>1756.1</ele>
        <time>2000-01-01T05:40:52.000Z</time>
      </trkpt>
      <trkpt lat="45.3204" lon="5.85673">
        <ele>1754</ele>
        <time>2000-01-01T05:41:02.000Z</time>
      </trkpt>
      <trkpt lat="45.32042" lon="5.8568">
        <ele>1752.1</ele>
        <time>2000-01-01T05:41:12.000Z</time>
      </trkpt>
      <trkpt lat="45.32039" lon="5.85688">
        <ele>1750</ele>
        <time>2000-01-01T05:41:22.000Z</time>
      </trkpt>
      <trkpt lat="45.32033" lon="5.85695">
        <ele>1750</ele>
        <time>2000-01-01T05:41:32.000Z</time>
      </trkpt>
      <trkpt lat="45.32032" lon="5.85703">
        <ele>1747.2</ele>
        <time>2000-01-01T05:41:42.000Z</time>
      </trkpt>
      <trkpt lat="45.32034" lon="5.85716">
        <ele>1744.6</ele>
        <time>2000-01-01T05:41:52.000Z</time>
      </trkpt>
      <trkpt lat="45.32043" lon="5.85736">
        <ele>1742</ele>
        <time>2000-01-01T05:42:02.000Z</time>
      </trkpt>
      <trkpt lat="45.32048" lon="5.85744">
        <ele>1741.5</ele>
        <time>2000-01-01T05:42:12.000Z</time>
      </trkpt>
      <trkpt lat="45.32056" lon="5.8575">
        <ele>1739.9</ele>
        <time>2000-01-01T05:42:22.000Z</time>
      </trkpt>
      <trkpt lat="45.32066" lon="5.85753">
        <ele>1739</ele>
        <time>2000-01-01T05:42:32.000Z</time>
      </trkpt>
      <trkpt lat="45.32073" lon="5.85756">
        <ele>1735.1</ele>
        <time>2000-01-01T05:42:42.000Z</time>
      </trkpt>
      <trkpt lat="45.32078" lon="5.85767">
        <ele>1733.4</ele>
        <time>2000-01-01T05:42:52.000Z</time>
      </trkpt>
      <trkpt lat="45.32081" lon="5.85779">
        <ele>1731</ele>
        <time>2000-01-01T05:43:02.000Z</time>
      </trkpt>
      <trkpt lat="45.32087" lon="5.85787">
        <ele>1730.2</ele>
        <time>2000-01-01T05:43:12.000Z</time>
      </trkpt>
      <trkpt lat="45.32091" lon="5.85795">
        <ele>1729.5</ele>
        <time>2000-01-01T05:43:22.000Z</time>
      </trkpt>
      <trkpt lat="45.32096" lon="5.85816">
        <ele>1732</ele>
        <time>2000-01-01T05:43:32.000Z</time>
      </trkpt>
      <trkpt lat="45.32105" lon="5.85851">
        <ele>1730</ele>
        <time>2000-01-01T05:43:42.000Z</time>
      </trkpt>
      <trkpt lat="45.32126" lon="5.85866">
        <ele>1729</ele>
        <time>2000-01-01T05:43:52.000Z</time>
      </trkpt>
      <trkpt lat="45.32158" lon="5.8589">
        <ele>1726</ele>
        <time>2000-01-01T05:44:02.000Z</time>
      </trkpt>
      <trkpt lat="45.32169" lon="5.85927">
        <ele>1723</ele>
        <time>2000-01-01T05:44:12.000Z</time>
      </trkpt>
      <trkpt lat="45.32182" lon="5.85946">
        <ele>1717.6</ele>
        <time>2000-01-01T05:44:22.000Z</time>
      </trkpt>
      <trkpt lat="45.32195" lon="5.85975">
        <ele>1717</ele>
        <time>2000-01-01T05:44:32.000Z</time>
      </trkpt>
      <trkpt lat="45.32202" lon="5.86013">
        <ele>1715</ele>
        <time>2000-01-01T05:44:42.000Z</time>
      </trkpt>
      <trkpt lat="45.32211" lon="5.86045">
        <ele>1718</ele>
        <time>2000-01-01T05:44:52.000Z</time>
      </trkpt>
      <trkpt lat="45.32219" lon="5.86091">
        <ele>1721</ele>
        <time>2000-01-01T05:45:02.000Z</time>
      </trkpt>
      <trkpt lat="45.32219" lon="5.86145">
        <ele>1731</ele>
        <time>2000-01-01T05:45:12.000Z</time>
      </trkpt>
      <trkpt lat="45.3222" lon="5.86189">
        <ele>1731</ele>
        <time>2000-01-01T05:45:22.000Z</time>
      </trkpt>
      <trkpt lat="45.32225" lon="5.86213">
        <ele>1732.9</ele>
        <time>2000-01-01T05:45:32.000Z</time>
      </trkpt>
      <trkpt lat="45.32233" lon="5.86234">
        <ele>1732</ele>
        <time>2000-01-01T05:45:42.000Z</time>
      </trkpt>
      <trkpt lat="45.32241" lon="5.86251">
        <ele>1729.3</ele>
        <time>2000-01-01T05:45:52.000Z</time>
      </trkpt>
      <trkpt lat="45.32244" lon="5.86281">
        <ele>1734</ele>
        <time>2000-01-01T05:46:02.000Z</time>
      </trkpt>
      <trkpt lat="45.32242" lon="5.86294">
        <ele>1735.1</ele>
        <time>2000-01-01T05:46:12.000Z</time>
      </trkpt>
      <trkpt lat="45.32242" lon="5.86309">
        <ele>1737</ele>
        <time>2000-01-01T05:46:22.000Z</time>
      </trkpt>
      <trkpt lat="45.32242" lon="5.86324">
        <ele>1739.6</ele>
        <time>2000-01-01T05:46:32.000Z</time>
      </trkpt>
      <trkpt lat="45.32244" lon="5.86342">
        <ele>1744</ele>
        <time>2000-01-01T05:46:42.000Z</time>
      </trkpt>
      <trkpt lat="45.32245" lon="5.86355">
        <ele>1743.5</ele>
        <time>2000-01-01T05:46:52.000Z</time>
      </trkpt>
      <trkpt lat="45.32248" lon="5.86367">
        <ele>1744.3</ele>
        <time>2000-01-01T05:47:02.000Z</time>
      </trkpt>
      <trkpt lat="45.32252" lon="5.86377">
        <ele>1744</ele>
        <time>2000-01-01T05:47:12.000Z</time>
      </trkpt>
      <trkpt lat="45.32258" lon="5.86388">
        <ele>1742.9</ele>
        <time>2000-01-01T05:47:22.000Z</time>
      </trkpt>
      <trkpt lat="45.32266" lon="5.86398">
        <ele>1741</ele>
        <time>2000-01-01T05:47:32.000Z</time>
      </trkpt>
      <trkpt lat="45.32274" lon="5.8641">
        <ele>1741.1</ele>
        <time>2000-01-01T05:47:42.000Z</time>
      </trkpt>
      <trkpt lat="45.32279" lon="5.86416">
        <ele>1741.1</ele>
        <time>2000-01-01T05:47:52.000Z</time>
      </trkpt>
      <trkpt lat="45.32281" lon="5.8642">
        <ele>1740</ele>
        <time>2000-01-01T05:48:02.000Z</time>
      </trkpt>
      <trkpt lat="45.3229" lon="5.86425">
        <ele>1739.2</ele>
        <time>2000-01-01T05:48:12.000Z</time>
      </trkpt>
      <trkpt lat="45.32295" lon="5.86432">
        <ele>1740</ele>
        <time>2000-01-01T05:48:22.000Z</time>
      </trkpt>
      <trkpt lat="45.32311" lon="5.86444">
        <ele>1739</ele>
        <time>2000-01-01T05:48:32.000Z</time>
      </trkpt>
      <trkpt lat="45.32337" lon="5.86449">
        <ele>1733</ele>
        <time>2000-01-01T05:48:42.000Z</time>
      </trkpt>
      <trkpt lat="45.32368" lon="5.86452">
        <ele>1733</ele>
        <time>2000-01-01T05:48:52.000Z</time>
      </trkpt>
      <trkpt lat="45.32389" lon="5.86463">
        <ele>1733</ele>
        <time>2000-01-01T05:49:02.000Z</time>
      </trkpt>
      <trkpt lat="45.32416" lon="5.86459">
        <ele>1733</ele>
        <time>2000-01-01T05:49:12.000Z</time>
      </trkpt>
      <trkpt lat="45.32439" lon="5.86447">
        <ele>1733</ele>
        <time>2000-01-01T05:49:22.000Z</time>
      </trkpt>
      <trkpt lat="45.32454" lon="5.86442">
        <ele>1735.3</ele>
        <time>2000-01-01T05:49:32.000Z</time>
      </trkpt>
      <trkpt lat="45.32465" lon="5.8644">
        <ele>1729</ele>
        <time>2000-01-01T05:49:42.000Z</time>
      </trkpt>
      <trkpt lat="45.32479" lon="5.86443">
        <ele>1736.6</ele>
        <time>2000-01-01T05:49:52.000Z</time>
      </trkpt>
      <trkpt lat="45.32519" lon="5.86435">
        <ele>1726</ele>
        <time>2000-01-01T05:50:02.000Z</time>
      </trkpt>
      <trkpt lat="45.32539" lon="5.8643">
        <ele>1723</ele>
        <time>2000-01-01T05:50:12.000Z</time>
      </trkpt>
      <trkpt lat="45.32542" lon="5.86421">
        <ele>1720.3</ele>
        <time>2000-01-01T05:50:22.000Z</time>
      </trkpt>
      <trkpt lat="45.32555" lon="5.86426">
        <ele>1726</ele>
        <time>2000-01-01T05:50:32.000Z</time>
      </trkpt>
      <trkpt lat="45.32594" lon="5.86431">
        <ele>1726</ele>
        <time>2000-01-01T05:50:42.000Z</time>
      </trkpt>
      <trkpt lat="45.32621" lon="5.86441">
        <ele>1727</ele>
        <time>2000-01-01T05:50:52.000Z</time>
      </trkpt>
      <trkpt lat="45.32651" lon="5.86464">
        <ele>1728</ele>
        <time>2000-01-01T05:51:02.000Z</time>
      </trkpt>
      <trkpt lat="45.32685" lon="5.86484">
        <ele>1728</ele>
        <time>2000-01-01T05:51:12.000Z</time>
      </trkpt>
      <trkpt lat="45.32718" lon="5.86496">
        <ele>1729</ele>
        <time>2000-01-01T05:51:22.000Z</time>
      </trkpt>
      <trkpt lat="45.32755" lon="5.86518">
        <ele>1729</ele>
        <time>2000-01-01T05:51:32.000Z</time>
      </trkpt>
      <trkpt lat="45.32797" lon="5.86531">
        <ele>1727</ele>
        <time>2000-01-01T05:51:42.000Z</time>
      </trkpt>
      <trkpt lat="45.32822" lon="5.86537">
        <ele>1726</ele>
        <time>2000-01-01T05:51:52.000Z</time>
      </trkpt>
      <trkpt lat="45.32851" lon="5.86545">
        <ele>1726</ele>
        <time>2000-01-01T05:52:02.000Z</time>
      </trkpt>
      <trkpt lat="45.3286" lon="5.86545">
        <ele>1728.2</ele>
        <time>2000-01-01T05:52:12.000Z</time>
      </trkpt>
      <trkpt lat="45.32871" lon="5.86546">
        <ele>1725</ele>
        <time>2000-01-01T05:52:22.000Z</time>
      </trkpt>
      <trkpt lat="45.32877" lon="5.86544">
        <ele>1726.6</ele>
        <time>2000-01-01T05:52:32.000Z</time>
      </trkpt>
      <trkpt lat="45.32883" lon="5.86545">
        <ele>1726.6</ele>
        <time>2000-01-01T05:52:42.000Z</time>
      </trkpt>
      <trkpt lat="45.32898" lon="5.86543">
        <ele>1724</ele>
        <time>2000-01-01T05:52:52.000Z</time>
      </trkpt>
      <trkpt lat="45.32909" lon="5.8654">
        <ele>1722.3</ele>
        <time>2000-01-01T05:53:02.000Z</time>
      </trkpt>
      <trkpt lat="45.32918" lon="5.86541">
        <ele>1722</ele>
        <time>2000-01-01T05:53:12.000Z</time>
      </trkpt>
      <trkpt lat="45.32923" lon="5.86547">
        <ele>1722.4</ele>
        <time>2000-01-01T05:53:22.000Z</time>
      </trkpt>
      <trkpt lat="45.32929" lon="5.86547">
        <ele>1721.3</ele>
        <time>2000-01-01T05:53:32.000Z</time>
      </trkpt>
      <trkpt lat="45.32936" lon="5.86546">
        <ele>1719</ele>
        <time>2000-01-01T05:53:42.000Z</time>
      </trkpt>
      <trkpt lat="45.32943" lon="5.86548">
        <ele>1718.9</ele>
        <time>2000-01-01T05:53:52.000Z</time>
      </trkpt>
      <trkpt lat="45.32952" lon="5.8655">
        <ele>1717.3</ele>
        <time>2000-01-01T05:54:02.000Z</time>
      </trkpt>
      <trkpt lat="45.32962" lon="5.86545">
        <ele>1714</ele>
        <time>2000-01-01T05:54:12.000Z</time>
      </trkpt>
      <trkpt lat="45.32975" lon="5.8655">
        <ele>1712</ele>
        <time>2000-01-01T05:54:22.000Z</time>
      </trkpt>
      <trkpt lat="45.32982" lon="5.86559">
        <ele>1714</ele>
        <time>2000-01-01T05:54:32.000Z</time>
      </trkpt>
      <trkpt lat="45.32982" lon="5.86575">
        <ele>1712.2</ele>
        <time>2000-01-01T05:54:42.000Z</time>
      </trkpt>
      <trkpt lat="45.32982" lon="5.86585">
        <ele>1712.9</ele>
        <time>2000-01-01T05:54:52.000Z</time>
      </trkpt>
      <trkpt lat="45.32984" lon="5.86593">
        <ele>1714</ele>
        <time>2000-01-01T05:55:02.000Z</time>
      </trkpt>
      <trkpt lat="45.32992" lon="5.86603">
        <ele>1710.2</ele>
        <time>2000-01-01T05:55:12.000Z</time>
      </trkpt>
      <trkpt lat="45.32993" lon="5.86611">
        <ele>1710</ele>
        <time>2000-01-01T05:55:22.000Z</time>
      </trkpt>
      <trkpt lat="45.33" lon="5.86621">
        <ele>1712</ele>
        <time>2000-01-01T05:55:32.000Z</time>
      </trkpt>
      <trkpt lat="45.32996" lon="5.86637">
        <ele>1708.2</ele>
        <time>2000-01-01T05:55:42.000Z</time>
      </trkpt>
      <trkpt lat="45.32997" lon="5.8665">
        <ele>1710</ele>
        <time>2000-01-01T05:55:52.000Z</time>
      </trkpt>
      <trkpt lat="45.32999" lon="5.86662">
        <ele>1708.1</ele>
        <time>2000-01-01T05:56:02.000Z</time>
      </trkpt>
      <trkpt lat="45.33011" lon="5.86671">
        <ele>1705</ele>
        <time>2000-01-01T05:56:12.000Z</time>
      </trkpt>
      <trkpt lat="45.33028" lon="5.86682">
        <ele>1702.4</ele>
        <time>2000-01-01T05:56:22.000Z</time>
      </trkpt>
      <trkpt lat="45.33046" lon="5.86694">
        <ele>1706</ele>
        <time>2000-01-01T05:56:32.000Z</time>
      </trkpt>
      <trkpt lat="45.33066" lon="5.86727">
        <ele>1706</ele>
        <time>2000-01-01T05:56:42.000Z</time>
      </trkpt>
      <trkpt lat="45.33077" lon="5.86738">
        <ele>1706.8</ele>
        <time>2000-01-01T05:56:52.000Z</time>
      </trkpt>
      <trkpt lat="45.3318" lon="5.86915">
        <ele>1706</ele>
        <time>2000-01-01T05:57:02.000Z</time>
      </trkpt>
      <trkpt lat="45.33185" lon="5.86926">
        <ele>1705.7</ele>
        <time>2000-01-01T05:57:12.000Z</time>
      </trkpt>
      <trkpt lat="45.33218" lon="5.86988">
        <ele>1708</ele>
        <time>2000-01-01T05:57:22.000Z</time>
      </trkpt>
      <trkpt lat="45.33227" lon="5.87011">
        <ele>1705.7</ele>
        <time>2000-01-01T05:57:32.000Z</time>
      </trkpt>
      <trkpt lat="45.3325" lon="5.87066">
        <ele>1710</ele>
        <time>2000-01-01T05:57:42.000Z</time>
      </trkpt>
      <trkpt lat="45.33262" lon="5.87098">
        <ele>1714</ele>
        <time>2000-01-01T05:57:52.000Z</time>
      </trkpt>
      <trkpt lat="45.33281" lon="5.87132">
        <ele>1720</ele>
        <time>2000-01-01T05:58:02.000Z</time>
      </trkpt>
      <trkpt lat="45.33295" lon="5.87157">
        <ele>1721</ele>
        <time>2000-01-01T05:58:12.000Z</time>
      </trkpt>
      <trkpt lat="45.33311" lon="5.87181">
        <ele>1727</ele>
        <time>2000-01-01T05:58:22.000Z</time>
      </trkpt>
      <trkpt lat="45.33333" lon="5.872">
        <ele>1727</ele>
        <time>2000-01-01T05:58:32.000Z</time>
      </trkpt>
      <trkpt lat="45.33351" lon="5.87213">
        <ele>1727</ele>
        <time>2000-01-01T05:58:42.000Z</time>
      </trkpt>
      <trkpt lat="45.33379" lon="5.87218">
        <ele>1724</ele>
        <time>2000-01-01T05:58:52.000Z</time>
      </trkpt>
      <trkpt lat="45.33403" lon="5.87218">
        <ele>1720</ele>
        <time>2000-01-01T05:59:02.000Z</time>
      </trkpt>
      <trkpt lat="45.33418" lon="5.87226">
        <ele>1725.4</ele>
        <time>2000-01-01T05:59:12.000Z</time>
      </trkpt>
      <trkpt lat="45.33445" lon="5.87226">
        <ele>1720</ele>
        <time>2000-01-01T05:59:22.000Z</time>
      </trkpt>
      <trkpt lat="45.33468" lon="5.8723">
        <ele>1716</ele>
        <time>2000-01-01T05:59:32.000Z</time>
      </trkpt>
      <trkpt lat="45.3349" lon="5.87234">
        <ele>1715</ele>
        <time>2000-01-01T05:59:42.000Z</time>
      </trkpt>
      <trkpt lat="45.33512" lon="5.87238">
        <ele>1706</ele>
        <time>2000-01-01T05:59:52.000Z</time>
      </trkpt>
      <trkpt lat="45.33535" lon="5.87242">
        <ele>1702</ele>
        <time>2000-01-01T06:00:02.000Z</time>
      </trkpt>
      <trkpt lat="45.33544" lon="5.87244">
        <ele>1700.7</ele>
        <time>2000-01-01T06:00:12.000Z</time>
      </trkpt>
      <trkpt lat="45.33562" lon="5.87251">
        <ele>1698</ele>
        <time>2000-01-01T06:00:22.000Z</time>
      </trkpt>
      <trkpt lat="45.33584" lon="5.87254">
        <ele>1693</ele>
        <time>2000-01-01T06:00:32.000Z</time>
      </trkpt>
      <trkpt lat="45.33606" lon="5.87257">
        <ele>1691</ele>
        <time>2000-01-01T06:00:42.000Z</time>
      </trkpt>
      <trkpt lat="45.33629" lon="5.8726">
        <ele>1690</ele>
        <time>2000-01-01T06:00:52.000Z</time>
      </trkpt>
      <trkpt lat="45.33651" lon="5.87263">
        <ele>1683</ele>
        <time>2000-01-01T06:01:02.000Z</time>
      </trkpt>
      <trkpt lat="45.33656" lon="5.87264">
        <ele>1686</ele>
        <time>2000-01-01T06:01:12.000Z</time>
      </trkpt>
      <trkpt lat="45.33678" lon="5.87265">
        <ele>1678</ele>
        <time>2000-01-01T06:01:22.000Z</time>
      </trkpt>
      <trkpt lat="45.33692" lon="5.87266">
        <ele>1677.6</ele>
        <time>2000-01-01T06:01:32.000Z</time>
      </trkpt>
      <trkpt lat="45.33714" lon="5.87276">
        <ele>1674</ele>
        <time>2000-01-01T06:01:42.000Z</time>
      </trkpt>
      <trkpt lat="45.33727" lon="5.87281">
        <ele>1678</ele>
        <time>2000-01-01T06:01:52.000Z</time>
      </trkpt>
      <trkpt lat="45.33747" lon="5.87286">
        <ele>1674</ele>
        <time>2000-01-01T06:02:02.000Z</time>
      </trkpt>
      <trkpt lat="45.33765" lon="5.87292">
        <ele>1674.1</ele>
        <time>2000-01-01T06:02:12.000Z</time>
      </trkpt>
      <trkpt lat="45.33771" lon="5.87292">
        <ele>1670</ele>
        <time>2000-01-01T06:02:22.000Z</time>
      </trkpt>
      <trkpt lat="45.3378" lon="5.87292">
        <ele>1669.7</ele>
        <time>2000-01-01T06:02:32.000Z</time>
      </trkpt>
      <trkpt lat="45.33791" lon="5.87293">
        <ele>1666</ele>
        <time>2000-01-01T06:02:42.000Z</time>
      </trkpt>
      <trkpt lat="45.33817" lon="5.87303">
        <ele>1663</ele>
        <time>2000-01-01T06:02:52.000Z</time>
      </trkpt>
      <trkpt lat="45.33839" lon="5.87314">
        <ele>1663</ele>
        <time>2000-01-01T06:03:02.000Z</time>
      </trkpt>
      <trkpt lat="45.33863" lon="5.87326">
        <ele>1659</ele>
        <time>2000-01-01T06:03:12.000Z</time>
      </trkpt>
      <trkpt lat="45.33879" lon="5.87326">
        <ele>1659</ele>
        <time>2000-01-01T06:03:22.000Z</time>
      </trkpt>
      <trkpt lat="45.3389" lon="5.87336">
        <ele>1659</ele>
        <time>2000-01-01T06:03:32.000Z</time>
      </trkpt>
      <trkpt lat="45.33903" lon="5.87345">
        <ele>1663.2</ele>
        <time>2000-01-01T06:03:42.000Z</time>
      </trkpt>
      <trkpt lat="45.33915" lon="5.87342">
        <ele>1659</ele>
        <time>2000-01-01T06:03:52.000Z</time>
      </trkpt>
      <trkpt lat="45.3393" lon="5.87327">
        <ele>1659.5</ele>
        <time>2000-01-01T06:04:02.000Z</time>
      </trkpt>
      <trkpt lat="45.33942" lon="5.8731">
        <ele>1655</ele>
        <time>2000-01-01T06:04:12.000Z</time>
      </trkpt>
      <trkpt lat="45.33957" lon="5.87296">
        <ele>1656.2</ele>
        <time>2000-01-01T06:04:22.000Z</time>
      </trkpt>
      <trkpt lat="45.33982" lon="5.8728">
        <ele>1651</ele>
        <time>2000-01-01T06:04:32.000Z</time>
      </trkpt>
      <trkpt lat="45.33997" lon="5.87274">
        <ele>1650.4</ele>
        <time>2000-01-01T06:04:42.000Z</time>
      </trkpt>
      <trkpt lat="45.34011" lon="5.87268">
        <ele>1646</ele>
        <time>2000-01-01T06:04:52.000Z</time>
      </trkpt>
      <trkpt lat="45.34026" lon="5.87254">
        <ele>1643.3</ele>
        <time>2000-01-01T06:05:02.000Z</time>
      </trkpt>
      <trkpt lat="45.34041" lon="5.87243">
        <ele>1639</ele>
        <time>2000-01-01T06:05:12.000Z</time>
      </trkpt>
      <trkpt lat="45.34047" lon="5.87232">
        <ele>1638.9</ele>
        <time>2000-01-01T06:05:22.000Z</time>
      </trkpt>
      <trkpt lat="45.34054" lon="5.87223">
        <ele>1637.1</ele>
        <time>2000-01-01T06:05:32.000Z</time>
      </trkpt>
      <trkpt lat="45.34063" lon="5.87222">
        <ele>1638</ele>
        <time>2000-01-01T06:05:42.000Z</time>
      </trkpt>
      <trkpt lat="45.34068" lon="5.87223">
        <ele>1641.7</ele>
        <time>2000-01-01T06:05:52.000Z</time>
      </trkpt>
      <trkpt lat="45.34072" lon="5.87206">
        <ele>1635.6</ele>
        <time>2000-01-01T06:06:02.000Z</time>
      </trkpt>
      <trkpt lat="45.34077" lon="5.87199">
        <ele>1640</ele>
        <time>2000-01-01T06:06:12.000Z</time>
      </trkpt>
      <trkpt lat="45.34079" lon="5.87199">
        <ele>1634.7</ele>
        <time>2000-01-01T06:06:22.000Z</time>
      </trkpt>
      <trkpt lat="45.34078" lon="5.87204">
        <ele>1636.7</ele>
        <time>2000-01-01T06:06:32.000Z</time>
      </trkpt>
      <trkpt lat="45.34079" lon="5.87213">
        <ele>1641.2</ele>
        <time>2000-01-01T06:06:42.000Z</time>
      </trkpt>
      <trkpt lat="45.34079" lon="5.87223">
        <ele>1645.6</ele>
        <time>2000-01-01T06:06:52.000Z</time>
      </trkpt>
      <trkpt lat="45.34077" lon="5.87236">
        <ele>1642</ele>
        <time>2000-01-01T06:07:02.000Z</time>
      </trkpt>
      <trkpt lat="45.34074" lon="5.87247">
        <ele>1649.6</ele>
        <time>2000-01-01T06:07:12.000Z</time>
      </trkpt>
      <trkpt lat="45.34068" lon="5.87254">
        <ele>1649.8</ele>
        <time>2000-01-01T06:07:22.000Z</time>
      </trkpt>
      <trkpt lat="45.34063" lon="5.87258">
        <ele>1646</ele>
        <time>2000-01-01T06:07:32.000Z</time>
      </trkpt>
      <trkpt lat="45.34058" lon="5.87264">
        <ele>1650.2</ele>
        <time>2000-01-01T06:07:42.000Z</time>
      </trkpt>
      <trkpt lat="45.34055" lon="5.87277">
        <ele>1653.7</ele>
        <time>2000-01-01T06:07:52.000Z</time>
      </trkpt>
      <trkpt lat="45.34054" lon="5.87291">
        <ele>1656</ele>
        <time>2000-01-01T06:08:02.000Z</time>
      </trkpt>
      <trkpt lat="45.34048" lon="5.87302">
        <ele>1659.9</ele>
        <time>2000-01-01T06:08:12.000Z</time>
      </trkpt>
      <trkpt lat="45.34041" lon="5.87313">
        <ele>1660</ele>
        <time>2000-01-01T06:08:22.000Z</time>
      </trkpt>
      <trkpt lat="45.3403" lon="5.87328">
        <ele>1664.8</ele>
        <time>2000-01-01T06:08:32.000Z</time>
      </trkpt>
      <trkpt lat="45.34016" lon="5.87345">
        <ele>1667</ele>
        <time>2000-01-01T06:08:42.000Z</time>
      </trkpt>
      <trkpt lat="45.34007" lon="5.87359">
        <ele>1672.2</ele>
        <time>2000-01-01T06:08:52.000Z</time>
      </trkpt>
      <trkpt lat="45.34003" lon="5.87364">
        <ele>1673.3</ele>
        <time>2000-01-01T06:09:02.000Z</time>
      </trkpt>
      <trkpt lat="45.34003" lon="5.87366">
        <ele>1671</ele>
        <time>2000-01-01T06:09:12.000Z</time>
      </trkpt>
      <trkpt lat="45.34007" lon="5.87367">
        <ele>1674.7</ele>
        <time>2000-01-01T06:09:22.000Z</time>
      </trkpt>
      <trkpt lat="45.34016" lon="5.87371">
        <ele>1676.9</ele>
        <time>2000-01-01T06:09:32.000Z</time>
      </trkpt>
      <trkpt lat="45.34027" lon="5.87377">
        <ele>1677</ele>
        <time>2000-01-01T06:09:42.000Z</time>
      </trkpt>
      <trkpt lat="45.34036" lon="5.87382">
        <ele>1683.2</ele>
        <time>2000-01-01T06:09:52.000Z</time>
      </trkpt>
      <trkpt lat="45.34044" lon="5.87385">
        <ele>1685.7</ele>
        <time>2000-01-01T06:10:02.000Z</time>
      </trkpt>
      <trkpt lat="45.3405" lon="5.87385">
        <ele>1684</ele>
        <time>2000-01-01T06:10:12.000Z</time>
      </trkpt>
      <trkpt lat="45.34058" lon="5.87383">
        <ele>1687.8</ele>
        <time>2000-01-01T06:10:22.000Z</time>
      </trkpt>
      <trkpt lat="45.34071" lon="5.87381">
        <ele>1689</ele>
        <time>2000-01-01T06:10:32.000Z</time>
      </trkpt>
      <trkpt lat="45.34088" lon="5.87379">
        <ele>1694.8</ele>
        <time>2000-01-01T06:10:42.000Z</time>
      </trkpt>
      <trkpt lat="45.34095" lon="5.87377">
        <ele>1692</ele>
        <time>2000-01-01T06:10:52.000Z</time>
      </trkpt>
      <trkpt lat="45.34095" lon="5.87378">
        <ele>1696.6</ele>
        <time>2000-01-01T06:11:02.000Z</time>
      </trkpt>
      <trkpt lat="45.34092" lon="5.87384">
        <ele>1697.8</ele>
        <time>2000-01-01T06:11:12.000Z</time>
      </trkpt>
      <trkpt lat="45.34087" lon="5.87393">
        <ele>1699.5</ele>
        <time>2000-01-01T06:11:22.000Z</time>
      </trkpt>
      <trkpt lat="45.3408" lon="5.87405">
        <ele>1696</ele>
        <time>2000-01-01T06:11:32.000Z</time>
      </trkpt>
      <trkpt lat="45.34073" lon="5.87417">
        <ele>1703.8</ele>
        <time>2000-01-01T06:11:42.000Z</time>
      </trkpt>
      <trkpt lat="45.34066" lon="5.8743">
        <ele>1704</ele>
        <time>2000-01-01T06:11:52.000Z</time>
      </trkpt>
      <trkpt lat="45.3406" lon="5.87444">
        <ele>1709.3</ele>
        <time>2000-01-01T06:12:02.000Z</time>
      </trkpt>
      <trkpt lat="45.34054" lon="5.87455">
        <ele>1708</ele>
        <time>2000-01-01T06:12:12.000Z</time>
      </trkpt>
      <trkpt lat="45.34049" lon="5.87466">
        <ele>1714.6</ele>
        <time>2000-01-01T06:12:22.000Z</time>
      </trkpt>
      <trkpt lat="45.34042" lon="5.87473">
        <ele>1715.8</ele>
        <time>2000-01-01T06:12:32.000Z</time>
      </trkpt>
      <trkpt lat="45.3404" lon="5.87478">
        <ele>1714</ele>
        <time>2000-01-01T06:12:42.000Z</time>
      </trkpt>
      <trkpt lat="45.34039" lon="5.87484">
        <ele>1719.3</ele>
        <time>2000-01-01T06:12:52.000Z</time>
      </trkpt>
      <trkpt lat="45.34039" lon="5.87489">
        <ele>1721.1</ele>
        <time>2000-01-01T06:13:02.000Z</time>
      </trkpt>
      <trkpt lat="45.34042" lon="5.87495">
        <ele>1723.8</ele>
        <time>2000-01-01T06:13:12.000Z</time>
      </trkpt>
      <trkpt lat="45.34047" lon="5.87499">
        <ele>1726.1</ele>
        <time>2000-01-01T06:13:22.000Z</time>
      </trkpt>
      <trkpt lat="45.34052" lon="5.87501">
        <ele>1727</ele>
        <time>2000-01-01T06:13:32.000Z</time>
      </trkpt>
      <trkpt lat="45.34057" lon="5.87501">
        <ele>1728.9</ele>
        <time>2000-01-01T06:13:42.000Z</time>
      </trkpt>
      <trkpt lat="45.34063" lon="5.87501">
        <ele>1731.1</ele>
        <time>2000-01-01T06:13:52.000Z</time>
      </trkpt>
      <trkpt lat="45.34069" lon="5.87501">
        <ele>1733.2</ele>
        <time>2000-01-01T06:14:02.000Z</time>
      </trkpt>
      <trkpt lat="45.34075" lon="5.87498">
        <ele>1729</ele>
        <time>2000-01-01T06:14:12.000Z</time>
      </trkpt>
      <trkpt lat="45.34078" lon="5.87496">
        <ele>1734.6</ele>
        <time>2000-01-01T06:14:22.000Z</time>
      </trkpt>
      <trkpt lat="45.34082" lon="5.87491">
        <ele>1734.3</ele>
        <time>2000-01-01T06:14:32.000Z</time>
      </trkpt>
      <trkpt lat="45.34089" lon="5.87488">
        <ele>1735.9</ele>
        <time>2000-01-01T06:14:42.000Z</time>
      </trkpt>
      <trkpt lat="45.34096" lon="5.87486">
        <ele>1732</ele>
        <time>2000-01-01T06:14:52.000Z</time>
      </trkpt>
      <trkpt lat="45.34107" lon="5.87484">
        <ele>1741</ele>
        <time>2000-01-01T06:15:02.000Z</time>
      </trkpt>
      <trkpt lat="45.34117" lon="5.87484">
        <ele>1739</ele>
        <time>2000-01-01T06:15:12.000Z</time>
      </trkpt>
      <trkpt lat="45.34126" lon="5.87481">
        <ele>1747.9</ele>
        <time>2000-01-01T06:15:22.000Z</time>
      </trkpt>
      <trkpt lat="45.34134" lon="5.87476">
        <ele>1748.9</ele>
        <time>2000-01-01T06:15:32.000Z</time>
      </trkpt>
      <trkpt lat="45.34141" lon="5.87471">
        <ele>1742</ele>
        <time>2000-01-01T06:15:42.000Z</time>
      </trkpt>
      <trkpt lat="45.3415" lon="5.87464">
        <ele>1753.7</ele>
        <time>2000-01-01T06:15:52.000Z</time>
      </trkpt>
      <trkpt lat="45.34156" lon="5.87454">
        <ele>1746</ele>
        <time>2000-01-01T06:16:02.000Z</time>
      </trkpt>
      <trkpt lat="45.34163" lon="5.87443">
        <ele>1754.7</ele>
        <time>2000-01-01T06:16:12.000Z</time>
      </trkpt>
      <trkpt lat="45.34167" lon="5.87438">
        <ele>1755.5</ele>
        <time>2000-01-01T06:16:22.000Z</time>
      </trkpt>
      <trkpt lat="45.34171" lon="5.87435">
        <ele>1756</ele>
        <time>2000-01-01T06:16:32.000Z</time>
      </trkpt>
      <trkpt lat="45.34177" lon="5.87432">
        <ele>1760.4</ele>
        <time>2000-01-01T06:16:42.000Z</time>
      </trkpt>
      <trkpt lat="45.34179" lon="5.87433">
        <ele>1762.2</ele>
        <time>2000-01-01T06:16:52.000Z</time>
      </trkpt>
      <trkpt lat="45.3418" lon="5.87435">
        <ele>1763.7</ele>
        <time>2000-01-01T06:17:02.000Z</time>
      </trkpt>
      <trkpt lat="45.34179" lon="5.87438">
        <ele>1764.1</ele>
        <time>2000-01-01T06:17:12.000Z</time>
      </trkpt>
      <trkpt lat="45.34177" lon="5.87442">
        <ele>1764.1</ele>
        <time>2000-01-01T06:17:22.000Z</time>
      </trkpt>
      <trkpt lat="45.34176" lon="5.87445">
        <ele>1764.6</ele>
        <time>2000-01-01T06:17:32.000Z</time>
      </trkpt>
      <trkpt lat="45.34177" lon="5.87447">
        <ele>1759</ele>
        <time>2000-01-01T06:17:42.000Z</time>
      </trkpt>
      <trkpt lat="45.34182" lon="5.87444">
        <ele>1768.3</ele>
        <time>2000-01-01T06:17:52.000Z</time>
      </trkpt>
      <trkpt lat="45.34187" lon="5.8744">
        <ele>1770.5</ele>
        <time>2000-01-01T06:18:02.000Z</time>
      </trkpt>
      <trkpt lat="45.34191" lon="5.87435">
        <ele>1771.8</ele>
        <time>2000-01-01T06:18:12.000Z</time>
      </trkpt>
      <trkpt lat="45.34196" lon="5.87424">
        <ele>1765</ele>
        <time>2000-01-01T06:18:22.000Z</time>
      </trkpt>
      <trkpt lat="45.34203" lon="5.87414">
        <ele>1772.8</ele>
        <time>2000-01-01T06:18:32.000Z</time>
      </trkpt>
      <trkpt lat="45.34208" lon="5.87408">
        <ele>1773.1</ele>
        <time>2000-01-01T06:18:42.000Z</time>
      </trkpt>
      <trkpt lat="45.34214" lon="5.87405">
        <ele>1773</ele>
        <time>2000-01-01T06:18:52.000Z</time>
      </trkpt>
      <trkpt lat="45.34223" lon="5.87403">
        <ele>1778.3</ele>
        <time>2000-01-01T06:19:02.000Z</time>
      </trkpt>
      <trkpt lat="45.34225" lon="5.87404">
        <ele>1779.4</ele>
        <time>2000-01-01T06:19:12.000Z</time>
      </trkpt>
      <trkpt lat="45.34224" lon="5.87407">
        <ele>1780.6</ele>
        <time>2000-01-01T06:19:22.000Z</time>
      </trkpt>
      <trkpt lat="45.34222" lon="5.87416">
        <ele>1780</ele>
        <time>2000-01-01T06:19:32.000Z</time>
      </trkpt>
      <trkpt lat="45.34218" lon="5.87428">
        <ele>1786.9</ele>
        <time>2000-01-01T06:19:42.000Z</time>
      </trkpt>
      <trkpt lat="45.34214" lon="5.87448">
        <ele>1787</ele>
        <time>2000-01-01T06:19:52.000Z</time>
      </trkpt>
      <trkpt lat="45.34211" lon="5.87466">
        <ele>1796.4</ele>
        <time>2000-01-01T06:20:02.000Z</time>
      </trkpt>
      <trkpt lat="45.34207" lon="5.87479">
        <ele>1791</ele>
        <time>2000-01-01T06:20:12.000Z</time>
      </trkpt>
      <trkpt lat="45.34197" lon="5.875">
        <ele>1801.5</ele>
        <time>2000-01-01T06:20:22.000Z</time>
      </trkpt>
      <trkpt lat="45.34194" lon="5.87507">
        <ele>1797</ele>
        <time>2000-01-01T06:20:32.000Z</time>
      </trkpt>
      <trkpt lat="45.34195" lon="5.87509">
        <ele>1804.5</ele>
        <time>2000-01-01T06:20:42.000Z</time>
      </trkpt>
      <trkpt lat="45.34196" lon="5.87509">
        <ele>1805.1</ele>
        <time>2000-01-01T06:20:52.000Z</time>
      </trkpt>
      <trkpt lat="45.34205" lon="5.87506">
        <ele>1809</ele>
        <time>2000-01-01T06:21:02.000Z</time>
      </trkpt>
      <trkpt lat="45.34213" lon="5.87502">
        <ele>1809</ele>
        <time>2000-01-01T06:21:12.000Z</time>
      </trkpt>
      <trkpt lat="45.34223" lon="5.87495">
        <ele>1814.7</ele>
        <time>2000-01-01T06:21:22.000Z</time>
      </trkpt>
      <trkpt lat="45.3423" lon="5.8749">
        <ele>1817.2</ele>
        <time>2000-01-01T06:21:32.000Z</time>
      </trkpt>
      <trkpt lat="45.34232" lon="5.87489">
        <ele>1813</ele>
        <time>2000-01-01T06:21:42.000Z</time>
      </trkpt>
      <trkpt lat="45.34232" lon="5.87491">
        <ele>1818.9</ele>
        <time>2000-01-01T06:21:52.000Z</time>
      </trkpt>
      <trkpt lat="45.34231" lon="5.87495">
        <ele>1819.8</ele>
        <time>2000-01-01T06:22:02.000Z</time>
      </trkpt>
      <trkpt lat="45.34224" lon="5.87512">
        <ele>1823.1</ele>
        <time>2000-01-01T06:22:12.000Z</time>
      </trkpt>
      <trkpt lat="45.34214" lon="5.87532">
        <ele>1824</ele>
        <time>2000-01-01T06:22:22.000Z</time>
      </trkpt>
      <trkpt lat="45.3421" lon="5.8754">
        <ele>1827.8</ele>
        <time>2000-01-01T06:22:32.000Z</time>
      </trkpt>
      <trkpt lat="45.34209" lon="5.87544">
        <ele>1828.9</ele>
        <time>2000-01-01T06:22:42.000Z</time>
      </trkpt>
      <trkpt lat="45.34211" lon="5.87544">
        <ele>1830.1</ele>
        <time>2000-01-01T06:22:52.000Z</time>
      </trkpt>
      <trkpt lat="45.34218" lon="5.8754">
        <ele>1832.7</ele>
        <time>2000-01-01T06:23:02.000Z</time>
      </trkpt>
      <trkpt lat="45.34228" lon="5.87534">
        <ele>1829</ele>
        <time>2000-01-01T06:23:12.000Z</time>
      </trkpt>
      <trkpt lat="45.3424" lon="5.87527">
        <ele>1839.9</ele>
        <time>2000-01-01T06:23:22.000Z</time>
      </trkpt>
      <trkpt lat="45.34254" lon="5.87517">
        <ele>1837</ele>
        <time>2000-01-01T06:23:32.000Z</time>
      </trkpt>
      <trkpt lat="45.34273" lon="5.8751">
        <ele>1845</ele>
        <time>2000-01-01T06:23:42.000Z</time>
      </trkpt>
      <trkpt lat="45.34277" lon="5.87508">
        <ele>1852.7</ele>
        <time>2000-01-01T06:23:52.000Z</time>
      </trkpt>
      <trkpt lat="45.34278" lon="5.8751">
        <ele>1854.1</ele>
        <time>2000-01-01T06:24:02.000Z</time>
      </trkpt>
      <trkpt lat="45.34277" lon="5.87513">
        <ele>1854.7</ele>
        <time>2000-01-01T06:24:12.000Z</time>
      </trkpt>
      <trkpt lat="45.34266" lon="5.87538">
        <ele>1853</ele>
        <time>2000-01-01T06:24:22.000Z</time>
      </trkpt>
      <trkpt lat="45.3426" lon="5.87553">
        <ele>1861.1</ele>
        <time>2000-01-01T06:24:32.000Z</time>
      </trkpt>
      <trkpt lat="45.34258" lon="5.87559">
        <ele>1862.3</ele>
        <time>2000-01-01T06:24:42.000Z</time>
      </trkpt>
      <trkpt lat="45.34257" lon="5.87562">
        <ele>1862.8</ele>
        <time>2000-01-01T06:24:52.000Z</time>
      </trkpt>
      <trkpt lat="45.34258" lon="5.87562">
        <ele>1857</ele>
        <time>2000-01-01T06:25:02.000Z</time>
      </trkpt>
      <trkpt lat="45.34263" lon="5.87559">
        <ele>1864.8</ele>
        <time>2000-01-01T06:25:12.000Z</time>
      </trkpt>
      <trkpt lat="45.3427" lon="5.87556">
        <ele>1867.2</ele>
        <time>2000-01-01T06:25:22.000Z</time>
      </trkpt>
      <trkpt lat="45.34275" lon="5.87554">
        <ele>1869</ele>
        <time>2000-01-01T06:25:32.000Z</time>
      </trkpt>
      <trkpt lat="45.3428" lon="5.87554">
        <ele>1870</ele>
        <time>2000-01-01T06:25:42.000Z</time>
      </trkpt>
      <trkpt lat="45.34286" lon="5.87553">
        <ele>1873.9</ele>
        <time>2000-01-01T06:25:52.000Z</time>
      </trkpt>
      <trkpt lat="45.34291" lon="5.8755">
        <ele>1875.2</ele>
        <time>2000-01-01T06:26:02.000Z</time>
      </trkpt>
      <trkpt lat="45.34292" lon="5.8755">
        <ele>1875.7</ele>
        <time>2000-01-01T06:26:12.000Z</time>
      </trkpt>
      <trkpt lat="45.34292" lon="5.87553">
        <ele>1876.7</ele>
        <time>2000-01-01T06:26:22.000Z</time>
      </trkpt>
      <trkpt lat="45.34288" lon="5.87566">
        <ele>1873</ele>
        <time>2000-01-01T06:26:32.000Z</time>
      </trkpt>
      <trkpt lat="45.34283" lon="5.87582">
        <ele>1883.1</ele>
        <time>2000-01-01T06:26:42.000Z</time>
      </trkpt>
      <trkpt lat="45.34278" lon="5.87597">
        <ele>1879</ele>
        <time>2000-01-01T06:26:52.000Z</time>
      </trkpt>
      <trkpt lat="45.34272" lon="5.87613">
        <ele>1887.9</ele>
        <time>2000-01-01T06:27:02.000Z</time>
      </trkpt>
      <trkpt lat="45.34268" lon="5.8763">
        <ele>1885</ele>
        <time>2000-01-01T06:27:12.000Z</time>
      </trkpt>
      <trkpt lat="45.34264" lon="5.87636">
        <ele>1892.1</ele>
        <time>2000-01-01T06:27:22.000Z</time>
      </trkpt>
      <trkpt lat="45.34263" lon="5.87641">
        <ele>1893.1</ele>
        <time>2000-01-01T06:27:32.000Z</time>
      </trkpt>
      <trkpt lat="45.34267" lon="5.87643">
        <ele>1895</ele>
        <time>2000-01-01T06:27:42.000Z</time>
      </trkpt>
      <trkpt lat="45.34271" lon="5.87641">
        <ele>1896.4</ele>
        <time>2000-01-01T06:27:52.000Z</time>
      </trkpt>
      <trkpt lat="45.34273" lon="5.8764">
        <ele>1892</ele>
        <time>2000-01-01T06:28:02.000Z</time>
      </trkpt>
      <trkpt lat="45.3427" lon="5.87652">
        <ele>1897.5</ele>
        <time>2000-01-01T06:28:12.000Z</time>
      </trkpt>
      <trkpt lat="45.34277" lon="5.87647">
        <ele>1899.3</ele>
        <time>2000-01-01T06:28:22.000Z</time>
      </trkpt>
      <trkpt lat="45.34284" lon="5.87639">
        <ele>1896</ele>
        <time>2000-01-01T06:28:32.000Z</time>
      </trkpt>
      <trkpt lat="45.34295" lon="5.87623">
        <ele>1899.5</ele>
        <time>2000-01-01T06:28:42.000Z</time>
      </trkpt>
      <trkpt lat="45.34304" lon="5.87611">
        <ele>1901</ele>
        <time>2000-01-01T06:28:52.000Z</time>
      </trkpt>
      <trkpt lat="45.34322" lon="5.87595">
        <ele>1903</ele>
        <time>2000-01-01T06:29:02.000Z</time>
      </trkpt>
      <trkpt lat="45.34333" lon="5.87583">
        <ele>1903.8</ele>
        <time>2000-01-01T06:29:12.000Z</time>
      </trkpt>
      <trkpt lat="45.34341" lon="5.87574">
        <ele>1903</ele>
        <time>2000-01-01T06:29:22.000Z</time>
      </trkpt>
      <trkpt lat="45.34344" lon="5.87567">
        <ele>1901.8</ele>
        <time>2000-01-01T06:29:32.000Z</time>
      </trkpt>
      <trkpt lat="45.34351" lon="5.87573">
        <ele>1901.1</ele>
        <time>2000-01-01T06:29:42.000Z</time>
      </trkpt>
      <trkpt lat="45.34354" lon="5.87582">
        <ele>1900</ele>
        <time>2000-01-01T06:29:52.000Z</time>
      </trkpt>
      <trkpt lat="45.34361" lon="5.87582">
        <ele>1896.6</ele>
        <time>2000-01-01T06:30:02.000Z</time>
      </trkpt>
      <trkpt lat="45.34366" lon="5.87577">
        <ele>1897.5</ele>
        <time>2000-01-01T06:30:12.000Z</time>
      </trkpt>
      <trkpt lat="45.3437" lon="5.87579">
        <ele>1895.3</ele>
        <time>2000-01-01T06:30:22.000Z</time>
      </trkpt>
      <trkpt lat="45.34397" lon="5.87576">
        <ele>1899</ele>
        <time>2000-01-01T06:30:32.000Z</time>
      </trkpt>
      <trkpt lat="45.34416" lon="5.87575">
        <ele>1884</ele>
        <time>2000-01-01T06:30:42.000Z</time>
      </trkpt>
      <trkpt lat="45.34423" lon="5.87569">
        <ele>1878.9</ele>
        <time>2000-01-01T06:30:52.000Z</time>
      </trkpt>
      <trkpt lat="45.34436" lon="5.8758">
        <ele>1869</ele>
        <time>2000-01-01T06:31:02.000Z</time>
      </trkpt>
      <trkpt lat="45.34453" lon="5.87582">
        <ele>1860.1</ele>
        <time>2000-01-01T06:31:12.000Z</time>
      </trkpt>
      <trkpt lat="45.34471" lon="5.87598">
        <ele>1848</ele>
        <time>2000-01-01T06:31:22.000Z</time>
      </trkpt>
      <trkpt lat="45.34477" lon="5.87608">
        <ele>1850.5</ele>
        <time>2000-01-01T06:31:32.000Z</time>
      </trkpt>
      <trkpt lat="45.34486" lon="5.8762">
        <ele>1845</ele>
        <time>2000-01-01T06:31:42.000Z</time>
      </trkpt>
      <trkpt lat="45.34513" lon="5.87648">
        <ele>1838</ele>
        <time>2000-01-01T06:31:52.000Z</time>
      </trkpt>
      <trkpt lat="45.34527" lon="5.87657">
        <ele>1829.3</ele>
        <time>2000-01-01T06:32:02.000Z</time>
      </trkpt>
      <trkpt lat="45.34536" lon="5.87658">
        <ele>1834</ele>
        <time>2000-01-01T06:32:12.000Z</time>
      </trkpt>
      <trkpt lat="45.34546" lon="5.87665">
        <ele>1824.5</ele>
        <time>2000-01-01T06:32:22.000Z</time>
      </trkpt>
      <trkpt lat="45.34539" lon="5.87676">
        <ele>1817</ele>
        <time>2000-01-01T06:32:32.000Z</time>
      </trkpt>
      <trkpt lat="45.34513" lon="5.87694">
        <ele>1810</ele>
        <time>2000-01-01T06:32:42.000Z</time>
      </trkpt>
      <trkpt lat="45.34503" lon="5.8771">
        <ele>1800.8</ele>
        <time>2000-01-01T06:32:52.000Z</time>
      </trkpt>
      <trkpt lat="45.34495" lon="5.87724">
        <ele>1797</ele>
        <time>2000-01-01T06:33:02.000Z</time>
      </trkpt>
      <trkpt lat="45.34496" lon="5.8774">
        <ele>1792.7</ele>
        <time>2000-01-01T06:33:12.000Z</time>
      </trkpt>
      <trkpt lat="45.34491" lon="5.87747">
        <ele>1791.7</ele>
        <time>2000-01-01T06:33:22.000Z</time>
      </trkpt>
      <trkpt lat="45.34499" lon="5.87751">
        <ele>1791</ele>
        <time>2000-01-01T06:33:32.000Z</time>
      </trkpt>
      <trkpt lat="45.34504" lon="5.87759">
        <ele>1787.5</ele>
        <time>2000-01-01T06:33:42.000Z</time>
      </trkpt>
      <trkpt lat="45.34502" lon="5.87769">
        <ele>1785.2</ele>
        <time>2000-01-01T06:33:52.000Z</time>
      </trkpt>
      <trkpt lat="45.34498" lon="5.87776">
        <ele>1784</ele>
        <time>2000-01-01T06:34:02.000Z</time>
      </trkpt>
      <trkpt lat="45.34512" lon="5.87793">
        <ele>1780.9</ele>
        <time>2000-01-01T06:34:12.000Z</time>
      </trkpt>
      <trkpt lat="45.34508" lon="5.87809">
        <ele>1780</ele>
        <time>2000-01-01T06:34:22.000Z</time>
      </trkpt>
      <trkpt lat="45.34507" lon="5.87817">
        <ele>1777.4</ele>
        <time>2000-01-01T06:34:32.000Z</time>
      </trkpt>
      <trkpt lat="45.34511" lon="5.87832">
        <ele>1774.4</ele>
        <time>2000-01-01T06:34:42.000Z</time>
      </trkpt>
      <trkpt lat="45.34521" lon="5.87845">
        <ele>1777</ele>
        <time>2000-01-01T06:34:52.000Z</time>
      </trkpt>
      <trkpt lat="45.34532" lon="5.87856">
        <ele>1774.8</ele>
        <time>2000-01-01T06:35:02.000Z</time>
      </trkpt>
      <trkpt lat="45.34538" lon="5.87872">
        <ele>1777</ele>
        <time>2000-01-01T06:35:12.000Z</time>
      </trkpt>
      <trkpt lat="45.34548" lon="5.87878">
        <ele>1778.3</ele>
        <time>2000-01-01T06:35:22.000Z</time>
      </trkpt>
      <trkpt lat="45.34558" lon="5.87892">
        <ele>1773</ele>
        <time>2000-01-01T06:35:32.000Z</time>
      </trkpt>
      <trkpt lat="45.3457" lon="5.8791">
        <ele>1774.7</ele>
        <time>2000-01-01T06:35:42.000Z</time>
      </trkpt>
      <trkpt lat="45.34589" lon="5.87931">
        <ele>1769</ele>
        <time>2000-01-01T06:35:52.000Z</time>
      </trkpt>
      <trkpt lat="45.34605" lon="5.87949">
        <ele>1764</ele>
        <time>2000-01-01T06:36:02.000Z</time>
      </trkpt>
      <trkpt lat="45.34628" lon="5.87962">
        <ele>1760</ele>
        <time>2000-01-01T06:36:12.000Z</time>
      </trkpt>
      <trkpt lat="45.34656" lon="5.8798">
        <ele>1754</ele>
        <time>2000-01-01T06:36:22.000Z</time>
      </trkpt>
      <trkpt lat="45.34662" lon="5.87987">
        <ele>1753.8</ele>
        <time>2000-01-01T06:36:32.000Z</time>
      </trkpt>
      <trkpt lat="45.34672" lon="5.87995">
        <ele>1751</ele>
        <time>2000-01-01T06:36:42.000Z</time>
      </trkpt>
      <trkpt lat="45.34694" lon="5.88007">
        <ele>1747</ele>
        <time>2000-01-01T06:36:52.000Z</time>
      </trkpt>
      <trkpt lat="45.34705" lon="5.88018">
        <ele>1744.3</ele>
        <time>2000-01-01T06:37:02.000Z</time>
      </trkpt>
      <trkpt lat="45.34716" lon="5.88031">
        <ele>1742</ele>
        <time>2000-01-01T06:37:12.000Z</time>
      </trkpt>
      <trkpt lat="45.34729" lon="5.88038">
        <ele>1739.9</ele>
        <time>2000-01-01T06:37:22.000Z</time>
      </trkpt>
      <trkpt lat="45.34745" lon="5.88042">
        <ele>1736</ele>
        <time>2000-01-01T06:37:32.000Z</time>
      </trkpt>
      <trkpt lat="45.3477" lon="5.88041">
        <ele>1733</ele>
        <time>2000-01-01T06:37:42.000Z</time>
      </trkpt>
      <trkpt lat="45.34815" lon="5.88037">
        <ele>1721</ele>
        <time>2000-01-01T06:37:52.000Z</time>
      </trkpt>
      <trkpt lat="45.34834" lon="5.8804">
        <ele>1719</ele>
        <time>2000-01-01T06:38:02.000Z</time>
      </trkpt>
      <trkpt lat="45.34852" lon="5.88049">
        <ele>1716</ele>
        <time>2000-01-01T06:38:12.000Z</time>
      </trkpt>
      <trkpt lat="45.34875" lon="5.88059">
        <ele>1714</ele>
        <time>2000-01-01T06:38:22.000Z</time>
      </trkpt>
      <trkpt lat="45.34889" lon="5.88069">
        <ele>1711.5</ele>
        <time>2000-01-01T06:38:32.000Z</time>
      </trkpt>
      <trkpt lat="45.34901" lon="5.88081">
        <ele>1709</ele>
        <time>2000-01-01T06:38:42.000Z</time>
      </trkpt>
      <trkpt lat="45.3491" lon="5.88084">
        <ele>1708.7</ele>
        <time>2000-01-01T06:38:52.000Z</time>
      </trkpt>
      <trkpt lat="45.34924" lon="5.88087">
        <ele>1708</ele>
        <time>2000-01-01T06:39:02.000Z</time>
      </trkpt>
      <trkpt lat="45.34954" lon="5.88082">
        <ele>1708</ele>
        <time>2000-01-01T06:39:12.000Z</time>
      </trkpt>
      <trkpt lat="45.34976" lon="5.88084">
        <ele>1708</ele>
        <time>2000-01-01T06:39:22.000Z</time>
      </trkpt>
      <trkpt lat="45.34994" lon="5.88087">
        <ele>1709.5</ele>
        <time>2000-01-01T06:39:32.000Z</time>
      </trkpt>
      <trkpt lat="45.35011" lon="5.88117">
        <ele>1709</ele>
        <time>2000-01-01T06:39:42.000Z</time>
      </trkpt>
      <trkpt lat="45.35035" lon="5.88122">
        <ele>1711</ele>
        <time>2000-01-01T06:39:52.000Z</time>
      </trkpt>
      <trkpt lat="45.35046" lon="5.88133">
        <ele>1713.1</ele>
        <time>2000-01-01T06:40:02.000Z</time>
      </trkpt>
      <trkpt lat="45.3505" lon="5.88147">
        <ele>1713</ele>
        <time>2000-01-01T06:40:12.000Z</time>
      </trkpt>
      <trkpt lat="45.35063" lon="5.8816">
        <ele>1713.3</ele>
        <time>2000-01-01T06:40:22.000Z</time>
      </trkpt>
      <trkpt lat="45.35071" lon="5.88166">
        <ele>1713</ele>
        <time>2000-01-01T06:40:32.000Z</time>
      </trkpt>
      <trkpt lat="45.35084" lon="5.88147">
        <ele>1712</ele>
        <time>2000-01-01T06:40:42.000Z</time>
      </trkpt>
      <trkpt lat="45.35089" lon="5.88127">
        <ele>1713</ele>
        <time>2000-01-01T06:40:52.000Z</time>
      </trkpt>
      <trkpt lat="45.35099" lon="5.88124">
        <ele>1712.3</ele>
        <time>2000-01-01T06:41:02.000Z</time>
      </trkpt>
      <trkpt lat="45.35108" lon="5.8812">
        <ele>1713</ele>
        <time>2000-01-01T06:41:12.000Z</time>
      </trkpt>
      <trkpt lat="45.35118" lon="5.8812">
        <ele>1712.1</ele>
        <time>2000-01-01T06:41:22.000Z</time>
      </trkpt>
      <trkpt lat="45.35129" lon="5.8813">
        <ele>1710</ele>
        <time>2000-01-01T06:41:32.000Z</time>
      </trkpt>
      <trkpt lat="45.35135" lon="5.88138">
        <ele>1710.2</ele>
        <time>2000-01-01T06:41:42.000Z</time>
      </trkpt>
      <trkpt lat="45.35147" lon="5.88144">
        <ele>1709</ele>
        <time>2000-01-01T06:41:52.000Z</time>
      </trkpt>
      <trkpt lat="45.35156" lon="5.88149">
        <ele>1708.6</ele>
        <time>2000-01-01T06:42:02.000Z</time>
      </trkpt>
      <trkpt lat="45.35163" lon="5.88154">
        <ele>1708.2</ele>
        <time>2000-01-01T06:42:12.000Z</time>
      </trkpt>
      <trkpt lat="45.35172" lon="5.88151">
        <ele>1707</ele>
        <time>2000-01-01T06:42:22.000Z</time>
      </trkpt>
      <trkpt lat="45.35184" lon="5.88153">
        <ele>1706.8</ele>
        <time>2000-01-01T06:42:32.000Z</time>
      </trkpt>
      <trkpt lat="45.35195" lon="5.88155">
        <ele>1706</ele>
        <time>2000-01-01T06:42:42.000Z</time>
      </trkpt>
      <trkpt lat="45.35206" lon="5.88157">
        <ele>1704.8</ele>
        <time>2000-01-01T06:42:52.000Z</time>
      </trkpt>
      <trkpt lat="45.35218" lon="5.88156">
        <ele>1704</ele>
        <time>2000-01-01T06:43:02.000Z</time>
      </trkpt>
      <trkpt lat="45.35245" lon="5.88153">
        <ele>1701</ele>
        <time>2000-01-01T06:43:12.000Z</time>
      </trkpt>
      <trkpt lat="45.35281" lon="5.8815">
        <ele>1699</ele>
        <time>2000-01-01T06:43:22.000Z</time>
      </trkpt>
      <trkpt lat="45.35324" lon="5.88156">
        <ele>1698</ele>
        <time>2000-01-01T06:43:32.000Z</time>
      </trkpt>
      <trkpt lat="45.35364" lon="5.88193">
        <ele>1694</ele>
        <time>2000-01-01T06:43:42.000Z</time>
      </trkpt>
      <trkpt lat="45.35392" lon="5.88231">
        <ele>1691</ele>
        <time>2000-01-01T06:43:52.000Z</time>
      </trkpt>
      <trkpt lat="45.35413" lon="5.88252">
        <ele>1688</ele>
        <time>2000-01-01T06:44:02.000Z</time>
      </trkpt>
      <trkpt lat="45.35436" lon="5.88275">
        <ele>1687</ele>
        <time>2000-01-01T06:44:12.000Z</time>
      </trkpt>
      <trkpt lat="45.35457" lon="5.88296">
        <ele>1684</ele>
        <time>2000-01-01T06:44:22.000Z</time>
      </trkpt>
      <trkpt lat="45.35482" lon="5.8832">
        <ele>1677</ele>
        <time>2000-01-01T06:44:32.000Z</time>
      </trkpt>
      <trkpt lat="45.355" lon="5.88341">
        <ele>1675</ele>
        <time>2000-01-01T06:44:42.000Z</time>
      </trkpt>
      <trkpt lat="45.35526" lon="5.88361">
        <ele>1671</ele>
        <time>2000-01-01T06:44:52.000Z</time>
      </trkpt>
      <trkpt lat="45.35568" lon="5.88393">
        <ele>1668</ele>
        <time>2000-01-01T06:45:02.000Z</time>
      </trkpt>
      <trkpt lat="45.35597" lon="5.88415">
        <ele>1665</ele>
        <time>2000-01-01T06:45:12.000Z</time>
      </trkpt>
      <trkpt lat="45.3562" lon="5.88433">
        <ele>1663</ele>
        <time>2000-01-01T06:45:22.000Z</time>
      </trkpt>
      <trkpt lat="45.35648" lon="5.88436">
        <ele>1662</ele>
        <time>2000-01-01T06:45:32.000Z</time>
      </trkpt>
      <trkpt lat="45.35662" lon="5.88445">
        <ele>1661.6</ele>
        <time>2000-01-01T06:45:42.000Z</time>
      </trkpt>
      <trkpt lat="45.35684" lon="5.88459">
        <ele>1659</ele>
        <time>2000-01-01T06:45:52.000Z</time>
      </trkpt>
      <trkpt lat="45.35728" lon="5.8846">
        <ele>1656</ele>
        <time>2000-01-01T06:46:02.000Z</time>
      </trkpt>
      <trkpt lat="45.35753" lon="5.88461">
        <ele>1655</ele>
        <time>2000-01-01T06:46:12.000Z</time>
      </trkpt>
      <trkpt lat="45.35796" lon="5.88442">
        <ele>1650</ele>
        <time>2000-01-01T06:46:22.000Z</time>
      </trkpt>
      <trkpt lat="45.35837" lon="5.88413">
        <ele>1647</ele>
        <time>2000-01-01T06:46:32.000Z</time>
      </trkpt>
      <trkpt lat="45.35861" lon="5.88403">
        <ele>1646</ele>
        <time>2000-01-01T06:46:42.000Z</time>
      </trkpt>
      <trkpt lat="45.35888" lon="5.88391">
        <ele>1644</ele>
        <time>2000-01-01T06:46:52.000Z</time>
      </trkpt>
      <trkpt lat="45.35928" lon="5.88396">
        <ele>1641</ele>
        <time>2000-01-01T06:47:02.000Z</time>
      </trkpt>
      <trkpt lat="45.35969" lon="5.88403">
        <ele>1639</ele>
        <time>2000-01-01T06:47:12.000Z</time>
      </trkpt>
      <trkpt lat="45.35994" lon="5.88404">
        <ele>1637</ele>
        <time>2000-01-01T06:47:22.000Z</time>
      </trkpt>
      <trkpt lat="45.36012" lon="5.88405">
        <ele>1637.3</ele>
        <time>2000-01-01T06:47:32.000Z</time>
      </trkpt>
      <trkpt lat="45.36026" lon="5.88393">
        <ele>1636</ele>
        <time>2000-01-01T06:47:42.000Z</time>
      </trkpt>
      <trkpt lat="45.36032" lon="5.88392">
        <ele>1636.7</ele>
        <time>2000-01-01T06:47:52.000Z</time>
      </trkpt>
      <trkpt lat="45.36036" lon="5.8839">
        <ele>1636.7</ele>
        <time>2000-01-01T06:48:02.000Z</time>
      </trkpt>
      <trkpt lat="45.36045" lon="5.8839">
        <ele>1636</ele>
        <time>2000-01-01T06:48:12.000Z</time>
      </trkpt>
      <trkpt lat="45.36058" lon="5.88393">
        <ele>1635.9</ele>
        <time>2000-01-01T06:48:22.000Z</time>
      </trkpt>
      <trkpt lat="45.36068" lon="5.88393">
        <ele>1635</ele>
        <time>2000-01-01T06:48:32.000Z</time>
      </trkpt>
      <trkpt lat="45.36073" lon="5.88395">
        <ele>1635.9</ele>
        <time>2000-01-01T06:48:42.000Z</time>
      </trkpt>
      <trkpt lat="45.36082" lon="5.88399">
        <ele>1636</ele>
        <time>2000-01-01T06:48:52.000Z</time>
      </trkpt>
      <trkpt lat="45.36089" lon="5.884">
        <ele>1635</ele>
        <time>2000-01-01T06:49:02.000Z</time>
      </trkpt>
      <trkpt lat="45.36105" lon="5.88405">
        <ele>1636.5</ele>
        <time>2000-01-01T06:49:12.000Z</time>
      </trkpt>
      <trkpt lat="45.36107" lon="5.88405">
        <ele>1636</ele>
        <time>2000-01-01T06:49:22.000Z</time>
      </trkpt>
      <trkpt lat="45.36117" lon="5.88409">
        <ele>1636.8</ele>
        <time>2000-01-01T06:49:32.000Z</time>
      </trkpt>
      <trkpt lat="45.36121" lon="5.88411">
        <ele>1636.9</ele>
        <time>2000-01-01T06:49:42.000Z</time>
      </trkpt>
      <trkpt lat="45.36127" lon="5.88412">
        <ele>1637</ele>
        <time>2000-01-01T06:49:52.000Z</time>
      </trkpt>
      <trkpt lat="45.36133" lon="5.88415">
        <ele>1637</ele>
        <time>2000-01-01T06:50:02.000Z</time>
      </trkpt>
      <trkpt lat="45.36149" lon="5.88418">
        <ele>1637</ele>
        <time>2000-01-01T06:50:12.000Z</time>
      </trkpt>
      <trkpt lat="45.36156" lon="5.88422">
        <ele>1636.8</ele>
        <time>2000-01-01T06:50:22.000Z</time>
      </trkpt>
      <trkpt lat="45.36162" lon="5.88429">
        <ele>1636.6</ele>
        <time>2000-01-01T06:50:32.000Z</time>
      </trkpt>
      <trkpt lat="45.36174" lon="5.88438">
        <ele>1636</ele>
        <time>2000-01-01T06:50:42.000Z</time>
      </trkpt>
      <trkpt lat="45.36188" lon="5.88447">
        <ele>1635</ele>
        <time>2000-01-01T06:50:52.000Z</time>
      </trkpt>
      <trkpt lat="45.36194" lon="5.88452">
        <ele>1634</ele>
        <time>2000-01-01T06:51:02.000Z</time>
      </trkpt>
      <trkpt lat="45.36199" lon="5.88454">
        <ele>1633.7</ele>
        <time>2000-01-01T06:51:12.000Z</time>
      </trkpt>
      <trkpt lat="45.36204" lon="5.88454">
        <ele>1633.5</ele>
        <time>2000-01-01T06:51:22.000Z</time>
      </trkpt>
      <trkpt lat="45.36215" lon="5.88458">
        <ele>1634</ele>
        <time>2000-01-01T06:51:32.000Z</time>
      </trkpt>
      <trkpt lat="45.36221" lon="5.88458">
        <ele>1632.1</ele>
        <time>2000-01-01T06:51:42.000Z</time>
      </trkpt>
      <trkpt lat="45.36231" lon="5.88457">
        <ele>1630.9</ele>
        <time>2000-01-01T06:51:52.000Z</time>
      </trkpt>
      <trkpt lat="45.36233" lon="5.88456">
        <ele>1630.7</ele>
        <time>2000-01-01T06:52:02.000Z</time>
      </trkpt>
      <trkpt lat="45.36238" lon="5.8845">
        <ele>1633</ele>
        <time>2000-01-01T06:52:12.000Z</time>
      </trkpt>
      <trkpt lat="45.36244" lon="5.88445">
        <ele>1630</ele>
        <time>2000-01-01T06:52:22.000Z</time>
      </trkpt>
      <trkpt lat="45.36251" lon="5.88443">
        <ele>1629.2</ele>
        <time>2000-01-01T06:52:32.000Z</time>
      </trkpt>
      <trkpt lat="45.36266" lon="5.88446">
        <ele>1628</ele>
        <time>2000-01-01T06:52:42.000Z</time>
      </trkpt>
      <trkpt lat="45.36287" lon="5.88447">
        <ele>1626</ele>
        <time>2000-01-01T06:52:52.000Z</time>
      </trkpt>
      <trkpt lat="45.36291" lon="5.88447">
        <ele>1623.3</ele>
        <time>2000-01-01T06:53:02.000Z</time>
      </trkpt>
      <trkpt lat="45.36295" lon="5.88446">
        <ele>1622.7</ele>
        <time>2000-01-01T06:53:12.000Z</time>
      </trkpt>
      <trkpt lat="45.36298" lon="5.88447">
        <ele>1622.1</ele>
        <time>2000-01-01T06:53:22.000Z</time>
      </trkpt>
      <trkpt lat="45.36304" lon="5.88444">
        <ele>1621.4</ele>
        <time>2000-01-01T06:53:32.000Z</time>
      </trkpt>
      <trkpt lat="45.36312" lon="5.88442">
        <ele>1621</ele>
        <time>2000-01-01T06:53:42.000Z</time>
      </trkpt>
      <trkpt lat="45.36323" lon="5.88443">
        <ele>1619.8</ele>
        <time>2000-01-01T06:53:52.000Z</time>
      </trkpt>
      <trkpt lat="45.36343" lon="5.88456">
        <ele>1616</ele>
        <time>2000-01-01T06:54:02.000Z</time>
      </trkpt>
      <trkpt lat="45.36356" lon="5.88463">
        <ele>1616.5</ele>
        <time>2000-01-01T06:54:12.000Z</time>
      </trkpt>
      <trkpt lat="45.3636" lon="5.88465">
        <ele>1616.1</ele>
        <time>2000-01-01T06:54:22.000Z</time>
      </trkpt>
      <trkpt lat="45.36377" lon="5.88477">
        <ele>1613</ele>
        <time>2000-01-01T06:54:32.000Z</time>
      </trkpt>
      <trkpt lat="45.3638" lon="5.88478">
        <ele>1613.1</ele>
        <time>2000-01-01T06:54:42.000Z</time>
      </trkpt>
      <trkpt lat="45.36384" lon="5.88479">
        <ele>1612.9</ele>
        <time>2000-01-01T06:54:52.000Z</time>
      </trkpt>
      <trkpt lat="45.36391" lon="5.88481">
        <ele>1612.7</ele>
        <time>2000-01-01T06:55:02.000Z</time>
      </trkpt>
      <trkpt lat="45.36405" lon="5.88491">
        <ele>1611</ele>
        <time>2000-01-01T06:55:12.000Z</time>
      </trkpt>
      <trkpt lat="45.36413" lon="5.88498">
        <ele>1611.3</ele>
        <time>2000-01-01T06:55:22.000Z</time>
      </trkpt>
      <trkpt lat="45.36415" lon="5.885">
        <ele>1611.1</ele>
        <time>2000-01-01T06:55:32.000Z</time>
      </trkpt>
      <trkpt lat="45.36426" lon="5.88501">
        <ele>1611</ele>
        <time>2000-01-01T06:55:42.000Z</time>
      </trkpt>
      <trkpt lat="45.36433" lon="5.88503">
        <ele>1611.6</ele>
        <time>2000-01-01T06:55:52.000Z</time>
      </trkpt>
      <trkpt lat="45.36445" lon="5.88507">
        <ele>1611</ele>
        <time>2000-01-01T06:56:02.000Z</time>
      </trkpt>
      <trkpt lat="45.36463" lon="5.88518">
        <ele>1611</ele>
        <time>2000-01-01T06:56:12.000Z</time>
      </trkpt>
      <trkpt lat="45.36475" lon="5.88531">
        <ele>1610.8</ele>
        <time>2000-01-01T06:56:22.000Z</time>
      </trkpt>
      <trkpt lat="45.36478" lon="5.88536">
        <ele>1610</ele>
        <time>2000-01-01T06:56:32.000Z</time>
      </trkpt>
      <trkpt lat="45.36489" lon="5.88544">
        <ele>1610.2</ele>
        <time>2000-01-01T06:56:42.000Z</time>
      </trkpt>
      <trkpt lat="45.36504" lon="5.88548">
        <ele>1609</ele>
        <time>2000-01-01T06:56:52.000Z</time>
      </trkpt>
      <trkpt lat="45.36525" lon="5.8856">
        <ele>1609</ele>
        <time>2000-01-01T06:57:02.000Z</time>
      </trkpt>
      <trkpt lat="45.36537" lon="5.88565">
        <ele>1609.4</ele>
        <time>2000-01-01T06:57:12.000Z</time>
      </trkpt>
      <trkpt lat="45.36545" lon="5.88566">
        <ele>1609</ele>
        <time>2000-01-01T06:57:22.000Z</time>
      </trkpt>
      <trkpt lat="45.3655" lon="5.88569">
        <ele>1609.5</ele>
        <time>2000-01-01T06:57:32.000Z</time>
      </trkpt>
      <trkpt lat="45.36556" lon="5.88571">
        <ele>1609.5</ele>
        <time>2000-01-01T06:57:42.000Z</time>
      </trkpt>
      <trkpt lat="45.36565" lon="5.88575">
        <ele>1609</ele>
        <time>2000-01-01T06:57:52.000Z</time>
      </trkpt>
      <trkpt lat="45.36577" lon="5.88582">
        <ele>1609.1</ele>
        <time>2000-01-01T06:58:02.000Z</time>
      </trkpt>
      <trkpt lat="45.36587" lon="5.88585">
        <ele>1609</ele>
        <time>2000-01-01T06:58:12.000Z</time>
      </trkpt>
      <trkpt lat="45.36595" lon="5.8859">
        <ele>1608.9</ele>
        <time>2000-01-01T06:58:22.000Z</time>
      </trkpt>
      <trkpt lat="45.36602" lon="5.88594">
        <ele>1608.7</ele>
        <time>2000-01-01T06:58:32.000Z</time>
      </trkpt>
      <trkpt lat="45.36607" lon="5.88597">
        <ele>1608</ele>
        <time>2000-01-01T06:58:42.000Z</time>
      </trkpt>
      <trkpt lat="45.36621" lon="5.88604">
        <ele>1608.3</ele>
        <time>2000-01-01T06:58:52.000Z</time>
      </trkpt>
      <trkpt lat="45.36625" lon="5.88605">
        <ele>1608.3</ele>
        <time>2000-01-01T06:59:02.000Z</time>
      </trkpt>
      <trkpt lat="45.36629" lon="5.88607">
        <ele>1607</ele>
        <time>2000-01-01T06:59:12.000Z</time>
      </trkpt>
      <trkpt lat="45.36636" lon="5.88613">
        <ele>1608</ele>
        <time>2000-01-01T06:59:22.000Z</time>
      </trkpt>
      <trkpt lat="45.36654" lon="5.88619">
        <ele>1607</ele>
        <time>2000-01-01T06:59:32.000Z</time>
      </trkpt>
      <trkpt lat="45.3666" lon="5.88622">
        <ele>1608</ele>
        <time>2000-01-01T06:59:42.000Z</time>
      </trkpt>
      <trkpt lat="45.36675" lon="5.88632">
        <ele>1607</ele>
        <time>2000-01-01T06:59:52.000Z</time>
      </trkpt>
      <trkpt lat="45.36685" lon="5.88636">
        <ele>1607.5</ele>
        <time>2000-01-01T07:00:02.000Z</time>
      </trkpt>
      <trkpt lat="45.36695" lon="5.88638">
        <ele>1606</ele>
        <time>2000-01-01T07:00:12.000Z</time>
      </trkpt>
      <trkpt lat="45.36707" lon="5.88644">
        <ele>1607.7</ele>
        <time>2000-01-01T07:00:22.000Z</time>
      </trkpt>
      <trkpt lat="45.36725" lon="5.88656">
        <ele>1606</ele>
        <time>2000-01-01T07:00:32.000Z</time>
      </trkpt>
      <trkpt lat="45.36741" lon="5.88665">
        <ele>1606.9</ele>
        <time>2000-01-01T07:00:42.000Z</time>
      </trkpt>
      <trkpt lat="45.36749" lon="5.88671">
        <ele>1605</ele>
        <time>2000-01-01T07:00:52.000Z</time>
      </trkpt>
      <trkpt lat="45.36754" lon="5.88673">
        <ele>1606.5</ele>
        <time>2000-01-01T07:01:02.000Z</time>
      </trkpt>
      <trkpt lat="45.36761" lon="5.88678">
        <ele>1606.6</ele>
        <time>2000-01-01T07:01:12.000Z</time>
      </trkpt>
      <trkpt lat="45.3677" lon="5.88682">
        <ele>1604</ele>
        <time>2000-01-01T07:01:22.000Z</time>
      </trkpt>
      <trkpt lat="45.36776" lon="5.88689">
        <ele>1605.1</ele>
        <time>2000-01-01T07:01:32.000Z</time>
      </trkpt>
      <trkpt lat="45.36781" lon="5.88693">
        <ele>1604.3</ele>
        <time>2000-01-01T07:01:42.000Z</time>
      </trkpt>
      <trkpt lat="45.36784" lon="5.88697">
        <ele>1604</ele>
        <time>2000-01-01T07:01:52.000Z</time>
      </trkpt>
      <trkpt lat="45.36784" lon="5.88699">
        <ele>1604</ele>
        <time>2000-01-01T07:02:02.000Z</time>
      </trkpt>
      <trkpt lat="45.36788" lon="5.88705">
        <ele>1603.7</ele>
        <time>2000-01-01T07:02:12.000Z</time>
      </trkpt>
      <trkpt lat="45.36792" lon="5.88709">
        <ele>1603.5</ele>
        <time>2000-01-01T07:02:22.000Z</time>
      </trkpt>
      <trkpt lat="45.36795" lon="5.88714">
        <ele>1603.1</ele>
        <time>2000-01-01T07:02:32.000Z</time>
      </trkpt>
      <trkpt lat="45.36805" lon="5.88725">
        <ele>1602</ele>
        <time>2000-01-01T07:02:42.000Z</time>
      </trkpt>
      <trkpt lat="45.36812" lon="5.88728">
        <ele>1601.8</ele>
        <time>2000-01-01T07:02:52.000Z</time>
      </trkpt>
      <trkpt lat="45.3682" lon="5.8873">
        <ele>1601.5</ele>
        <time>2000-01-01T07:03:02.000Z</time>
      </trkpt>
      <trkpt lat="45.36825" lon="5.88733">
        <ele>1601</ele>
        <time>2000-01-01T07:03:12.000Z</time>
      </trkpt>
      <trkpt lat="45.36837" lon="5.88734">
        <ele>1601</ele>
        <time>2000-01-01T07:03:22.000Z</time>
      </trkpt>
      <trkpt lat="45.36843" lon="5.88736">
        <ele>1600.8</ele>
        <time>2000-01-01T07:03:32.000Z</time>
      </trkpt>
      <trkpt lat="45.36849" lon="5.88739">
        <ele>1599</ele>
        <time>2000-01-01T07:03:42.000Z</time>
      </trkpt>
      <trkpt lat="45.36855" lon="5.88744">
        <ele>1599.9</ele>
        <time>2000-01-01T07:03:52.000Z</time>
      </trkpt>
      <trkpt lat="45.36859" lon="5.88748">
        <ele>1599.4</ele>
        <time>2000-01-01T07:04:02.000Z</time>
      </trkpt>
      <trkpt lat="45.36864" lon="5.88754">
        <ele>1598.9</ele>
        <time>2000-01-01T07:04:12.000Z</time>
      </trkpt>
      <trkpt lat="45.3687" lon="5.88764">
        <ele>1597</ele>
        <time>2000-01-01T07:04:22.000Z</time>
      </trkpt>
      <trkpt lat="45.36872" lon="5.8877">
        <ele>1598.4</ele>
        <time>2000-01-01T07:04:32.000Z</time>
      </trkpt>
      <trkpt lat="45.36875" lon="5.88774">
        <ele>1598.2</ele>
        <time>2000-01-01T07:04:42.000Z</time>
      </trkpt>
      <trkpt lat="45.36876" lon="5.88781">
        <ele>1598</ele>
        <time>2000-01-01T07:04:52.000Z</time>
      </trkpt>
      <trkpt lat="45.36881" lon="5.88789">
        <ele>1597</ele>
        <time>2000-01-01T07:05:02.000Z</time>
      </trkpt>
      <trkpt lat="45.36881" lon="5.88791">
        <ele>1597.9</ele>
        <time>2000-01-01T07:05:12.000Z</time>
      </trkpt>
      <trkpt lat="45.36899" lon="5.88812">
        <ele>1596</ele>
        <time>2000-01-01T07:05:22.000Z</time>
      </trkpt>
      <trkpt lat="45.3691" lon="5.88831">
        <ele>1596.6</ele>
        <time>2000-01-01T07:05:32.000Z</time>
      </trkpt>
      <trkpt lat="45.36915" lon="5.88837">
        <ele>1596</ele>
        <time>2000-01-01T07:05:42.000Z</time>
      </trkpt>
      <trkpt lat="45.36937" lon="5.88857">
        <ele>1593</ele>
        <time>2000-01-01T07:05:52.000Z</time>
      </trkpt>
      <trkpt lat="45.36944" lon="5.88858">
        <ele>1591.4</ele>
        <time>2000-01-01T07:06:02.000Z</time>
      </trkpt>
      <trkpt lat="45.36954" lon="5.88861">
        <ele>1589.6</ele>
        <time>2000-01-01T07:06:12.000Z</time>
      </trkpt>
      <trkpt lat="45.36963" lon="5.88859">
        <ele>1589</ele>
        <time>2000-01-01T07:06:22.000Z</time>
      </trkpt>
      <trkpt lat="45.3697" lon="5.88862">
        <ele>1587.4</ele>
        <time>2000-01-01T07:06:32.000Z</time>
      </trkpt>
      <trkpt lat="45.36979" lon="5.88863">
        <ele>1587</ele>
        <time>2000-01-01T07:06:42.000Z</time>
      </trkpt>
      <trkpt lat="45.36986" lon="5.88861">
        <ele>1586</ele>
        <time>2000-01-01T07:06:52.000Z</time>
      </trkpt>
      <trkpt lat="45.36991" lon="5.88861">
        <ele>1587</ele>
        <time>2000-01-01T07:07:02.000Z</time>
      </trkpt>
      <trkpt lat="45.36997" lon="5.88862">
        <ele>1587</ele>
        <time>2000-01-01T07:07:12.000Z</time>
      </trkpt>
      <trkpt lat="45.37013" lon="5.88868">
        <ele>1586</ele>
        <time>2000-01-01T07:07:22.000Z</time>
      </trkpt>
      <trkpt lat="45.37018" lon="5.88868">
        <ele>1585.9</ele>
        <time>2000-01-01T07:07:32.000Z</time>
      </trkpt>
      <trkpt lat="45.37025" lon="5.88868">
        <ele>1585.6</ele>
        <time>2000-01-01T07:07:42.000Z</time>
      </trkpt>
      <trkpt lat="45.37032" lon="5.88864">
        <ele>1585</ele>
        <time>2000-01-01T07:07:52.000Z</time>
      </trkpt>
      <trkpt lat="45.37034" lon="5.88864">
        <ele>1585.8</ele>
        <time>2000-01-01T07:08:02.000Z</time>
      </trkpt>
      <trkpt lat="45.37036" lon="5.88867">
        <ele>1585.5</ele>
        <time>2000-01-01T07:08:12.000Z</time>
      </trkpt>
      <trkpt lat="45.37041" lon="5.88875">
        <ele>1584.8</ele>
        <time>2000-01-01T07:08:22.000Z</time>
      </trkpt>
      <trkpt lat="45.37045" lon="5.88887">
        <ele>1583</ele>
        <time>2000-01-01T07:08:32.000Z</time>
      </trkpt>
      <trkpt lat="45.37057" lon="5.88903">
        <ele>1582.5</ele>
        <time>2000-01-01T07:08:42.000Z</time>
      </trkpt>
      <trkpt lat="45.37065" lon="5.88907">
        <ele>1582</ele>
        <time>2000-01-01T07:08:52.000Z</time>
      </trkpt>
      <trkpt lat="45.3707" lon="5.88913">
        <ele>1582.2</ele>
        <time>2000-01-01T07:09:02.000Z</time>
      </trkpt>
      <trkpt lat="45.37087" lon="5.88925">
        <ele>1582</ele>
        <time>2000-01-01T07:09:12.000Z</time>
      </trkpt>
      <trkpt lat="45.37094" lon="5.88927">
        <ele>1581.7</ele>
        <time>2000-01-01T07:09:22.000Z</time>
      </trkpt>
      <trkpt lat="45.371" lon="5.88928">
        <ele>1581.5</ele>
        <time>2000-01-01T07:09:32.000Z</time>
      </trkpt>
      <trkpt lat="45.37118" lon="5.88928">
        <ele>1581</ele>
        <time>2000-01-01T07:09:42.000Z</time>
      </trkpt>
      <trkpt lat="45.37127" lon="5.88929">
        <ele>1580.5</ele>
        <time>2000-01-01T07:09:52.000Z</time>
      </trkpt>
      <trkpt lat="45.37132" lon="5.88931">
        <ele>1580.2</ele>
        <time>2000-01-01T07:10:02.000Z</time>
      </trkpt>
      <trkpt lat="45.37135" lon="5.88935">
        <ele>1579.8</ele>
        <time>2000-01-01T07:10:12.000Z</time>
      </trkpt>
      <trkpt lat="45.37144" lon="5.88947">
        <ele>1579</ele>
        <time>2000-01-01T07:10:22.000Z</time>
      </trkpt>
      <trkpt lat="45.37158" lon="5.88963">
        <ele>1577.9</ele>
        <time>2000-01-01T07:10:32.000Z</time>
      </trkpt>
      <trkpt lat="45.37163" lon="5.88972">
        <ele>1577</ele>
        <time>2000-01-01T07:10:42.000Z</time>
      </trkpt>
      <trkpt lat="45.37176" lon="5.88992">
        <ele>1575</ele>
        <time>2000-01-01T07:10:52.000Z</time>
      </trkpt>
      <trkpt lat="45.3719" lon="5.89005">
        <ele>1573.2</ele>
        <time>2000-01-01T07:11:02.000Z</time>
      </trkpt>
      <trkpt lat="45.37192" lon="5.89007">
        <ele>1573</ele>
        <time>2000-01-01T07:11:12.000Z</time>
      </trkpt>
      <trkpt lat="45.37214" lon="5.89015">
        <ele>1571</ele>
        <time>2000-01-01T07:11:22.000Z</time>
      </trkpt>
      <trkpt lat="45.37225" lon="5.89024">
        <ele>1570.3</ele>
        <time>2000-01-01T07:11:32.000Z</time>
      </trkpt>
      <trkpt lat="45.37242" lon="5.89044">
        <ele>1568</ele>
        <time>2000-01-01T07:11:42.000Z</time>
      </trkpt>
      <trkpt lat="45.37245" lon="5.89047">
        <ele>1568.9</ele>
        <time>2000-01-01T07:11:52.000Z</time>
      </trkpt>
      <trkpt lat="45.37248" lon="5.89052">
        <ele>1568.4</ele>
        <time>2000-01-01T07:12:02.000Z</time>
      </trkpt>
      <trkpt lat="45.37252" lon="5.89055">
        <ele>1568</ele>
        <time>2000-01-01T07:12:12.000Z</time>
      </trkpt>
      <trkpt lat="45.3726" lon="5.89059">
        <ele>1568</ele>
        <time>2000-01-01T07:12:22.000Z</time>
      </trkpt>
      <trkpt lat="45.3727" lon="5.89059">
        <ele>1567.7</ele>
        <time>2000-01-01T07:12:32.000Z</time>
      </trkpt>
      <trkpt lat="45.37276" lon="5.89059">
        <ele>1567.7</ele>
        <time>2000-01-01T07:12:42.000Z</time>
      </trkpt>
      <trkpt lat="45.37283" lon="5.89064">
        <ele>1568</ele>
        <time>2000-01-01T07:12:52.000Z</time>
      </trkpt>
      <trkpt lat="45.37292" lon="5.89077">
        <ele>1565.9</ele>
        <time>2000-01-01T07:13:02.000Z</time>
      </trkpt>
      <trkpt lat="45.37303" lon="5.89096">
        <ele>1564</ele>
        <time>2000-01-01T07:13:12.000Z</time>
      </trkpt>
      <trkpt lat="45.37307" lon="5.89105">
        <ele>1561.8</ele>
        <time>2000-01-01T07:13:22.000Z</time>
      </trkpt>
      <trkpt lat="45.37308" lon="5.8911">
        <ele>1561</ele>
        <time>2000-01-01T07:13:32.000Z</time>
      </trkpt>
      <trkpt lat="45.37315" lon="5.89118">
        <ele>1560</ele>
        <time>2000-01-01T07:13:42.000Z</time>
      </trkpt>
      <trkpt lat="45.37315" lon="5.89117">
        <ele>1559</ele>
        <time>2000-01-01T07:13:52.000Z</time>
      </trkpt>
      <trkpt lat="45.37319" lon="5.89118">
        <ele>1558.5</ele>
        <time>2000-01-01T07:14:02.000Z</time>
      </trkpt>
      <trkpt lat="45.37326" lon="5.89122">
        <ele>1557.2</ele>
        <time>2000-01-01T07:14:12.000Z</time>
      </trkpt>
      <trkpt lat="45.37329" lon="5.89125">
        <ele>1556.3</ele>
        <time>2000-01-01T07:14:22.000Z</time>
      </trkpt>
      <trkpt lat="45.37333" lon="5.89132">
        <ele>1554</ele>
        <time>2000-01-01T07:14:32.000Z</time>
      </trkpt>
      <trkpt lat="45.37337" lon="5.89137">
        <ele>1553.3</ele>
        <time>2000-01-01T07:14:42.000Z</time>
      </trkpt>
      <trkpt lat="45.37341" lon="5.8914">
        <ele>1552.5</ele>
        <time>2000-01-01T07:14:52.000Z</time>
      </trkpt>
      <trkpt lat="45.37376" lon="5.89154">
        <ele>1549</ele>
        <time>2000-01-01T07:15:02.000Z</time>
      </trkpt>
      <trkpt lat="45.37397" lon="5.89167">
        <ele>1545</ele>
        <time>2000-01-01T07:15:12.000Z</time>
      </trkpt>
      <trkpt lat="45.37419" lon="5.89169">
        <ele>1542</ele>
        <time>2000-01-01T07:15:22.000Z</time>
      </trkpt>
      <trkpt lat="45.37451" lon="5.89169">
        <ele>1538</ele>
        <time>2000-01-01T07:15:32.000Z</time>
      </trkpt>
      <trkpt lat="45.37472" lon="5.89173">
        <ele>1538</ele>
        <time>2000-01-01T07:15:42.000Z</time>
      </trkpt>
      <trkpt lat="45.37475" lon="5.89174">
        <ele>1538.8</ele>
        <time>2000-01-01T07:15:52.000Z</time>
      </trkpt>
      <trkpt lat="45.37481" lon="5.89178">
        <ele>1538.6</ele>
        <time>2000-01-01T07:16:02.000Z</time>
      </trkpt>
      <trkpt lat="45.3749" lon="5.89178">
        <ele>1539.6</ele>
        <time>2000-01-01T07:16:12.000Z</time>
      </trkpt>
      <trkpt lat="45.37493" lon="5.8918">
        <ele>1538</ele>
        <time>2000-01-01T07:16:22.000Z</time>
      </trkpt>
      <trkpt lat="45.37497" lon="5.89181">
        <ele>1539.6</ele>
        <time>2000-01-01T07:16:32.000Z</time>
      </trkpt>
      <trkpt lat="45.37501" lon="5.89181">
        <ele>1540</ele>
        <time>2000-01-01T07:16:42.000Z</time>
      </trkpt>
      <trkpt lat="45.37507" lon="5.89184">
        <ele>1539.8</ele>
        <time>2000-01-01T07:16:52.000Z</time>
      </trkpt>
      <trkpt lat="45.37512" lon="5.89186">
        <ele>1538</ele>
        <time>2000-01-01T07:17:02.000Z</time>
      </trkpt>
      <trkpt lat="45.3752" lon="5.89193">
        <ele>1538.6</ele>
        <time>2000-01-01T07:17:12.000Z</time>
      </trkpt>
      <trkpt lat="45.3753" lon="5.89198">
        <ele>1538</ele>
        <time>2000-01-01T07:17:22.000Z</time>
      </trkpt>
      <trkpt lat="45.3753" lon="5.89199">
        <ele>1538.2</ele>
        <time>2000-01-01T07:17:32.000Z</time>
      </trkpt>
      <trkpt lat="45.37533" lon="5.89201">
        <ele>1538</ele>
        <time>2000-01-01T07:17:42.000Z</time>
      </trkpt>
      <trkpt lat="45.37537" lon="5.89205">
        <ele>1537.4</ele>
        <time>2000-01-01T07:17:52.000Z</time>
      </trkpt>
      <trkpt lat="45.37537" lon="5.89206">
        <ele>1537.2</ele>
        <time>2000-01-01T07:18:02.000Z</time>
      </trkpt>
      <trkpt lat="45.37545" lon="5.89212">
        <ele>1536.4</ele>
        <time>2000-01-01T07:18:12.000Z</time>
      </trkpt>
      <trkpt lat="45.37548" lon="5.89215">
        <ele>1536</ele>
        <time>2000-01-01T07:18:22.000Z</time>
      </trkpt>
      <trkpt lat="45.37552" lon="5.89216">
        <ele>1536.1</ele>
        <time>2000-01-01T07:18:32.000Z</time>
      </trkpt>
      <trkpt lat="45.37561" lon="5.89225">
        <ele>1535.4</ele>
        <time>2000-01-01T07:18:42.000Z</time>
      </trkpt>
      <trkpt lat="45.37564" lon="5.89227">
        <ele>1535.5</ele>
        <time>2000-01-01T07:18:52.000Z</time>
      </trkpt>
      <trkpt lat="45.3757" lon="5.89236">
        <ele>1535</ele>
        <time>2000-01-01T07:19:02.000Z</time>
      </trkpt>
      <trkpt lat="45.37584" lon="5.89248">
        <ele>1533.5</ele>
        <time>2000-01-01T07:19:12.000Z</time>
      </trkpt>
      <trkpt lat="45.37592" lon="5.89252">
        <ele>1532</ele>
        <time>2000-01-01T07:19:22.000Z</time>
      </trkpt>
      <trkpt lat="45.37595" lon="5.89255">
        <ele>1533.9</ele>
        <time>2000-01-01T07:19:32.000Z</time>
      </trkpt>
      <trkpt lat="45.37599" lon="5.89257">
        <ele>1534</ele>
        <time>2000-01-01T07:19:42.000Z</time>
      </trkpt>
      <trkpt lat="45.37608" lon="5.89263">
        <ele>1533.9</ele>
        <time>2000-01-01T07:19:52.000Z</time>
      </trkpt>
      <trkpt lat="45.37624" lon="5.89272">
        <ele>1532</ele>
        <time>2000-01-01T07:20:02.000Z</time>
      </trkpt>
      <trkpt lat="45.37629" lon="5.89277">
        <ele>1530.9</ele>
        <time>2000-01-01T07:20:12.000Z</time>
      </trkpt>
      <trkpt lat="45.37649" lon="5.89285">
        <ele>1529</ele>
        <time>2000-01-01T07:20:22.000Z</time>
      </trkpt>
      <trkpt lat="45.37653" lon="5.89285">
        <ele>1527.7</ele>
        <time>2000-01-01T07:20:32.000Z</time>
      </trkpt>
      <trkpt lat="45.37658" lon="5.89284">
        <ele>1527.1</ele>
        <time>2000-01-01T07:20:42.000Z</time>
      </trkpt>
      <trkpt lat="45.37667" lon="5.89282">
        <ele>1526.2</ele>
        <time>2000-01-01T07:20:52.000Z</time>
      </trkpt>
      <trkpt lat="45.37671" lon="5.89283">
        <ele>1526</ele>
        <time>2000-01-01T07:21:02.000Z</time>
      </trkpt>
      <trkpt lat="45.37677" lon="5.89285">
        <ele>1525.5</ele>
        <time>2000-01-01T07:21:12.000Z</time>
      </trkpt>
      <trkpt lat="45.37685" lon="5.89286">
        <ele>1525.3</ele>
        <time>2000-01-01T07:21:22.000Z</time>
      </trkpt>
      <trkpt lat="45.37691" lon="5.8929">
        <ele>1522</ele>
        <time>2000-01-01T07:21:32.000Z</time>
      </trkpt>
      <trkpt lat="45.37697" lon="5.89293">
        <ele>1524.3</ele>
        <time>2000-01-01T07:21:42.000Z</time>
      </trkpt>
      <trkpt lat="45.37704" lon="5.89298">
        <ele>1523.4</ele>
        <time>2000-01-01T07:21:52.000Z</time>
      </trkpt>
      <trkpt lat="45.37722" lon="5.89303">
        <ele>1520</ele>
        <time>2000-01-01T07:22:02.000Z</time>
      </trkpt>
      <trkpt lat="45.37733" lon="5.89307">
        <ele>1520.2</ele>
        <time>2000-01-01T07:22:12.000Z</time>
      </trkpt>
      <trkpt lat="45.37739" lon="5.89309">
        <ele>1519.6</ele>
        <time>2000-01-01T07:22:22.000Z</time>
      </trkpt>
      <trkpt lat="45.37747" lon="5.89313">
        <ele>1516</ele>
        <time>2000-01-01T07:22:32.000Z</time>
      </trkpt>
      <trkpt lat="45.37755" lon="5.89315">
        <ele>1517.9</ele>
        <time>2000-01-01T07:22:42.000Z</time>
      </trkpt>
      <trkpt lat="45.37774" lon="5.89317">
        <ele>1514</ele>
        <time>2000-01-01T07:22:52.000Z</time>
      </trkpt>
      <trkpt lat="45.37778" lon="5.89318">
        <ele>1515.6</ele>
        <time>2000-01-01T07:23:02.000Z</time>
      </trkpt>
      <trkpt lat="45.37792" lon="5.89326">
        <ele>1513.7</ele>
        <time>2000-01-01T07:23:12.000Z</time>
      </trkpt>
      <trkpt lat="45.37807" lon="5.8933">
        <ele>1513</ele>
        <time>2000-01-01T07:23:22.000Z</time>
      </trkpt>
      <trkpt lat="45.37814" lon="5.89333">
        <ele>1510.8</ele>
        <time>2000-01-01T07:23:32.000Z</time>
      </trkpt>
      <trkpt lat="45.37831" lon="5.89332">
        <ele>1510</ele>
        <time>2000-01-01T07:23:42.000Z</time>
      </trkpt>
      <trkpt lat="45.37847" lon="5.89335">
        <ele>1509.6</ele>
        <time>2000-01-01T07:23:52.000Z</time>
      </trkpt>
      <trkpt lat="45.37854" lon="5.89337">
        <ele>1510</ele>
        <time>2000-01-01T07:24:02.000Z</time>
      </trkpt>
      <trkpt lat="45.37859" lon="5.89337">
        <ele>1509.2</ele>
        <time>2000-01-01T07:24:12.000Z</time>
      </trkpt>
      <trkpt lat="45.37873" lon="5.89338">
        <ele>1509</ele>
        <time>2000-01-01T07:24:22.000Z</time>
      </trkpt>
      <trkpt lat="45.37881" lon="5.89336">
        <ele>1506.3</ele>
        <time>2000-01-01T07:24:32.000Z</time>
      </trkpt>
      <trkpt lat="45.37885" lon="5.89334">
        <ele>1505.6</ele>
        <time>2000-01-01T07:24:42.000Z</time>
      </trkpt>
      <trkpt lat="45.37891" lon="5.89328">
        <ele>1506</ele>
        <time>2000-01-01T07:24:52.000Z</time>
      </trkpt>
      <trkpt lat="45.37894" lon="5.89327">
        <ele>1506.3</ele>
        <time>2000-01-01T07:25:02.000Z</time>
      </trkpt>
      <trkpt lat="45.37902" lon="5.89331">
        <ele>1505.3</ele>
        <time>2000-01-01T07:25:12.000Z</time>
      </trkpt>
      <trkpt lat="45.37903" lon="5.89333">
        <ele>1504.6</ele>
        <time>2000-01-01T07:25:22.000Z</time>
      </trkpt>
      <trkpt lat="45.37905" lon="5.89339">
        <ele>1504.4</ele>
        <time>2000-01-01T07:25:32.000Z</time>
      </trkpt>
      <trkpt lat="45.37913" lon="5.89347">
        <ele>1502</ele>
        <time>2000-01-01T07:25:42.000Z</time>
      </trkpt>
      <trkpt lat="45.37919" lon="5.8935">
        <ele>1503</ele>
        <time>2000-01-01T07:25:52.000Z</time>
      </trkpt>
      <trkpt lat="45.3792" lon="5.8935">
        <ele>1503.1</ele>
        <time>2000-01-01T07:26:02.000Z</time>
      </trkpt>
      <trkpt lat="45.37924" lon="5.89351">
        <ele>1503.2</ele>
        <time>2000-01-01T07:26:12.000Z</time>
      </trkpt>
      <trkpt lat="45.37927" lon="5.89351">
        <ele>1503.4</ele>
        <time>2000-01-01T07:26:22.000Z</time>
      </trkpt>
      <trkpt lat="45.37946" lon="5.89358">
        <ele>1502</ele>
        <time>2000-01-01T07:26:32.000Z</time>
      </trkpt>
      <trkpt lat="45.37978" lon="5.89363">
        <ele>1500</ele>
        <time>2000-01-01T07:26:42.000Z</time>
      </trkpt>
      <trkpt lat="45.3799" lon="5.89367">
        <ele>1499.9</ele>
        <time>2000-01-01T07:26:52.000Z</time>
      </trkpt>
      <trkpt lat="45.38011" lon="5.8937">
        <ele>1499</ele>
        <time>2000-01-01T07:27:02.000Z</time>
      </trkpt>
      <trkpt lat="45.3803" lon="5.89369">
        <ele>1499</ele>
        <time>2000-01-01T07:27:12.000Z</time>
      </trkpt>
      <trkpt lat="45.38042" lon="5.89375">
        <ele>1498.5</ele>
        <time>2000-01-01T07:27:22.000Z</time>
      </trkpt>
      <trkpt lat="45.38053" lon="5.89388">
        <ele>1494</ele>
        <time>2000-01-01T07:27:32.000Z</time>
      </trkpt>
      <trkpt lat="45.38065" lon="5.89396">
        <ele>1495.8</ele>
        <time>2000-01-01T07:27:42.000Z</time>
      </trkpt>
      <trkpt lat="45.38078" lon="5.89397">
        <ele>1494</ele>
        <time>2000-01-01T07:27:52.000Z</time>
      </trkpt>
      <trkpt lat="45.38097" lon="5.89406">
        <ele>1492</ele>
        <time>2000-01-01T07:28:02.000Z</time>
      </trkpt>
      <trkpt lat="45.38106" lon="5.89408">
        <ele>1493.8</ele>
        <time>2000-01-01T07:28:12.000Z</time>
      </trkpt>
      <trkpt lat="45.38118" lon="5.89413">
        <ele>1490</ele>
        <time>2000-01-01T07:28:22.000Z</time>
      </trkpt>
      <trkpt lat="45.38134" lon="5.89422">
        <ele>1491.5</ele>
        <time>2000-01-01T07:28:32.000Z</time>
      </trkpt>
      <trkpt lat="45.3814" lon="5.89424">
        <ele>1490</ele>
        <time>2000-01-01T07:28:42.000Z</time>
      </trkpt>
      <trkpt lat="45.38157" lon="5.89435">
        <ele>1492.1</ele>
        <time>2000-01-01T07:28:52.000Z</time>
      </trkpt>
      <trkpt lat="45.38166" lon="5.89439">
        <ele>1489</ele>
        <time>2000-01-01T07:29:02.000Z</time>
      </trkpt>
      <trkpt lat="45.38202" lon="5.89449">
        <ele>1489</ele>
        <time>2000-01-01T07:29:12.000Z</time>
      </trkpt>
      <trkpt lat="45.38219" lon="5.89455">
        <ele>1492</ele>
        <time>2000-01-01T07:29:22.000Z</time>
      </trkpt>
      <trkpt lat="45.38243" lon="5.89467">
        <ele>1489</ele>
        <time>2000-01-01T07:29:32.000Z</time>
      </trkpt>
      <trkpt lat="45.38253" lon="5.89469">
        <ele>1492</ele>
        <time>2000-01-01T07:29:42.000Z</time>
      </trkpt>
      <trkpt lat="45.38264" lon="5.89473">
        <ele>1489</ele>
        <time>2000-01-01T07:29:52.000Z</time>
      </trkpt>
      <trkpt lat="45.3827" lon="5.89471">
        <ele>1492.1</ele>
        <time>2000-01-01T07:30:02.000Z</time>
      </trkpt>
      <trkpt lat="45.38286" lon="5.89474">
        <ele>1491</ele>
        <time>2000-01-01T07:30:12.000Z</time>
      </trkpt>
      <trkpt lat="45.38297" lon="5.89475">
        <ele>1494.8</ele>
        <time>2000-01-01T07:30:22.000Z</time>
      </trkpt>
      <trkpt lat="45.38299" lon="5.89475">
        <ele>1495</ele>
        <time>2000-01-01T07:30:32.000Z</time>
      </trkpt>
      <trkpt lat="45.38303" lon="5.8948">
        <ele>1495.3</ele>
        <time>2000-01-01T07:30:42.000Z</time>
      </trkpt>
      <trkpt lat="45.38305" lon="5.8948">
        <ele>1492</ele>
        <time>2000-01-01T07:30:52.000Z</time>
      </trkpt>
      <trkpt lat="45.38323" lon="5.89484">
        <ele>1494.1</ele>
        <time>2000-01-01T07:31:02.000Z</time>
      </trkpt>
      <trkpt lat="45.38325" lon="5.89485">
        <ele>1491</ele>
        <time>2000-01-01T07:31:12.000Z</time>
      </trkpt>
      <trkpt lat="45.3833" lon="5.89489">
        <ele>1492.7</ele>
        <time>2000-01-01T07:31:22.000Z</time>
      </trkpt>
      <trkpt lat="45.38333" lon="5.89493">
        <ele>1491.5</ele>
        <time>2000-01-01T07:31:32.000Z</time>
      </trkpt>
      <trkpt lat="45.38337" lon="5.89496">
        <ele>1491.1</ele>
        <time>2000-01-01T07:31:42.000Z</time>
      </trkpt>
      <trkpt lat="45.38341" lon="5.895">
        <ele>1491</ele>
        <time>2000-01-01T07:31:52.000Z</time>
      </trkpt>
      <trkpt lat="45.38344" lon="5.89505">
        <ele>1491</ele>
        <time>2000-01-01T07:32:02.000Z</time>
      </trkpt>
      <trkpt lat="45.38348" lon="5.89508">
        <ele>1491.3</ele>
        <time>2000-01-01T07:32:12.000Z</time>
      </trkpt>
      <trkpt lat="45.38355" lon="5.89512">
        <ele>1491.5</ele>
        <time>2000-01-01T07:32:22.000Z</time>
      </trkpt>
      <trkpt lat="45.38358" lon="5.89513">
        <ele>1490</ele>
        <time>2000-01-01T07:32:32.000Z</time>
      </trkpt>
      <trkpt lat="45.38369" lon="5.89518">
        <ele>1490.5</ele>
        <time>2000-01-01T07:32:42.000Z</time>
      </trkpt>
      <trkpt lat="45.38385" lon="5.89524">
        <ele>1489</ele>
        <time>2000-01-01T07:32:52.000Z</time>
      </trkpt>
      <trkpt lat="45.3839" lon="5.89528">
        <ele>1488.9</ele>
        <time>2000-01-01T07:33:02.000Z</time>
      </trkpt>
      <trkpt lat="45.38393" lon="5.8953">
        <ele>1488.9</ele>
        <time>2000-01-01T07:33:12.000Z</time>
      </trkpt>
      <trkpt lat="45.38406" lon="5.89534">
        <ele>1489</ele>
        <time>2000-01-01T07:33:22.000Z</time>
      </trkpt>
      <trkpt lat="45.38412" lon="5.89538">
        <ele>1488.1</ele>
        <time>2000-01-01T07:33:32.000Z</time>
      </trkpt>
      <trkpt lat="45.38415" lon="5.89544">
        <ele>1488.3</ele>
        <time>2000-01-01T07:33:42.000Z</time>
      </trkpt>
      <trkpt lat="45.38418" lon="5.89546">
        <ele>1488.2</ele>
        <time>2000-01-01T07:33:52.000Z</time>
      </trkpt>
      <trkpt lat="45.38428" lon="5.89552">
        <ele>1487</ele>
        <time>2000-01-01T07:34:02.000Z</time>
      </trkpt>
      <trkpt lat="45.38441" lon="5.89558">
        <ele>1486.5</ele>
        <time>2000-01-01T07:34:12.000Z</time>
      </trkpt>
      <trkpt lat="45.38444" lon="5.8956">
        <ele>1486.2</ele>
        <time>2000-01-01T07:34:22.000Z</time>
      </trkpt>
      <trkpt lat="45.3845" lon="5.89567">
        <ele>1483</ele>
        <time>2000-01-01T07:34:32.000Z</time>
      </trkpt>
      <trkpt lat="45.38456" lon="5.8957">
        <ele>1484.2</ele>
        <time>2000-01-01T07:34:42.000Z</time>
      </trkpt>
      <trkpt lat="45.3846" lon="5.89575">
        <ele>1483.7</ele>
        <time>2000-01-01T07:34:52.000Z</time>
      </trkpt>
      <trkpt lat="45.38467" lon="5.89578">
        <ele>1482.6</ele>
        <time>2000-01-01T07:35:02.000Z</time>
      </trkpt>
      <trkpt lat="45.3847" lon="5.89579">
        <ele>1480</ele>
        <time>2000-01-01T07:35:12.000Z</time>
      </trkpt>
      <trkpt lat="45.38484" lon="5.89579">
        <ele>1480.6</ele>
        <time>2000-01-01T07:35:22.000Z</time>
      </trkpt>
      <trkpt lat="45.38501" lon="5.89575">
        <ele>1479</ele>
        <time>2000-01-01T07:35:32.000Z</time>
      </trkpt>
      <trkpt lat="45.38503" lon="5.89575">
        <ele>1478.1</ele>
        <time>2000-01-01T07:35:42.000Z</time>
      </trkpt>
      <trkpt lat="45.38507" lon="5.89579">
        <ele>1478.1</ele>
        <time>2000-01-01T07:35:52.000Z</time>
      </trkpt>
      <trkpt lat="45.38517" lon="5.89581">
        <ele>1476.7</ele>
        <time>2000-01-01T07:36:02.000Z</time>
      </trkpt>
      <trkpt lat="45.38521" lon="5.89583">
        <ele>1478</ele>
        <time>2000-01-01T07:36:12.000Z</time>
      </trkpt>
      <trkpt lat="45.38523" lon="5.89587">
        <ele>1476.2</ele>
        <time>2000-01-01T07:36:22.000Z</time>
      </trkpt>
      <trkpt lat="45.38523" lon="5.89597">
        <ele>1477.3</ele>
        <time>2000-01-01T07:36:32.000Z</time>
      </trkpt>
      <trkpt lat="45.38525" lon="5.89602">
        <ele>1477.4</ele>
        <time>2000-01-01T07:36:42.000Z</time>
      </trkpt>
      <trkpt lat="45.3853" lon="5.89608">
        <ele>1477</ele>
        <time>2000-01-01T07:36:52.000Z</time>
      </trkpt>
      <trkpt lat="45.38537" lon="5.89613">
        <ele>1477.6</ele>
        <time>2000-01-01T07:37:02.000Z</time>
      </trkpt>
      <trkpt lat="45.38548" lon="5.89618">
        <ele>1477</ele>
        <time>2000-01-01T07:37:12.000Z</time>
      </trkpt>
      <trkpt lat="45.38563" lon="5.89628">
        <ele>1477.1</ele>
        <time>2000-01-01T07:37:22.000Z</time>
      </trkpt>
      <trkpt lat="45.38569" lon="5.89631">
        <ele>1475</ele>
        <time>2000-01-01T07:37:32.000Z</time>
      </trkpt>
      <trkpt lat="45.38571" lon="5.89633">
        <ele>1476.5</ele>
        <time>2000-01-01T07:37:42.000Z</time>
      </trkpt>
      <trkpt lat="45.38572" lon="5.89636">
        <ele>1476.9</ele>
        <time>2000-01-01T07:37:52.000Z</time>
      </trkpt>
      <trkpt lat="45.38576" lon="5.89639">
        <ele>1476.6</ele>
        <time>2000-01-01T07:38:02.000Z</time>
      </trkpt>
      <trkpt lat="45.38579" lon="5.89639">
        <ele>1476</ele>
        <time>2000-01-01T07:38:12.000Z</time>
      </trkpt>
      <trkpt lat="45.38582" lon="5.89637">
        <ele>1474.9</ele>
        <time>2000-01-01T07:38:22.000Z</time>
      </trkpt>
      <trkpt lat="45.38586" lon="5.89628">
        <ele>1471</ele>
        <time>2000-01-01T07:38:32.000Z</time>
      </trkpt>
      <trkpt lat="45.38588" lon="5.89625">
        <ele>1471.8</ele>
        <time>2000-01-01T07:38:42.000Z</time>
      </trkpt>
      <trkpt lat="45.38589" lon="5.89622">
        <ele>1471.2</ele>
        <time>2000-01-01T07:38:52.000Z</time>
      </trkpt>
      <trkpt lat="45.3859" lon="5.89622">
        <ele>1471.1</ele>
        <time>2000-01-01T07:39:02.000Z</time>
      </trkpt>
      <trkpt lat="45.38595" lon="5.89623">
        <ele>1470.5</ele>
        <time>2000-01-01T07:39:12.000Z</time>
      </trkpt>
      <trkpt lat="45.38598" lon="5.89625">
        <ele>1470.4</ele>
        <time>2000-01-01T07:39:22.000Z</time>
      </trkpt>
      <trkpt lat="45.38607" lon="5.89639">
        <ele>1471</ele>
        <time>2000-01-01T07:39:32.000Z</time>
      </trkpt>
      <trkpt lat="45.38617" lon="5.8964">
        <ele>1469.6</ele>
        <time>2000-01-01T07:39:42.000Z</time>
      </trkpt>
      <trkpt lat="45.38619" lon="5.8964">
        <ele>1469.3</ele>
        <time>2000-01-01T07:39:52.000Z</time>
      </trkpt>
      <trkpt lat="45.38623" lon="5.89643">
        <ele>1469.9</ele>
        <time>2000-01-01T07:40:02.000Z</time>
      </trkpt>
      <trkpt lat="45.38627" lon="5.89653">
        <ele>1471</ele>
        <time>2000-01-01T07:40:12.000Z</time>
      </trkpt>
      <trkpt lat="45.38627" lon="5.8966">
        <ele>1476.1</ele>
        <time>2000-01-01T07:40:22.000Z</time>
      </trkpt>
      <trkpt lat="45.38629" lon="5.89663">
        <ele>1477</ele>
        <time>2000-01-01T07:40:32.000Z</time>
      </trkpt>
      <trkpt lat="45.3863" lon="5.89663">
        <ele>1476.8</ele>
        <time>2000-01-01T07:40:42.000Z</time>
      </trkpt>
      <trkpt lat="45.3863" lon="5.89664">
        <ele>1477.2</ele>
        <time>2000-01-01T07:40:52.000Z</time>
      </trkpt>
      <trkpt lat="45.38632" lon="5.89664">
        <ele>1476.9</ele>
        <time>2000-01-01T07:41:02.000Z</time>
      </trkpt>
      <trkpt lat="45.38641" lon="5.8966">
        <ele>1474</ele>
        <time>2000-01-01T07:41:12.000Z</time>
      </trkpt>
      <trkpt lat="45.38644" lon="5.8966">
        <ele>1473</ele>
        <time>2000-01-01T07:41:22.000Z</time>
      </trkpt>
      <trkpt lat="45.38647" lon="5.89666">
        <ele>1474.2</ele>
        <time>2000-01-01T07:41:32.000Z</time>
      </trkpt>
      <trkpt lat="45.38649" lon="5.89669">
        <ele>1474.6</ele>
        <time>2000-01-01T07:41:42.000Z</time>
      </trkpt>
      <trkpt lat="45.38654" lon="5.89671">
        <ele>1473.8</ele>
        <time>2000-01-01T07:41:52.000Z</time>
      </trkpt>
      <trkpt lat="45.38659" lon="5.8967">
        <ele>1471</ele>
        <time>2000-01-01T07:42:02.000Z</time>
      </trkpt>
      <trkpt lat="45.38663" lon="5.89673">
        <ele>1472</ele>
        <time>2000-01-01T07:42:12.000Z</time>
      </trkpt>
      <trkpt lat="45.38667" lon="5.89677">
        <ele>1472.9</ele>
        <time>2000-01-01T07:42:22.000Z</time>
      </trkpt>
      <trkpt lat="45.38677" lon="5.89677">
        <ele>1475</ele>
        <time>2000-01-01T07:42:32.000Z</time>
      </trkpt>
      <trkpt lat="45.38687" lon="5.89678">
        <ele>1476.5</ele>
        <time>2000-01-01T07:42:42.000Z</time>
      </trkpt>
      <trkpt lat="45.38699" lon="5.8968">
        <ele>1479</ele>
        <time>2000-01-01T07:42:52.000Z</time>
      </trkpt>
      <trkpt lat="45.3871" lon="5.89685">
        <ele>1477.7</ele>
        <time>2000-01-01T07:43:02.000Z</time>
      </trkpt>
      <trkpt lat="45.3872" lon="5.89693">
        <ele>1479</ele>
        <time>2000-01-01T07:43:12.000Z</time>
      </trkpt>
      <trkpt lat="45.38727" lon="5.89702">
        <ele>1480</ele>
        <time>2000-01-01T07:43:22.000Z</time>
      </trkpt>
      <trkpt lat="45.38734" lon="5.89714">
        <ele>1481</ele>
        <time>2000-01-01T07:43:32.000Z</time>
      </trkpt>
      <trkpt lat="45.38744" lon="5.89735">
        <ele>1485.7</ele>
        <time>2000-01-01T07:43:42.000Z</time>
      </trkpt>
      <trkpt lat="45.3875" lon="5.89742">
        <ele>1484</ele>
        <time>2000-01-01T07:43:52.000Z</time>
      </trkpt>
      <trkpt lat="45.38758" lon="5.89744">
        <ele>1487.6</ele>
        <time>2000-01-01T07:44:02.000Z</time>
      </trkpt>
      <trkpt lat="45.3877" lon="5.89756">
        <ele>1490</ele>
        <time>2000-01-01T07:44:12.000Z</time>
      </trkpt>
      <trkpt lat="45.38779" lon="5.89771">
        <ele>1492.6</ele>
        <time>2000-01-01T07:44:22.000Z</time>
      </trkpt>
      <trkpt lat="45.38795" lon="5.898">
        <ele>1495</ele>
        <time>2000-01-01T07:44:32.000Z</time>
      </trkpt>
      <trkpt lat="45.38802" lon="5.89812">
        <ele>1497.5</ele>
        <time>2000-01-01T07:44:42.000Z</time>
      </trkpt>
      <trkpt lat="45.38812" lon="5.89825">
        <ele>1497</ele>
        <time>2000-01-01T07:44:52.000Z</time>
      </trkpt>
      <trkpt lat="45.38824" lon="5.89838">
        <ele>1497.4</ele>
        <time>2000-01-01T07:45:02.000Z</time>
      </trkpt>
      <trkpt lat="45.38841" lon="5.89854">
        <ele>1496</ele>
        <time>2000-01-01T07:45:12.000Z</time>
      </trkpt>
      <trkpt lat="45.38867" lon="5.89873">
        <ele>1496</ele>
        <time>2000-01-01T07:45:22.000Z</time>
      </trkpt>
      <trkpt lat="45.38874" lon="5.8988">
        <ele>1498.4</ele>
        <time>2000-01-01T07:45:32.000Z</time>
      </trkpt>
      <trkpt lat="45.38888" lon="5.899">
        <ele>1500</ele>
        <time>2000-01-01T07:45:42.000Z</time>
      </trkpt>
      <trkpt lat="45.3889" lon="5.89902">
        <ele>1502.2</ele>
        <time>2000-01-01T07:45:52.000Z</time>
      </trkpt>
      <trkpt lat="45.38937" lon="5.89933">
        <ele>1503</ele>
        <time>2000-01-01T07:46:02.000Z</time>
      </trkpt>
      <trkpt lat="45.3895" lon="5.89945">
        <ele>1504.1</ele>
        <time>2000-01-01T07:46:12.000Z</time>
      </trkpt>
      <trkpt lat="45.38961" lon="5.89956">
        <ele>1503</ele>
        <time>2000-01-01T07:46:22.000Z</time>
      </trkpt>
      <trkpt lat="45.38975" lon="5.89972">
        <ele>1506.8</ele>
        <time>2000-01-01T07:46:32.000Z</time>
      </trkpt>
      <trkpt lat="45.38989" lon="5.89977">
        <ele>1504</ele>
        <time>2000-01-01T07:46:42.000Z</time>
      </trkpt>
      <trkpt lat="45.39001" lon="5.89975">
        <ele>1507</ele>
        <time>2000-01-01T07:46:52.000Z</time>
      </trkpt>
      <trkpt lat="45.39005" lon="5.89976">
        <ele>1507.8</ele>
        <time>2000-01-01T07:47:02.000Z</time>
      </trkpt>
      <trkpt lat="45.39012" lon="5.89976">
        <ele>1503</ele>
        <time>2000-01-01T07:47:12.000Z</time>
      </trkpt>
      <trkpt lat="45.39019" lon="5.89979">
        <ele>1510.4</ele>
        <time>2000-01-01T07:47:22.000Z</time>
      </trkpt>
      <trkpt lat="45.39024" lon="5.89976">
        <ele>1509.9</ele>
        <time>2000-01-01T07:47:32.000Z</time>
      </trkpt>
      <trkpt lat="45.39027" lon="5.89973">
        <ele>1509.2</ele>
        <time>2000-01-01T07:47:42.000Z</time>
      </trkpt>
      <trkpt lat="45.39035" lon="5.89968">
        <ele>1503</ele>
        <time>2000-01-01T07:47:52.000Z</time>
      </trkpt>
      <trkpt lat="45.39038" lon="5.89964">
        <ele>1507.8</ele>
        <time>2000-01-01T07:48:02.000Z</time>
      </trkpt>
      <trkpt lat="45.39044" lon="5.89962">
        <ele>1508</ele>
        <time>2000-01-01T07:48:12.000Z</time>
      </trkpt>
      <trkpt lat="45.39055" lon="5.89962">
        <ele>1508</ele>
        <time>2000-01-01T07:48:22.000Z</time>
      </trkpt>
      <trkpt lat="45.39061" lon="5.89964">
        <ele>1510.9</ele>
        <time>2000-01-01T07:48:32.000Z</time>
      </trkpt>
      <trkpt lat="45.39065" lon="5.89967">
        <ele>1512.2</ele>
        <time>2000-01-01T07:48:42.000Z</time>
      </trkpt>
      <trkpt lat="45.39071" lon="5.89973">
        <ele>1514.3</ele>
        <time>2000-01-01T07:48:52.000Z</time>
      </trkpt>
      <trkpt lat="45.39072" lon="5.89975">
        <ele>1511</ele>
        <time>2000-01-01T07:49:02.000Z</time>
      </trkpt>
      <trkpt lat="45.39072" lon="5.89977">
        <ele>1515.6</ele>
        <time>2000-01-01T07:49:12.000Z</time>
      </trkpt>
      <trkpt lat="45.39071" lon="5.89979">
        <ele>1516.1</ele>
        <time>2000-01-01T07:49:22.000Z</time>
      </trkpt>
      <trkpt lat="45.39069" lon="5.89986">
        <ele>1517.9</ele>
        <time>2000-01-01T07:49:32.000Z</time>
      </trkpt>
      <trkpt lat="45.39066" lon="5.89989">
        <ele>1518.4</ele>
        <time>2000-01-01T07:49:42.000Z</time>
      </trkpt>
      <trkpt lat="45.39065" lon="5.89994">
        <ele>1519.7</ele>
        <time>2000-01-01T07:49:52.000Z</time>
      </trkpt>
      <trkpt lat="45.39064" lon="5.89996">
        <ele>1520.1</ele>
        <time>2000-01-01T07:50:02.000Z</time>
      </trkpt>
      <trkpt lat="45.3906" lon="5.90001">
        <ele>1518</ele>
        <time>2000-01-01T07:50:12.000Z</time>
      </trkpt>
      <trkpt lat="45.39048" lon="5.90012">
        <ele>1523.5</ele>
        <time>2000-01-01T07:50:22.000Z</time>
      </trkpt>
      <trkpt lat="45.39047" lon="5.90017">
        <ele>1525</ele>
        <time>2000-01-01T07:50:32.000Z</time>
      </trkpt>
      <trkpt lat="45.39049" lon="5.90024">
        <ele>1522</ele>
        <time>2000-01-01T07:50:42.000Z</time>
      </trkpt>
      <trkpt lat="45.39051" lon="5.90025">
        <ele>1527.8</ele>
        <time>2000-01-01T07:50:52.000Z</time>
      </trkpt>
      <trkpt lat="45.39056" lon="5.90021">
        <ele>1526.9</ele>
        <time>2000-01-01T07:51:02.000Z</time>
      </trkpt>
      <trkpt lat="45.39059" lon="5.9002">
        <ele>1527.2</ele>
        <time>2000-01-01T07:51:12.000Z</time>
      </trkpt>
      <trkpt lat="45.39071" lon="5.9002">
        <ele>1528</ele>
        <time>2000-01-01T07:51:22.000Z</time>
      </trkpt>
      <trkpt lat="45.39084" lon="5.90023">
        <ele>1534</ele>
        <time>2000-01-01T07:51:32.000Z</time>
      </trkpt>
      <trkpt lat="45.39087" lon="5.90023">
        <ele>1534.4</ele>
        <time>2000-01-01T07:51:42.000Z</time>
      </trkpt>
      <trkpt lat="45.39089" lon="5.90021">
        <ele>1533.9</ele>
        <time>2000-01-01T07:51:52.000Z</time>
      </trkpt>
      <trkpt lat="45.39098" lon="5.90014">
        <ele>1531</ele>
        <time>2000-01-01T07:52:02.000Z</time>
      </trkpt>
      <trkpt lat="45.391" lon="5.90013">
        <ele>1533</ele>
        <time>2000-01-01T07:52:12.000Z</time>
      </trkpt>
      <trkpt lat="45.39107" lon="5.90012">
        <ele>1534.2</ele>
        <time>2000-01-01T07:52:22.000Z</time>
      </trkpt>
      <trkpt lat="45.39117" lon="5.90013">
        <ele>1532</ele>
        <time>2000-01-01T07:52:32.000Z</time>
      </trkpt>
      <trkpt lat="45.39122" lon="5.90011">
        <ele>1536.5</ele>
        <time>2000-01-01T07:52:42.000Z</time>
      </trkpt>
      <trkpt lat="45.39132" lon="5.90004">
        <ele>1536.1</ele>
        <time>2000-01-01T07:52:52.000Z</time>
      </trkpt>
      <trkpt lat="45.39142" lon="5.89996">
        <ele>1533</ele>
        <time>2000-01-01T07:53:02.000Z</time>
      </trkpt>
      <trkpt lat="45.39156" lon="5.89988">
        <ele>1537.6</ele>
        <time>2000-01-01T07:53:12.000Z</time>
      </trkpt>
      <trkpt lat="45.39162" lon="5.89985">
        <ele>1536</ele>
        <time>2000-01-01T07:53:22.000Z</time>
      </trkpt>
      <trkpt lat="45.39168" lon="5.89984">
        <ele>1539.7</ele>
        <time>2000-01-01T07:53:32.000Z</time>
      </trkpt>
      <trkpt lat="45.39177" lon="5.89979">
        <ele>1540.6</ele>
        <time>2000-01-01T07:53:42.000Z</time>
      </trkpt>
      <trkpt lat="45.39179" lon="5.89977">
        <ele>1540.5</ele>
        <time>2000-01-01T07:53:52.000Z</time>
      </trkpt>
      <trkpt lat="45.3919" lon="5.89975">
        <ele>1540</ele>
        <time>2000-01-01T07:54:02.000Z</time>
      </trkpt>
      <trkpt lat="45.39209" lon="5.89975">
        <ele>1542</ele>
        <time>2000-01-01T07:54:12.000Z</time>
      </trkpt>
      <trkpt lat="45.39219" lon="5.89975">
        <ele>1545.7</ele>
        <time>2000-01-01T07:54:22.000Z</time>
      </trkpt>
      <trkpt lat="45.3923" lon="5.89978">
        <ele>1544</ele>
        <time>2000-01-01T07:54:32.000Z</time>
      </trkpt>
      <trkpt lat="45.39236" lon="5.89979">
        <ele>1548.2</ele>
        <time>2000-01-01T07:54:42.000Z</time>
      </trkpt>
      <trkpt lat="45.39246" lon="5.89979">
        <ele>1548.9</ele>
        <time>2000-01-01T07:54:52.000Z</time>
      </trkpt>
      <trkpt lat="45.39254" lon="5.8998">
        <ele>1545</ele>
        <time>2000-01-01T07:55:02.000Z</time>
      </trkpt>
      <trkpt lat="45.3926" lon="5.89983">
        <ele>1550.6</ele>
        <time>2000-01-01T07:55:12.000Z</time>
      </trkpt>
      <trkpt lat="45.39265" lon="5.89983">
        <ele>1550.6</ele>
        <time>2000-01-01T07:55:22.000Z</time>
      </trkpt>
      <trkpt lat="45.39279" lon="5.89988">
        <ele>1551</ele>
        <time>2000-01-01T07:55:32.000Z</time>
      </trkpt>
      <trkpt lat="45.39281" lon="5.8999">
        <ele>1551.7</ele>
        <time>2000-01-01T07:55:42.000Z</time>
      </trkpt>
      <trkpt lat="45.39283" lon="5.89992">
        <ele>1551.7</ele>
        <time>2000-01-01T07:55:52.000Z</time>
      </trkpt>
      <trkpt lat="45.39291" lon="5.90012">
        <ele>1553</ele>
        <time>2000-01-01T07:56:02.000Z</time>
      </trkpt>
      <trkpt lat="45.39292" lon="5.90019">
        <ele>1551.5</ele>
        <time>2000-01-01T07:56:12.000Z</time>
      </trkpt>
      <trkpt lat="45.39291" lon="5.90028">
        <ele>1552.3</ele>
        <time>2000-01-01T07:56:22.000Z</time>
      </trkpt>
      <trkpt lat="45.39289" lon="5.90041">
        <ele>1554</ele>
        <time>2000-01-01T07:56:32.000Z</time>
      </trkpt>
      <trkpt lat="45.39284" lon="5.90059">
        <ele>1553</ele>
        <time>2000-01-01T07:56:42.000Z</time>
      </trkpt>
      <trkpt lat="45.39282" lon="5.90069">
        <ele>1554</ele>
        <time>2000-01-01T07:56:52.000Z</time>
      </trkpt>
      <trkpt lat="45.39282" lon="5.90099">
        <ele>1554</ele>
        <time>2000-01-01T07:57:02.000Z</time>
      </trkpt>
      <trkpt lat="45.39285" lon="5.90111">
        <ele>1553</ele>
        <time>2000-01-01T07:57:12.000Z</time>
      </trkpt>
      <trkpt lat="45.39285" lon="5.90115">
        <ele>1553.6</ele>
        <time>2000-01-01T07:57:22.000Z</time>
      </trkpt>
      <trkpt lat="45.39285" lon="5.90117">
        <ele>1553.9</ele>
        <time>2000-01-01T07:57:32.000Z</time>
      </trkpt>
      <trkpt lat="45.39287" lon="5.90134">
        <ele>1555</ele>
        <time>2000-01-01T07:57:42.000Z</time>
      </trkpt>
      <trkpt lat="45.39293" lon="5.90141">
        <ele>1555.5</ele>
        <time>2000-01-01T07:57:52.000Z</time>
      </trkpt>
      <trkpt lat="45.39295" lon="5.90145">
        <ele>1555.5</ele>
        <time>2000-01-01T07:58:02.000Z</time>
      </trkpt>
      <trkpt lat="45.39298" lon="5.90159">
        <ele>1555</ele>
        <time>2000-01-01T07:58:12.000Z</time>
      </trkpt>
      <trkpt lat="45.39302" lon="5.90169">
        <ele>1555.9</ele>
        <time>2000-01-01T07:58:22.000Z</time>
      </trkpt>
      <trkpt lat="45.39303" lon="5.90178">
        <ele>1554.7</ele>
        <time>2000-01-01T07:58:32.000Z</time>
      </trkpt>
      <trkpt lat="45.39304" lon="5.90188">
        <ele>1555</ele>
        <time>2000-01-01T07:58:42.000Z</time>
      </trkpt>
      <trkpt lat="45.39305" lon="5.90192">
        <ele>1552.5</ele>
        <time>2000-01-01T07:58:52.000Z</time>
      </trkpt>
      <trkpt lat="45.39305" lon="5.90199">
        <ele>1550.9</ele>
        <time>2000-01-01T07:59:02.000Z</time>
      </trkpt>
      <trkpt lat="45.39307" lon="5.90209">
        <ele>1547.6</ele>
        <time>2000-01-01T07:59:12.000Z</time>
      </trkpt>
      <trkpt lat="45.39307" lon="5.90212">
        <ele>1546.7</ele>
        <time>2000-01-01T07:59:22.000Z</time>
      </trkpt>
      <trkpt lat="45.39309" lon="5.90218">
        <ele>1550</ele>
        <time>2000-01-01T07:59:32.000Z</time>
      </trkpt>
      <trkpt lat="45.3931" lon="5.90221">
        <ele>1543.7</ele>
        <time>2000-01-01T07:59:42.000Z</time>
      </trkpt>
      <trkpt lat="45.39311" lon="5.9023">
        <ele>1542.4</ele>
        <time>2000-01-01T07:59:52.000Z</time>
      </trkpt>
      <trkpt lat="45.39316" lon="5.9024">
        <ele>1540.8</ele>
        <time>2000-01-01T08:00:02.000Z</time>
      </trkpt>
      <trkpt lat="45.39322" lon="5.90243">
        <ele>1544</ele>
        <time>2000-01-01T08:00:12.000Z</time>
      </trkpt>
      <trkpt lat="45.39321" lon="5.9025">
        <ele>1539.3</ele>
        <time>2000-01-01T08:00:22.000Z</time>
      </trkpt>
      <trkpt lat="45.39321" lon="5.90263">
        <ele>1540.8</ele>
        <time>2000-01-01T08:00:32.000Z</time>
      </trkpt>
      <trkpt lat="45.39321" lon="5.90277">
        <ele>1542</ele>
        <time>2000-01-01T08:00:42.000Z</time>
      </trkpt>
      <trkpt lat="45.39326" lon="5.90294">
        <ele>1542.5</ele>
        <time>2000-01-01T08:00:52.000Z</time>
      </trkpt>
      <trkpt lat="45.39331" lon="5.9031">
        <ele>1544</ele>
        <time>2000-01-01T08:01:02.000Z</time>
      </trkpt>
      <trkpt lat="45.39354" lon="5.90354">
        <ele>1547</ele>
        <time>2000-01-01T08:01:12.000Z</time>
      </trkpt>
      <trkpt lat="45.39361" lon="5.90359">
        <ele>1549.1</ele>
        <time>2000-01-01T08:01:22.000Z</time>
      </trkpt>
      <trkpt lat="45.39374" lon="5.90364">
        <ele>1546</ele>
        <time>2000-01-01T08:01:32.000Z</time>
      </trkpt>
      <trkpt lat="45.39399" lon="5.90374">
        <ele>1546</ele>
        <time>2000-01-01T08:01:42.000Z</time>
      </trkpt>
      <trkpt lat="45.39412" lon="5.90384">
        <ele>1544.5</ele>
        <time>2000-01-01T08:01:52.000Z</time>
      </trkpt>
      <trkpt lat="45.3942" lon="5.90395">
        <ele>1543</ele>
        <time>2000-01-01T08:02:02.000Z</time>
      </trkpt>
      <trkpt lat="45.39425" lon="5.90404">
        <ele>1542.8</ele>
        <time>2000-01-01T08:02:12.000Z</time>
      </trkpt>
      <trkpt lat="45.39433" lon="5.90421">
        <ele>1543</ele>
        <time>2000-01-01T08:02:22.000Z</time>
      </trkpt>
      <trkpt lat="45.39437" lon="5.90426">
        <ele>1543.4</ele>
        <time>2000-01-01T08:02:32.000Z</time>
      </trkpt>
      <trkpt lat="45.39438" lon="5.90429">
        <ele>1543.9</ele>
        <time>2000-01-01T08:02:42.000Z</time>
      </trkpt>
      <trkpt lat="45.39443" lon="5.90438">
        <ele>1544.9</ele>
        <time>2000-01-01T08:02:52.000Z</time>
      </trkpt>
      <trkpt lat="45.39454" lon="5.90451">
        <ele>1546</ele>
        <time>2000-01-01T08:03:02.000Z</time>
      </trkpt>
      <trkpt lat="45.39456" lon="5.90459">
        <ele>1547.3</ele>
        <time>2000-01-01T08:03:12.000Z</time>
      </trkpt>
      <trkpt lat="45.39459" lon="5.90475">
        <ele>1549.6</ele>
        <time>2000-01-01T08:03:22.000Z</time>
      </trkpt>
      <trkpt lat="45.3946" lon="5.90484">
        <ele>1548</ele>
        <time>2000-01-01T08:03:32.000Z</time>
      </trkpt>
      <trkpt lat="45.39462" lon="5.90488">
        <ele>1550.3</ele>
        <time>2000-01-01T08:03:42.000Z</time>
      </trkpt>
      <trkpt lat="45.39471" lon="5.90492">
        <ele>1549.3</ele>
        <time>2000-01-01T08:03:52.000Z</time>
      </trkpt>
      <trkpt lat="45.39474" lon="5.90494">
        <ele>1548.9</ele>
        <time>2000-01-01T08:04:02.000Z</time>
      </trkpt>
      <trkpt lat="45.39478" lon="5.90499">
        <ele>1548</ele>
        <time>2000-01-01T08:04:12.000Z</time>
      </trkpt>
      <trkpt lat="45.39489" lon="5.90516">
        <ele>1547.8</ele>
        <time>2000-01-01T08:04:22.000Z</time>
      </trkpt>
      <trkpt lat="45.39494" lon="5.90532">
        <ele>1549</ele>
        <time>2000-01-01T08:04:32.000Z</time>
      </trkpt>
      <trkpt lat="45.39496" lon="5.90547">
        <ele>1550.7</ele>
        <time>2000-01-01T08:04:42.000Z</time>
      </trkpt>
      <trkpt lat="45.39498" lon="5.90558">
        <ele>1551.7</ele>
        <time>2000-01-01T08:04:52.000Z</time>
      </trkpt>
      <trkpt lat="45.39501" lon="5.90563">
        <ele>1550</ele>
        <time>2000-01-01T08:05:02.000Z</time>
      </trkpt>
      <trkpt lat="45.39504" lon="5.90571">
        <ele>1551.9</ele>
        <time>2000-01-01T08:05:12.000Z</time>
      </trkpt>
      <trkpt lat="45.39509" lon="5.90579">
        <ele>1551.6</ele>
        <time>2000-01-01T08:05:22.000Z</time>
      </trkpt>
      <trkpt lat="45.39513" lon="5.90582">
        <ele>1551.1</ele>
        <time>2000-01-01T08:05:32.000Z</time>
      </trkpt>
      <trkpt lat="45.39517" lon="5.90589">
        <ele>1552</ele>
        <time>2000-01-01T08:05:42.000Z</time>
      </trkpt>
      <trkpt lat="45.39524" lon="5.90595">
        <ele>1551.3</ele>
        <time>2000-01-01T08:05:52.000Z</time>
      </trkpt>
      <trkpt lat="45.39532" lon="5.9061">
        <ele>1552</ele>
        <time>2000-01-01T08:06:02.000Z</time>
      </trkpt>
      <trkpt lat="45.39537" lon="5.90619">
        <ele>1553.9</ele>
        <time>2000-01-01T08:06:12.000Z</time>
      </trkpt>
      <trkpt lat="45.39551" lon="5.90637">
        <ele>1552</ele>
        <time>2000-01-01T08:06:22.000Z</time>
      </trkpt>
      <trkpt lat="45.39553" lon="5.90645">
        <ele>1554.4</ele>
        <time>2000-01-01T08:06:32.000Z</time>
      </trkpt>
      <trkpt lat="45.39557" lon="5.90658">
        <ele>1555.4</ele>
        <time>2000-01-01T08:06:42.000Z</time>
      </trkpt>
      <trkpt lat="45.39568" lon="5.9067">
        <ele>1555</ele>
        <time>2000-01-01T08:06:52.000Z</time>
      </trkpt>
      <trkpt lat="45.39573" lon="5.90681">
        <ele>1557</ele>
        <time>2000-01-01T08:07:02.000Z</time>
      </trkpt>
      <trkpt lat="45.39579" lon="5.9069">
        <ele>1557.9</ele>
        <time>2000-01-01T08:07:12.000Z</time>
      </trkpt>
      <trkpt lat="45.39584" lon="5.90702">
        <ele>1555</ele>
        <time>2000-01-01T08:07:22.000Z</time>
      </trkpt>
      <trkpt lat="45.39585" lon="5.90704">
        <ele>1558.7</ele>
        <time>2000-01-01T08:07:32.000Z</time>
      </trkpt>
      <trkpt lat="45.39587" lon="5.90706">
        <ele>1558.5</ele>
        <time>2000-01-01T08:07:42.000Z</time>
      </trkpt>
      <trkpt lat="45.39599" lon="5.90714">
        <ele>1557.4</ele>
        <time>2000-01-01T08:07:52.000Z</time>
      </trkpt>
      <trkpt lat="45.39602" lon="5.90717">
        <ele>1556</ele>
        <time>2000-01-01T08:08:02.000Z</time>
      </trkpt>
      <trkpt lat="45.39612" lon="5.90724">
        <ele>1557.3</ele>
        <time>2000-01-01T08:08:12.000Z</time>
      </trkpt>
      <trkpt lat="45.39613" lon="5.90724">
        <ele>1557.2</ele>
        <time>2000-01-01T08:08:22.000Z</time>
      </trkpt>
      <trkpt lat="45.39617" lon="5.90729">
        <ele>1557.8</ele>
        <time>2000-01-01T08:08:32.000Z</time>
      </trkpt>
      <trkpt lat="45.3962" lon="5.90731">
        <ele>1555</ele>
        <time>2000-01-01T08:08:42.000Z</time>
      </trkpt>
      <trkpt lat="45.39628" lon="5.90736">
        <ele>1557.4</ele>
        <time>2000-01-01T08:08:52.000Z</time>
      </trkpt>
      <trkpt lat="45.39634" lon="5.90741">
        <ele>1557.3</ele>
        <time>2000-01-01T08:09:02.000Z</time>
      </trkpt>
      <trkpt lat="45.39637" lon="5.90742">
        <ele>1556.9</ele>
        <time>2000-01-01T08:09:12.000Z</time>
      </trkpt>
      <trkpt lat="45.39651" lon="5.90742">
        <ele>1554</ele>
        <time>2000-01-01T08:09:22.000Z</time>
      </trkpt>
      <trkpt lat="45.39668" lon="5.90736">
        <ele>1549.7</ele>
        <time>2000-01-01T08:09:32.000Z</time>
      </trkpt>
      <trkpt lat="45.3967" lon="5.90735">
        <ele>1550</ele>
        <time>2000-01-01T08:09:42.000Z</time>
      </trkpt>
      <trkpt lat="45.39673" lon="5.90734">
        <ele>1548.3</ele>
        <time>2000-01-01T08:09:52.000Z</time>
      </trkpt>
      <trkpt lat="45.39689" lon="5.90728">
        <ele>1543</ele>
        <time>2000-01-01T08:10:02.000Z</time>
      </trkpt>
      <trkpt lat="45.39702" lon="5.90724">
        <ele>1540.1</ele>
        <time>2000-01-01T08:10:12.000Z</time>
      </trkpt>
      <trkpt lat="45.39713" lon="5.90724">
        <ele>1540</ele>
        <time>2000-01-01T08:10:22.000Z</time>
      </trkpt>
      <trkpt lat="45.39719" lon="5.90724">
        <ele>1537</ele>
        <time>2000-01-01T08:10:32.000Z</time>
      </trkpt>
      <trkpt lat="45.39726" lon="5.90728">
        <ele>1537.3</ele>
        <time>2000-01-01T08:10:42.000Z</time>
      </trkpt>
      <trkpt lat="45.39728" lon="5.90732">
        <ele>1538.2</ele>
        <time>2000-01-01T08:10:52.000Z</time>
      </trkpt>
      <trkpt lat="45.39732" lon="5.90732">
        <ele>1538</ele>
        <time>2000-01-01T08:11:02.000Z</time>
      </trkpt>
      <trkpt lat="45.39746" lon="5.9073">
        <ele>1536.9</ele>
        <time>2000-01-01T08:11:12.000Z</time>
      </trkpt>
      <trkpt lat="45.39758" lon="5.90731">
        <ele>1536</ele>
        <time>2000-01-01T08:11:22.000Z</time>
      </trkpt>
      <trkpt lat="45.39763" lon="5.90729">
        <ele>1534.4</ele>
        <time>2000-01-01T08:11:32.000Z</time>
      </trkpt>
      <trkpt lat="45.39795" lon="5.90735">
        <ele>1530</ele>
        <time>2000-01-01T08:11:42.000Z</time>
      </trkpt>
      <trkpt lat="45.39809" lon="5.90734">
        <ele>1527.9</ele>
        <time>2000-01-01T08:11:52.000Z</time>
      </trkpt>
      <trkpt lat="45.3982" lon="5.90736">
        <ele>1524</ele>
        <time>2000-01-01T08:12:02.000Z</time>
      </trkpt>
      <trkpt lat="45.39824" lon="5.90735">
        <ele>1526.3</ele>
        <time>2000-01-01T08:12:12.000Z</time>
      </trkpt>
      <trkpt lat="45.39834" lon="5.9073">
        <ele>1523.4</ele>
        <time>2000-01-01T08:12:22.000Z</time>
      </trkpt>
      <trkpt lat="45.39838" lon="5.90729">
        <ele>1522</ele>
        <time>2000-01-01T08:12:32.000Z</time>
      </trkpt>
      <trkpt lat="45.39845" lon="5.90731">
        <ele>1521.9</ele>
        <time>2000-01-01T08:12:42.000Z</time>
      </trkpt>
      <trkpt lat="45.39865" lon="5.90743">
        <ele>1521</ele>
        <time>2000-01-01T08:12:52.000Z</time>
      </trkpt>
      <trkpt lat="45.39872" lon="5.90747">
        <ele>1524.8</ele>
        <time>2000-01-01T08:13:02.000Z</time>
      </trkpt>
      <trkpt lat="45.3988" lon="5.90748">
        <ele>1525.1</ele>
        <time>2000-01-01T08:13:12.000Z</time>
      </trkpt>
      <trkpt lat="45.39889" lon="5.90747">
        <ele>1522</ele>
        <time>2000-01-01T08:13:22.000Z</time>
      </trkpt>
      <trkpt lat="45.39903" lon="5.90742">
        <ele>1522.2</ele>
        <time>2000-01-01T08:13:32.000Z</time>
      </trkpt>
      <trkpt lat="45.39907" lon="5.90742">
        <ele>1523</ele>
        <time>2000-01-01T08:13:42.000Z</time>
      </trkpt>
      <trkpt lat="45.39918" lon="5.90747">
        <ele>1525.6</ele>
        <time>2000-01-01T08:13:52.000Z</time>
      </trkpt>
      <trkpt lat="45.39924" lon="5.90749">
        <ele>1526.2</ele>
        <time>2000-01-01T08:14:02.000Z</time>
      </trkpt>
      <trkpt lat="45.3994" lon="5.90746">
        <ele>1523</ele>
        <time>2000-01-01T08:14:12.000Z</time>
      </trkpt>
      <trkpt lat="45.39954" lon="5.90749">
        <ele>1521.5</ele>
        <time>2000-01-01T08:14:22.000Z</time>
      </trkpt>
      <trkpt lat="45.39969" lon="5.90751">
        <ele>1521</ele>
        <time>2000-01-01T08:14:32.000Z</time>
      </trkpt>
      <trkpt lat="45.39975" lon="5.90753">
        <ele>1519.1</ele>
        <time>2000-01-01T08:14:42.000Z</time>
      </trkpt>
      <trkpt lat="45.39982" lon="5.90753">
        <ele>1517.8</ele>
        <time>2000-01-01T08:14:52.000Z</time>
      </trkpt>
      <trkpt lat="45.39989" lon="5.90754">
        <ele>1516</ele>
        <time>2000-01-01T08:15:02.000Z</time>
      </trkpt>
      <trkpt lat="45.40002" lon="5.90758">
        <ele>1515</ele>
        <time>2000-01-01T08:15:12.000Z</time>
      </trkpt>
      <trkpt lat="45.40028" lon="5.9077">
        <ele>1513</ele>
        <time>2000-01-01T08:15:22.000Z</time>
      </trkpt>
      <trkpt lat="45.40051" lon="5.90775">
        <ele>1506</ele>
        <time>2000-01-01T08:15:32.000Z</time>
      </trkpt>
      <trkpt lat="45.40063" lon="5.90775">
        <ele>1505.5</ele>
        <time>2000-01-01T08:15:42.000Z</time>
      </trkpt>
      <trkpt lat="45.40074" lon="5.90779">
        <ele>1503</ele>
        <time>2000-01-01T08:15:52.000Z</time>
      </trkpt>
      <trkpt lat="45.40092" lon="5.90789">
        <ele>1500.3</ele>
        <time>2000-01-01T08:16:02.000Z</time>
      </trkpt>
      <trkpt lat="45.40094" lon="5.90792">
        <ele>1503</ele>
        <time>2000-01-01T08:16:12.000Z</time>
      </trkpt>
      <trkpt lat="45.40097" lon="5.908">
        <ele>1500.8</ele>
        <time>2000-01-01T08:16:22.000Z</time>
      </trkpt>
      <trkpt lat="45.40101" lon="5.90807">
        <ele>1500.7</ele>
        <time>2000-01-01T08:16:32.000Z</time>
      </trkpt>
      <trkpt lat="45.40109" lon="5.90815">
        <ele>1501</ele>
        <time>2000-01-01T08:16:42.000Z</time>
      </trkpt>
      <trkpt lat="45.40119" lon="5.90821">
        <ele>1498.1</ele>
        <time>2000-01-01T08:16:52.000Z</time>
      </trkpt>
      <trkpt lat="45.40127" lon="5.90825">
        <ele>1498</ele>
        <time>2000-01-01T08:17:02.000Z</time>
      </trkpt>
      <trkpt lat="45.40134" lon="5.90829">
        <ele>1496.8</ele>
        <time>2000-01-01T08:17:12.000Z</time>
      </trkpt>
      <trkpt lat="45.40149" lon="5.90837">
        <ele>1495</ele>
        <time>2000-01-01T08:17:22.000Z</time>
      </trkpt>
      <trkpt lat="45.40154" lon="5.90841">
        <ele>1495.3</ele>
        <time>2000-01-01T08:17:32.000Z</time>
      </trkpt>
      <trkpt lat="45.40174" lon="5.9085">
        <ele>1493</ele>
        <time>2000-01-01T08:17:42.000Z</time>
      </trkpt>
      <trkpt lat="45.4018" lon="5.90851">
        <ele>1491.2</ele>
        <time>2000-01-01T08:17:52.000Z</time>
      </trkpt>
      <trkpt lat="45.402" lon="5.90864">
        <ele>1492</ele>
        <time>2000-01-01T08:18:02.000Z</time>
      </trkpt>
      <trkpt lat="45.40213" lon="5.90868">
        <ele>1487.7</ele>
        <time>2000-01-01T08:18:12.000Z</time>
      </trkpt>
      <trkpt lat="45.40234" lon="5.90882">
        <ele>1487</ele>
        <time>2000-01-01T08:18:22.000Z</time>
      </trkpt>
      <trkpt lat="45.4024" lon="5.90887">
        <ele>1487.4</ele>
        <time>2000-01-01T08:18:32.000Z</time>
      </trkpt>
      <trkpt lat="45.40246" lon="5.90893">
        <ele>1487.6</ele>
        <time>2000-01-01T08:18:42.000Z</time>
      </trkpt>
      <trkpt lat="45.40252" lon="5.90899">
        <ele>1487</ele>
        <time>2000-01-01T08:18:52.000Z</time>
      </trkpt>
      <trkpt lat="45.40258" lon="5.90903">
        <ele>1487.7</ele>
        <time>2000-01-01T08:19:02.000Z</time>
      </trkpt>
      <trkpt lat="45.40275" lon="5.90919">
        <ele>1487</ele>
        <time>2000-01-01T08:19:12.000Z</time>
      </trkpt>
      <trkpt lat="45.4028" lon="5.90922">
        <ele>1487.8</ele>
        <time>2000-01-01T08:19:22.000Z</time>
      </trkpt>
      <trkpt lat="45.40286" lon="5.90925">
        <ele>1487.6</ele>
        <time>2000-01-01T08:19:32.000Z</time>
      </trkpt>
      <trkpt lat="45.4029" lon="5.90931">
        <ele>1488.3</ele>
        <time>2000-01-01T08:19:42.000Z</time>
      </trkpt>
      <trkpt lat="45.40295" lon="5.90935">
        <ele>1487</ele>
        <time>2000-01-01T08:19:52.000Z</time>
      </trkpt>
      <trkpt lat="45.403" lon="5.90938">
        <ele>1488.4</ele>
        <time>2000-01-01T08:20:02.000Z</time>
      </trkpt>
      <trkpt lat="45.40309" lon="5.90942">
        <ele>1488</ele>
        <time>2000-01-01T08:20:12.000Z</time>
      </trkpt>
      <trkpt lat="45.40318" lon="5.90951">
        <ele>1487</ele>
        <time>2000-01-01T08:20:22.000Z</time>
      </trkpt>
      <trkpt lat="45.40331" lon="5.90956">
        <ele>1488.2</ele>
        <time>2000-01-01T08:20:32.000Z</time>
      </trkpt>
      <trkpt lat="45.40335" lon="5.90961">
        <ele>1488.9</ele>
        <time>2000-01-01T08:20:42.000Z</time>
      </trkpt>
      <trkpt lat="45.4034" lon="5.90961">
        <ele>1488</ele>
        <time>2000-01-01T08:20:52.000Z</time>
      </trkpt>
      <trkpt lat="45.40344" lon="5.90963">
        <ele>1488</ele>
        <time>2000-01-01T08:21:02.000Z</time>
      </trkpt>
      <trkpt lat="45.4036" lon="5.90978">
        <ele>1488</ele>
        <time>2000-01-01T08:21:12.000Z</time>
      </trkpt>
      <trkpt lat="45.40362" lon="5.9098">
        <ele>1488.7</ele>
        <time>2000-01-01T08:21:22.000Z</time>
      </trkpt>
      <trkpt lat="45.40365" lon="5.90981">
        <ele>1488.9</ele>
        <time>2000-01-01T08:21:32.000Z</time>
      </trkpt>
      <trkpt lat="45.40376" lon="5.90987">
        <ele>1489.6</ele>
        <time>2000-01-01T08:21:42.000Z</time>
      </trkpt>
      <trkpt lat="45.4038" lon="5.9099">
        <ele>1489</ele>
        <time>2000-01-01T08:21:52.000Z</time>
      </trkpt>
      <trkpt lat="45.40388" lon="5.91">
        <ele>1490.1</ele>
        <time>2000-01-01T08:22:02.000Z</time>
      </trkpt>
      <trkpt lat="45.40393" lon="5.91009">
        <ele>1491.3</ele>
        <time>2000-01-01T08:22:12.000Z</time>
      </trkpt>
      <trkpt lat="45.40398" lon="5.91013">
        <ele>1488</ele>
        <time>2000-01-01T08:22:22.000Z</time>
      </trkpt>
      <trkpt lat="45.40408" lon="5.91018">
        <ele>1490</ele>
        <time>2000-01-01T08:22:32.000Z</time>
      </trkpt>
      <trkpt lat="45.40413" lon="5.91019">
        <ele>1489.1</ele>
        <time>2000-01-01T08:22:42.000Z</time>
      </trkpt>
      <trkpt lat="45.40424" lon="5.91019">
        <ele>1487</ele>
        <time>2000-01-01T08:22:52.000Z</time>
      </trkpt>
      <trkpt lat="45.40429" lon="5.91018">
        <ele>1485</ele>
        <time>2000-01-01T08:23:02.000Z</time>
      </trkpt>
      <trkpt lat="45.40434" lon="5.91017">
        <ele>1483.5</ele>
        <time>2000-01-01T08:23:12.000Z</time>
      </trkpt>
      <trkpt lat="45.40441" lon="5.91012">
        <ele>1480.6</ele>
        <time>2000-01-01T08:23:22.000Z</time>
      </trkpt>
      <trkpt lat="45.40456" lon="5.90994">
        <ele>1473</ele>
        <time>2000-01-01T08:23:32.000Z</time>
      </trkpt>
      <trkpt lat="45.4046" lon="5.90993">
        <ele>1470.9</ele>
        <time>2000-01-01T08:23:42.000Z</time>
      </trkpt>
      <trkpt lat="45.40464" lon="5.90993">
        <ele>1469.5</ele>
        <time>2000-01-01T08:23:52.000Z</time>
      </trkpt>
      <trkpt lat="45.40467" lon="5.90992">
        <ele>1468.2</ele>
        <time>2000-01-01T08:24:02.000Z</time>
      </trkpt>
      <trkpt lat="45.40475" lon="5.90993">
        <ele>1465</ele>
        <time>2000-01-01T08:24:12.000Z</time>
      </trkpt>
      <trkpt lat="45.40484" lon="5.90992">
        <ele>1464.9</ele>
        <time>2000-01-01T08:24:22.000Z</time>
      </trkpt>
      <trkpt lat="45.40486" lon="5.9099">
        <ele>1464.4</ele>
        <time>2000-01-01T08:24:32.000Z</time>
      </trkpt>
      <trkpt lat="45.40487" lon="5.90986">
        <ele>1463.7</ele>
        <time>2000-01-01T08:24:42.000Z</time>
      </trkpt>
      <trkpt lat="45.40486" lon="5.90981">
        <ele>1462.9</ele>
        <time>2000-01-01T08:24:52.000Z</time>
      </trkpt>
      <trkpt lat="45.4049" lon="5.90971">
        <ele>1456</ele>
        <time>2000-01-01T08:25:02.000Z</time>
      </trkpt>
      <trkpt lat="45.40491" lon="5.90965">
        <ele>1460</ele>
        <time>2000-01-01T08:25:12.000Z</time>
      </trkpt>
      <trkpt lat="45.40496" lon="5.90952">
        <ele>1456.7</ele>
        <time>2000-01-01T08:25:22.000Z</time>
      </trkpt>
      <trkpt lat="45.40499" lon="5.9095">
        <ele>1455.6</ele>
        <time>2000-01-01T08:25:32.000Z</time>
      </trkpt>
      <trkpt lat="45.40501" lon="5.90951">
        <ele>1455</ele>
        <time>2000-01-01T08:25:42.000Z</time>
      </trkpt>
      <trkpt lat="45.40503" lon="5.9095">
        <ele>1455.1</ele>
        <time>2000-01-01T08:25:52.000Z</time>
      </trkpt>
      <trkpt lat="45.40505" lon="5.90939">
        <ele>1453.1</ele>
        <time>2000-01-01T08:26:02.000Z</time>
      </trkpt>
      <trkpt lat="45.40508" lon="5.90934">
        <ele>1452.5</ele>
        <time>2000-01-01T08:26:12.000Z</time>
      </trkpt>
      <trkpt lat="45.4051" lon="5.90934">
        <ele>1452.4</ele>
        <time>2000-01-01T08:26:22.000Z</time>
      </trkpt>
      <trkpt lat="45.40511" lon="5.90936">
        <ele>1452.5</ele>
        <time>2000-01-01T08:26:32.000Z</time>
      </trkpt>
      <trkpt lat="45.40528" lon="5.90957">
        <ele>1454</ele>
        <time>2000-01-01T08:26:42.000Z</time>
      </trkpt>
      <trkpt lat="45.40538" lon="5.90973">
        <ele>1454.8</ele>
        <time>2000-01-01T08:26:52.000Z</time>
      </trkpt>
      <trkpt lat="45.40543" lon="5.9098">
        <ele>1454</ele>
        <time>2000-01-01T08:27:02.000Z</time>
      </trkpt>
      <trkpt lat="45.40555" lon="5.90998">
        <ele>1455.1</ele>
        <time>2000-01-01T08:27:12.000Z</time>
      </trkpt>
      <trkpt lat="45.4056" lon="5.91003">
        <ele>1455</ele>
        <time>2000-01-01T08:27:22.000Z</time>
      </trkpt>
      <trkpt lat="45.40567" lon="5.9101">
        <ele>1456.7</ele>
        <time>2000-01-01T08:27:32.000Z</time>
      </trkpt>
      <trkpt lat="45.4058" lon="5.91017">
        <ele>1456</ele>
        <time>2000-01-01T08:27:42.000Z</time>
      </trkpt>
      <trkpt lat="45.40596" lon="5.91037">
        <ele>1457</ele>
        <time>2000-01-01T08:27:52.000Z</time>
      </trkpt>
      <trkpt lat="45.406" lon="5.91045">
        <ele>1461.4</ele>
        <time>2000-01-01T08:28:02.000Z</time>
      </trkpt>
      <trkpt lat="45.40603" lon="5.91054">
        <ele>1461.6</ele>
        <time>2000-01-01T08:28:12.000Z</time>
      </trkpt>
      <trkpt lat="45.40605" lon="5.91055">
        <ele>1461.4</ele>
        <time>2000-01-01T08:28:22.000Z</time>
      </trkpt>
      <trkpt lat="45.40612" lon="5.91065">
        <ele>1459</ele>
        <time>2000-01-01T08:28:32.000Z</time>
      </trkpt>
      <trkpt lat="45.40626" lon="5.91083">
        <ele>1461</ele>
        <time>2000-01-01T08:28:42.000Z</time>
      </trkpt>
      <trkpt lat="45.40632" lon="5.91084">
        <ele>1466.8</ele>
        <time>2000-01-01T08:28:52.000Z</time>
      </trkpt>
      <trkpt lat="45.40638" lon="5.91081">
        <ele>1468</ele>
        <time>2000-01-01T08:29:02.000Z</time>
      </trkpt>
      <trkpt lat="45.40644" lon="5.91085">
        <ele>1467</ele>
        <time>2000-01-01T08:29:12.000Z</time>
      </trkpt>
      <trkpt lat="45.40649" lon="5.91093">
        <ele>1474.5</ele>
        <time>2000-01-01T08:29:22.000Z</time>
      </trkpt>
      <trkpt lat="45.40654" lon="5.91104">
        <ele>1476</ele>
        <time>2000-01-01T08:29:32.000Z</time>
      </trkpt>
      <trkpt lat="45.40658" lon="5.91113">
        <ele>1472</ele>
        <time>2000-01-01T08:29:42.000Z</time>
      </trkpt>
      <trkpt lat="45.40662" lon="5.91138">
        <ele>1479</ele>
        <time>2000-01-01T08:29:52.000Z</time>
      </trkpt>
      <trkpt lat="45.40668" lon="5.91162">
        <ele>1477</ele>
        <time>2000-01-01T08:30:02.000Z</time>
      </trkpt>
      <trkpt lat="45.40671" lon="5.91167">
        <ele>1483.2</ele>
        <time>2000-01-01T08:30:12.000Z</time>
      </trkpt>
      <trkpt lat="45.40674" lon="5.91173">
        <ele>1485.6</ele>
        <time>2000-01-01T08:30:22.000Z</time>
      </trkpt>
      <trkpt lat="45.40678" lon="5.91176">
        <ele>1486.7</ele>
        <time>2000-01-01T08:30:32.000Z</time>
      </trkpt>
      <trkpt lat="45.4068" lon="5.91181">
        <ele>1487.6</ele>
        <time>2000-01-01T08:30:42.000Z</time>
      </trkpt>
      <trkpt lat="45.40692" lon="5.91205">
        <ele>1482</ele>
        <time>2000-01-01T08:30:52.000Z</time>
      </trkpt>
      <trkpt lat="45.4071" lon="5.91232">
        <ele>1487</ele>
        <time>2000-01-01T08:31:02.000Z</time>
      </trkpt>
      <trkpt lat="45.40714" lon="5.9124">
        <ele>1493.4</ele>
        <time>2000-01-01T08:31:12.000Z</time>
      </trkpt>
      <trkpt lat="45.4072" lon="5.91247">
        <ele>1491.2</ele>
        <time>2000-01-01T08:31:22.000Z</time>
      </trkpt>
      <trkpt lat="45.40731" lon="5.91257">
        <ele>1492</ele>
        <time>2000-01-01T08:31:32.000Z</time>
      </trkpt>
      <trkpt lat="45.40735" lon="5.91262">
        <ele>1496.7</ele>
        <time>2000-01-01T08:31:42.000Z</time>
      </trkpt>
      <trkpt lat="45.40738" lon="5.91256">
        <ele>1496.5</ele>
        <time>2000-01-01T08:31:52.000Z</time>
      </trkpt>
      <trkpt lat="45.40742" lon="5.91257">
        <ele>1497.7</ele>
        <time>2000-01-01T08:32:02.000Z</time>
      </trkpt>
      <trkpt lat="45.4075" lon="5.91267">
        <ele>1497</ele>
        <time>2000-01-01T08:32:12.000Z</time>
      </trkpt>
      <trkpt lat="45.40756" lon="5.91284">
        <ele>1500.5</ele>
        <time>2000-01-01T08:32:22.000Z</time>
      </trkpt>
      <trkpt lat="45.4076" lon="5.91289">
        <ele>1501.5</ele>
        <time>2000-01-01T08:32:32.000Z</time>
      </trkpt>
      <trkpt lat="45.40765" lon="5.91293">
        <ele>1500</ele>
        <time>2000-01-01T08:32:42.000Z</time>
      </trkpt>
      <trkpt lat="45.40771" lon="5.91294">
        <ele>1505.2</ele>
        <time>2000-01-01T08:32:52.000Z</time>
      </trkpt>
      <trkpt lat="45.40774" lon="5.91292">
        <ele>1506.5</ele>
        <time>2000-01-01T08:33:02.000Z</time>
      </trkpt>
      <trkpt lat="45.40778" lon="5.91292">
        <ele>1508.1</ele>
        <time>2000-01-01T08:33:12.000Z</time>
      </trkpt>
      <trkpt lat="45.40785" lon="5.91289">
        <ele>1508</ele>
        <time>2000-01-01T08:33:22.000Z</time>
      </trkpt>
      <trkpt lat="45.40789" lon="5.91283">
        <ele>1512.3</ele>
        <time>2000-01-01T08:33:32.000Z</time>
      </trkpt>
      <trkpt lat="45.40794" lon="5.91282">
        <ele>1514</ele>
        <time>2000-01-01T08:33:42.000Z</time>
      </trkpt>
      <trkpt lat="45.40799" lon="5.91285">
        <ele>1515.6</ele>
        <time>2000-01-01T08:33:52.000Z</time>
      </trkpt>
      <trkpt lat="45.408" lon="5.91293">
        <ele>1509</ele>
        <time>2000-01-01T08:34:02.000Z</time>
      </trkpt>
      <trkpt lat="45.40804" lon="5.91294">
        <ele>1516.9</ele>
        <time>2000-01-01T08:34:12.000Z</time>
      </trkpt>
      <trkpt lat="45.40806" lon="5.91294">
        <ele>1517.5</ele>
        <time>2000-01-01T08:34:22.000Z</time>
      </trkpt>
      <trkpt lat="45.40808" lon="5.91305">
        <ele>1517.4</ele>
        <time>2000-01-01T08:34:32.000Z</time>
      </trkpt>
      <trkpt lat="45.4081" lon="5.91306">
        <ele>1517.7</ele>
        <time>2000-01-01T08:34:42.000Z</time>
      </trkpt>
      <trkpt lat="45.40812" lon="5.91307">
        <ele>1518</ele>
        <time>2000-01-01T08:34:52.000Z</time>
      </trkpt>
      <trkpt lat="45.40815" lon="5.91305">
        <ele>1518.4</ele>
        <time>2000-01-01T08:35:02.000Z</time>
      </trkpt>
      <trkpt lat="45.40819" lon="5.91308">
        <ele>1519</ele>
        <time>2000-01-01T08:35:12.000Z</time>
      </trkpt>
      <trkpt lat="45.40823" lon="5.91314">
        <ele>1519.5</ele>
        <time>2000-01-01T08:35:22.000Z</time>
      </trkpt>
      <trkpt lat="45.40827" lon="5.91316">
        <ele>1520</ele>
        <time>2000-01-01T08:35:32.000Z</time>
      </trkpt>
      <trkpt lat="45.40833" lon="5.91315">
        <ele>1520</ele>
        <time>2000-01-01T08:35:42.000Z</time>
      </trkpt>
      <trkpt lat="45.40838" lon="5.91302">
        <ele>1523</ele>
        <time>2000-01-01T08:35:52.000Z</time>
      </trkpt>
      <trkpt lat="45.40838" lon="5.91293">
        <ele>1524.6</ele>
        <time>2000-01-01T08:36:02.000Z</time>
      </trkpt>
      <trkpt lat="45.4084" lon="5.91284">
        <ele>1524</ele>
        <time>2000-01-01T08:36:12.000Z</time>
      </trkpt>
      <trkpt lat="45.40841" lon="5.91254">
        <ele>1526</ele>
        <time>2000-01-01T08:36:22.000Z</time>
      </trkpt>
      <trkpt lat="45.40841" lon="5.91245">
        <ele>1530.2</ele>
        <time>2000-01-01T08:36:32.000Z</time>
      </trkpt>
      <trkpt lat="45.40837" lon="5.9123">
        <ele>1532.5</ele>
        <time>2000-01-01T08:36:42.000Z</time>
      </trkpt>
      <trkpt lat="45.40839" lon="5.91223">
        <ele>1534</ele>
        <time>2000-01-01T08:36:52.000Z</time>
      </trkpt>
      <trkpt lat="45.40838" lon="5.91211">
        <ele>1537</ele>
        <time>2000-01-01T08:37:02.000Z</time>
      </trkpt>
      <trkpt lat="45.40835" lon="5.912">
        <ele>1538.3</ele>
        <time>2000-01-01T08:37:12.000Z</time>
      </trkpt>
      <trkpt lat="45.40836" lon="5.91195">
        <ele>1539</ele>
        <time>2000-01-01T08:37:22.000Z</time>
      </trkpt>
      <trkpt lat="45.40836" lon="5.91194">
        <ele>1539.9</ele>
        <time>2000-01-01T08:37:32.000Z</time>
      </trkpt>
      <trkpt lat="45.40833" lon="5.91185">
        <ele>1541</ele>
        <time>2000-01-01T08:37:42.000Z</time>
      </trkpt>
      <trkpt lat="45.40832" lon="5.91179">
        <ele>1542.1</ele>
        <time>2000-01-01T08:37:52.000Z</time>
      </trkpt>
      <trkpt lat="45.40835" lon="5.91169">
        <ele>1547</ele>
        <time>2000-01-01T08:38:02.000Z</time>
      </trkpt>
      <trkpt lat="45.40841" lon="5.91163">
        <ele>1548.8</ele>
        <time>2000-01-01T08:38:12.000Z</time>
      </trkpt>
      <trkpt lat="45.40842" lon="5.91159">
        <ele>1550.2</ele>
        <time>2000-01-01T08:38:22.000Z</time>
      </trkpt>
      <trkpt lat="45.40842" lon="5.91151">
        <ele>1552.4</ele>
        <time>2000-01-01T08:38:32.000Z</time>
      </trkpt>
      <trkpt lat="45.40843" lon="5.91135">
        <ele>1550</ele>
        <time>2000-01-01T08:38:42.000Z</time>
      </trkpt>
      <trkpt lat="45.40846" lon="5.91132">
        <ele>1559.1</ele>
        <time>2000-01-01T08:38:52.000Z</time>
      </trkpt>
      <trkpt lat="45.4086" lon="5.91156">
        <ele>1553</ele>
        <time>2000-01-01T08:39:02.000Z</time>
      </trkpt>
      <trkpt lat="45.40865" lon="5.91161">
        <ele>1559.5</ele>
        <time>2000-01-01T08:39:12.000Z</time>
      </trkpt>
      <trkpt lat="45.40869" lon="5.91166">
        <ele>1560.6</ele>
        <time>2000-01-01T08:39:22.000Z</time>
      </trkpt>
      <trkpt lat="45.40873" lon="5.91169">
        <ele>1562.6</ele>
        <time>2000-01-01T08:39:32.000Z</time>
      </trkpt>
      <trkpt lat="45.40879" lon="5.91171">
        <ele>1560</ele>
        <time>2000-01-01T08:39:42.000Z</time>
      </trkpt>
      <trkpt lat="45.40884" lon="5.91174">
        <ele>1569.2</ele>
        <time>2000-01-01T08:39:52.000Z</time>
      </trkpt>
      <trkpt lat="45.40893" lon="5.91182">
        <ele>1573.8</ele>
        <time>2000-01-01T08:40:02.000Z</time>
      </trkpt>
      <trkpt lat="45.40921" lon="5.91203">
        <ele>1586</ele>
        <time>2000-01-01T08:40:12.000Z</time>
      </trkpt>
      <trkpt lat="45.40932" lon="5.91216">
        <ele>1590.1</ele>
        <time>2000-01-01T08:40:22.000Z</time>
      </trkpt>
      <trkpt lat="45.40943" lon="5.91225">
        <ele>1591</ele>
        <time>2000-01-01T08:40:32.000Z</time>
      </trkpt>
      <trkpt lat="45.40952" lon="5.91233">
        <ele>1598</ele>
        <time>2000-01-01T08:40:42.000Z</time>
      </trkpt>
      <trkpt lat="45.40956" lon="5.91235">
        <ele>1600.5</ele>
        <time>2000-01-01T08:40:52.000Z</time>
      </trkpt>
      <trkpt lat="45.40965" lon="5.91242">
        <ele>1601</ele>
        <time>2000-01-01T08:41:02.000Z</time>
      </trkpt>
      <trkpt lat="45.40968" lon="5.91241">
        <ele>1608.1</ele>
        <time>2000-01-01T08:41:12.000Z</time>
      </trkpt>
      <trkpt lat="45.4097" lon="5.9124">
        <ele>1609.8</ele>
        <time>2000-01-01T08:41:22.000Z</time>
      </trkpt>
      <trkpt lat="45.40967" lon="5.91236">
        <ele>1608.6</ele>
        <time>2000-01-01T08:41:32.000Z</time>
      </trkpt>
      <trkpt lat="45.40965" lon="5.91233">
        <ele>1607.8</ele>
        <time>2000-01-01T08:41:42.000Z</time>
      </trkpt>
      <trkpt lat="45.4097" lon="5.91225">
        <ele>1613</ele>
        <time>2000-01-01T08:41:52.000Z</time>
      </trkpt>
      <trkpt lat="45.40971" lon="5.91219">
        <ele>1616.8</ele>
        <time>2000-01-01T08:42:02.000Z</time>
      </trkpt>
      <trkpt lat="45.40975" lon="5.91217">
        <ele>1621</ele>
        <time>2000-01-01T08:42:12.000Z</time>
      </trkpt>
      <trkpt lat="45.40978" lon="5.91212">
        <ele>1625.3</ele>
        <time>2000-01-01T08:42:22.000Z</time>
      </trkpt>
      <trkpt lat="45.4098" lon="5.9121">
        <ele>1627.3</ele>
        <time>2000-01-01T08:42:32.000Z</time>
      </trkpt>
      <trkpt lat="45.4098" lon="5.91207">
        <ele>1628.3</ele>
        <time>2000-01-01T08:42:42.000Z</time>
      </trkpt>
      <trkpt lat="45.40981" lon="5.91206">
        <ele>1629.1</ele>
        <time>2000-01-01T08:42:52.000Z</time>
      </trkpt>
      <trkpt lat="45.40986" lon="5.91209">
        <ele>1628</ele>
        <time>2000-01-01T08:43:02.000Z</time>
      </trkpt>
      <trkpt lat="45.40988" lon="5.91199">
        <ele>1633.3</ele>
        <time>2000-01-01T08:43:12.000Z</time>
      </trkpt>
      <trkpt lat="45.40991" lon="5.91199">
        <ele>1634.2</ele>
        <time>2000-01-01T08:43:22.000Z</time>
      </trkpt>
      <trkpt lat="45.40993" lon="5.91196">
        <ele>1634.8</ele>
        <time>2000-01-01T08:43:32.000Z</time>
      </trkpt>
      <trkpt lat="45.40996" lon="5.91196">
        <ele>1635.4</ele>
        <time>2000-01-01T08:43:42.000Z</time>
      </trkpt>
      <trkpt lat="45.40998" lon="5.91192">
        <ele>1634</ele>
        <time>2000-01-01T08:43:52.000Z</time>
      </trkpt>
      <trkpt lat="45.41" lon="5.9119">
        <ele>1637.6</ele>
        <time>2000-01-01T08:44:02.000Z</time>
      </trkpt>
      <trkpt lat="45.41001" lon="5.91185">
        <ele>1639.8</ele>
        <time>2000-01-01T08:44:12.000Z</time>
      </trkpt>
      <trkpt lat="45.41002" lon="5.91181">
        <ele>1641.6</ele>
        <time>2000-01-01T08:44:22.000Z</time>
      </trkpt>
      <trkpt lat="45.41005" lon="5.91178">
        <ele>1643.5</ele>
        <time>2000-01-01T08:44:32.000Z</time>
      </trkpt>
      <trkpt lat="45.41008" lon="5.91172">
        <ele>1645.9</ele>
        <time>2000-01-01T08:44:42.000Z</time>
      </trkpt>
      <trkpt lat="45.41012" lon="5.91168">
        <ele>1643</ele>
        <time>2000-01-01T08:44:52.000Z</time>
      </trkpt>
      <trkpt lat="45.41013" lon="5.91165">
        <ele>1648</ele>
        <time>2000-01-01T08:45:02.000Z</time>
      </trkpt>
      <trkpt lat="45.41016" lon="5.91163">
        <ele>1648.5</ele>
        <time>2000-01-01T08:45:12.000Z</time>
      </trkpt>
      <trkpt lat="45.41018" lon="5.91161">
        <ele>1648.7</ele>
        <time>2000-01-01T08:45:22.000Z</time>
      </trkpt>
      <trkpt lat="45.4102" lon="5.91162">
        <ele>1648.9</ele>
        <time>2000-01-01T08:45:32.000Z</time>
      </trkpt>
      <trkpt lat="45.41021" lon="5.91163">
        <ele>1649.1</ele>
        <time>2000-01-01T08:45:42.000Z</time>
      </trkpt>
      <trkpt lat="45.41024" lon="5.91172">
        <ele>1649.5</ele>
        <time>2000-01-01T08:45:52.000Z</time>
      </trkpt>
      <trkpt lat="45.41027" lon="5.91183">
        <ele>1648</ele>
        <time>2000-01-01T08:46:02.000Z</time>
      </trkpt>
      <trkpt lat="45.41028" lon="5.91187">
        <ele>1651.5</ele>
        <time>2000-01-01T08:46:12.000Z</time>
      </trkpt>
      <trkpt lat="45.41031" lon="5.91192">
        <ele>1651.7</ele>
        <time>2000-01-01T08:46:22.000Z</time>
      </trkpt>
      <trkpt lat="45.41033" lon="5.91195">
        <ele>1651.9</ele>
        <time>2000-01-01T08:46:32.000Z</time>
      </trkpt>
      <trkpt lat="45.41045" lon="5.91209">
        <ele>1651</ele>
        <time>2000-01-01T08:46:42.000Z</time>
      </trkpt>
      <trkpt lat="45.41056" lon="5.91225">
        <ele>1654</ele>
        <time>2000-01-01T08:46:52.000Z</time>
      </trkpt>
      <trkpt lat="45.41063" lon="5.91255">
        <ele>1653</ele>
        <time>2000-01-01T08:47:02.000Z</time>
      </trkpt>
      <trkpt lat="45.41067" lon="5.91265">
        <ele>1655.5</ele>
        <time>2000-01-01T08:47:12.000Z</time>
      </trkpt>
      <trkpt lat="45.41076" lon="5.91278">
        <ele>1655</ele>
        <time>2000-01-01T08:47:22.000Z</time>
      </trkpt>
      <trkpt lat="45.41086" lon="5.91282">
        <ele>1655.3</ele>
        <time>2000-01-01T08:47:32.000Z</time>
      </trkpt>
      <trkpt lat="45.4109" lon="5.91281">
        <ele>1654.9</ele>
        <time>2000-01-01T08:47:42.000Z</time>
      </trkpt>
      <trkpt lat="45.41099" lon="5.91278">
        <ele>1653</ele>
        <time>2000-01-01T08:47:52.000Z</time>
      </trkpt>
      <trkpt lat="45.41105" lon="5.91278">
        <ele>1652.9</ele>
        <time>2000-01-01T08:48:02.000Z</time>
      </trkpt>
      <trkpt lat="45.41109" lon="5.91281">
        <ele>1652.3</ele>
        <time>2000-01-01T08:48:12.000Z</time>
      </trkpt>
      <trkpt lat="45.4112" lon="5.91279">
        <ele>1652</ele>
        <time>2000-01-01T08:48:22.000Z</time>
      </trkpt>
      <trkpt lat="45.41125" lon="5.9128">
        <ele>1651</ele>
        <time>2000-01-01T08:48:32.000Z</time>
      </trkpt>
      <trkpt lat="45.41128" lon="5.91283">
        <ele>1650.7</ele>
        <time>2000-01-01T08:48:42.000Z</time>
      </trkpt>
      <trkpt lat="45.41135" lon="5.91287">
        <ele>1650</ele>
        <time>2000-01-01T08:48:52.000Z</time>
      </trkpt>
      <trkpt lat="45.4114" lon="5.91291">
        <ele>1651</ele>
        <time>2000-01-01T08:49:02.000Z</time>
      </trkpt>
      <trkpt lat="45.41144" lon="5.91297">
        <ele>1649.9</ele>
        <time>2000-01-01T08:49:12.000Z</time>
      </trkpt>
      <trkpt lat="45.41148" lon="5.91304">
        <ele>1650.3</ele>
        <time>2000-01-01T08:49:22.000Z</time>
      </trkpt>
      <trkpt lat="45.41151" lon="5.91311">
        <ele>1650.8</ele>
        <time>2000-01-01T08:49:32.000Z</time>
      </trkpt>
      <trkpt lat="45.41156" lon="5.91317">
        <ele>1651</ele>
        <time>2000-01-01T08:49:42.000Z</time>
      </trkpt>
      <trkpt lat="45.41159" lon="5.91325">
        <ele>1651.6</ele>
        <time>2000-01-01T08:49:52.000Z</time>
      </trkpt>
      <trkpt lat="45.41162" lon="5.91335">
        <ele>1651.5</ele>
        <time>2000-01-01T08:50:02.000Z</time>
      </trkpt>
      <trkpt lat="45.41165" lon="5.91342">
        <ele>1651</ele>
        <time>2000-01-01T08:50:12.000Z</time>
      </trkpt>
      <trkpt lat="45.41166" lon="5.9135">
        <ele>1650.7</ele>
        <time>2000-01-01T08:50:22.000Z</time>
      </trkpt>
      <trkpt lat="45.41169" lon="5.91355">
        <ele>1650.9</ele>
        <time>2000-01-01T08:50:32.000Z</time>
      </trkpt>
      <trkpt lat="45.41175" lon="5.91361">
        <ele>1651.5</ele>
        <time>2000-01-01T08:50:42.000Z</time>
      </trkpt>
      <trkpt lat="45.41184" lon="5.91362">
        <ele>1652</ele>
        <time>2000-01-01T08:50:52.000Z</time>
      </trkpt>
      <trkpt lat="45.41192" lon="5.9136">
        <ele>1654.7</ele>
        <time>2000-01-01T08:51:02.000Z</time>
      </trkpt>
      <trkpt lat="45.41199" lon="5.91361">
        <ele>1655.3</ele>
        <time>2000-01-01T08:51:12.000Z</time>
      </trkpt>
      <trkpt lat="45.41203" lon="5.91367">
        <ele>1655</ele>
        <time>2000-01-01T08:51:22.000Z</time>
      </trkpt>
      <trkpt lat="45.4121" lon="5.91371">
        <ele>1657.5</ele>
        <time>2000-01-01T08:51:32.000Z</time>
      </trkpt>
      <trkpt lat="45.4122" lon="5.91373">
        <ele>1658.6</ele>
        <time>2000-01-01T08:51:42.000Z</time>
      </trkpt>
      <trkpt lat="45.4123" lon="5.91372">
        <ele>1655</ele>
        <time>2000-01-01T08:51:52.000Z</time>
      </trkpt>
      <trkpt lat="45.41239" lon="5.91369">
        <ele>1657.2</ele>
        <time>2000-01-01T08:52:02.000Z</time>
      </trkpt>
      <trkpt lat="45.4125" lon="5.91365">
        <ele>1655</ele>
        <time>2000-01-01T08:52:12.000Z</time>
      </trkpt>
      <trkpt lat="45.41259" lon="5.91364">
        <ele>1656.6</ele>
        <time>2000-01-01T08:52:22.000Z</time>
      </trkpt>
      <trkpt lat="45.41265" lon="5.91372">
        <ele>1657.7</ele>
        <time>2000-01-01T08:52:32.000Z</time>
      </trkpt>
      <trkpt lat="45.41271" lon="5.91376">
        <ele>1658</ele>
        <time>2000-01-01T08:52:42.000Z</time>
      </trkpt>
      <trkpt lat="45.41284" lon="5.91383">
        <ele>1660.2</ele>
        <time>2000-01-01T08:52:52.000Z</time>
      </trkpt>
      <trkpt lat="45.41293" lon="5.91384">
        <ele>1657</ele>
        <time>2000-01-01T08:53:02.000Z</time>
      </trkpt>
      <trkpt lat="45.41308" lon="5.9138">
        <ele>1660</ele>
        <time>2000-01-01T08:53:12.000Z</time>
      </trkpt>
      <trkpt lat="45.41324" lon="5.91368">
        <ele>1657</ele>
        <time>2000-01-01T08:53:22.000Z</time>
      </trkpt>
      <trkpt lat="45.41339" lon="5.91354">
        <ele>1659.1</ele>
        <time>2000-01-01T08:53:32.000Z</time>
      </trkpt>
      <trkpt lat="45.41346" lon="5.91351">
        <ele>1657</ele>
        <time>2000-01-01T08:53:42.000Z</time>
      </trkpt>
      <trkpt lat="45.41354" lon="5.91349">
        <ele>1657.4</ele>
        <time>2000-01-01T08:53:52.000Z</time>
      </trkpt>
      <trkpt lat="45.41363" lon="5.91356">
        <ele>1657.7</ele>
        <time>2000-01-01T08:54:02.000Z</time>
      </trkpt>
      <trkpt lat="45.41371" lon="5.91365">
        <ele>1658</ele>
        <time>2000-01-01T08:54:12.000Z</time>
      </trkpt>
      <trkpt lat="45.41379" lon="5.91374">
        <ele>1659.7</ele>
        <time>2000-01-01T08:54:22.000Z</time>
      </trkpt>
      <trkpt lat="45.41387" lon="5.91384">
        <ele>1660</ele>
        <time>2000-01-01T08:54:32.000Z</time>
      </trkpt>
      <trkpt lat="45.41397" lon="5.91389">
        <ele>1660.7</ele>
        <time>2000-01-01T08:54:42.000Z</time>
      </trkpt>
      <trkpt lat="45.41402" lon="5.91389">
        <ele>1660.5</ele>
        <time>2000-01-01T08:54:52.000Z</time>
      </trkpt>
      <trkpt lat="45.4141" lon="5.91392">
        <ele>1660</ele>
        <time>2000-01-01T08:55:02.000Z</time>
      </trkpt>
      <trkpt lat="45.41431" lon="5.91421">
        <ele>1661</ele>
        <time>2000-01-01T08:55:12.000Z</time>
      </trkpt>
      <trkpt lat="45.41451" lon="5.9144">
        <ele>1661</ele>
        <time>2000-01-01T08:55:22.000Z</time>
      </trkpt>
      <trkpt lat="45.41475" lon="5.91463">
        <ele>1663</ele>
        <time>2000-01-01T08:55:32.000Z</time>
      </trkpt>
      <trkpt lat="45.41497" lon="5.91451">
        <ele>1668</ele>
        <time>2000-01-01T08:55:42.000Z</time>
      </trkpt>
      <trkpt lat="45.41515" lon="5.91458">
        <ele>1670</ele>
        <time>2000-01-01T08:55:52.000Z</time>
      </trkpt>
      <trkpt lat="45.41526" lon="5.9146">
        <ele>1671.5</ele>
        <time>2000-01-01T08:56:02.000Z</time>
      </trkpt>
      <trkpt lat="45.41537" lon="5.9146">
        <ele>1670</ele>
        <time>2000-01-01T08:56:12.000Z</time>
      </trkpt>
      <trkpt lat="45.41548" lon="5.91458">
        <ele>1672.2</ele>
        <time>2000-01-01T08:56:22.000Z</time>
      </trkpt>
      <trkpt lat="45.41556" lon="5.91458">
        <ele>1672</ele>
        <time>2000-01-01T08:56:32.000Z</time>
      </trkpt>
      <trkpt lat="45.41571" lon="5.91455">
        <ele>1672.7</ele>
        <time>2000-01-01T08:56:42.000Z</time>
      </trkpt>
      <trkpt lat="45.4158" lon="5.91456">
        <ele>1673</ele>
        <time>2000-01-01T08:56:52.000Z</time>
      </trkpt>
      <trkpt lat="45.41593" lon="5.91457">
        <ele>1673.6</ele>
        <time>2000-01-01T08:57:02.000Z</time>
      </trkpt>
      <trkpt lat="45.41617" lon="5.9146">
        <ele>1673</ele>
        <time>2000-01-01T08:57:12.000Z</time>
      </trkpt>
      <trkpt lat="45.4165" lon="5.91468">
        <ele>1673</ele>
        <time>2000-01-01T08:57:22.000Z</time>
      </trkpt>
      <trkpt lat="45.4167" lon="5.91474">
        <ele>1672</ele>
        <time>2000-01-01T08:57:32.000Z</time>
      </trkpt>
      <trkpt lat="45.41688" lon="5.91476">
        <ele>1669.4</ele>
        <time>2000-01-01T08:57:42.000Z</time>
      </trkpt>
      <trkpt lat="45.41706" lon="5.91481">
        <ele>1668</ele>
        <time>2000-01-01T08:57:52.000Z</time>
      </trkpt>
      <trkpt lat="45.41736" lon="5.91494">
        <ele>1668</ele>
        <time>2000-01-01T08:58:02.000Z</time>
      </trkpt>
      <trkpt lat="45.41754" lon="5.91499">
        <ele>1667.2</ele>
        <time>2000-01-01T08:58:12.000Z</time>
      </trkpt>
      <trkpt lat="45.41778" lon="5.91509">
        <ele>1668</ele>
        <time>2000-01-01T08:58:22.000Z</time>
      </trkpt>
      <trkpt lat="45.41794" lon="5.91515">
        <ele>1665.8</ele>
        <time>2000-01-01T08:58:32.000Z</time>
      </trkpt>
      <trkpt lat="45.41819" lon="5.91528">
        <ele>1664</ele>
        <time>2000-01-01T08:58:42.000Z</time>
      </trkpt>
      <trkpt lat="45.41825" lon="5.91538">
        <ele>1664</ele>
        <time>2000-01-01T08:58:52.000Z</time>
      </trkpt>
      <trkpt lat="45.41846" lon="5.9156">
        <ele>1662</ele>
        <time>2000-01-01T08:59:02.000Z</time>
      </trkpt>
      <trkpt lat="45.41856" lon="5.9157">
        <ele>1662.6</ele>
        <time>2000-01-01T08:59:12.000Z</time>
      </trkpt>
      <trkpt lat="45.41869" lon="5.91577">
        <ele>1662</ele>
        <time>2000-01-01T08:59:22.000Z</time>
      </trkpt>
      <trkpt lat="45.41888" lon="5.91584">
        <ele>1660</ele>
        <time>2000-01-01T08:59:32.000Z</time>
      </trkpt>
      <trkpt lat="45.41897" lon="5.91584">
        <ele>1659.8</ele>
        <time>2000-01-01T08:59:42.000Z</time>
      </trkpt>
      <trkpt lat="45.41925" lon="5.91585">
        <ele>1658</ele>
        <time>2000-01-01T08:59:52.000Z</time>
      </trkpt>
      <trkpt lat="45.41935" lon="5.9159">
        <ele>1659.1</ele>
        <time>2000-01-01T09:00:02.000Z</time>
      </trkpt>
      <trkpt lat="45.41943" lon="5.91595">
        <ele>1658</ele>
        <time>2000-01-01T09:00:12.000Z</time>
      </trkpt>
      <trkpt lat="45.41953" lon="5.916">
        <ele>1659.6</ele>
        <time>2000-01-01T09:00:22.000Z</time>
      </trkpt>
      <trkpt lat="45.41975" lon="5.91605">
        <ele>1657</ele>
        <time>2000-01-01T09:00:32.000Z</time>
      </trkpt>
      <trkpt lat="45.41992" lon="5.9161">
        <ele>1658.3</ele>
        <time>2000-01-01T09:00:42.000Z</time>
      </trkpt>
      <trkpt lat="45.42013" lon="5.91614">
        <ele>1657</ele>
        <time>2000-01-01T09:00:52.000Z</time>
      </trkpt>
      <trkpt lat="45.42018" lon="5.9162">
        <ele>1658.5</ele>
        <time>2000-01-01T09:01:02.000Z</time>
      </trkpt>
      <trkpt lat="45.42026" lon="5.91624">
        <ele>1658.5</ele>
        <time>2000-01-01T09:01:12.000Z</time>
      </trkpt>
      <trkpt lat="45.42034" lon="5.91624">
        <ele>1657</ele>
        <time>2000-01-01T09:01:22.000Z</time>
      </trkpt>
      <trkpt lat="45.42062" lon="5.9163">
        <ele>1657</ele>
        <time>2000-01-01T09:01:32.000Z</time>
      </trkpt>
      <trkpt lat="45.42071" lon="5.91631">
        <ele>1656.8</ele>
        <time>2000-01-01T09:01:42.000Z</time>
      </trkpt>
      <trkpt lat="45.42103" lon="5.91625">
        <ele>1656</ele>
        <time>2000-01-01T09:01:52.000Z</time>
      </trkpt>
      <trkpt lat="45.42111" lon="5.91625">
        <ele>1655.5</ele>
        <time>2000-01-01T09:02:02.000Z</time>
      </trkpt>
      <trkpt lat="45.42119" lon="5.91629">
        <ele>1654.8</ele>
        <time>2000-01-01T09:02:12.000Z</time>
      </trkpt>
      <trkpt lat="45.42127" lon="5.91634">
        <ele>1654</ele>
        <time>2000-01-01T09:02:22.000Z</time>
      </trkpt>
      <trkpt lat="45.42145" lon="5.91639">
        <ele>1653</ele>
        <time>2000-01-01T09:02:32.000Z</time>
      </trkpt>
      <trkpt lat="45.42154" lon="5.91644">
        <ele>1652.4</ele>
        <time>2000-01-01T09:02:42.000Z</time>
      </trkpt>
      <trkpt lat="45.42172" lon="5.91658">
        <ele>1651</ele>
        <time>2000-01-01T09:02:52.000Z</time>
      </trkpt>
      <trkpt lat="45.42179" lon="5.91666">
        <ele>1651.1</ele>
        <time>2000-01-01T09:03:02.000Z</time>
      </trkpt>
      <trkpt lat="45.42186" lon="5.91672">
        <ele>1650.6</ele>
        <time>2000-01-01T09:03:12.000Z</time>
      </trkpt>
      <trkpt lat="45.42204" lon="5.91694">
        <ele>1649</ele>
        <time>2000-01-01T09:03:22.000Z</time>
      </trkpt>
      <trkpt lat="45.42214" lon="5.91704">
        <ele>1648.5</ele>
        <time>2000-01-01T09:03:32.000Z</time>
      </trkpt>
      <trkpt lat="45.42232" lon="5.91716">
        <ele>1646</ele>
        <time>2000-01-01T09:03:42.000Z</time>
      </trkpt>
      <trkpt lat="45.4225" lon="5.91726">
        <ele>1644.9</ele>
        <time>2000-01-01T09:03:52.000Z</time>
      </trkpt>
      <trkpt lat="45.42288" lon="5.91738">
        <ele>1644</ele>
        <time>2000-01-01T09:04:02.000Z</time>
      </trkpt>
      <trkpt lat="45.42318" lon="5.91747">
        <ele>1644</ele>
        <time>2000-01-01T09:04:12.000Z</time>
      </trkpt>
      <trkpt lat="45.42331" lon="5.9175">
        <ele>1642.1</ele>
        <time>2000-01-01T09:04:22.000Z</time>
      </trkpt>
      <trkpt lat="45.42371" lon="5.91766">
        <ele>1644</ele>
        <time>2000-01-01T09:04:32.000Z</time>
      </trkpt>
      <trkpt lat="45.42386" lon="5.91778">
        <ele>1642.9</ele>
        <time>2000-01-01T09:04:42.000Z</time>
      </trkpt>
      <trkpt lat="45.42404" lon="5.9179">
        <ele>1642</ele>
        <time>2000-01-01T09:04:52.000Z</time>
      </trkpt>
      <trkpt lat="45.42417" lon="5.91798">
        <ele>1641.3</ele>
        <time>2000-01-01T09:05:02.000Z</time>
      </trkpt>
      <trkpt lat="45.4243" lon="5.91804">
        <ele>1640</ele>
        <time>2000-01-01T09:05:12.000Z</time>
      </trkpt>
      <trkpt lat="45.42445" lon="5.9181">
        <ele>1639.2</ele>
        <time>2000-01-01T09:05:22.000Z</time>
      </trkpt>
      <trkpt lat="45.42454" lon="5.91819">
        <ele>1639</ele>
        <time>2000-01-01T09:05:32.000Z</time>
      </trkpt>
      <trkpt lat="45.42464" lon="5.91821">
        <ele>1637.1</ele>
        <time>2000-01-01T09:05:42.000Z</time>
      </trkpt>
      <trkpt lat="45.42471" lon="5.91828">
        <ele>1634.8</ele>
        <time>2000-01-01T09:05:52.000Z</time>
      </trkpt>
      <trkpt lat="45.42495" lon="5.91861">
        <ele>1628</ele>
        <time>2000-01-01T09:06:02.000Z</time>
      </trkpt>
      <trkpt lat="45.42518" lon="5.9189">
        <ele>1627</ele>
        <time>2000-01-01T09:06:12.000Z</time>
      </trkpt>
      <trkpt lat="45.42536" lon="5.91911">
        <ele>1619</ele>
        <time>2000-01-01T09:06:22.000Z</time>
      </trkpt>
      <trkpt lat="45.42562" lon="5.91943">
        <ele>1614</ele>
        <time>2000-01-01T09:06:32.000Z</time>
      </trkpt>
      <trkpt lat="45.42587" lon="5.91977">
        <ele>1607</ele>
        <time>2000-01-01T09:06:42.000Z</time>
      </trkpt>
      <trkpt lat="45.42596" lon="5.91987">
        <ele>1607.1</ele>
        <time>2000-01-01T09:06:52.000Z</time>
      </trkpt>
      <trkpt lat="45.4262" lon="5.92007">
        <ele>1603</ele>
        <time>2000-01-01T09:07:02.000Z</time>
      </trkpt>
      <trkpt lat="45.42632" lon="5.92016">
        <ele>1603.7</ele>
        <time>2000-01-01T09:07:12.000Z</time>
      </trkpt>
      <trkpt lat="45.42644" lon="5.92023">
        <ele>1602</ele>
        <time>2000-01-01T09:07:22.000Z</time>
      </trkpt>
      <trkpt lat="45.42655" lon="5.92027">
        <ele>1602</ele>
        <time>2000-01-01T09:07:32.000Z</time>
      </trkpt>
      <trkpt lat="45.42668" lon="5.92032">
        <ele>1601</ele>
        <time>2000-01-01T09:07:42.000Z</time>
      </trkpt>
      <trkpt lat="45.42684" lon="5.92036">
        <ele>1599.6</ele>
        <time>2000-01-01T09:07:52.000Z</time>
      </trkpt>
      <trkpt lat="45.42695" lon="5.92037">
        <ele>1599</ele>
        <time>2000-01-01T09:08:02.000Z</time>
      </trkpt>
      <trkpt lat="45.42704" lon="5.92033">
        <ele>1599.6</ele>
        <time>2000-01-01T09:08:12.000Z</time>
      </trkpt>
      <trkpt lat="45.42712" lon="5.92035">
        <ele>1600.1</ele>
        <time>2000-01-01T09:08:22.000Z</time>
      </trkpt>
      <trkpt lat="45.42729" lon="5.92047">
        <ele>1599</ele>
        <time>2000-01-01T09:08:32.000Z</time>
      </trkpt>
      <trkpt lat="45.42738" lon="5.92052">
        <ele>1598.8</ele>
        <time>2000-01-01T09:08:42.000Z</time>
      </trkpt>
      <trkpt lat="45.42749" lon="5.92055">
        <ele>1599</ele>
        <time>2000-01-01T09:08:52.000Z</time>
      </trkpt>
      <trkpt lat="45.42781" lon="5.92058">
        <ele>1597</ele>
        <time>2000-01-01T09:09:02.000Z</time>
      </trkpt>
      <trkpt lat="45.42798" lon="5.92061">
        <ele>1597.9</ele>
        <time>2000-01-01T09:09:12.000Z</time>
      </trkpt>
      <trkpt lat="45.42818" lon="5.92076">
        <ele>1601</ele>
        <time>2000-01-01T09:09:22.000Z</time>
      </trkpt>
      <trkpt lat="45.42826" lon="5.92078">
        <ele>1600.5</ele>
        <time>2000-01-01T09:09:32.000Z</time>
      </trkpt>
      <trkpt lat="45.42846" lon="5.92079">
        <ele>1602</ele>
        <time>2000-01-01T09:09:42.000Z</time>
      </trkpt>
      <trkpt lat="45.42873" lon="5.92081">
        <ele>1598</ele>
        <time>2000-01-01T09:09:52.000Z</time>
      </trkpt>
      <trkpt lat="45.42878" lon="5.92081">
        <ele>1599.1</ele>
        <time>2000-01-01T09:10:02.000Z</time>
      </trkpt>
      <trkpt lat="45.42888" lon="5.92086">
        <ele>1595.8</ele>
        <time>2000-01-01T09:10:12.000Z</time>
      </trkpt>
      <trkpt lat="45.42897" lon="5.92092">
        <ele>1596</ele>
        <time>2000-01-01T09:10:22.000Z</time>
      </trkpt>
      <trkpt lat="45.42902" lon="5.92103">
        <ele>1594.4</ele>
        <time>2000-01-01T09:10:32.000Z</time>
      </trkpt>
      <trkpt lat="45.42906" lon="5.92114">
        <ele>1594.2</ele>
        <time>2000-01-01T09:10:42.000Z</time>
      </trkpt>
      <trkpt lat="45.42909" lon="5.92123">
        <ele>1595</ele>
        <time>2000-01-01T09:10:52.000Z</time>
      </trkpt>
      <trkpt lat="45.42924" lon="5.92145">
        <ele>1591</ele>
        <time>2000-01-01T09:11:02.000Z</time>
      </trkpt>
      <trkpt lat="45.42932" lon="5.92148">
        <ele>1593.6</ele>
        <time>2000-01-01T09:11:12.000Z</time>
      </trkpt>
      <trkpt lat="45.42962" lon="5.92152">
        <ele>1591</ele>
        <time>2000-01-01T09:11:22.000Z</time>
      </trkpt>
      <trkpt lat="45.4297" lon="5.92155">
        <ele>1592.5</ele>
        <time>2000-01-01T09:11:32.000Z</time>
      </trkpt>
      <trkpt lat="45.42988" lon="5.92163">
        <ele>1590</ele>
        <time>2000-01-01T09:11:42.000Z</time>
      </trkpt>
      <trkpt lat="45.4302" lon="5.92173">
        <ele>1584</ele>
        <time>2000-01-01T09:11:52.000Z</time>
      </trkpt>
      <trkpt lat="45.43036" lon="5.92182">
        <ele>1586.3</ele>
        <time>2000-01-01T09:12:02.000Z</time>
      </trkpt>
      <trkpt lat="45.43057" lon="5.92188">
        <ele>1582</ele>
        <time>2000-01-01T09:12:12.000Z</time>
      </trkpt>
      <trkpt lat="45.43082" lon="5.92195">
        <ele>1578</ele>
        <time>2000-01-01T09:12:22.000Z</time>
      </trkpt>
      <trkpt lat="45.43109" lon="5.92202">
        <ele>1577</ele>
        <time>2000-01-01T09:12:32.000Z</time>
      </trkpt>
      <trkpt lat="45.43127" lon="5.92207">
        <ele>1577.1</ele>
        <time>2000-01-01T09:12:42.000Z</time>
      </trkpt>
      <trkpt lat="45.43141" lon="5.92209">
        <ele>1572</ele>
        <time>2000-01-01T09:12:52.000Z</time>
      </trkpt>
      <trkpt lat="45.43159" lon="5.92209">
        <ele>1574.8</ele>
        <time>2000-01-01T09:13:02.000Z</time>
      </trkpt>
      <trkpt lat="45.43175" lon="5.92208">
        <ele>1570</ele>
        <time>2000-01-01T09:13:12.000Z</time>
      </trkpt>
      <trkpt lat="45.43187" lon="5.92205">
        <ele>1572.5</ele>
        <time>2000-01-01T09:13:22.000Z</time>
      </trkpt>
      <trkpt lat="45.43199" lon="5.92197">
        <ele>1568</ele>
        <time>2000-01-01T09:13:32.000Z</time>
      </trkpt>
      <trkpt lat="45.43212" lon="5.92184">
        <ele>1568.5</ele>
        <time>2000-01-01T09:13:42.000Z</time>
      </trkpt>
      <trkpt lat="45.43225" lon="5.92169">
        <ele>1568</ele>
        <time>2000-01-01T09:13:52.000Z</time>
      </trkpt>
      <trkpt lat="45.43237" lon="5.92142">
        <ele>1568</ele>
        <time>2000-01-01T09:14:02.000Z</time>
      </trkpt>
      <trkpt lat="45.43253" lon="5.92111">
        <ele>1570</ele>
        <time>2000-01-01T09:14:12.000Z</time>
      </trkpt>
      <trkpt lat="45.43254" lon="5.92108">
        <ele>1570.2</ele>
        <time>2000-01-01T09:14:22.000Z</time>
      </trkpt>
      <trkpt lat="45.43255" lon="5.92105">
        <ele>1570.5</ele>
        <time>2000-01-01T09:14:32.000Z</time>
      </trkpt>
      <trkpt lat="45.43266" lon="5.92092">
        <ele>1570</ele>
        <time>2000-01-01T09:14:42.000Z</time>
      </trkpt>
      <trkpt lat="45.43278" lon="5.92088">
        <ele>1571.3</ele>
        <time>2000-01-01T09:14:52.000Z</time>
      </trkpt>
      <trkpt lat="45.43283" lon="5.9209">
        <ele>1570.6</ele>
        <time>2000-01-01T09:15:02.000Z</time>
      </trkpt>
      <trkpt lat="45.43295" lon="5.92095">
        <ele>1570</ele>
        <time>2000-01-01T09:15:12.000Z</time>
      </trkpt>
      <trkpt lat="45.43306" lon="5.92102">
        <ele>1566.6</ele>
        <time>2000-01-01T09:15:22.000Z</time>
      </trkpt>
      <trkpt lat="45.43319" lon="5.92116">
        <ele>1568</ele>
        <time>2000-01-01T09:15:32.000Z</time>
      </trkpt>
      <trkpt lat="45.43333" lon="5.92139">
        <ele>1567</ele>
        <time>2000-01-01T09:15:42.000Z</time>
      </trkpt>
      <trkpt lat="45.43344" lon="5.92177">
        <ele>1567</ele>
        <time>2000-01-01T09:15:52.000Z</time>
      </trkpt>
      <trkpt lat="45.43368" lon="5.92218">
        <ele>1564</ele>
        <time>2000-01-01T09:16:02.000Z</time>
      </trkpt>
      <trkpt lat="45.43377" lon="5.92234">
        <ele>1562.7</ele>
        <time>2000-01-01T09:16:12.000Z</time>
      </trkpt>
      <trkpt lat="45.43387" lon="5.92256">
        <ele>1562</ele>
        <time>2000-01-01T09:16:22.000Z</time>
      </trkpt>
      <trkpt lat="45.43407" lon="5.92273">
        <ele>1556</ele>
        <time>2000-01-01T09:16:32.000Z</time>
      </trkpt>
      <trkpt lat="45.43421" lon="5.92276">
        <ele>1555</ele>
        <time>2000-01-01T09:16:42.000Z</time>
      </trkpt>
      <trkpt lat="45.43433" lon="5.92281">
        <ele>1554</ele>
        <time>2000-01-01T09:16:52.000Z</time>
      </trkpt>
      <trkpt lat="45.4345" lon="5.92288">
        <ele>1552.7</ele>
        <time>2000-01-01T09:17:02.000Z</time>
      </trkpt>
      <trkpt lat="45.43462" lon="5.92285">
        <ele>1552</ele>
        <time>2000-01-01T09:17:12.000Z</time>
      </trkpt>
      <trkpt lat="45.4347" lon="5.92281">
        <ele>1551</ele>
        <time>2000-01-01T09:17:22.000Z</time>
      </trkpt>
      <trkpt lat="45.43477" lon="5.9227">
        <ele>1550.3</ele>
        <time>2000-01-01T09:17:32.000Z</time>
      </trkpt>
      <trkpt lat="45.4348" lon="5.92265">
        <ele>1550</ele>
        <time>2000-01-01T09:17:42.000Z</time>
      </trkpt>
      <trkpt lat="45.43487" lon="5.92255">
        <ele>1548</ele>
        <time>2000-01-01T09:17:52.000Z</time>
      </trkpt>
      <trkpt lat="45.43507" lon="5.92215">
        <ele>1545</ele>
        <time>2000-01-01T09:18:02.000Z</time>
      </trkpt>
      <trkpt lat="45.43515" lon="5.92201">
        <ele>1544.3</ele>
        <time>2000-01-01T09:18:12.000Z</time>
      </trkpt>
      <trkpt lat="45.43519" lon="5.92195">
        <ele>1543.9</ele>
        <time>2000-01-01T09:18:22.000Z</time>
      </trkpt>
      <trkpt lat="45.43523" lon="5.9219">
        <ele>1547</ele>
        <time>2000-01-01T09:18:32.000Z</time>
      </trkpt>
      <trkpt lat="45.43562" lon="5.92156">
        <ele>1545</ele>
        <time>2000-01-01T09:18:42.000Z</time>
      </trkpt>
      <trkpt lat="45.43572" lon="5.92153">
        <ele>1546.4</ele>
        <time>2000-01-01T09:18:52.000Z</time>
      </trkpt>
      <trkpt lat="45.43581" lon="5.92152">
        <ele>1544</ele>
        <time>2000-01-01T09:19:02.000Z</time>
      </trkpt>
      <trkpt lat="45.43592" lon="5.92152">
        <ele>1543.9</ele>
        <time>2000-01-01T09:19:12.000Z</time>
      </trkpt>
      <trkpt lat="45.43623" lon="5.92153">
        <ele>1543</ele>
        <time>2000-01-01T09:19:22.000Z</time>
      </trkpt>
      <trkpt lat="45.43632" lon="5.92156">
        <ele>1542.5</ele>
        <time>2000-01-01T09:19:32.000Z</time>
      </trkpt>
      <trkpt lat="45.43641" lon="5.9216">
        <ele>1541.7</ele>
        <time>2000-01-01T09:19:42.000Z</time>
      </trkpt>
      <trkpt lat="45.43654" lon="5.92172">
        <ele>1541</ele>
        <time>2000-01-01T09:19:52.000Z</time>
      </trkpt>
      <trkpt lat="45.4367" lon="5.92195">
        <ele>1539</ele>
        <time>2000-01-01T09:20:02.000Z</time>
      </trkpt>
      <trkpt lat="45.43683" lon="5.9221">
        <ele>1538.6</ele>
        <time>2000-01-01T09:20:12.000Z</time>
      </trkpt>
      <trkpt lat="45.43692" lon="5.92222">
        <ele>1537</ele>
        <time>2000-01-01T09:20:22.000Z</time>
      </trkpt>
      <trkpt lat="45.437" lon="5.92228">
        <ele>1535.1</ele>
        <time>2000-01-01T09:20:32.000Z</time>
      </trkpt>
      <trkpt lat="45.4371" lon="5.92234">
        <ele>1534</ele>
        <time>2000-01-01T09:20:42.000Z</time>
      </trkpt>
      <trkpt lat="45.43713" lon="5.92235">
        <ele>1532.3</ele>
        <time>2000-01-01T09:20:52.000Z</time>
      </trkpt>
      <trkpt lat="45.43722" lon="5.92237">
        <ele>1531</ele>
        <time>2000-01-01T09:21:02.000Z</time>
      </trkpt>
      <trkpt lat="45.43733" lon="5.92237">
        <ele>1530</ele>
        <time>2000-01-01T09:21:12.000Z</time>
      </trkpt>
      <trkpt lat="45.43737" lon="5.92236">
        <ele>1531.8</ele>
        <time>2000-01-01T09:21:22.000Z</time>
      </trkpt>
      <trkpt lat="45.43742" lon="5.92235">
        <ele>1531.9</ele>
        <time>2000-01-01T09:21:32.000Z</time>
      </trkpt>
      <trkpt lat="45.43751" lon="5.92231">
        <ele>1531.7</ele>
        <time>2000-01-01T09:21:42.000Z</time>
      </trkpt>
      <trkpt lat="45.43763" lon="5.9222">
        <ele>1530</ele>
        <time>2000-01-01T09:21:52.000Z</time>
      </trkpt>
      <trkpt lat="45.43766" lon="5.92205">
        <ele>1531.1</ele>
        <time>2000-01-01T09:22:02.000Z</time>
      </trkpt>
      <trkpt lat="45.43769" lon="5.9217">
        <ele>1529</ele>
        <time>2000-01-01T09:22:12.000Z</time>
      </trkpt>
      <trkpt lat="45.43773" lon="5.92158">
        <ele>1529.4</ele>
        <time>2000-01-01T09:22:22.000Z</time>
      </trkpt>
      <trkpt lat="45.43782" lon="5.92149">
        <ele>1529</ele>
        <time>2000-01-01T09:22:32.000Z</time>
      </trkpt>
      <trkpt lat="45.43791" lon="5.92141">
        <ele>1528.2</ele>
        <time>2000-01-01T09:22:42.000Z</time>
      </trkpt>
      <trkpt lat="45.438" lon="5.92137">
        <ele>1529</ele>
        <time>2000-01-01T09:22:52.000Z</time>
      </trkpt>
      <trkpt lat="45.4381" lon="5.92139">
        <ele>1526.5</ele>
        <time>2000-01-01T09:23:02.000Z</time>
      </trkpt>
      <trkpt lat="45.43815" lon="5.92141">
        <ele>1526.1</ele>
        <time>2000-01-01T09:23:12.000Z</time>
      </trkpt>
      <trkpt lat="45.43819" lon="5.92143">
        <ele>1526</ele>
        <time>2000-01-01T09:23:22.000Z</time>
      </trkpt>
      <trkpt lat="45.43825" lon="5.92148">
        <ele>1524.8</ele>
        <time>2000-01-01T09:23:32.000Z</time>
      </trkpt>
      <trkpt lat="45.43834" lon="5.92158">
        <ele>1522.5</ele>
        <time>2000-01-01T09:23:42.000Z</time>
      </trkpt>
      <trkpt lat="45.4384" lon="5.92163">
        <ele>1519</ele>
        <time>2000-01-01T09:23:52.000Z</time>
      </trkpt>
      <trkpt lat="45.43852" lon="5.92174">
        <ele>1519.2</ele>
        <time>2000-01-01T09:24:02.000Z</time>
      </trkpt>
      <trkpt lat="45.43858" lon="5.92178">
        <ele>1517</ele>
        <time>2000-01-01T09:24:12.000Z</time>
      </trkpt>
      <trkpt lat="45.43865" lon="5.9218">
        <ele>1515.1</ele>
        <time>2000-01-01T09:24:22.000Z</time>
      </trkpt>
      <trkpt lat="45.43876" lon="5.92186">
        <ele>1509.9</ele>
        <time>2000-01-01T09:24:32.000Z</time>
      </trkpt>
      <trkpt lat="45.4388" lon="5.9219">
        <ele>1515</ele>
        <time>2000-01-01T09:24:42.000Z</time>
      </trkpt>
      <trkpt lat="45.43884" lon="5.92202">
        <ele>1507.4</ele>
        <time>2000-01-01T09:24:52.000Z</time>
      </trkpt>
      <trkpt lat="45.43888" lon="5.92215">
        <ele>1514</ele>
        <time>2000-01-01T09:25:02.000Z</time>
      </trkpt>
      <trkpt lat="45.43889" lon="5.92216">
        <ele>1507.1</ele>
        <time>2000-01-01T09:25:12.000Z</time>
      </trkpt>
      <trkpt lat="45.43892" lon="5.9222">
        <ele>1506.2</ele>
        <time>2000-01-01T09:25:22.000Z</time>
      </trkpt>
      <trkpt lat="45.43905" lon="5.92225">
        <ele>1501.5</ele>
        <time>2000-01-01T09:25:32.000Z</time>
      </trkpt>
      <trkpt lat="45.43919" lon="5.92225">
        <ele>1498</ele>
        <time>2000-01-01T09:25:42.000Z</time>
      </trkpt>
      <trkpt lat="45.43934" lon="5.92224">
        <ele>1492.9</ele>
        <time>2000-01-01T09:25:52.000Z</time>
      </trkpt>
      <trkpt lat="45.43938" lon="5.9222">
        <ele>1491</ele>
        <time>2000-01-01T09:26:02.000Z</time>
      </trkpt>
      <trkpt lat="45.43942" lon="5.92213">
        <ele>1490.9</ele>
        <time>2000-01-01T09:26:12.000Z</time>
      </trkpt>
      <trkpt lat="45.43956" lon="5.92189">
        <ele>1491</ele>
        <time>2000-01-01T09:26:22.000Z</time>
      </trkpt>
      <trkpt lat="45.43968" lon="5.92174">
        <ele>1492</ele>
        <time>2000-01-01T09:26:32.000Z</time>
      </trkpt>
      <trkpt lat="45.43978" lon="5.92164">
        <ele>1491</ele>
        <time>2000-01-01T09:26:42.000Z</time>
      </trkpt>
      <trkpt lat="45.43982" lon="5.92161">
        <ele>1492.6</ele>
        <time>2000-01-01T09:26:52.000Z</time>
      </trkpt>
      <trkpt lat="45.43984" lon="5.92162">
        <ele>1492.8</ele>
        <time>2000-01-01T09:27:02.000Z</time>
      </trkpt>
      <trkpt lat="45.43988" lon="5.92163">
        <ele>1493.1</ele>
        <time>2000-01-01T09:27:12.000Z</time>
      </trkpt>
      <trkpt lat="45.44022" lon="5.92184">
        <ele>1495</ele>
        <time>2000-01-01T09:27:22.000Z</time>
      </trkpt>
      <trkpt lat="45.44029" lon="5.92187">
        <ele>1499.1</ele>
        <time>2000-01-01T09:27:32.000Z</time>
      </trkpt>
      <trkpt lat="45.44034" lon="5.92191">
        <ele>1499.6</ele>
        <time>2000-01-01T09:27:42.000Z</time>
      </trkpt>
      <trkpt lat="45.44039" lon="5.92194">
        <ele>1500.1</ele>
        <time>2000-01-01T09:27:52.000Z</time>
      </trkpt>
      <trkpt lat="45.44052" lon="5.92193">
        <ele>1502</ele>
        <time>2000-01-01T09:28:02.000Z</time>
      </trkpt>
      <trkpt lat="45.44055" lon="5.92192">
        <ele>1503.5</ele>
        <time>2000-01-01T09:28:12.000Z</time>
      </trkpt>
      <trkpt lat="45.44064" lon="5.92157">
        <ele>1512</ele>
        <time>2000-01-01T09:28:22.000Z</time>
      </trkpt>
      <trkpt lat="45.44071" lon="5.92136">
        <ele>1516.5</ele>
        <time>2000-01-01T09:28:32.000Z</time>
      </trkpt>
      <trkpt lat="45.44077" lon="5.92112">
        <ele>1517</ele>
        <time>2000-01-01T09:28:42.000Z</time>
      </trkpt>
      <trkpt lat="45.44087" lon="5.92085">
        <ele>1519</ele>
        <time>2000-01-01T09:28:52.000Z</time>
      </trkpt>
      <trkpt lat="45.441" lon="5.9206">
        <ele>1522</ele>
        <time>2000-01-01T09:29:02.000Z</time>
      </trkpt>
      <trkpt lat="45.44105" lon="5.92052">
        <ele>1522.4</ele>
        <time>2000-01-01T09:29:12.000Z</time>
      </trkpt>
      <trkpt lat="45.44123" lon="5.92024">
        <ele>1523</ele>
        <time>2000-01-01T09:29:22.000Z</time>
      </trkpt>
      <trkpt lat="45.4413" lon="5.92014">
        <ele>1524.7</ele>
        <time>2000-01-01T09:29:32.000Z</time>
      </trkpt>
      <trkpt lat="45.44141" lon="5.9199">
        <ele>1524</ele>
        <time>2000-01-01T09:29:42.000Z</time>
      </trkpt>
      <trkpt lat="45.44146" lon="5.91977">
        <ele>1526.4</ele>
        <time>2000-01-01T09:29:52.000Z</time>
      </trkpt>
      <trkpt lat="45.44155" lon="5.91948">
        <ele>1526</ele>
        <time>2000-01-01T09:30:02.000Z</time>
      </trkpt>
      <trkpt lat="45.44159" lon="5.91936">
        <ele>1529.4</ele>
        <time>2000-01-01T09:30:12.000Z</time>
      </trkpt>
      <trkpt lat="45.44167" lon="5.91907">
        <ele>1532</ele>
        <time>2000-01-01T09:30:22.000Z</time>
      </trkpt>
      <trkpt lat="45.44171" lon="5.91898">
        <ele>1533</ele>
        <time>2000-01-01T09:30:32.000Z</time>
      </trkpt>
      <trkpt lat="45.44175" lon="5.9189">
        <ele>1534.2</ele>
        <time>2000-01-01T09:30:42.000Z</time>
      </trkpt>
      <trkpt lat="45.44181" lon="5.91885">
        <ele>1532</ele>
        <time>2000-01-01T09:30:52.000Z</time>
      </trkpt>
      <trkpt lat="45.44185" lon="5.91875">
        <ele>1533.2</ele>
        <time>2000-01-01T09:31:02.000Z</time>
      </trkpt>
      <trkpt lat="45.44187" lon="5.91871">
        <ele>1532.2</ele>
        <time>2000-01-01T09:31:12.000Z</time>
      </trkpt>
      <trkpt lat="45.44191" lon="5.9187">
        <ele>1531.4</ele>
        <time>2000-01-01T09:31:22.000Z</time>
      </trkpt>
      <trkpt lat="45.44195" lon="5.91867">
        <ele>1527</ele>
        <time>2000-01-01T09:31:32.000Z</time>
      </trkpt>
      <trkpt lat="45.44199" lon="5.91863">
        <ele>1527.8</ele>
        <time>2000-01-01T09:31:42.000Z</time>
      </trkpt>
      <trkpt lat="45.44201" lon="5.91862">
        <ele>1527.1</ele>
        <time>2000-01-01T09:31:52.000Z</time>
      </trkpt>
      <trkpt lat="45.44201" lon="5.91858">
        <ele>1526.2</ele>
        <time>2000-01-01T09:32:02.000Z</time>
      </trkpt>
      <trkpt lat="45.44199" lon="5.91852">
        <ele>1525.4</ele>
        <time>2000-01-01T09:32:12.000Z</time>
      </trkpt>
      <trkpt lat="45.44201" lon="5.91843">
        <ele>1520</ele>
        <time>2000-01-01T09:32:22.000Z</time>
      </trkpt>
      <trkpt lat="45.44203" lon="5.91841">
        <ele>1521.8</ele>
        <time>2000-01-01T09:32:32.000Z</time>
      </trkpt>
      <trkpt lat="45.44206" lon="5.91842">
        <ele>1520.9</ele>
        <time>2000-01-01T09:32:42.000Z</time>
      </trkpt>
      <trkpt lat="45.44211" lon="5.91842">
        <ele>1519</ele>
        <time>2000-01-01T09:32:52.000Z</time>
      </trkpt>
      <trkpt lat="45.44217" lon="5.9184">
        <ele>1516</ele>
        <time>2000-01-01T09:33:02.000Z</time>
      </trkpt>
      <trkpt lat="45.4422" lon="5.9184">
        <ele>1510</ele>
        <time>2000-01-01T09:33:12.000Z</time>
      </trkpt>
      <trkpt lat="45.4423" lon="5.91842">
        <ele>1509.2</ele>
        <time>2000-01-01T09:33:22.000Z</time>
      </trkpt>
      <trkpt lat="45.44234" lon="5.91841">
        <ele>1505.7</ele>
        <time>2000-01-01T09:33:32.000Z</time>
      </trkpt>
      <trkpt lat="45.44235" lon="5.91838">
        <ele>1503</ele>
        <time>2000-01-01T09:33:42.000Z</time>
      </trkpt>
      <trkpt lat="45.44234" lon="5.91834">
        <ele>1506</ele>
        <time>2000-01-01T09:33:52.000Z</time>
      </trkpt>
      <trkpt lat="45.44226" lon="5.91822">
        <ele>1504.9</ele>
        <time>2000-01-01T09:34:02.000Z</time>
      </trkpt>
      <trkpt lat="45.44225" lon="5.91811">
        <ele>1504</ele>
        <time>2000-01-01T09:34:12.000Z</time>
      </trkpt>
      <trkpt lat="45.44223" lon="5.91806">
        <ele>1503.4</ele>
        <time>2000-01-01T09:34:22.000Z</time>
      </trkpt>
      <trkpt lat="45.44223" lon="5.91802">
        <ele>1502.1</ele>
        <time>2000-01-01T09:34:32.000Z</time>
      </trkpt>
      <trkpt lat="45.44225" lon="5.918">
        <ele>1499.6</ele>
        <time>2000-01-01T09:34:42.000Z</time>
      </trkpt>
      <trkpt lat="45.44232" lon="5.91811">
        <ele>1498</ele>
        <time>2000-01-01T09:34:52.000Z</time>
      </trkpt>
      <trkpt lat="45.44234" lon="5.91811">
        <ele>1495.2</ele>
        <time>2000-01-01T09:35:02.000Z</time>
      </trkpt>
      <trkpt lat="45.44234" lon="5.91799">
        <ele>1491.6</ele>
        <time>2000-01-01T09:35:12.000Z</time>
      </trkpt>
      <trkpt lat="45.44232" lon="5.91792">
        <ele>1490.8</ele>
        <time>2000-01-01T09:35:22.000Z</time>
      </trkpt>
      <trkpt lat="45.4423" lon="5.91786">
        <ele>1493</ele>
        <time>2000-01-01T09:35:32.000Z</time>
      </trkpt>
      <trkpt lat="45.44229" lon="5.91781">
        <ele>1489.5</ele>
        <time>2000-01-01T09:35:42.000Z</time>
      </trkpt>
      <trkpt lat="45.44229" lon="5.91777">
        <ele>1488.1</ele>
        <time>2000-01-01T09:35:52.000Z</time>
      </trkpt>
      <trkpt lat="45.44231" lon="5.91775">
        <ele>1485.4</ele>
        <time>2000-01-01T09:36:02.000Z</time>
      </trkpt>
      <trkpt lat="45.44234" lon="5.91775">
        <ele>1482.7</ele>
        <time>2000-01-01T09:36:12.000Z</time>
      </trkpt>
      <trkpt lat="45.44238" lon="5.91777">
        <ele>1480.4</ele>
        <time>2000-01-01T09:36:22.000Z</time>
      </trkpt>
      <trkpt lat="45.44243" lon="5.91783">
        <ele>1482</ele>
        <time>2000-01-01T09:36:32.000Z</time>
      </trkpt>
      <trkpt lat="45.44246" lon="5.9179">
        <ele>1478.3</ele>
        <time>2000-01-01T09:36:42.000Z</time>
      </trkpt>
      <trkpt lat="45.44254" lon="5.91793">
        <ele>1470.6</ele>
        <time>2000-01-01T09:36:52.000Z</time>
      </trkpt>
      <trkpt lat="45.44259" lon="5.918">
        <ele>1477</ele>
        <time>2000-01-01T09:37:02.000Z</time>
      </trkpt>
      <trkpt lat="45.44263" lon="5.91807">
        <ele>1469.5</ele>
        <time>2000-01-01T09:37:12.000Z</time>
      </trkpt>
      <trkpt lat="45.44265" lon="5.9182">
        <ele>1470.1</ele>
        <time>2000-01-01T09:37:22.000Z</time>
      </trkpt>
      <trkpt lat="45.44267" lon="5.91823">
        <ele>1468.8</ele>
        <time>2000-01-01T09:37:32.000Z</time>
      </trkpt>
      <trkpt lat="45.44272" lon="5.91826">
        <ele>1465</ele>
        <time>2000-01-01T09:37:42.000Z</time>
      </trkpt>
      <trkpt lat="45.44276" lon="5.91827">
        <ele>1461</ele>
        <time>2000-01-01T09:37:52.000Z</time>
      </trkpt>
      <trkpt lat="45.44277" lon="5.9183">
        <ele>1460.4</ele>
        <time>2000-01-01T09:38:02.000Z</time>
      </trkpt>
      <trkpt lat="45.44286" lon="5.9184">
        <ele>1454.8</ele>
        <time>2000-01-01T09:38:12.000Z</time>
      </trkpt>
      <trkpt lat="45.44294" lon="5.91849">
        <ele>1447</ele>
        <time>2000-01-01T09:38:22.000Z</time>
      </trkpt>
      <trkpt lat="45.44303" lon="5.9185">
        <ele>1447.5</ele>
        <time>2000-01-01T09:38:32.000Z</time>
      </trkpt>
      <trkpt lat="45.44308" lon="5.91836">
        <ele>1433</ele>
        <time>2000-01-01T09:38:42.000Z</time>
      </trkpt>
      <trkpt lat="45.44309" lon="5.91831">
        <ele>1436.5</ele>
        <time>2000-01-01T09:38:52.000Z</time>
      </trkpt>
      <trkpt lat="45.44319" lon="5.91817">
        <ele>1432.2</ele>
        <time>2000-01-01T09:39:02.000Z</time>
      </trkpt>
      <trkpt lat="45.44329" lon="5.91772">
        <ele>1412</ele>
        <time>2000-01-01T09:39:12.000Z</time>
      </trkpt>
      <trkpt lat="45.44333" lon="5.91761">
        <ele>1414.4</ele>
        <time>2000-01-01T09:39:22.000Z</time>
      </trkpt>
      <trkpt lat="45.44338" lon="5.91757">
        <ele>1413.7</ele>
        <time>2000-01-01T09:39:32.000Z</time>
      </trkpt>
      <trkpt lat="45.44344" lon="5.91753">
        <ele>1412</ele>
        <time>2000-01-01T09:39:42.000Z</time>
      </trkpt>
      <trkpt lat="45.44343" lon="5.91748">
        <ele>1410.4</ele>
        <time>2000-01-01T09:39:52.000Z</time>
      </trkpt>
      <trkpt lat="45.44339" lon="5.91743">
        <ele>1408</ele>
        <time>2000-01-01T09:40:02.000Z</time>
      </trkpt>
      <trkpt lat="45.44334" lon="5.91742">
        <ele>1407.3</ele>
        <time>2000-01-01T09:40:12.000Z</time>
      </trkpt>
      <trkpt lat="45.44332" lon="5.9174">
        <ele>1405.8</ele>
        <time>2000-01-01T09:40:22.000Z</time>
      </trkpt>
      <trkpt lat="45.44333" lon="5.91736">
        <ele>1402</ele>
        <time>2000-01-01T09:40:32.000Z</time>
      </trkpt>
      <trkpt lat="45.44342" lon="5.91732">
        <ele>1403.1</ele>
        <time>2000-01-01T09:40:42.000Z</time>
      </trkpt>
      <trkpt lat="45.44343" lon="5.91728">
        <ele>1401.3</ele>
        <time>2000-01-01T09:40:52.000Z</time>
      </trkpt>
      <trkpt lat="45.44341" lon="5.91723">
        <ele>1398.9</ele>
        <time>2000-01-01T09:41:02.000Z</time>
      </trkpt>
      <trkpt lat="45.44337" lon="5.91716">
        <ele>1391</ele>
        <time>2000-01-01T09:41:12.000Z</time>
      </trkpt>
      <trkpt lat="45.44332" lon="5.91711">
        <ele>1391.6</ele>
        <time>2000-01-01T09:41:22.000Z</time>
      </trkpt>
      <trkpt lat="45.44327" lon="5.91706">
        <ele>1387.6</ele>
        <time>2000-01-01T09:41:32.000Z</time>
      </trkpt>
      <trkpt lat="45.44322" lon="5.91703">
        <ele>1384.8</ele>
        <time>2000-01-01T09:41:42.000Z</time>
      </trkpt>
      <trkpt lat="45.44323" lon="5.917">
        <ele>1385</ele>
        <time>2000-01-01T09:41:52.000Z</time>
      </trkpt>
      <trkpt lat="45.44331" lon="5.91697">
        <ele>1383.9</ele>
        <time>2000-01-01T09:42:02.000Z</time>
      </trkpt>
      <trkpt lat="45.44332" lon="5.91696">
        <ele>1383.5</ele>
        <time>2000-01-01T09:42:12.000Z</time>
      </trkpt>
      <trkpt lat="45.44329" lon="5.9169">
        <ele>1379.5</ele>
        <time>2000-01-01T09:42:22.000Z</time>
      </trkpt>
      <trkpt lat="45.4432" lon="5.91682">
        <ele>1375</ele>
        <time>2000-01-01T09:42:32.000Z</time>
      </trkpt>
      <trkpt lat="45.44313" lon="5.91679">
        <ele>1371.6</ele>
        <time>2000-01-01T09:42:42.000Z</time>
      </trkpt>
      <trkpt lat="45.44307" lon="5.91678">
        <ele>1370.6</ele>
        <time>2000-01-01T09:42:52.000Z</time>
      </trkpt>
      <trkpt lat="45.44306" lon="5.91675">
        <ele>1369.3</ele>
        <time>2000-01-01T09:43:02.000Z</time>
      </trkpt>
      <trkpt lat="45.44307" lon="5.91671">
        <ele>1367.8</ele>
        <time>2000-01-01T09:43:12.000Z</time>
      </trkpt>
      <trkpt lat="45.44312" lon="5.91663">
        <ele>1362</ele>
        <time>2000-01-01T09:43:22.000Z</time>
      </trkpt>
      <trkpt lat="45.44311" lon="5.91659">
        <ele>1362.3</ele>
        <time>2000-01-01T09:43:32.000Z</time>
      </trkpt>
      <trkpt lat="45.44307" lon="5.91652">
        <ele>1359.1</ele>
        <time>2000-01-01T09:43:42.000Z</time>
      </trkpt>
      <trkpt lat="45.44304" lon="5.91649">
        <ele>1357.1</ele>
        <time>2000-01-01T09:43:52.000Z</time>
      </trkpt>
      <trkpt lat="45.44305" lon="5.91648">
        <ele>1357</ele>
        <time>2000-01-01T09:44:02.000Z</time>
      </trkpt>
      <trkpt lat="45.44309" lon="5.91647">
        <ele>1356.6</ele>
        <time>2000-01-01T09:44:12.000Z</time>
      </trkpt>
      <trkpt lat="45.44312" lon="5.91643">
        <ele>1354</ele>
        <time>2000-01-01T09:44:22.000Z</time>
      </trkpt>
      <trkpt lat="45.44311" lon="5.91639">
        <ele>1352.7</ele>
        <time>2000-01-01T09:44:32.000Z</time>
      </trkpt>
      <trkpt lat="45.44308" lon="5.91634">
        <ele>1350</ele>
        <time>2000-01-01T09:44:42.000Z</time>
      </trkpt>
      <trkpt lat="45.44302" lon="5.91631">
        <ele>1347.3</ele>
        <time>2000-01-01T09:44:52.000Z</time>
      </trkpt>
      <trkpt lat="45.4429" lon="5.91647">
        <ele>1350</ele>
        <time>2000-01-01T09:45:02.000Z</time>
      </trkpt>
      <trkpt lat="45.44285" lon="5.91646">
        <ele>1347.6</ele>
        <time>2000-01-01T09:45:12.000Z</time>
      </trkpt>
      <trkpt lat="45.44277" lon="5.91646">
        <ele>1344.3</ele>
        <time>2000-01-01T09:45:22.000Z</time>
      </trkpt>
      <trkpt lat="45.44257" lon="5.91645">
        <ele>1331</ele>
        <time>2000-01-01T09:45:32.000Z</time>
      </trkpt>
      <trkpt lat="45.44245" lon="5.91615">
        <ele>1318</ele>
        <time>2000-01-01T09:45:42.000Z</time>
      </trkpt>
      <trkpt lat="45.44246" lon="5.91611">
        <ele>1320.5</ele>
        <time>2000-01-01T09:45:52.000Z</time>
      </trkpt>
      <trkpt lat="45.44247" lon="5.91598">
        <ele>1315.7</ele>
        <time>2000-01-01T09:46:02.000Z</time>
      </trkpt>
      <trkpt lat="45.44273" lon="5.91567">
        <ele>1305</ele>
        <time>2000-01-01T09:46:12.000Z</time>
      </trkpt>
      <trkpt lat="45.44295" lon="5.91539">
        <ele>1296</ele>
        <time>2000-01-01T09:46:22.000Z</time>
      </trkpt>
      <trkpt lat="45.44315" lon="5.91502">
        <ele>1285</ele>
        <time>2000-01-01T09:46:32.000Z</time>
      </trkpt>
      <trkpt lat="45.44328" lon="5.91453">
        <ele>1269</ele>
        <time>2000-01-01T09:46:42.000Z</time>
      </trkpt>
      <trkpt lat="45.44315" lon="5.91427">
        <ele>1259</ele>
        <time>2000-01-01T09:46:52.000Z</time>
      </trkpt>
      <trkpt lat="45.44318" lon="5.91413">
        <ele>1258.8</ele>
        <time>2000-01-01T09:47:02.000Z</time>
      </trkpt>
      <trkpt lat="45.44325" lon="5.91398">
        <ele>1251</ele>
        <time>2000-01-01T09:47:12.000Z</time>
      </trkpt>
      <trkpt lat="45.44326" lon="5.91397">
        <ele>1254.6</ele>
        <time>2000-01-01T09:47:22.000Z</time>
      </trkpt>
      <trkpt lat="45.44339" lon="5.91376">
        <ele>1247</ele>
        <time>2000-01-01T09:47:32.000Z</time>
      </trkpt>
      <trkpt lat="45.44355" lon="5.91352">
        <ele>1242</ele>
        <time>2000-01-01T09:47:42.000Z</time>
      </trkpt>
      <trkpt lat="45.4437" lon="5.91328">
        <ele>1233</ele>
        <time>2000-01-01T09:47:52.000Z</time>
      </trkpt>
      <trkpt lat="45.44384" lon="5.91302">
        <ele>1228</ele>
        <time>2000-01-01T09:48:02.000Z</time>
      </trkpt>
      <trkpt lat="45.44394" lon="5.91283">
        <ele>1225.5</ele>
        <time>2000-01-01T09:48:12.000Z</time>
      </trkpt>
      <trkpt lat="45.44396" lon="5.91279">
        <ele>1220</ele>
        <time>2000-01-01T09:48:22.000Z</time>
      </trkpt>
      <trkpt lat="45.44396" lon="5.91273">
        <ele>1224.1</ele>
        <time>2000-01-01T09:48:32.000Z</time>
      </trkpt>
      <trkpt lat="45.44394" lon="5.91265">
        <ele>1222.3</ele>
        <time>2000-01-01T09:48:42.000Z</time>
      </trkpt>
      <trkpt lat="45.44391" lon="5.91257">
        <ele>1220</ele>
        <time>2000-01-01T09:48:52.000Z</time>
      </trkpt>
      <trkpt lat="45.44389" lon="5.91254">
        <ele>1218.8</ele>
        <time>2000-01-01T09:49:02.000Z</time>
      </trkpt>
      <trkpt lat="45.44386" lon="5.9125">
        <ele>1213</ele>
        <time>2000-01-01T09:49:12.000Z</time>
      </trkpt>
      <trkpt lat="45.4438" lon="5.91244">
        <ele>1215.9</ele>
        <time>2000-01-01T09:49:22.000Z</time>
      </trkpt>
      <trkpt lat="45.44373" lon="5.91242">
        <ele>1214.2</ele>
        <time>2000-01-01T09:49:32.000Z</time>
      </trkpt>
      <trkpt lat="45.44365" lon="5.91238">
        <ele>1208</ele>
        <time>2000-01-01T09:49:42.000Z</time>
      </trkpt>
      <trkpt lat="45.44351" lon="5.9123">
        <ele>1208.2</ele>
        <time>2000-01-01T09:49:52.000Z</time>
      </trkpt>
      <trkpt lat="45.44347" lon="5.91223">
        <ele>1204</ele>
        <time>2000-01-01T09:50:02.000Z</time>
      </trkpt>
      <trkpt lat="45.44339" lon="5.91202">
        <ele>1200.7</ele>
        <time>2000-01-01T09:50:12.000Z</time>
      </trkpt>
      <trkpt lat="45.44329" lon="5.91184">
        <ele>1194</ele>
        <time>2000-01-01T09:50:22.000Z</time>
      </trkpt>
      <trkpt lat="45.44325" lon="5.91174">
        <ele>1194.5</ele>
        <time>2000-01-01T09:50:32.000Z</time>
      </trkpt>
      <trkpt lat="45.4432" lon="5.9115">
        <ele>1189</ele>
        <time>2000-01-01T09:50:42.000Z</time>
      </trkpt>
      <trkpt lat="45.44317" lon="5.91142">
        <ele>1188</ele>
        <time>2000-01-01T09:50:52.000Z</time>
      </trkpt>
      <trkpt lat="45.44312" lon="5.91118">
        <ele>1181</ele>
        <time>2000-01-01T09:51:02.000Z</time>
      </trkpt>
      <trkpt lat="45.44312" lon="5.91107">
        <ele>1180.2</ele>
        <time>2000-01-01T09:51:12.000Z</time>
      </trkpt>
      <trkpt lat="45.44314" lon="5.91087">
        <ele>1175</ele>
        <time>2000-01-01T09:51:22.000Z</time>
      </trkpt>
      <trkpt lat="45.44318" lon="5.91078">
        <ele>1174</ele>
        <time>2000-01-01T09:51:32.000Z</time>
      </trkpt>
      <trkpt lat="45.44327" lon="5.91066">
        <ele>1169</ele>
        <time>2000-01-01T09:51:42.000Z</time>
      </trkpt>
      <trkpt lat="45.44333" lon="5.91053">
        <ele>1168.5</ele>
        <time>2000-01-01T09:51:52.000Z</time>
      </trkpt>
      <trkpt lat="45.44342" lon="5.91032">
        <ele>1163</ele>
        <time>2000-01-01T09:52:02.000Z</time>
      </trkpt>
      <trkpt lat="45.4435" lon="5.91016">
        <ele>1160.3</ele>
        <time>2000-01-01T09:52:12.000Z</time>
      </trkpt>
      <trkpt lat="45.44353" lon="5.91007">
        <ele>1156</ele>
        <time>2000-01-01T09:52:22.000Z</time>
      </trkpt>
      <trkpt lat="45.44357" lon="5.90991">
        <ele>1155.5</ele>
        <time>2000-01-01T09:52:32.000Z</time>
      </trkpt>
      <trkpt lat="45.4436" lon="5.90975">
        <ele>1152</ele>
        <time>2000-01-01T09:52:42.000Z</time>
      </trkpt>
      <trkpt lat="45.4436" lon="5.90968">
        <ele>1151.2</ele>
        <time>2000-01-01T09:52:52.000Z</time>
      </trkpt>
      <trkpt lat="45.4436" lon="5.90962">
        <ele>1150.2</ele>
        <time>2000-01-01T09:53:02.000Z</time>
      </trkpt>
      <trkpt lat="45.44363" lon="5.9093">
        <ele>1142</ele>
        <time>2000-01-01T09:53:12.000Z</time>
      </trkpt>
      <trkpt lat="45.44366" lon="5.9092">
        <ele>1142.4</ele>
        <time>2000-01-01T09:53:22.000Z</time>
      </trkpt>
      <trkpt lat="45.44371" lon="5.9089">
        <ele>1136</ele>
        <time>2000-01-01T09:53:32.000Z</time>
      </trkpt>
      <trkpt lat="45.44372" lon="5.90884">
        <ele>1136</ele>
        <time>2000-01-01T09:53:42.000Z</time>
      </trkpt>
      <trkpt lat="45.4438" lon="5.90853">
        <ele>1132</ele>
        <time>2000-01-01T09:53:52.000Z</time>
      </trkpt>
      <trkpt lat="45.4438" lon="5.90837">
        <ele>1128.9</ele>
        <time>2000-01-01T09:54:02.000Z</time>
      </trkpt>
      <trkpt lat="45.44378" lon="5.9083">
        <ele>1127.9</ele>
        <time>2000-01-01T09:54:12.000Z</time>
      </trkpt>
      <trkpt lat="45.44379" lon="5.90821">
        <ele>1127</ele>
        <time>2000-01-01T09:54:22.000Z</time>
      </trkpt>
      <trkpt lat="45.44386" lon="5.90798">
        <ele>1123</ele>
        <time>2000-01-01T09:54:32.000Z</time>
      </trkpt>
      <trkpt lat="45.44387" lon="5.90786">
        <ele>1120</ele>
        <time>2000-01-01T09:54:42.000Z</time>
      </trkpt>
      <trkpt lat="45.44388" lon="5.90774">
        <ele>1119.6</ele>
        <time>2000-01-01T09:54:52.000Z</time>
      </trkpt>
      <trkpt lat="45.4439" lon="5.90767">
        <ele>1118.8</ele>
        <time>2000-01-01T09:55:02.000Z</time>
      </trkpt>
      <trkpt lat="45.44392" lon="5.90761">
        <ele>1118.1</ele>
        <time>2000-01-01T09:55:12.000Z</time>
      </trkpt>
      <trkpt lat="45.44397" lon="5.90759">
        <ele>1116</ele>
        <time>2000-01-01T09:55:22.000Z</time>
      </trkpt>
      <trkpt lat="45.44401" lon="5.90754">
        <ele>1117</ele>
        <time>2000-01-01T09:55:32.000Z</time>
      </trkpt>
      <trkpt lat="45.44403" lon="5.90744">
        <ele>1115.6</ele>
        <time>2000-01-01T09:55:42.000Z</time>
      </trkpt>
      <trkpt lat="45.44407" lon="5.90739">
        <ele>1114.8</ele>
        <time>2000-01-01T09:55:52.000Z</time>
      </trkpt>
      <trkpt lat="45.44412" lon="5.90737">
        <ele>1113</ele>
        <time>2000-01-01T09:56:02.000Z</time>
      </trkpt>
      <trkpt lat="45.44416" lon="5.90733">
        <ele>1113.6</ele>
        <time>2000-01-01T09:56:12.000Z</time>
      </trkpt>
      <trkpt lat="45.44417" lon="5.90727">
        <ele>1112.7</ele>
        <time>2000-01-01T09:56:22.000Z</time>
      </trkpt>
      <trkpt lat="45.44417" lon="5.9072">
        <ele>1111.6</ele>
        <time>2000-01-01T09:56:32.000Z</time>
      </trkpt>
      <trkpt lat="45.44416" lon="5.90715">
        <ele>1110.7</ele>
        <time>2000-01-01T09:56:42.000Z</time>
      </trkpt>
      <trkpt lat="45.44419" lon="5.90711">
        <ele>1110</ele>
        <time>2000-01-01T09:56:52.000Z</time>
      </trkpt>
      <trkpt lat="45.44423" lon="5.90702">
        <ele>1109</ele>
        <time>2000-01-01T09:57:02.000Z</time>
      </trkpt>
      <trkpt lat="45.44425" lon="5.90693">
        <ele>1107.7</ele>
        <time>2000-01-01T09:57:12.000Z</time>
      </trkpt>
      <trkpt lat="45.44424" lon="5.90688">
        <ele>1106.9</ele>
        <time>2000-01-01T09:57:22.000Z</time>
      </trkpt>
      <trkpt lat="45.44421" lon="5.90684">
        <ele>1105</ele>
        <time>2000-01-01T09:57:32.000Z</time>
      </trkpt>
      <trkpt lat="45.44417" lon="5.90682">
        <ele>1105.2</ele>
        <time>2000-01-01T09:57:42.000Z</time>
      </trkpt>
      <trkpt lat="45.44413" lon="5.90677">
        <ele>1104.6</ele>
        <time>2000-01-01T09:57:52.000Z</time>
      </trkpt>
      <trkpt lat="45.44411" lon="5.90672">
        <ele>1104</ele>
        <time>2000-01-01T09:58:02.000Z</time>
      </trkpt>
      <trkpt lat="45.44409" lon="5.90663">
        <ele>1103</ele>
        <time>2000-01-01T09:58:12.000Z</time>
      </trkpt>
      <trkpt lat="45.44411" lon="5.90656">
        <ele>1102.1</ele>
        <time>2000-01-01T09:58:22.000Z</time>
      </trkpt>
      <trkpt lat="45.44413" lon="5.90644">
        <ele>1100.7</ele>
        <time>2000-01-01T09:58:32.000Z</time>
      </trkpt>
      <trkpt lat="45.44417" lon="5.90615">
        <ele>1097</ele>
        <time>2000-01-01T09:58:42.000Z</time>
      </trkpt>
      <trkpt lat="45.44418" lon="5.90601">
        <ele>1095.7</ele>
        <time>2000-01-01T09:58:52.000Z</time>
      </trkpt>
      <trkpt lat="45.44418" lon="5.90588">
        <ele>1093</ele>
        <time>2000-01-01T09:59:02.000Z</time>
      </trkpt>
      <trkpt lat="45.44414" lon="5.90575">
        <ele>1092.7</ele>
        <time>2000-01-01T09:59:12.000Z</time>
      </trkpt>
      <trkpt lat="45.44412" lon="5.90559">
        <ele>1089</ele>
        <time>2000-01-01T09:59:22.000Z</time>
      </trkpt>
      <trkpt lat="45.44411" lon="5.90538">
        <ele>1089.3</ele>
        <time>2000-01-01T09:59:32.000Z</time>
      </trkpt>
      <trkpt lat="45.44409" lon="5.90518">
        <ele>1084</ele>
        <time>2000-01-01T09:59:42.000Z</time>
      </trkpt>
      <trkpt lat="45.44405" lon="5.90492">
        <ele>1082.9</ele>
        <time>2000-01-01T09:59:52.000Z</time>
      </trkpt>
      <trkpt lat="45.44403" lon="5.90473">
        <ele>1079</ele>
        <time>2000-01-01T10:00:02.000Z</time>
      </trkpt>
      <trkpt lat="45.44404" lon="5.90465">
        <ele>1080.7</ele>
        <time>2000-01-01T10:00:12.000Z</time>
      </trkpt>
      <trkpt lat="45.44399" lon="5.90424">
        <ele>1074</ele>
        <time>2000-01-01T10:00:22.000Z</time>
      </trkpt>
      <trkpt lat="45.44396" lon="5.90403">
        <ele>1075.2</ele>
        <time>2000-01-01T10:00:32.000Z</time>
      </trkpt>
      <trkpt lat="45.44393" lon="5.90381">
        <ele>1072</ele>
        <time>2000-01-01T10:00:42.000Z</time>
      </trkpt>
      <trkpt lat="45.44393" lon="5.90369">
        <ele>1072.8</ele>
        <time>2000-01-01T10:00:52.000Z</time>
      </trkpt>
      <trkpt lat="45.44393" lon="5.90358">
        <ele>1072.3</ele>
        <time>2000-01-01T10:01:02.000Z</time>
      </trkpt>
      <trkpt lat="45.44395" lon="5.90348">
        <ele>1071</ele>
        <time>2000-01-01T10:01:12.000Z</time>
      </trkpt>
      <trkpt lat="45.44404" lon="5.90313">
        <ele>1069</ele>
        <time>2000-01-01T10:01:22.000Z</time>
      </trkpt>
      <trkpt lat="45.4441" lon="5.90291">
        <ele>1069.1</ele>
        <time>2000-01-01T10:01:32.000Z</time>
      </trkpt>
      <trkpt lat="45.44417" lon="5.9024">
        <ele>1065</ele>
        <time>2000-01-01T10:01:42.000Z</time>
      </trkpt>
      <trkpt lat="45.44419" lon="5.90215">
        <ele>1065.4</ele>
        <time>2000-01-01T10:01:52.000Z</time>
      </trkpt>
      <trkpt lat="45.44418" lon="5.90186">
        <ele>1062</ele>
        <time>2000-01-01T10:02:02.000Z</time>
      </trkpt>
      <trkpt lat="45.44417" lon="5.90167">
        <ele>1063.1</ele>
        <time>2000-01-01T10:02:12.000Z</time>
      </trkpt>
      <trkpt lat="45.44414" lon="5.9015">
        <ele>1061</ele>
        <time>2000-01-01T10:02:22.000Z</time>
      </trkpt>
      <trkpt lat="45.44412" lon="5.9013">
        <ele>1061.6</ele>
        <time>2000-01-01T10:02:32.000Z</time>
      </trkpt>
      <trkpt lat="45.44413" lon="5.90116">
        <ele>1061</ele>
        <time>2000-01-01T10:02:42.000Z</time>
      </trkpt>
      <trkpt lat="45.44416" lon="5.90094">
        <ele>1060.7</ele>
        <time>2000-01-01T10:02:52.000Z</time>
      </trkpt>
      <trkpt lat="45.44424" lon="5.90043">
        <ele>1059</ele>
        <time>2000-01-01T10:03:02.000Z</time>
      </trkpt>
      <trkpt lat="45.44428" lon="5.90015">
        <ele>1058</ele>
        <time>2000-01-01T10:03:12.000Z</time>
      </trkpt>
      <trkpt lat="45.44429" lon="5.89987">
        <ele>1056</ele>
        <time>2000-01-01T10:03:22.000Z</time>
      </trkpt>
      <trkpt lat="45.44431" lon="5.89974">
        <ele>1055.7</ele>
        <time>2000-01-01T10:03:32.000Z</time>
      </trkpt>
      <trkpt lat="45.44434" lon="5.8996">
        <ele>1052</ele>
        <time>2000-01-01T10:03:42.000Z</time>
      </trkpt>
      <trkpt lat="45.44436" lon="5.89955">
        <ele>1053.3</ele>
        <time>2000-01-01T10:03:52.000Z</time>
      </trkpt>
      <trkpt lat="45.44442" lon="5.89941">
        <ele>1052.4</ele>
        <time>2000-01-01T10:04:02.000Z</time>
      </trkpt>
      <trkpt lat="45.44457" lon="5.89904">
        <ele>1049</ele>
        <time>2000-01-01T10:04:12.000Z</time>
      </trkpt>
      <trkpt lat="45.44472" lon="5.89867">
        <ele>1047</ele>
        <time>2000-01-01T10:04:22.000Z</time>
      </trkpt>
      <trkpt lat="45.44484" lon="5.89838">
        <ele>1045</ele>
        <time>2000-01-01T10:04:32.000Z</time>
      </trkpt>
      <trkpt lat="45.44493" lon="5.89821">
        <ele>1046.2</ele>
        <time>2000-01-01T10:04:42.000Z</time>
      </trkpt>
      <trkpt lat="45.44503" lon="5.89804">
        <ele>1043</ele>
        <time>2000-01-01T10:04:52.000Z</time>
      </trkpt>
      <trkpt lat="45.4451" lon="5.89795">
        <ele>1042.6</ele>
        <time>2000-01-01T10:05:02.000Z</time>
      </trkpt>
      <trkpt lat="45.44516" lon="5.89788">
        <ele>1041.8</ele>
        <time>2000-01-01T10:05:12.000Z</time>
      </trkpt>
      <trkpt lat="45.44534" lon="5.89772">
        <ele>1040</ele>
        <time>2000-01-01T10:05:22.000Z</time>
      </trkpt>
      <trkpt lat="45.44545" lon="5.89758">
        <ele>1039.9</ele>
        <time>2000-01-01T10:05:32.000Z</time>
      </trkpt>
      <trkpt lat="45.44553" lon="5.89741">
        <ele>1037</ele>
        <time>2000-01-01T10:05:42.000Z</time>
      </trkpt>
      <trkpt lat="45.44574" lon="5.89693">
        <ele>1037</ele>
        <time>2000-01-01T10:05:52.000Z</time>
      </trkpt>
      <trkpt lat="45.4459" lon="5.89692">
        <ele>1037.4</ele>
        <time>2000-01-01T10:06:02.000Z</time>
      </trkpt>
      <trkpt lat="45.44599" lon="5.89692">
        <ele>1037</ele>
        <time>2000-01-01T10:06:12.000Z</time>
      </trkpt>
      <trkpt lat="45.44605" lon="5.89695">
        <ele>1039.4</ele>
        <time>2000-01-01T10:06:22.000Z</time>
      </trkpt>
      <trkpt lat="45.44611" lon="5.89702">
        <ele>1041.3</ele>
        <time>2000-01-01T10:06:32.000Z</time>
      </trkpt>
      <trkpt lat="45.44628" lon="5.89716">
        <ele>1042</ele>
        <time>2000-01-01T10:06:42.000Z</time>
      </trkpt>
      <trkpt lat="45.44638" lon="5.89724">
        <ele>1046.4</ele>
        <time>2000-01-01T10:06:52.000Z</time>
      </trkpt>
      <trkpt lat="45.44651" lon="5.8973">
        <ele>1049</ele>
        <time>2000-01-01T10:07:02.000Z</time>
      </trkpt>
      <trkpt lat="45.44665" lon="5.89733">
        <ele>1050.9</ele>
        <time>2000-01-01T10:07:12.000Z</time>
      </trkpt>
      <trkpt lat="45.44685" lon="5.89736">
        <ele>1053</ele>
        <time>2000-01-01T10:07:22.000Z</time>
      </trkpt>
      <trkpt lat="45.44703" lon="5.89736">
        <ele>1057.7</ele>
        <time>2000-01-01T10:07:32.000Z</time>
      </trkpt>
      <trkpt lat="45.44723" lon="5.89732">
        <ele>1058</ele>
        <time>2000-01-01T10:07:42.000Z</time>
      </trkpt>
      <trkpt lat="45.44733" lon="5.89728">
        <ele>1060.2</ele>
        <time>2000-01-01T10:07:52.000Z</time>
      </trkpt>
      <trkpt lat="45.44754" lon="5.89722">
        <ele>1058</ele>
        <time>2000-01-01T10:08:02.000Z</time>
      </trkpt>
      <trkpt lat="45.44775" lon="5.89719">
        <ele>1059</ele>
        <time>2000-01-01T10:08:12.000Z</time>
      </trkpt>
      <trkpt lat="45.44795" lon="5.8972">
        <ele>1063</ele>
        <time>2000-01-01T10:08:22.000Z</time>
      </trkpt>
      <trkpt lat="45.44819" lon="5.89724">
        <ele>1063</ele>
        <time>2000-01-01T10:08:32.000Z</time>
      </trkpt>
      <trkpt lat="45.44845" lon="5.89729">
        <ele>1065</ele>
        <time>2000-01-01T10:08:42.000Z</time>
      </trkpt>
      <trkpt lat="45.44879" lon="5.89735">
        <ele>1067</ele>
        <time>2000-01-01T10:08:52.000Z</time>
      </trkpt>
      <trkpt lat="45.44888" lon="5.89734">
        <ele>1071.2</ele>
        <time>2000-01-01T10:09:02.000Z</time>
      </trkpt>
      <trkpt lat="45.44899" lon="5.89731">
        <ele>1070</ele>
        <time>2000-01-01T10:09:12.000Z</time>
      </trkpt>
      <trkpt lat="45.44908" lon="5.89727">
        <ele>1074.5</ele>
        <time>2000-01-01T10:09:22.000Z</time>
      </trkpt>
      <trkpt lat="45.44917" lon="5.89721">
        <ele>1072</ele>
        <time>2000-01-01T10:09:32.000Z</time>
      </trkpt>
      <trkpt lat="45.44933" lon="5.89712">
        <ele>1077.4</ele>
        <time>2000-01-01T10:09:42.000Z</time>
      </trkpt>
      <trkpt lat="45.44948" lon="5.89702">
        <ele>1074</ele>
        <time>2000-01-01T10:09:52.000Z</time>
      </trkpt>
      <trkpt lat="45.44953" lon="5.89699">
        <ele>1079.4</ele>
        <time>2000-01-01T10:10:02.000Z</time>
      </trkpt>
      <trkpt lat="45.44959" lon="5.89697">
        <ele>1080.6</ele>
        <time>2000-01-01T10:10:12.000Z</time>
      </trkpt>
      <trkpt lat="45.45007" lon="5.8968">
        <ele>1086</ele>
        <time>2000-01-01T10:10:22.000Z</time>
      </trkpt>
      <trkpt lat="45.45042" lon="5.89674">
        <ele>1093</ele>
        <time>2000-01-01T10:10:32.000Z</time>
      </trkpt>
      <trkpt lat="45.45052" lon="5.89672">
        <ele>1095.1</ele>
        <time>2000-01-01T10:10:42.000Z</time>
      </trkpt>
      <trkpt lat="45.45059" lon="5.8967">
        <ele>1096.4</ele>
        <time>2000-01-01T10:10:52.000Z</time>
      </trkpt>
      <trkpt lat="45.45073" lon="5.8966">
        <ele>1094</ele>
        <time>2000-01-01T10:11:02.000Z</time>
      </trkpt>
      <trkpt lat="45.45077" lon="5.89654">
        <ele>1099.4</ele>
        <time>2000-01-01T10:11:12.000Z</time>
      </trkpt>
      <trkpt lat="45.45097" lon="5.89619">
        <ele>1096</ele>
        <time>2000-01-01T10:11:22.000Z</time>
      </trkpt>
      <trkpt lat="45.45103" lon="5.89609">
        <ele>1101.5</ele>
        <time>2000-01-01T10:11:32.000Z</time>
      </trkpt>
      <trkpt lat="45.45108" lon="5.89605">
        <ele>1102.6</ele>
        <time>2000-01-01T10:11:42.000Z</time>
      </trkpt>
      <trkpt lat="45.45114" lon="5.89603">
        <ele>1102</ele>
        <time>2000-01-01T10:11:52.000Z</time>
      </trkpt>
      <trkpt lat="45.45119" lon="5.89601">
        <ele>1104.1</ele>
        <time>2000-01-01T10:12:02.000Z</time>
      </trkpt>
      <trkpt lat="45.45126" lon="5.896">
        <ele>1105</ele>
        <time>2000-01-01T10:12:12.000Z</time>
      </trkpt>
      <trkpt lat="45.45133" lon="5.89601">
        <ele>1106</ele>
        <time>2000-01-01T10:12:22.000Z</time>
      </trkpt>
      <trkpt lat="45.45134" lon="5.89601">
        <ele>1106.6</ele>
        <time>2000-01-01T10:12:32.000Z</time>
      </trkpt>
      <trkpt lat="45.45138" lon="5.89602">
        <ele>1107.6</ele>
        <time>2000-01-01T10:12:42.000Z</time>
      </trkpt>
      <trkpt lat="45.45143" lon="5.89602">
        <ele>1107.8</ele>
        <time>2000-01-01T10:12:52.000Z</time>
      </trkpt>
      <trkpt lat="45.45151" lon="5.89603">
        <ele>1108.1</ele>
        <time>2000-01-01T10:13:02.000Z</time>
      </trkpt>
      <trkpt lat="45.45152" lon="5.89606">
        <ele>1108</ele>
        <time>2000-01-01T10:13:12.000Z</time>
      </trkpt>
      <trkpt lat="45.45152" lon="5.8961">
        <ele>1108.9</ele>
        <time>2000-01-01T10:13:22.000Z</time>
      </trkpt>
      <trkpt lat="45.45151" lon="5.89616">
        <ele>1109.1</ele>
        <time>2000-01-01T10:13:32.000Z</time>
      </trkpt>
      <trkpt lat="45.45148" lon="5.89623">
        <ele>1109.2</ele>
        <time>2000-01-01T10:13:42.000Z</time>
      </trkpt>
      <trkpt lat="45.45137" lon="5.89639">
        <ele>1110</ele>
        <time>2000-01-01T10:13:52.000Z</time>
      </trkpt>
      <trkpt lat="45.45131" lon="5.89648">
        <ele>1109.9</ele>
        <time>2000-01-01T10:14:02.000Z</time>
      </trkpt>
      <trkpt lat="45.45123" lon="5.89664">
        <ele>1110</ele>
        <time>2000-01-01T10:14:12.000Z</time>
      </trkpt>
      <trkpt lat="45.45117" lon="5.89681">
        <ele>1112.4</ele>
        <time>2000-01-01T10:14:22.000Z</time>
      </trkpt>
      <trkpt lat="45.45116" lon="5.89687">
        <ele>1113.3</ele>
        <time>2000-01-01T10:14:32.000Z</time>
      </trkpt>
      <trkpt lat="45.45116" lon="5.89702">
        <ele>1116</ele>
        <time>2000-01-01T10:14:42.000Z</time>
      </trkpt>
      <trkpt lat="45.45117" lon="5.89709">
        <ele>1116.1</ele>
        <time>2000-01-01T10:14:52.000Z</time>
      </trkpt>
      <trkpt lat="45.4512" lon="5.89723">
        <ele>1117.6</ele>
        <time>2000-01-01T10:15:02.000Z</time>
      </trkpt>
      <trkpt lat="45.45125" lon="5.89734">
        <ele>1120</ele>
        <time>2000-01-01T10:15:12.000Z</time>
      </trkpt>
      <trkpt lat="45.45133" lon="5.8975">
        <ele>1121.5</ele>
        <time>2000-01-01T10:15:22.000Z</time>
      </trkpt>
      <trkpt lat="45.45141" lon="5.89761">
        <ele>1122</ele>
        <time>2000-01-01T10:15:32.000Z</time>
      </trkpt>
      <trkpt lat="45.45155" lon="5.89783">
        <ele>1124</ele>
        <time>2000-01-01T10:15:42.000Z</time>
      </trkpt>
      <trkpt lat="45.45171" lon="5.89817">
        <ele>1124</ele>
        <time>2000-01-01T10:15:52.000Z</time>
      </trkpt>
      <trkpt lat="45.45184" lon="5.89846">
        <ele>1123</ele>
        <time>2000-01-01T10:16:02.000Z</time>
      </trkpt>
      <trkpt lat="45.45188" lon="5.89854">
        <ele>1122.6</ele>
        <time>2000-01-01T10:16:12.000Z</time>
      </trkpt>
      <trkpt lat="45.45194" lon="5.89865">
        <ele>1121.6</ele>
        <time>2000-01-01T10:16:22.000Z</time>
      </trkpt>
      <trkpt lat="45.45204" lon="5.89886">
        <ele>1123</ele>
        <time>2000-01-01T10:16:32.000Z</time>
      </trkpt>
      <trkpt lat="45.45212" lon="5.89901">
        <ele>1120.7</ele>
        <time>2000-01-01T10:16:42.000Z</time>
      </trkpt>
      <trkpt lat="45.45218" lon="5.89912">
        <ele>1123</ele>
        <time>2000-01-01T10:16:52.000Z</time>
      </trkpt>
      <trkpt lat="45.45224" lon="5.89922">
        <ele>1120.7</ele>
        <time>2000-01-01T10:17:02.000Z</time>
      </trkpt>
      <trkpt lat="45.45237" lon="5.8994">
        <ele>1122</ele>
        <time>2000-01-01T10:17:12.000Z</time>
      </trkpt>
      <trkpt lat="45.45265" lon="5.89972">
        <ele>1122</ele>
        <time>2000-01-01T10:17:22.000Z</time>
      </trkpt>
      <trkpt lat="45.4528" lon="5.89996">
        <ele>1123</ele>
        <time>2000-01-01T10:17:32.000Z</time>
      </trkpt>
      <trkpt lat="45.45287" lon="5.90001">
        <ele>1125.8</ele>
        <time>2000-01-01T10:17:42.000Z</time>
      </trkpt>
      <trkpt lat="45.45298" lon="5.90017">
        <ele>1126</ele>
        <time>2000-01-01T10:17:52.000Z</time>
      </trkpt>
      <trkpt lat="45.45303" lon="5.90028">
        <ele>1125.7</ele>
        <time>2000-01-01T10:18:02.000Z</time>
      </trkpt>
      <trkpt lat="45.45307" lon="5.90038">
        <ele>1125.5</ele>
        <time>2000-01-01T10:18:12.000Z</time>
      </trkpt>
      <trkpt lat="45.45308" lon="5.90044">
        <ele>1126</ele>
        <time>2000-01-01T10:18:22.000Z</time>
      </trkpt>
      <trkpt lat="45.4531" lon="5.90048">
        <ele>1125.7</ele>
        <time>2000-01-01T10:18:32.000Z</time>
      </trkpt>
      <trkpt lat="45.45312" lon="5.90065">
        <ele>1125.8</ele>
        <time>2000-01-01T10:18:42.000Z</time>
      </trkpt>
      <trkpt lat="45.45312" lon="5.9008">
        <ele>1126</ele>
        <time>2000-01-01T10:18:52.000Z</time>
      </trkpt>
      <trkpt lat="45.45313" lon="5.90086">
        <ele>1125.8</ele>
        <time>2000-01-01T10:19:02.000Z</time>
      </trkpt>
      <trkpt lat="45.45315" lon="5.9009">
        <ele>1125.8</ele>
        <time>2000-01-01T10:19:12.000Z</time>
      </trkpt>
      <trkpt lat="45.45318" lon="5.90094">
        <ele>1125.7</ele>
        <time>2000-01-01T10:19:22.000Z</time>
      </trkpt>
      <trkpt lat="45.45327" lon="5.90094">
        <ele>1123</ele>
        <time>2000-01-01T10:19:32.000Z</time>
      </trkpt>
      <trkpt lat="45.4533" lon="5.90094">
        <ele>1122.9</ele>
        <time>2000-01-01T10:19:42.000Z</time>
      </trkpt>
      <trkpt lat="45.45339" lon="5.90092">
        <ele>1121.5</ele>
        <time>2000-01-01T10:19:52.000Z</time>
      </trkpt>
      <trkpt lat="45.45346" lon="5.90093">
        <ele>1121.1</ele>
        <time>2000-01-01T10:20:02.000Z</time>
      </trkpt>
      <trkpt lat="45.45352" lon="5.90094">
        <ele>1122</ele>
        <time>2000-01-01T10:20:12.000Z</time>
      </trkpt>
      <trkpt lat="45.45362" lon="5.90098">
        <ele>1120.7</ele>
        <time>2000-01-01T10:20:22.000Z</time>
      </trkpt>
      <trkpt lat="45.45368" lon="5.90102">
        <ele>1121.6</ele>
        <time>2000-01-01T10:20:32.000Z</time>
      </trkpt>
      <trkpt lat="45.45378" lon="5.90113">
        <ele>1122</ele>
        <time>2000-01-01T10:20:42.000Z</time>
      </trkpt>
      <trkpt lat="45.45382" lon="5.90116">
        <ele>1123.7</ele>
        <time>2000-01-01T10:20:52.000Z</time>
      </trkpt>
      <trkpt lat="45.4539" lon="5.90121">
        <ele>1124.3</ele>
        <time>2000-01-01T10:21:02.000Z</time>
      </trkpt>
      <trkpt lat="45.45399" lon="5.90126">
        <ele>1122</ele>
        <time>2000-01-01T10:21:12.000Z</time>
      </trkpt>
      <trkpt lat="45.45412" lon="5.90138">
        <ele>1125.7</ele>
        <time>2000-01-01T10:21:22.000Z</time>
      </trkpt>
      <trkpt lat="45.45449" lon="5.90147">
        <ele>1122</ele>
        <time>2000-01-01T10:21:32.000Z</time>
      </trkpt>
      <trkpt lat="45.45468" lon="5.90157">
        <ele>1122</ele>
        <time>2000-01-01T10:21:42.000Z</time>
      </trkpt>
      <trkpt lat="45.45512" lon="5.90175">
        <ele>1122</ele>
        <time>2000-01-01T10:21:52.000Z</time>
      </trkpt>
      <trkpt lat="45.4552" lon="5.90176">
        <ele>1123</ele>
        <time>2000-01-01T10:22:02.000Z</time>
      </trkpt>
      <trkpt lat="45.4553" lon="5.90173">
        <ele>1121.6</ele>
        <time>2000-01-01T10:22:12.000Z</time>
      </trkpt>
      <trkpt lat="45.4554" lon="5.90171">
        <ele>1121</ele>
        <time>2000-01-01T10:22:22.000Z</time>
      </trkpt>
      <trkpt lat="45.45561" lon="5.90171">
        <ele>1121</ele>
        <time>2000-01-01T10:22:32.000Z</time>
      </trkpt>
      <trkpt lat="45.45573" lon="5.9017">
        <ele>1122.2</ele>
        <time>2000-01-01T10:22:42.000Z</time>
      </trkpt>
      <trkpt lat="45.45594" lon="5.90175">
        <ele>1121</ele>
        <time>2000-01-01T10:22:52.000Z</time>
      </trkpt>
      <trkpt lat="45.45621" lon="5.90179">
        <ele>1115</ele>
        <time>2000-01-01T10:23:02.000Z</time>
      </trkpt>
      <trkpt lat="45.45659" lon="5.90185">
        <ele>1111</ele>
        <time>2000-01-01T10:23:12.000Z</time>
      </trkpt>
      <trkpt lat="45.45675" lon="5.90186">
        <ele>1104.9</ele>
        <time>2000-01-01T10:23:22.000Z</time>
      </trkpt>
      <trkpt lat="45.45692" lon="5.90195">
        <ele>1100</ele>
        <time>2000-01-01T10:23:32.000Z</time>
      </trkpt>
      <trkpt lat="45.45701" lon="5.90198">
        <ele>1099.3</ele>
        <time>2000-01-01T10:23:42.000Z</time>
      </trkpt>
      <trkpt lat="45.45722" lon="5.90201">
        <ele>1094</ele>
        <time>2000-01-01T10:23:52.000Z</time>
      </trkpt>
      <trkpt lat="45.4574" lon="5.90207">
        <ele>1091.9</ele>
        <time>2000-01-01T10:24:02.000Z</time>
      </trkpt>
      <trkpt lat="45.45749" lon="5.90211">
        <ele>1092</ele>
        <time>2000-01-01T10:24:12.000Z</time>
      </trkpt>
      <trkpt lat="45.45757" lon="5.90217">
        <ele>1086.9</ele>
        <time>2000-01-01T10:24:22.000Z</time>
      </trkpt>
      <trkpt lat="45.45769" lon="5.90229">
        <ele>1087</ele>
        <time>2000-01-01T10:24:32.000Z</time>
      </trkpt>
      <trkpt lat="45.45785" lon="5.90242">
        <ele>1077</ele>
        <time>2000-01-01T10:24:42.000Z</time>
      </trkpt>
      <trkpt lat="45.45791" lon="5.90251">
        <ele>1073.6</ele>
        <time>2000-01-01T10:24:52.000Z</time>
      </trkpt>
      <trkpt lat="45.45798" lon="5.9026">
        <ele>1071.3</ele>
        <time>2000-01-01T10:25:02.000Z</time>
      </trkpt>
      <trkpt lat="45.45806" lon="5.90268">
        <ele>1069</ele>
        <time>2000-01-01T10:25:12.000Z</time>
      </trkpt>
      <trkpt lat="45.45811" lon="5.90274">
        <ele>1071.7</ele>
        <time>2000-01-01T10:25:22.000Z</time>
      </trkpt>
      <trkpt lat="45.45817" lon="5.90277">
        <ele>1073.8</ele>
        <time>2000-01-01T10:25:32.000Z</time>
      </trkpt>
      <trkpt lat="45.45823" lon="5.90273">
        <ele>1068</ele>
        <time>2000-01-01T10:25:42.000Z</time>
      </trkpt>
      <trkpt lat="45.45827" lon="5.90268">
        <ele>1076.2</ele>
        <time>2000-01-01T10:25:52.000Z</time>
      </trkpt>
      <trkpt lat="45.4583" lon="5.90259">
        <ele>1077.3</ele>
        <time>2000-01-01T10:26:02.000Z</time>
      </trkpt>
      <trkpt lat="45.4583" lon="5.9025">
        <ele>1077.3</ele>
        <time>2000-01-01T10:26:12.000Z</time>
      </trkpt>
      <trkpt lat="45.45829" lon="5.90239">
        <ele>1068</ele>
        <time>2000-01-01T10:26:22.000Z</time>
      </trkpt>
      <trkpt lat="45.45823" lon="5.90217">
        <ele>1073</ele>
        <time>2000-01-01T10:26:32.000Z</time>
      </trkpt>
      <trkpt lat="45.45821" lon="5.90204">
        <ele>1068</ele>
        <time>2000-01-01T10:26:42.000Z</time>
      </trkpt>
      <trkpt lat="45.4582" lon="5.90184">
        <ele>1069.7</ele>
        <time>2000-01-01T10:26:52.000Z</time>
      </trkpt>
      <trkpt lat="45.4582" lon="5.9016">
        <ele>1068</ele>
        <time>2000-01-01T10:27:02.000Z</time>
      </trkpt>
      <trkpt lat="45.45821" lon="5.90149">
        <ele>1068.9</ele>
        <time>2000-01-01T10:27:12.000Z</time>
      </trkpt>
      <trkpt lat="45.45825" lon="5.9013">
        <ele>1068</ele>
        <time>2000-01-01T10:27:22.000Z</time>
      </trkpt>
      <trkpt lat="45.4583" lon="5.90123">
        <ele>1070.1</ele>
        <time>2000-01-01T10:27:32.000Z</time>
      </trkpt>
      <trkpt lat="45.45836" lon="5.90118">
        <ele>1069.8</ele>
        <time>2000-01-01T10:27:42.000Z</time>
      </trkpt>
      <trkpt lat="45.45845" lon="5.90119">
        <ele>1067</ele>
        <time>2000-01-01T10:27:52.000Z</time>
      </trkpt>
      <trkpt lat="45.4585" lon="5.9012">
        <ele>1067.6</ele>
        <time>2000-01-01T10:28:02.000Z</time>
      </trkpt>
      <trkpt lat="45.45871" lon="5.90128">
        <ele>1063</ele>
        <time>2000-01-01T10:28:12.000Z</time>
      </trkpt>
      <trkpt lat="45.4588" lon="5.9013">
        <ele>1064.7</ele>
        <time>2000-01-01T10:28:22.000Z</time>
      </trkpt>
      <trkpt lat="45.45917" lon="5.9013">
        <ele>1063</ele>
        <time>2000-01-01T10:28:32.000Z</time>
      </trkpt>
      <trkpt lat="45.45945" lon="5.9013">
        <ele>1063</ele>
        <time>2000-01-01T10:28:42.000Z</time>
      </trkpt>
      <trkpt lat="45.45984" lon="5.9013">
        <ele>1062</ele>
        <time>2000-01-01T10:28:52.000Z</time>
      </trkpt>
      <trkpt lat="45.45992" lon="5.90129">
        <ele>1066.4</ele>
        <time>2000-01-01T10:29:02.000Z</time>
      </trkpt>
      <trkpt lat="45.45999" lon="5.90125">
        <ele>1065.9</ele>
        <time>2000-01-01T10:29:12.000Z</time>
      </trkpt>
      <trkpt lat="45.46008" lon="5.90116">
        <ele>1062</ele>
        <time>2000-01-01T10:29:22.000Z</time>
      </trkpt>
      <trkpt lat="45.46013" lon="5.90114">
        <ele>1062.6</ele>
        <time>2000-01-01T10:29:32.000Z</time>
      </trkpt>
      <trkpt lat="45.46018" lon="5.90112">
        <ele>1061.9</ele>
        <time>2000-01-01T10:29:42.000Z</time>
      </trkpt>
      <trkpt lat="45.46024" lon="5.90113">
        <ele>1061.6</ele>
        <time>2000-01-01T10:29:52.000Z</time>
      </trkpt>
      <trkpt lat="45.46041" lon="5.90123">
        <ele>1062</ele>
        <time>2000-01-01T10:30:02.000Z</time>
      </trkpt>
      <trkpt lat="45.46051" lon="5.90132">
        <ele>1061.6</ele>
        <time>2000-01-01T10:30:12.000Z</time>
      </trkpt>
      <trkpt lat="45.46059" lon="5.90141">
        <ele>1062</ele>
        <time>2000-01-01T10:30:22.000Z</time>
      </trkpt>
      <trkpt lat="45.46077" lon="5.90168">
        <ele>1060</ele>
        <time>2000-01-01T10:30:32.000Z</time>
      </trkpt>
      <trkpt lat="45.46085" lon="5.90176">
        <ele>1060.3</ele>
        <time>2000-01-01T10:30:42.000Z</time>
      </trkpt>
      <trkpt lat="45.46091" lon="5.90182">
        <ele>1060.1</ele>
        <time>2000-01-01T10:30:52.000Z</time>
      </trkpt>
      <trkpt lat="45.46099" lon="5.90188">
        <ele>1059</ele>
        <time>2000-01-01T10:31:02.000Z</time>
      </trkpt>
      <trkpt lat="45.46122" lon="5.90201">
        <ele>1058</ele>
        <time>2000-01-01T10:31:12.000Z</time>
      </trkpt>
      <trkpt lat="45.46143" lon="5.90211">
        <ele>1056</ele>
        <time>2000-01-01T10:31:22.000Z</time>
      </trkpt>
      <trkpt lat="45.46173" lon="5.90224">
        <ele>1054</ele>
        <time>2000-01-01T10:31:32.000Z</time>
      </trkpt>
      <trkpt lat="45.46192" lon="5.90234">
        <ele>1054</ele>
        <time>2000-01-01T10:31:42.000Z</time>
      </trkpt>
      <trkpt lat="45.46204" lon="5.90241">
        <ele>1052.9</ele>
        <time>2000-01-01T10:31:52.000Z</time>
      </trkpt>
      <trkpt lat="45.46217" lon="5.90255">
        <ele>1054</ele>
        <time>2000-01-01T10:32:02.000Z</time>
      </trkpt>
      <trkpt lat="45.46226" lon="5.90272">
        <ele>1052.7</ele>
        <time>2000-01-01T10:32:12.000Z</time>
      </trkpt>
      <trkpt lat="45.46229" lon="5.90281">
        <ele>1055</ele>
        <time>2000-01-01T10:32:22.000Z</time>
      </trkpt>
      <trkpt lat="45.46229" lon="5.90296">
        <ele>1053.5</ele>
        <time>2000-01-01T10:32:32.000Z</time>
      </trkpt>
      <trkpt lat="45.4623" lon="5.90301">
        <ele>1053.6</ele>
        <time>2000-01-01T10:32:42.000Z</time>
      </trkpt>
      <trkpt lat="45.46228" lon="5.90318">
        <ele>1056</ele>
        <time>2000-01-01T10:32:52.000Z</time>
      </trkpt>
      <trkpt lat="45.46229" lon="5.90324">
        <ele>1056.1</ele>
        <time>2000-01-01T10:33:02.000Z</time>
      </trkpt>
      <trkpt lat="45.46234" lon="5.90332">
        <ele>1056.1</ele>
        <time>2000-01-01T10:33:12.000Z</time>
      </trkpt>
      <trkpt lat="45.46243" lon="5.90341">
        <ele>1057</ele>
        <time>2000-01-01T10:33:22.000Z</time>
      </trkpt>
      <trkpt lat="45.46254" lon="5.90357">
        <ele>1057.7</ele>
        <time>2000-01-01T10:33:32.000Z</time>
      </trkpt>
      <trkpt lat="45.46259" lon="5.90364">
        <ele>1058</ele>
        <time>2000-01-01T10:33:42.000Z</time>
      </trkpt>
      <trkpt lat="45.46265" lon="5.90379">
        <ele>1057.6</ele>
        <time>2000-01-01T10:33:52.000Z</time>
      </trkpt>
      <trkpt lat="45.46271" lon="5.90393">
        <ele>1058</ele>
        <time>2000-01-01T10:34:02.000Z</time>
      </trkpt>
      <trkpt lat="45.46276" lon="5.904">
        <ele>1058.4</ele>
        <time>2000-01-01T10:34:12.000Z</time>
      </trkpt>
      <trkpt lat="45.46281" lon="5.90405">
        <ele>1058.5</ele>
        <time>2000-01-01T10:34:22.000Z</time>
      </trkpt>
      <trkpt lat="45.46288" lon="5.9041">
        <ele>1057</ele>
        <time>2000-01-01T10:34:32.000Z</time>
      </trkpt>
      <trkpt lat="45.46295" lon="5.90413">
        <ele>1058.9</ele>
        <time>2000-01-01T10:34:42.000Z</time>
      </trkpt>
      <trkpt lat="45.46309" lon="5.90417">
        <ele>1057</ele>
        <time>2000-01-01T10:34:52.000Z</time>
      </trkpt>
      <trkpt lat="45.46315" lon="5.90418">
        <ele>1059.8</ele>
        <time>2000-01-01T10:35:02.000Z</time>
      </trkpt>
      <trkpt lat="45.46322" lon="5.90418">
        <ele>1060.3</ele>
        <time>2000-01-01T10:35:12.000Z</time>
      </trkpt>
      <trkpt lat="45.4633" lon="5.90413">
        <ele>1059</ele>
        <time>2000-01-01T10:35:22.000Z</time>
      </trkpt>
      <trkpt lat="45.46337" lon="5.90408">
        <ele>1059.8</ele>
        <time>2000-01-01T10:35:32.000Z</time>
      </trkpt>
      <trkpt lat="45.46344" lon="5.90404">
        <ele>1059.4</ele>
        <time>2000-01-01T10:35:42.000Z</time>
      </trkpt>
      <trkpt lat="45.46351" lon="5.90402">
        <ele>1059</ele>
        <time>2000-01-01T10:35:52.000Z</time>
      </trkpt>
      <trkpt lat="45.46359" lon="5.90402">
        <ele>1059.6</ele>
        <time>2000-01-01T10:36:02.000Z</time>
      </trkpt>
      <trkpt lat="45.46366" lon="5.90403">
        <ele>1060.4</ele>
        <time>2000-01-01T10:36:12.000Z</time>
      </trkpt>
      <trkpt lat="45.46373" lon="5.90406">
        <ele>1060</ele>
        <time>2000-01-01T10:36:22.000Z</time>
      </trkpt>
      <trkpt lat="45.46388" lon="5.90411">
        <ele>1063.2</ele>
        <time>2000-01-01T10:36:32.000Z</time>
      </trkpt>
      <trkpt lat="45.46394" lon="5.90416">
        <ele>1062</ele>
        <time>2000-01-01T10:36:42.000Z</time>
      </trkpt>
      <trkpt lat="45.46405" lon="5.90425">
        <ele>1067.2</ele>
        <time>2000-01-01T10:36:52.000Z</time>
      </trkpt>
      <trkpt lat="45.4641" lon="5.90427">
        <ele>1067.9</ele>
        <time>2000-01-01T10:37:02.000Z</time>
      </trkpt>
      <trkpt lat="45.4642" lon="5.90428">
        <ele>1067</ele>
        <time>2000-01-01T10:37:12.000Z</time>
      </trkpt>
      <trkpt lat="45.46425" lon="5.90426">
        <ele>1068.8</ele>
        <time>2000-01-01T10:37:22.000Z</time>
      </trkpt>
      <trkpt lat="45.4643" lon="5.90422">
        <ele>1068.7</ele>
        <time>2000-01-01T10:37:32.000Z</time>
      </trkpt>
      <trkpt lat="45.46437" lon="5.90419">
        <ele>1069.2</ele>
        <time>2000-01-01T10:37:42.000Z</time>
      </trkpt>
      <trkpt lat="45.46453" lon="5.90437">
        <ele>1070</ele>
        <time>2000-01-01T10:37:52.000Z</time>
      </trkpt>
      <trkpt lat="45.46456" lon="5.90441">
        <ele>1073.1</ele>
        <time>2000-01-01T10:38:02.000Z</time>
      </trkpt>
      <trkpt lat="45.46459" lon="5.90433">
        <ele>1073</ele>
        <time>2000-01-01T10:38:12.000Z</time>
      </trkpt>
      <trkpt lat="45.46462" lon="5.90425">
        <ele>1072.9</ele>
        <time>2000-01-01T10:38:22.000Z</time>
      </trkpt>
      <trkpt lat="45.46466" lon="5.9041">
        <ele>1071</ele>
        <time>2000-01-01T10:38:32.000Z</time>
      </trkpt>
      <trkpt lat="45.46469" lon="5.90395">
        <ele>1072.1</ele>
        <time>2000-01-01T10:38:42.000Z</time>
      </trkpt>
      <trkpt lat="45.46474" lon="5.90378">
        <ele>1071</ele>
        <time>2000-01-01T10:38:52.000Z</time>
      </trkpt>
      <trkpt lat="45.46475" lon="5.90376">
        <ele>1071.3</ele>
        <time>2000-01-01T10:39:02.000Z</time>
      </trkpt>
      <trkpt lat="45.46482" lon="5.90362">
        <ele>1070.4</ele>
        <time>2000-01-01T10:39:12.000Z</time>
      </trkpt>
      <trkpt lat="45.46486" lon="5.90357">
        <ele>1069.8</ele>
        <time>2000-01-01T10:39:22.000Z</time>
      </trkpt>
      <trkpt lat="45.465" lon="5.9035">
        <ele>1068</ele>
        <time>2000-01-01T10:39:32.000Z</time>
      </trkpt>
      <trkpt lat="45.4651" lon="5.90347">
        <ele>1067.6</ele>
        <time>2000-01-01T10:39:42.000Z</time>
      </trkpt>
      <trkpt lat="45.46519" lon="5.90345">
        <ele>1066</ele>
        <time>2000-01-01T10:39:52.000Z</time>
      </trkpt>
      <trkpt lat="45.46527" lon="5.90342">
        <ele>1065.5</ele>
        <time>2000-01-01T10:40:02.000Z</time>
      </trkpt>
      <trkpt lat="45.46534" lon="5.90338">
        <ele>1064.3</ele>
        <time>2000-01-01T10:40:12.000Z</time>
      </trkpt>
      <trkpt lat="45.46548" lon="5.90328">
        <ele>1059</ele>
        <time>2000-01-01T10:40:22.000Z</time>
      </trkpt>
      <trkpt lat="45.46562" lon="5.90314">
        <ele>1060</ele>
        <time>2000-01-01T10:40:32.000Z</time>
      </trkpt>
      <trkpt lat="45.46586" lon="5.90297">
        <ele>1056</ele>
        <time>2000-01-01T10:40:42.000Z</time>
      </trkpt>
      <trkpt lat="45.46595" lon="5.90291">
        <ele>1057.2</ele>
        <time>2000-01-01T10:40:52.000Z</time>
      </trkpt>
      <trkpt lat="45.46616" lon="5.90273">
        <ele>1053</ele>
        <time>2000-01-01T10:41:02.000Z</time>
      </trkpt>
      <trkpt lat="45.46625" lon="5.90268">
        <ele>1053.9</ele>
        <time>2000-01-01T10:41:12.000Z</time>
      </trkpt>
      <trkpt lat="45.46636" lon="5.90257">
        <ele>1051</ele>
        <time>2000-01-01T10:41:22.000Z</time>
      </trkpt>
      <trkpt lat="45.46644" lon="5.90252">
        <ele>1052.3</ele>
        <time>2000-01-01T10:41:32.000Z</time>
      </trkpt>
      <trkpt lat="45.46652" lon="5.90248">
        <ele>1051.6</ele>
        <time>2000-01-01T10:41:42.000Z</time>
      </trkpt>
      <trkpt lat="45.4667" lon="5.90244">
        <ele>1050</ele>
        <time>2000-01-01T10:41:52.000Z</time>
      </trkpt>
      <trkpt lat="45.46685" lon="5.90244">
        <ele>1050.8</ele>
        <time>2000-01-01T10:42:02.000Z</time>
      </trkpt>
      <trkpt lat="45.46698" lon="5.90246">
        <ele>1049</ele>
        <time>2000-01-01T10:42:12.000Z</time>
      </trkpt>
      <trkpt lat="45.46706" lon="5.90248">
        <ele>1050.4</ele>
        <time>2000-01-01T10:42:22.000Z</time>
      </trkpt>
      <trkpt lat="45.46714" lon="5.90249">
        <ele>1049.7</ele>
        <time>2000-01-01T10:42:32.000Z</time>
      </trkpt>
      <trkpt lat="45.46724" lon="5.90251">
        <ele>1049</ele>
        <time>2000-01-01T10:42:42.000Z</time>
      </trkpt>
      <trkpt lat="45.46733" lon="5.90254">
        <ele>1047.7</ele>
        <time>2000-01-01T10:42:52.000Z</time>
      </trkpt>
      <trkpt lat="45.4674" lon="5.90259">
        <ele>1047.2</ele>
        <time>2000-01-01T10:43:02.000Z</time>
      </trkpt>
      <trkpt lat="45.46758" lon="5.90268">
        <ele>1045</ele>
        <time>2000-01-01T10:43:12.000Z</time>
      </trkpt>
      <trkpt lat="45.46779" lon="5.90279">
        <ele>1043</ele>
        <time>2000-01-01T10:43:22.000Z</time>
      </trkpt>
      <trkpt lat="45.46805" lon="5.9029">
        <ele>1041</ele>
        <time>2000-01-01T10:43:32.000Z</time>
      </trkpt>
      <trkpt lat="45.46822" lon="5.90296">
        <ele>1041.5</ele>
        <time>2000-01-01T10:43:42.000Z</time>
      </trkpt>
      <trkpt lat="45.46832" lon="5.90297">
        <ele>1040</ele>
        <time>2000-01-01T10:43:52.000Z</time>
      </trkpt>
      <trkpt lat="45.4684" lon="5.90295">
        <ele>1040.3</ele>
        <time>2000-01-01T10:44:02.000Z</time>
      </trkpt>
      <trkpt lat="45.46847" lon="5.90293">
        <ele>1040.6</ele>
        <time>2000-01-01T10:44:12.000Z</time>
      </trkpt>
      <trkpt lat="45.46863" lon="5.90287">
        <ele>1040</ele>
        <time>2000-01-01T10:44:22.000Z</time>
      </trkpt>
      <trkpt lat="45.46873" lon="5.90285">
        <ele>1040.5</ele>
        <time>2000-01-01T10:44:32.000Z</time>
      </trkpt>
      <trkpt lat="45.46912" lon="5.90282">
        <ele>1038</ele>
        <time>2000-01-01T10:44:42.000Z</time>
      </trkpt>
      <trkpt lat="45.46937" lon="5.90283">
        <ele>1037</ele>
        <time>2000-01-01T10:44:52.000Z</time>
      </trkpt>
      <trkpt lat="45.46945" lon="5.90284">
        <ele>1037.9</ele>
        <time>2000-01-01T10:45:02.000Z</time>
      </trkpt>
      <trkpt lat="45.46951" lon="5.9028">
        <ele>1037.6</ele>
        <time>2000-01-01T10:45:12.000Z</time>
      </trkpt>
      <trkpt lat="45.46955" lon="5.90269">
        <ele>1035</ele>
        <time>2000-01-01T10:45:22.000Z</time>
      </trkpt>
      <trkpt lat="45.46945" lon="5.90264">
        <ele>1035</ele>
        <time>2000-01-01T10:45:32.000Z</time>
      </trkpt>
      <trkpt lat="45.46935" lon="5.90257">
        <ele>1034</ele>
        <time>2000-01-01T10:45:42.000Z</time>
      </trkpt>
      <trkpt lat="45.46926" lon="5.9025">
        <ele>1033.7</ele>
        <time>2000-01-01T10:45:52.000Z</time>
      </trkpt>
      <trkpt lat="45.46909" lon="5.90229">
        <ele>1031</ele>
        <time>2000-01-01T10:46:02.000Z</time>
      </trkpt>
      <trkpt lat="45.46897" lon="5.90211">
        <ele>1030.9</ele>
        <time>2000-01-01T10:46:12.000Z</time>
      </trkpt>
      <trkpt lat="45.46908" lon="5.90211">
        <ele>1031</ele>
        <time>2000-01-01T10:46:22.000Z</time>
      </trkpt>
      <trkpt lat="45.46919" lon="5.90212">
        <ele>1029.8</ele>
        <time>2000-01-01T10:46:32.000Z</time>
      </trkpt>
      <trkpt lat="45.46947" lon="5.90211">
        <ele>1028</ele>
        <time>2000-01-01T10:46:42.000Z</time>
      </trkpt>
      <trkpt lat="45.46957" lon="5.9021">
        <ele>1027.8</ele>
        <time>2000-01-01T10:46:52.000Z</time>
      </trkpt>
      <trkpt lat="45.46981" lon="5.902">
        <ele>1025</ele>
        <time>2000-01-01T10:47:02.000Z</time>
      </trkpt>
      <trkpt lat="45.46996" lon="5.90197">
        <ele>1022.9</ele>
        <time>2000-01-01T10:47:12.000Z</time>
      </trkpt>
      <trkpt lat="45.47003" lon="5.90197">
        <ele>1021</ele>
        <time>2000-01-01T10:47:22.000Z</time>
      </trkpt>
      <trkpt lat="45.47012" lon="5.902">
        <ele>1021.4</ele>
        <time>2000-01-01T10:47:32.000Z</time>
      </trkpt>
      <trkpt lat="45.47037" lon="5.90212">
        <ele>1020</ele>
        <time>2000-01-01T10:47:42.000Z</time>
      </trkpt>
      <trkpt lat="45.47052" lon="5.90217">
        <ele>1020.4</ele>
        <time>2000-01-01T10:47:52.000Z</time>
      </trkpt>
      <trkpt lat="45.47064" lon="5.90218">
        <ele>1019</ele>
        <time>2000-01-01T10:48:02.000Z</time>
      </trkpt>
      <trkpt lat="45.47072" lon="5.90217">
        <ele>1020.5</ele>
        <time>2000-01-01T10:48:12.000Z</time>
      </trkpt>
      <trkpt lat="45.4708" lon="5.90215">
        <ele>1020.6</ele>
        <time>2000-01-01T10:48:22.000Z</time>
      </trkpt>
      <trkpt lat="45.47086" lon="5.90209">
        <ele>1019</ele>
        <time>2000-01-01T10:48:32.000Z</time>
      </trkpt>
      <trkpt lat="45.47088" lon="5.90206">
        <ele>1020.9</ele>
        <time>2000-01-01T10:48:42.000Z</time>
      </trkpt>
      <trkpt lat="45.47093" lon="5.90193">
        <ele>1021</ele>
        <time>2000-01-01T10:48:52.000Z</time>
      </trkpt>
      <trkpt lat="45.47096" lon="5.9019">
        <ele>1021.1</ele>
        <time>2000-01-01T10:49:02.000Z</time>
      </trkpt>
      <trkpt lat="45.47092" lon="5.90187">
        <ele>1018</ele>
        <time>2000-01-01T10:49:12.000Z</time>
      </trkpt>
      <trkpt lat="45.47084" lon="5.90181">
        <ele>1020</ele>
        <time>2000-01-01T10:49:22.000Z</time>
      </trkpt>
      <trkpt lat="45.47077" lon="5.90175">
        <ele>1019.1</ele>
        <time>2000-01-01T10:49:32.000Z</time>
      </trkpt>
      <trkpt lat="45.4707" lon="5.90166">
        <ele>1017</ele>
        <time>2000-01-01T10:49:42.000Z</time>
      </trkpt>
      <trkpt lat="45.47058" lon="5.90148">
        <ele>1016.1</ele>
        <time>2000-01-01T10:49:52.000Z</time>
      </trkpt>
      <trkpt lat="45.47051" lon="5.90134">
        <ele>1014</ele>
        <time>2000-01-01T10:50:02.000Z</time>
      </trkpt>
      <trkpt lat="45.47046" lon="5.90119">
        <ele>1010.4</ele>
        <time>2000-01-01T10:50:12.000Z</time>
      </trkpt>
      <trkpt lat="45.47043" lon="5.90105">
        <ele>1008</ele>
        <time>2000-01-01T10:50:22.000Z</time>
      </trkpt>
      <trkpt lat="45.47043" lon="5.90095">
        <ele>1006.3</ele>
        <time>2000-01-01T10:50:32.000Z</time>
      </trkpt>
      <trkpt lat="45.47049" lon="5.90092">
        <ele>1006.2</ele>
        <time>2000-01-01T10:50:42.000Z</time>
      </trkpt>
      <trkpt lat="45.47064" lon="5.9009">
        <ele>1005</ele>
        <time>2000-01-01T10:50:52.000Z</time>
      </trkpt>
      <trkpt lat="45.47076" lon="5.90088">
        <ele>1005.1</ele>
        <time>2000-01-01T10:51:02.000Z</time>
      </trkpt>
      <trkpt lat="45.4708" lon="5.90087">
        <ele>1004.8</ele>
        <time>2000-01-01T10:51:12.000Z</time>
      </trkpt>
      <trkpt lat="45.47091" lon="5.90083">
        <ele>1003</ele>
        <time>2000-01-01T10:51:22.000Z</time>
      </trkpt>
      <trkpt lat="45.471" lon="5.90081">
        <ele>1004.2</ele>
        <time>2000-01-01T10:51:32.000Z</time>
      </trkpt>
      <trkpt lat="45.47116" lon="5.90077">
        <ele>1002</ele>
        <time>2000-01-01T10:51:42.000Z</time>
      </trkpt>
      <trkpt lat="45.47134" lon="5.90074">
        <ele>1003.3</ele>
        <time>2000-01-01T10:51:52.000Z</time>
      </trkpt>
      <trkpt lat="45.47151" lon="5.90069">
        <ele>1001</ele>
        <time>2000-01-01T10:52:02.000Z</time>
      </trkpt>
      <trkpt lat="45.47157" lon="5.90062">
        <ele>1002.5</ele>
        <time>2000-01-01T10:52:12.000Z</time>
      </trkpt>
      <trkpt lat="45.47169" lon="5.90054">
        <ele>1001</ele>
        <time>2000-01-01T10:52:22.000Z</time>
      </trkpt>
      <trkpt lat="45.47181" lon="5.90047">
        <ele>1002.5</ele>
        <time>2000-01-01T10:52:32.000Z</time>
      </trkpt>
      <trkpt lat="45.47192" lon="5.90042">
        <ele>1001</ele>
        <time>2000-01-01T10:52:42.000Z</time>
      </trkpt>
      <trkpt lat="45.47201" lon="5.90037">
        <ele>1000.3</ele>
        <time>2000-01-01T10:52:52.000Z</time>
      </trkpt>
      <trkpt lat="45.47206" lon="5.90037">
        <ele>999.7</ele>
        <time>2000-01-01T10:53:02.000Z</time>
      </trkpt>
      <trkpt lat="45.47215" lon="5.90046">
        <ele>1001</ele>
        <time>2000-01-01T10:53:12.000Z</time>
      </trkpt>
      <trkpt lat="45.47222" lon="5.90051">
        <ele>999.5</ele>
        <time>2000-01-01T10:53:22.000Z</time>
      </trkpt>
      <trkpt lat="45.47228" lon="5.90062">
        <ele>1002.4</ele>
        <time>2000-01-01T10:53:32.000Z</time>
      </trkpt>
      <trkpt lat="45.47232" lon="5.90062">
        <ele>1002</ele>
        <time>2000-01-01T10:53:42.000Z</time>
      </trkpt>
      <trkpt lat="45.47238" lon="5.90058">
        <ele>1004.2</ele>
        <time>2000-01-01T10:53:52.000Z</time>
      </trkpt>
      <trkpt lat="45.47239" lon="5.90048">
        <ele>1005.5</ele>
        <time>2000-01-01T10:54:02.000Z</time>
      </trkpt>
      <trkpt lat="45.47236" lon="5.90027">
        <ele>1004</ele>
        <time>2000-01-01T10:54:12.000Z</time>
      </trkpt>
      <trkpt lat="45.47234" lon="5.90007">
        <ele>1013.3</ele>
        <time>2000-01-01T10:54:22.000Z</time>
      </trkpt>
      <trkpt lat="45.47233" lon="5.89995">
        <ele>1013</ele>
        <time>2000-01-01T10:54:32.000Z</time>
      </trkpt>
      <trkpt lat="45.47233" lon="5.89978">
        <ele>1017.6</ele>
        <time>2000-01-01T10:54:42.000Z</time>
      </trkpt>
      <trkpt lat="45.47234" lon="5.89963">
        <ele>1017</ele>
        <time>2000-01-01T10:54:52.000Z</time>
      </trkpt>
      <trkpt lat="45.47237" lon="5.8995">
        <ele>1021.7</ele>
        <time>2000-01-01T10:55:02.000Z</time>
      </trkpt>
      <trkpt lat="45.47242" lon="5.89937">
        <ele>1022</ele>
        <time>2000-01-01T10:55:12.000Z</time>
      </trkpt>
      <trkpt lat="45.47249" lon="5.89923">
        <ele>1027</ele>
        <time>2000-01-01T10:55:22.000Z</time>
      </trkpt>
      <trkpt lat="45.4726" lon="5.89902">
        <ele>1030</ele>
        <time>2000-01-01T10:55:32.000Z</time>
      </trkpt>
      <trkpt lat="45.47266" lon="5.89893">
        <ele>1032.3</ele>
        <time>2000-01-01T10:55:42.000Z</time>
      </trkpt>
      <trkpt lat="45.47274" lon="5.89891">
        <ele>1034.3</ele>
        <time>2000-01-01T10:55:52.000Z</time>
      </trkpt>
      <trkpt lat="45.47285" lon="5.89892">
        <ele>1035</ele>
        <time>2000-01-01T10:56:02.000Z</time>
      </trkpt>
      <trkpt lat="45.47292" lon="5.89895">
        <ele>1038</ele>
        <time>2000-01-01T10:56:12.000Z</time>
      </trkpt>
      <trkpt lat="45.473" lon="5.89896">
        <ele>1039.4</ele>
        <time>2000-01-01T10:56:22.000Z</time>
      </trkpt>
      <trkpt lat="45.47305" lon="5.89896">
        <ele>1038</ele>
        <time>2000-01-01T10:56:32.000Z</time>
      </trkpt>
      <trkpt lat="45.47311" lon="5.89893">
        <ele>1040.6</ele>
        <time>2000-01-01T10:56:42.000Z</time>
      </trkpt>
      <trkpt lat="45.47321" lon="5.89881">
        <ele>1040</ele>
        <time>2000-01-01T10:56:52.000Z</time>
      </trkpt>
      <trkpt lat="45.47325" lon="5.89878">
        <ele>1040.9</ele>
        <time>2000-01-01T10:57:02.000Z</time>
      </trkpt>
      <trkpt lat="45.47328" lon="5.89876">
        <ele>1041</ele>
        <time>2000-01-01T10:57:12.000Z</time>
      </trkpt>
      <trkpt lat="45.47332" lon="5.89874">
        <ele>1041.2</ele>
        <time>2000-01-01T10:57:22.000Z</time>
      </trkpt>
      <trkpt lat="45.47338" lon="5.89874">
        <ele>1041.8</ele>
        <time>2000-01-01T10:57:32.000Z</time>
      </trkpt>
      <trkpt lat="45.47352" lon="5.89873">
        <ele>1040</ele>
        <time>2000-01-01T10:57:42.000Z</time>
      </trkpt>
      <trkpt lat="45.47361" lon="5.89869">
        <ele>1043.8</ele>
        <time>2000-01-01T10:57:52.000Z</time>
      </trkpt>
      <trkpt lat="45.47364" lon="5.89866">
        <ele>1043.9</ele>
        <time>2000-01-01T10:58:02.000Z</time>
      </trkpt>
      <trkpt lat="45.47366" lon="5.89861">
        <ele>1043.7</ele>
        <time>2000-01-01T10:58:12.000Z</time>
      </trkpt>
      <trkpt lat="45.47367" lon="5.89855">
        <ele>1045</ele>
        <time>2000-01-01T10:58:22.000Z</time>
      </trkpt>
      <trkpt lat="45.47366" lon="5.89819">
        <ele>1052</ele>
        <time>2000-01-01T10:58:32.000Z</time>
      </trkpt>
      <trkpt lat="45.47367" lon="5.89809">
        <ele>1053.1</ele>
        <time>2000-01-01T10:58:42.000Z</time>
      </trkpt>
      <trkpt lat="45.4737" lon="5.898">
        <ele>1055.1</ele>
        <time>2000-01-01T10:58:52.000Z</time>
      </trkpt>
      <trkpt lat="45.47372" lon="5.89796">
        <ele>1056.2</ele>
        <time>2000-01-01T10:59:02.000Z</time>
      </trkpt>
      <trkpt lat="45.47378" lon="5.89785">
        <ele>1059</ele>
        <time>2000-01-01T10:59:12.000Z</time>
      </trkpt>
      <trkpt lat="45.4738" lon="5.89771">
        <ele>1063</ele>
        <time>2000-01-01T10:59:22.000Z</time>
      </trkpt>
      <trkpt lat="45.47382" lon="5.89767">
        <ele>1064.3</ele>
        <time>2000-01-01T10:59:32.000Z</time>
      </trkpt>
      <trkpt lat="45.47382" lon="5.8976">
        <ele>1065.9</ele>
        <time>2000-01-01T10:59:42.000Z</time>
      </trkpt>
      <trkpt lat="45.4738" lon="5.89746">
        <ele>1070</ele>
        <time>2000-01-01T10:59:52.000Z</time>
      </trkpt>
      <trkpt lat="45.47376" lon="5.89734">
        <ele>1072.2</ele>
        <time>2000-01-01T11:00:02.000Z</time>
      </trkpt>
      <trkpt lat="45.47368" lon="5.89717">
        <ele>1076</ele>
        <time>2000-01-01T11:00:12.000Z</time>
      </trkpt>
      <trkpt lat="45.47366" lon="5.8971">
        <ele>1077.6</ele>
        <time>2000-01-01T11:00:22.000Z</time>
      </trkpt>
      <trkpt lat="45.47366" lon="5.89705">
        <ele>1078.8</ele>
        <time>2000-01-01T11:00:32.000Z</time>
      </trkpt>
      <trkpt lat="45.47367" lon="5.89704">
        <ele>1079.3</ele>
        <time>2000-01-01T11:00:42.000Z</time>
      </trkpt>
      <trkpt lat="45.4737" lon="5.89701">
        <ele>1080.8</ele>
        <time>2000-01-01T11:00:52.000Z</time>
      </trkpt>
      <trkpt lat="45.47374" lon="5.89699">
        <ele>1082.3</ele>
        <time>2000-01-01T11:01:02.000Z</time>
      </trkpt>
      <trkpt lat="45.47387" lon="5.89699">
        <ele>1086</ele>
        <time>2000-01-01T11:01:12.000Z</time>
      </trkpt>
      <trkpt lat="45.47393" lon="5.89696">
        <ele>1087.5</ele>
        <time>2000-01-01T11:01:22.000Z</time>
      </trkpt>
      <trkpt lat="45.47396" lon="5.89694">
        <ele>1088</ele>
        <time>2000-01-01T11:01:32.000Z</time>
      </trkpt>
      <trkpt lat="45.47413" lon="5.89682">
        <ele>1088</ele>
        <time>2000-01-01T11:01:42.000Z</time>
      </trkpt>
      <trkpt lat="45.4742" lon="5.8968">
        <ele>1088.2</ele>
        <time>2000-01-01T11:01:52.000Z</time>
      </trkpt>
      <trkpt lat="45.47431" lon="5.89678">
        <ele>1088.9</ele>
        <time>2000-01-01T11:02:02.000Z</time>
      </trkpt>
      <trkpt lat="45.47453" lon="5.89698">
        <ele>1092</ele>
        <time>2000-01-01T11:02:12.000Z</time>
      </trkpt>
      <trkpt lat="45.47468" lon="5.89708">
        <ele>1099.3</ele>
        <time>2000-01-01T11:02:22.000Z</time>
      </trkpt>
      <trkpt lat="45.47478" lon="5.89718">
        <ele>1102</ele>
        <time>2000-01-01T11:02:32.000Z</time>
      </trkpt>
      <trkpt lat="45.4749" lon="5.89728">
        <ele>1107.9</ele>
        <time>2000-01-01T11:02:42.000Z</time>
      </trkpt>
      <trkpt lat="45.47497" lon="5.89737">
        <ele>1109</ele>
        <time>2000-01-01T11:02:52.000Z</time>
      </trkpt>
      <trkpt lat="45.47502" lon="5.89742">
        <ele>1112.3</ele>
        <time>2000-01-01T11:03:02.000Z</time>
      </trkpt>
      <trkpt lat="45.4753" lon="5.89753">
        <ele>1118</ele>
        <time>2000-01-01T11:03:12.000Z</time>
      </trkpt>
      <trkpt lat="45.47551" lon="5.89762">
        <ele>1123</ele>
        <time>2000-01-01T11:03:32.000Z</time>
      </trkpt>
      <trkpt lat="45.47586" lon="5.89782">
        <ele>1123</ele>
        <time>2000-01-01T11:03:42.000Z</time>
      </trkpt>
      <trkpt lat="45.476" lon="5.89795">
        <ele>1127.1</ele>
        <time>2000-01-01T11:03:52.000Z</time>
      </trkpt>
      <trkpt lat="45.47617" lon="5.89814">
        <ele>1131</ele>
        <time>2000-01-01T11:04:02.000Z</time>
      </trkpt>
      <trkpt lat="45.47634" lon="5.89842">
        <ele>1140</ele>
        <time>2000-01-01T11:04:12.000Z</time>
      </trkpt>
      <trkpt lat="45.47659" lon="5.89883">
        <ele>1145</ele>
        <time>2000-01-01T11:04:22.000Z</time>
      </trkpt>
      <trkpt lat="45.47673" lon="5.89908">
        <ele>1149</ele>
        <time>2000-01-01T11:04:32.000Z</time>
      </trkpt>
      <trkpt lat="45.4768" lon="5.89916">
        <ele>1152.7</ele>
        <time>2000-01-01T11:04:42.000Z</time>
      </trkpt>
      <trkpt lat="45.47687" lon="5.89921">
        <ele>1154.8</ele>
        <time>2000-01-01T11:04:52.000Z</time>
      </trkpt>
      <trkpt lat="45.47696" lon="5.89926">
        <ele>1156</ele>
        <time>2000-01-01T11:05:02.000Z</time>
      </trkpt>
      <trkpt lat="45.47714" lon="5.89934">
        <ele>1163</ele>
        <time>2000-01-01T11:05:12.000Z</time>
      </trkpt>
      <trkpt lat="45.47724" lon="5.8994">
        <ele>1166.3</ele>
        <time>2000-01-01T11:05:22.000Z</time>
      </trkpt>
      <trkpt lat="45.47733" lon="5.89947">
        <ele>1170</ele>
        <time>2000-01-01T11:05:32.000Z</time>
      </trkpt>
      <trkpt lat="45.47746" lon="5.89953">
        <ele>1171.8</ele>
        <time>2000-01-01T11:05:42.000Z</time>
      </trkpt>
      <trkpt lat="45.47789" lon="5.89982">
        <ele>1178</ele>
        <time>2000-01-01T11:05:52.000Z</time>
      </trkpt>
      <trkpt lat="45.47808" lon="5.90003">
        <ele>1180</ele>
        <time>2000-01-01T11:06:02.000Z</time>
      </trkpt>
      <trkpt lat="45.47819" lon="5.90015">
        <ele>1180.9</ele>
        <time>2000-01-01T11:06:12.000Z</time>
      </trkpt>
      <trkpt lat="45.47832" lon="5.90024">
        <ele>1182</ele>
        <time>2000-01-01T11:06:22.000Z</time>
      </trkpt>
      <trkpt lat="45.47839" lon="5.90028">
        <ele>1183.6</ele>
        <time>2000-01-01T11:06:32.000Z</time>
      </trkpt>
      <trkpt lat="45.47845" lon="5.90031">
        <ele>1184.3</ele>
        <time>2000-01-01T11:06:42.000Z</time>
      </trkpt>
      <trkpt lat="45.47851" lon="5.90036">
        <ele>1184</ele>
        <time>2000-01-01T11:06:52.000Z</time>
      </trkpt>
      <trkpt lat="45.47882" lon="5.90037">
        <ele>1187</ele>
        <time>2000-01-01T11:07:02.000Z</time>
      </trkpt>
      <trkpt lat="45.47891" lon="5.90042">
        <ele>1189.3</ele>
        <time>2000-01-01T11:07:12.000Z</time>
      </trkpt>
      <trkpt lat="45.47914" lon="5.90048">
        <ele>1191</ele>
        <time>2000-01-01T11:07:22.000Z</time>
      </trkpt>
      <trkpt lat="45.47922" lon="5.90051">
        <ele>1194</ele>
        <time>2000-01-01T11:07:32.000Z</time>
      </trkpt>
      <trkpt lat="45.4794" lon="5.90044">
        <ele>1191</ele>
        <time>2000-01-01T11:07:42.000Z</time>
      </trkpt>
      <trkpt lat="45.47947" lon="5.90042">
        <ele>1192.3</ele>
        <time>2000-01-01T11:07:52.000Z</time>
      </trkpt>
      <trkpt lat="45.47953" lon="5.90039">
        <ele>1192</ele>
        <time>2000-01-01T11:08:02.000Z</time>
      </trkpt>
      <trkpt lat="45.47961" lon="5.90034">
        <ele>1191</ele>
        <time>2000-01-01T11:08:12.000Z</time>
      </trkpt>
      <trkpt lat="45.47976" lon="5.90027">
        <ele>1191</ele>
        <time>2000-01-01T11:08:22.000Z</time>
      </trkpt>
      <trkpt lat="45.47991" lon="5.90025">
        <ele>1190</ele>
        <time>2000-01-01T11:08:32.000Z</time>
      </trkpt>
      <trkpt lat="45.48006" lon="5.9002">
        <ele>1191.2</ele>
        <time>2000-01-01T11:08:42.000Z</time>
      </trkpt>
      <trkpt lat="45.48008" lon="5.90018">
        <ele>1191.1</ele>
        <time>2000-01-01T11:08:52.000Z</time>
      </trkpt>
      <trkpt lat="45.48012" lon="5.90015">
        <ele>1190</ele>
        <time>2000-01-01T11:09:02.000Z</time>
      </trkpt>
      <trkpt lat="45.48018" lon="5.90011">
        <ele>1190.9</ele>
        <time>2000-01-01T11:09:12.000Z</time>
      </trkpt>
      <trkpt lat="45.48025" lon="5.90007">
        <ele>1191</ele>
        <time>2000-01-01T11:09:22.000Z</time>
      </trkpt>
      <trkpt lat="45.48032" lon="5.90005">
        <ele>1189</ele>
        <time>2000-01-01T11:09:32.000Z</time>
      </trkpt>
      <trkpt lat="45.48055" lon="5.9">
        <ele>1189</ele>
        <time>2000-01-01T11:09:42.000Z</time>
      </trkpt>
      <trkpt lat="45.48064" lon="5.89997">
        <ele>1188.6</ele>
        <time>2000-01-01T11:09:52.000Z</time>
      </trkpt>
      <trkpt lat="45.48085" lon="5.89984">
        <ele>1186</ele>
        <time>2000-01-01T11:10:02.000Z</time>
      </trkpt>
      <trkpt lat="45.48094" lon="5.8998">
        <ele>1185.8</ele>
        <time>2000-01-01T11:10:12.000Z</time>
      </trkpt>
      <trkpt lat="45.48102" lon="5.89978">
        <ele>1185.3</ele>
        <time>2000-01-01T11:10:22.000Z</time>
      </trkpt>
      <trkpt lat="45.48118" lon="5.89972">
        <ele>1183</ele>
        <time>2000-01-01T11:10:32.000Z</time>
      </trkpt>
      <trkpt lat="45.48142" lon="5.89958">
        <ele>1183</ele>
        <time>2000-01-01T11:10:42.000Z</time>
      </trkpt>
      <trkpt lat="45.4815" lon="5.89953">
        <ele>1185</ele>
        <time>2000-01-01T11:10:52.000Z</time>
      </trkpt>
      <trkpt lat="45.48157" lon="5.8995">
        <ele>1185.1</ele>
        <time>2000-01-01T11:11:02.000Z</time>
      </trkpt>
      <trkpt lat="45.48179" lon="5.89948">
        <ele>1184</ele>
        <time>2000-01-01T11:11:12.000Z</time>
      </trkpt>
      <trkpt lat="45.48188" lon="5.89945">
        <ele>1185.8</ele>
        <time>2000-01-01T11:11:22.000Z</time>
      </trkpt>
      <trkpt lat="45.48198" lon="5.8994">
        <ele>1184</ele>
        <time>2000-01-01T11:11:32.000Z</time>
      </trkpt>
      <trkpt lat="45.48214" lon="5.89927">
        <ele>1183</ele>
        <time>2000-01-01T11:11:42.000Z</time>
      </trkpt>
      <trkpt lat="45.48223" lon="5.8992">
        <ele>1184.4</ele>
        <time>2000-01-01T11:11:52.000Z</time>
      </trkpt>
      <trkpt lat="45.4824" lon="5.89911">
        <ele>1183</ele>
        <time>2000-01-01T11:12:02.000Z</time>
      </trkpt>
      <trkpt lat="45.48257" lon="5.89904">
        <ele>1185.3</ele>
        <time>2000-01-01T11:12:12.000Z</time>
      </trkpt>
      <trkpt lat="45.48288" lon="5.89877">
        <ele>1184</ele>
        <time>2000-01-01T11:12:22.000Z</time>
      </trkpt>
      <trkpt lat="45.48304" lon="5.89862">
        <ele>1185</ele>
        <time>2000-01-01T11:12:32.000Z</time>
      </trkpt>
      <trkpt lat="45.48316" lon="5.89847">
        <ele>1186.5</ele>
        <time>2000-01-01T11:12:42.000Z</time>
      </trkpt>
      <trkpt lat="45.48323" lon="5.89839">
        <ele>1186</ele>
        <time>2000-01-01T11:12:52.000Z</time>
      </trkpt>
      <trkpt lat="45.48329" lon="5.89831">
        <ele>1187.2</ele>
        <time>2000-01-01T11:13:02.000Z</time>
      </trkpt>
      <trkpt lat="45.4834" lon="5.89816">
        <ele>1186</ele>
        <time>2000-01-01T11:13:12.000Z</time>
      </trkpt>
      <trkpt lat="45.48347" lon="5.89808">
        <ele>1188.1</ele>
        <time>2000-01-01T11:13:22.000Z</time>
      </trkpt>
      <trkpt lat="45.48359" lon="5.89796">
        <ele>1186</ele>
        <time>2000-01-01T11:13:32.000Z</time>
      </trkpt>
      <trkpt lat="45.48371" lon="5.89787">
        <ele>1188.3</ele>
        <time>2000-01-01T11:13:42.000Z</time>
      </trkpt>
      <trkpt lat="45.48377" lon="5.89785">
        <ele>1187</ele>
        <time>2000-01-01T11:13:52.000Z</time>
      </trkpt>
      <trkpt lat="45.48385" lon="5.89785">
        <ele>1190.4</ele>
        <time>2000-01-01T11:14:02.000Z</time>
      </trkpt>
      <trkpt lat="45.48389" lon="5.89783">
        <ele>1190.8</ele>
        <time>2000-01-01T11:14:12.000Z</time>
      </trkpt>
      <trkpt lat="45.48393" lon="5.89779">
        <ele>1191.3</ele>
        <time>2000-01-01T11:14:22.000Z</time>
      </trkpt>
      <trkpt lat="45.48395" lon="5.89772">
        <ele>1189</ele>
        <time>2000-01-01T11:14:32.000Z</time>
      </trkpt>
      <trkpt lat="45.48397" lon="5.89764">
        <ele>1193</ele>
        <time>2000-01-01T11:14:42.000Z</time>
      </trkpt>
      <trkpt lat="45.48401" lon="5.8975">
        <ele>1194.6</ele>
        <time>2000-01-01T11:14:52.000Z</time>
      </trkpt>
      <trkpt lat="45.48408" lon="5.89734">
        <ele>1193</ele>
        <time>2000-01-01T11:15:02.000Z</time>
      </trkpt>
      <trkpt lat="45.48412" lon="5.89722">
        <ele>1196.3</ele>
        <time>2000-01-01T11:15:12.000Z</time>
      </trkpt>
      <trkpt lat="45.48414" lon="5.89712">
        <ele>1195.9</ele>
        <time>2000-01-01T11:15:22.000Z</time>
      </trkpt>
      <trkpt lat="45.4842" lon="5.89704">
        <ele>1194</ele>
        <time>2000-01-01T11:15:32.000Z</time>
      </trkpt>
      <trkpt lat="45.48422" lon="5.897">
        <ele>1196.3</ele>
        <time>2000-01-01T11:15:42.000Z</time>
      </trkpt>
      <trkpt lat="45.48424" lon="5.89691">
        <ele>1196.2</ele>
        <time>2000-01-01T11:15:52.000Z</time>
      </trkpt>
      <trkpt lat="45.48427" lon="5.89676">
        <ele>1195</ele>
        <time>2000-01-01T11:16:02.000Z</time>
      </trkpt>
      <trkpt lat="45.48432" lon="5.89665">
        <ele>1197.2</ele>
        <time>2000-01-01T11:16:12.000Z</time>
      </trkpt>
      <trkpt lat="45.48439" lon="5.89655">
        <ele>1197.6</ele>
        <time>2000-01-01T11:16:22.000Z</time>
      </trkpt>
      <trkpt lat="45.48446" lon="5.89646">
        <ele>1196</ele>
        <time>2000-01-01T11:16:32.000Z</time>
      </trkpt>
      <trkpt lat="45.48456" lon="5.89637">
        <ele>1198.6</ele>
        <time>2000-01-01T11:16:42.000Z</time>
      </trkpt>
      <trkpt lat="45.48461" lon="5.89628">
        <ele>1198</ele>
        <time>2000-01-01T11:16:52.000Z</time>
      </trkpt>
      <trkpt lat="45.48466" lon="5.89617">
        <ele>1199.5</ele>
        <time>2000-01-01T11:17:02.000Z</time>
      </trkpt>
      <trkpt lat="45.48476" lon="5.89603">
        <ele>1200</ele>
        <time>2000-01-01T11:17:12.000Z</time>
      </trkpt>
      <trkpt lat="45.4848" lon="5.89595">
        <ele>1202.2</ele>
        <time>2000-01-01T11:17:22.000Z</time>
      </trkpt>
      <trkpt lat="45.48482" lon="5.89585">
        <ele>1203</ele>
        <time>2000-01-01T11:17:32.000Z</time>
      </trkpt>
      <trkpt lat="45.48483" lon="5.89575">
        <ele>1204</ele>
        <time>2000-01-01T11:17:42.000Z</time>
      </trkpt>
      <trkpt lat="45.48494" lon="5.89571">
        <ele>1207.6</ele>
        <time>2000-01-01T11:17:52.000Z</time>
      </trkpt>
      <trkpt lat="45.48506" lon="5.89566">
        <ele>1210</ele>
        <time>2000-01-01T11:18:02.000Z</time>
      </trkpt>
      <trkpt lat="45.48518" lon="5.89557">
        <ele>1213.6</ele>
        <time>2000-01-01T11:18:12.000Z</time>
      </trkpt>
      <trkpt lat="45.48527" lon="5.89551">
        <ele>1214</ele>
        <time>2000-01-01T11:18:22.000Z</time>
      </trkpt>
      <trkpt lat="45.4855" lon="5.8954">
        <ele>1224</ele>
        <time>2000-01-01T11:18:32.000Z</time>
      </trkpt>
      <trkpt lat="45.48574" lon="5.89528">
        <ele>1231</ele>
        <time>2000-01-01T11:18:42.000Z</time>
      </trkpt>
      <trkpt lat="45.48606" lon="5.89508">
        <ele>1241</ele>
        <time>2000-01-01T11:18:52.000Z</time>
      </trkpt>
      <trkpt lat="45.48618" lon="5.89498">
        <ele>1243.1</ele>
        <time>2000-01-01T11:19:02.000Z</time>
      </trkpt>
      <trkpt lat="45.4862" lon="5.89496">
        <ele>1244.1</ele>
        <time>2000-01-01T11:19:12.000Z</time>
      </trkpt>
      <trkpt lat="45.48626" lon="5.89485">
        <ele>1249</ele>
        <time>2000-01-01T11:19:22.000Z</time>
      </trkpt>
      <trkpt lat="45.48633" lon="5.89473">
        <ele>1252.2</ele>
        <time>2000-01-01T11:19:32.000Z</time>
      </trkpt>
      <trkpt lat="45.48641" lon="5.89463">
        <ele>1256</ele>
        <time>2000-01-01T11:19:42.000Z</time>
      </trkpt>
      <trkpt lat="45.48651" lon="5.8946">
        <ele>1260.1</ele>
        <time>2000-01-01T11:19:52.000Z</time>
      </trkpt>
      <trkpt lat="45.48666" lon="5.89458">
        <ele>1266</ele>
        <time>2000-01-01T11:20:02.000Z</time>
      </trkpt>
      <trkpt lat="45.48681" lon="5.89459">
        <ele>1269.3</ele>
        <time>2000-01-01T11:20:12.000Z</time>
      </trkpt>
      <trkpt lat="45.48695" lon="5.89462">
        <ele>1271</ele>
        <time>2000-01-01T11:20:22.000Z</time>
      </trkpt>
      <trkpt lat="45.48708" lon="5.89461">
        <ele>1276.5</ele>
        <time>2000-01-01T11:20:32.000Z</time>
      </trkpt>
      <trkpt lat="45.48717" lon="5.89462">
        <ele>1277</ele>
        <time>2000-01-01T11:20:42.000Z</time>
      </trkpt>
      <trkpt lat="45.48738" lon="5.89461">
        <ele>1281</ele>
        <time>2000-01-01T11:20:52.000Z</time>
      </trkpt>
      <trkpt lat="45.48749" lon="5.89464">
        <ele>1284.4</ele>
        <time>2000-01-01T11:21:02.000Z</time>
      </trkpt>
      <trkpt lat="45.48766" lon="5.89472">
        <ele>1282</ele>
        <time>2000-01-01T11:21:12.000Z</time>
      </trkpt>
      <trkpt lat="45.4878" lon="5.89478">
        <ele>1285.5</ele>
        <time>2000-01-01T11:21:22.000Z</time>
      </trkpt>
      <trkpt lat="45.48794" lon="5.89489">
        <ele>1283</ele>
        <time>2000-01-01T11:21:32.000Z</time>
      </trkpt>
      <trkpt lat="45.48812" lon="5.89506">
        <ele>1283</ele>
        <time>2000-01-01T11:21:42.000Z</time>
      </trkpt>
      <trkpt lat="45.48831" lon="5.8952">
        <ele>1284</ele>
        <time>2000-01-01T11:21:52.000Z</time>
      </trkpt>
      <trkpt lat="45.48844" lon="5.89522">
        <ele>1289.9</ele>
        <time>2000-01-01T11:22:02.000Z</time>
      </trkpt>
      <trkpt lat="45.48858" lon="5.89525">
        <ele>1286</ele>
        <time>2000-01-01T11:22:12.000Z</time>
      </trkpt>
      <trkpt lat="45.48868" lon="5.89521">
        <ele>1292.7</ele>
        <time>2000-01-01T11:22:22.000Z</time>
      </trkpt>
      <trkpt lat="45.48878" lon="5.89515">
        <ele>1286</ele>
        <time>2000-01-01T11:22:32.000Z</time>
      </trkpt>
      <trkpt lat="45.48889" lon="5.89491">
        <ele>1286</ele>
        <time>2000-01-01T11:22:42.000Z</time>
      </trkpt>
      <trkpt lat="45.48895" lon="5.89488">
        <ele>1293.9</ele>
        <time>2000-01-01T11:22:52.000Z</time>
      </trkpt>
      <trkpt lat="45.48913" lon="5.89487">
        <ele>1292</ele>
        <time>2000-01-01T11:23:02.000Z</time>
      </trkpt>
      <trkpt lat="45.48938" lon="5.89473">
        <ele>1299</ele>
        <time>2000-01-01T11:23:12.000Z</time>
      </trkpt>
      <trkpt lat="45.48949" lon="5.89464">
        <ele>1306.2</ele>
        <time>2000-01-01T11:23:22.000Z</time>
      </trkpt>
      <trkpt lat="45.48957" lon="5.8946">
        <ele>1303</ele>
        <time>2000-01-01T11:23:32.000Z</time>
      </trkpt>
      <trkpt lat="45.48967" lon="5.89458">
        <ele>1314</ele>
        <time>2000-01-01T11:23:42.000Z</time>
      </trkpt>
      <trkpt lat="45.48982" lon="5.8946">
        <ele>1309</ele>
        <time>2000-01-01T11:23:52.000Z</time>
      </trkpt>
      <trkpt lat="45.48989" lon="5.89457">
        <ele>1321.7</ele>
        <time>2000-01-01T11:24:02.000Z</time>
      </trkpt>
      <trkpt lat="45.48992" lon="5.89453">
        <ele>1321.4</ele>
        <time>2000-01-01T11:24:12.000Z</time>
      </trkpt>
      <trkpt lat="45.48999" lon="5.89444">
        <ele>1315</ele>
        <time>2000-01-01T11:24:22.000Z</time>
      </trkpt>
      <trkpt lat="45.49021" lon="5.89428">
        <ele>1327</ele>
        <time>2000-01-01T11:24:32.000Z</time>
      </trkpt>
      <trkpt lat="45.49034" lon="5.89419">
        <ele>1331.8</ele>
        <time>2000-01-01T11:24:42.000Z</time>
      </trkpt>
      <trkpt lat="45.49047" lon="5.89415">
        <ele>1328</ele>
        <time>2000-01-01T11:24:52.000Z</time>
      </trkpt>
      <trkpt lat="45.49077" lon="5.894">
        <ele>1330</ele>
        <time>2000-01-01T11:25:02.000Z</time>
      </trkpt>
      <trkpt lat="45.49088" lon="5.89401">
        <ele>1334.1</ele>
        <time>2000-01-01T11:25:12.000Z</time>
      </trkpt>
      <trkpt lat="45.49119" lon="5.89407">
        <ele>1340</ele>
        <time>2000-01-01T11:25:22.000Z</time>
      </trkpt>
      <trkpt lat="45.49153" lon="5.8941">
        <ele>1358</ele>
        <time>2000-01-01T11:25:32.000Z</time>
      </trkpt>
      <trkpt lat="45.4919" lon="5.8941">
        <ele>1366</ele>
        <time>2000-01-01T11:25:42.000Z</time>
      </trkpt>
      <trkpt lat="45.49196" lon="5.89411">
        <ele>1373.1</ele>
        <time>2000-01-01T11:25:52.000Z</time>
      </trkpt>
      <trkpt lat="45.49204" lon="5.89422">
        <ele>1378</ele>
        <time>2000-01-01T11:26:02.000Z</time>
      </trkpt>
      <trkpt lat="45.49243" lon="5.89452">
        <ele>1389</ele>
        <time>2000-01-01T11:26:12.000Z</time>
      </trkpt>
      <trkpt lat="45.49269" lon="5.89465">
        <ele>1389</ele>
        <time>2000-01-01T11:26:22.000Z</time>
      </trkpt>
      <trkpt lat="45.49279" lon="5.89475">
        <ele>1393.3</ele>
        <time>2000-01-01T11:26:32.000Z</time>
      </trkpt>
      <trkpt lat="45.49319" lon="5.8952">
        <ele>1405</ele>
        <time>2000-01-01T11:26:42.000Z</time>
      </trkpt>
      <trkpt lat="45.49341" lon="5.89541">
        <ele>1414</ele>
        <time>2000-01-01T11:26:52.000Z</time>
      </trkpt>
      <trkpt lat="45.49369" lon="5.8957">
        <ele>1420</ele>
        <time>2000-01-01T11:27:02.000Z</time>
      </trkpt>
      <trkpt lat="45.4939" lon="5.89588">
        <ele>1423</ele>
        <time>2000-01-01T11:27:12.000Z</time>
      </trkpt>
      <trkpt lat="45.49418" lon="5.89609">
        <ele>1427</ele>
        <time>2000-01-01T11:27:22.000Z</time>
      </trkpt>
      <trkpt lat="45.49439" lon="5.89622">
        <ele>1433</ele>
        <time>2000-01-01T11:27:32.000Z</time>
      </trkpt>
      <trkpt lat="45.49464" lon="5.89634">
        <ele>1434</ele>
        <time>2000-01-01T11:27:42.000Z</time>
      </trkpt>
      <trkpt lat="45.49485" lon="5.89643">
        <ele>1436</ele>
        <time>2000-01-01T11:27:52.000Z</time>
      </trkpt>
      <trkpt lat="45.49505" lon="5.89655">
        <ele>1438</ele>
        <time>2000-01-01T11:28:02.000Z</time>
      </trkpt>
      <trkpt lat="45.49515" lon="5.89663">
        <ele>1439.7</ele>
        <time>2000-01-01T11:28:12.000Z</time>
      </trkpt>
      <trkpt lat="45.49518" lon="5.89663">
        <ele>1439.3</ele>
        <time>2000-01-01T11:28:22.000Z</time>
      </trkpt>
      <trkpt lat="45.49522" lon="5.89661">
        <ele>1438.4</ele>
        <time>2000-01-01T11:28:32.000Z</time>
      </trkpt>
      <trkpt lat="45.49528" lon="5.89652">
        <ele>1438</ele>
        <time>2000-01-01T11:28:42.000Z</time>
      </trkpt>
      <trkpt lat="45.49543" lon="5.89636">
        <ele>1436.4</ele>
        <time>2000-01-01T11:28:52.000Z</time>
      </trkpt>
      <trkpt lat="45.49543" lon="5.89635">
        <ele>1436.4</ele>
        <time>2000-01-01T11:29:02.000Z</time>
      </trkpt>
      <trkpt lat="45.4957" lon="5.89601">
        <ele>1441</ele>
        <time>2000-01-01T11:29:12.000Z</time>
      </trkpt>
      <trkpt lat="45.49575" lon="5.89593">
        <ele>1443.8</ele>
        <time>2000-01-01T11:29:22.000Z</time>
      </trkpt>
      <trkpt lat="45.49577" lon="5.89587">
        <ele>1445</ele>
        <time>2000-01-01T11:29:32.000Z</time>
      </trkpt>
      <trkpt lat="45.49574" lon="5.89491">
        <ele>1449</ele>
        <time>2000-01-01T11:29:42.000Z</time>
      </trkpt>
      <trkpt lat="45.49574" lon="5.89484">
        <ele>1452.2</ele>
        <time>2000-01-01T11:29:52.000Z</time>
      </trkpt>
      <trkpt lat="45.49575" lon="5.89479">
        <ele>1453.1</ele>
        <time>2000-01-01T11:30:02.000Z</time>
      </trkpt>
      <trkpt lat="45.49643" lon="5.89402">
        <ele>1480</ele>
        <time>2000-01-01T11:30:12.000Z</time>
      </trkpt>
      <trkpt lat="45.49656" lon="5.89385">
        <ele>1476.4</ele>
        <time>2000-01-01T11:30:22.000Z</time>
      </trkpt>
      <trkpt lat="45.49659" lon="5.89389">
        <ele>1478</ele>
        <time>2000-01-01T11:30:32.000Z</time>
      </trkpt>
      <trkpt lat="45.49663" lon="5.89393">
        <ele>1477.6</ele>
        <time>2000-01-01T11:30:42.000Z</time>
      </trkpt>
      <trkpt lat="45.49671" lon="5.89407">
        <ele>1475.6</ele>
        <time>2000-01-01T11:30:52.000Z</time>
      </trkpt>
      <trkpt lat="45.49697" lon="5.89435">
        <ele>1476</ele>
        <time>2000-01-01T11:31:02.000Z</time>
      </trkpt>
      <trkpt lat="45.49704" lon="5.89445">
        <ele>1465.4</ele>
        <time>2000-01-01T11:31:12.000Z</time>
      </trkpt>
      <trkpt lat="45.49712" lon="5.89462">
        <ele>1467</ele>
        <time>2000-01-01T11:31:22.000Z</time>
      </trkpt>
      <trkpt lat="45.49721" lon="5.89477">
        <ele>1460.4</ele>
        <time>2000-01-01T11:31:32.000Z</time>
      </trkpt>
      <trkpt lat="45.49731" lon="5.8949">
        <ele>1456</ele>
        <time>2000-01-01T11:31:42.000Z</time>
      </trkpt>
      <trkpt lat="45.4975" lon="5.89524">
        <ele>1447</ele>
        <time>2000-01-01T11:31:52.000Z</time>
      </trkpt>
      <trkpt lat="45.49783" lon="5.89585">
        <ele>1429</ele>
        <time>2000-01-01T11:32:02.000Z</time>
      </trkpt>
      <trkpt lat="45.49801" lon="5.89617">
        <ele>1423</ele>
        <time>2000-01-01T11:32:12.000Z</time>
      </trkpt>
      <trkpt lat="45.49814" lon="5.89637">
        <ele>1420</ele>
        <time>2000-01-01T11:32:22.000Z</time>
      </trkpt>
      <trkpt lat="45.49819" lon="5.89641">
        <ele>1411.8</ele>
        <time>2000-01-01T11:32:32.000Z</time>
      </trkpt>
      <trkpt lat="45.49822" lon="5.89644">
        <ele>1410.9</ele>
        <time>2000-01-01T11:32:42.000Z</time>
      </trkpt>
      <trkpt lat="45.49829" lon="5.89656">
        <ele>1416</ele>
        <time>2000-01-01T11:32:52.000Z</time>
      </trkpt>
      <trkpt lat="45.49836" lon="5.89675">
        <ele>1411.2</ele>
        <time>2000-01-01T11:33:02.000Z</time>
      </trkpt>
      <trkpt lat="45.49856" lon="5.89701">
        <ele>1407</ele>
        <time>2000-01-01T11:33:12.000Z</time>
      </trkpt>
      <trkpt lat="45.49883" lon="5.89729">
        <ele>1400</ele>
        <time>2000-01-01T11:33:22.000Z</time>
      </trkpt>
      <trkpt lat="45.49901" lon="5.89739">
        <ele>1387</ele>
        <time>2000-01-01T11:33:32.000Z</time>
      </trkpt>
      <trkpt lat="45.49927" lon="5.8975">
        <ele>1373</ele>
        <time>2000-01-01T11:33:42.000Z</time>
      </trkpt>
      <trkpt lat="45.49966" lon="5.89767">
        <ele>1362</ele>
        <time>2000-01-01T11:33:52.000Z</time>
      </trkpt>
      <trkpt lat="45.49995" lon="5.89788">
        <ele>1355</ele>
        <time>2000-01-01T11:34:02.000Z</time>
      </trkpt>
      <trkpt lat="45.50017" lon="5.8981">
        <ele>1354</ele>
        <time>2000-01-01T11:34:12.000Z</time>
      </trkpt>
      <trkpt lat="45.50043" lon="5.89837">
        <ele>1353</ele>
        <time>2000-01-01T11:34:22.000Z</time>
      </trkpt>
      <trkpt lat="45.5007" lon="5.89865">
        <ele>1352</ele>
        <time>2000-01-01T11:34:32.000Z</time>
      </trkpt>
      <trkpt lat="45.50096" lon="5.89894">
        <ele>1351</ele>
        <time>2000-01-01T11:34:42.000Z</time>
      </trkpt>
      <trkpt lat="45.50135" lon="5.89935">
        <ele>1351</ele>
        <time>2000-01-01T11:34:52.000Z</time>
      </trkpt>
      <trkpt lat="45.50158" lon="5.89966">
        <ele>1350</ele>
        <time>2000-01-01T11:35:02.000Z</time>
      </trkpt>
      <trkpt lat="45.5016" lon="5.89975">
        <ele>1348.5</ele>
        <time>2000-01-01T11:35:12.000Z</time>
      </trkpt>
      <trkpt lat="45.50163" lon="5.89981">
        <ele>1347.8</ele>
        <time>2000-01-01T11:35:22.000Z</time>
      </trkpt>
      <trkpt lat="45.50163" lon="5.89984">
        <ele>1347.2</ele>
        <time>2000-01-01T11:35:32.000Z</time>
      </trkpt>
      <trkpt lat="45.50163" lon="5.89988">
        <ele>1346.5</ele>
        <time>2000-01-01T11:35:42.000Z</time>
      </trkpt>
      <trkpt lat="45.50162" lon="5.89993">
        <ele>1346</ele>
        <time>2000-01-01T11:35:52.000Z</time>
      </trkpt>
      <trkpt lat="45.50159" lon="5.89995">
        <ele>1344.3</ele>
        <time>2000-01-01T11:36:02.000Z</time>
      </trkpt>
      <trkpt lat="45.50155" lon="5.89996">
        <ele>1343.3</ele>
        <time>2000-01-01T11:36:12.000Z</time>
      </trkpt>
      <trkpt lat="45.5014" lon="5.89993">
        <ele>1340</ele>
        <time>2000-01-01T11:36:22.000Z</time>
      </trkpt>
      <trkpt lat="45.50134" lon="5.89995">
        <ele>1339.6</ele>
        <time>2000-01-01T11:36:32.000Z</time>
      </trkpt>
      <trkpt lat="45.50129" lon="5.89997">
        <ele>1338.4</ele>
        <time>2000-01-01T11:36:42.000Z</time>
      </trkpt>
      <trkpt lat="45.50128" lon="5.90001">
        <ele>1337.1</ele>
        <time>2000-01-01T11:36:52.000Z</time>
      </trkpt>
      <trkpt lat="45.50127" lon="5.90005">
        <ele>1335.4</ele>
        <time>2000-01-01T11:37:02.000Z</time>
      </trkpt>
      <trkpt lat="45.50129" lon="5.90013">
        <ele>1330</ele>
        <time>2000-01-01T11:37:12.000Z</time>
      </trkpt>
      <trkpt lat="45.50133" lon="5.90026">
        <ele>1329.1</ele>
        <time>2000-01-01T11:37:22.000Z</time>
      </trkpt>
      <trkpt lat="45.50139" lon="5.90043">
        <ele>1327</ele>
        <time>2000-01-01T11:37:32.000Z</time>
      </trkpt>
      <trkpt lat="45.50147" lon="5.90057">
        <ele>1324.8</ele>
        <time>2000-01-01T11:37:42.000Z</time>
      </trkpt>
      <trkpt lat="45.50153" lon="5.90063">
        <ele>1325</ele>
        <time>2000-01-01T11:37:52.000Z</time>
      </trkpt>
      <trkpt lat="45.50157" lon="5.9007">
        <ele>1325.5</ele>
        <time>2000-01-01T11:38:02.000Z</time>
      </trkpt>
      <trkpt lat="45.50158" lon="5.90082">
        <ele>1322.9</ele>
        <time>2000-01-01T11:38:12.000Z</time>
      </trkpt>
      <trkpt lat="45.50159" lon="5.90118">
        <ele>1314</ele>
        <time>2000-01-01T11:38:22.000Z</time>
      </trkpt>
      <trkpt lat="45.50162" lon="5.90135">
        <ele>1313</ele>
        <time>2000-01-01T11:38:32.000Z</time>
      </trkpt>
      <trkpt lat="45.50166" lon="5.90146">
        <ele>1312</ele>
        <time>2000-01-01T11:38:42.000Z</time>
      </trkpt>
      <trkpt lat="45.50184" lon="5.90173">
        <ele>1308</ele>
        <time>2000-01-01T11:38:52.000Z</time>
      </trkpt>
      <trkpt lat="45.50208" lon="5.9022">
        <ele>1298</ele>
        <time>2000-01-01T11:39:02.000Z</time>
      </trkpt>
      <trkpt lat="45.50211" lon="5.90231">
        <ele>1294.3</ele>
        <time>2000-01-01T11:39:12.000Z</time>
      </trkpt>
      <trkpt lat="45.50213" lon="5.9028">
        <ele>1285</ele>
        <time>2000-01-01T11:39:22.000Z</time>
      </trkpt>
      <trkpt lat="45.50215" lon="5.90294">
        <ele>1281.1</ele>
        <time>2000-01-01T11:39:32.000Z</time>
      </trkpt>
      <trkpt lat="45.50223" lon="5.90316">
        <ele>1276</ele>
        <time>2000-01-01T11:39:42.000Z</time>
      </trkpt>
      <trkpt lat="45.50229" lon="5.90332">
        <ele>1272.5</ele>
        <time>2000-01-01T11:39:52.000Z</time>
      </trkpt>
      <trkpt lat="45.5024" lon="5.90354">
        <ele>1264</ele>
        <time>2000-01-01T11:40:02.000Z</time>
      </trkpt>
      <trkpt lat="45.50242" lon="5.90364">
        <ele>1265.6</ele>
        <time>2000-01-01T11:40:12.000Z</time>
      </trkpt>
      <trkpt lat="45.50241" lon="5.90383">
        <ele>1259</ele>
        <time>2000-01-01T11:40:22.000Z</time>
      </trkpt>
      <trkpt lat="45.50239" lon="5.90398">
        <ele>1256.4</ele>
        <time>2000-01-01T11:40:32.000Z</time>
      </trkpt>
      <trkpt lat="45.50236" lon="5.90408">
        <ele>1254.4</ele>
        <time>2000-01-01T11:40:42.000Z</time>
      </trkpt>
      <trkpt lat="45.50234" lon="5.90419">
        <ele>1253</ele>
        <time>2000-01-01T11:40:52.000Z</time>
      </trkpt>
      <trkpt lat="45.50234" lon="5.90427">
        <ele>1251.2</ele>
        <time>2000-01-01T11:41:02.000Z</time>
      </trkpt>
      <trkpt lat="45.50235" lon="5.90438">
        <ele>1249.8</ele>
        <time>2000-01-01T11:41:12.000Z</time>
      </trkpt>
      <trkpt lat="45.50234" lon="5.9045">
        <ele>1248</ele>
        <time>2000-01-01T11:41:22.000Z</time>
      </trkpt>
      <trkpt lat="45.50231" lon="5.90467">
        <ele>1245.3</ele>
        <time>2000-01-01T11:41:32.000Z</time>
      </trkpt>
      <trkpt lat="45.50228" lon="5.90478">
        <ele>1243</ele>
        <time>2000-01-01T11:41:42.000Z</time>
      </trkpt>
      <trkpt lat="45.50223" lon="5.90488">
        <ele>1240.3</ele>
        <time>2000-01-01T11:41:52.000Z</time>
      </trkpt>
      <trkpt lat="45.50209" lon="5.90502">
        <ele>1234</ele>
        <time>2000-01-01T11:42:02.000Z</time>
      </trkpt>
      <trkpt lat="45.50213" lon="5.90522">
        <ele>1233.4</ele>
        <time>2000-01-01T11:42:12.000Z</time>
      </trkpt>
      <trkpt lat="45.50217" lon="5.90534">
        <ele>1231</ele>
        <time>2000-01-01T11:42:22.000Z</time>
      </trkpt>
      <trkpt lat="45.50222" lon="5.90545">
        <ele>1232.1</ele>
        <time>2000-01-01T11:42:32.000Z</time>
      </trkpt>
      <trkpt lat="45.50233" lon="5.90566">
        <ele>1231</ele>
        <time>2000-01-01T11:42:42.000Z</time>
      </trkpt>
      <trkpt lat="45.5024" lon="5.90577">
        <ele>1231.4</ele>
        <time>2000-01-01T11:42:52.000Z</time>
      </trkpt>
      <trkpt lat="45.50239" lon="5.90586">
        <ele>1229.8</ele>
        <time>2000-01-01T11:43:02.000Z</time>
      </trkpt>
      <trkpt lat="45.50242" lon="5.90597">
        <ele>1229</ele>
        <time>2000-01-01T11:43:12.000Z</time>
      </trkpt>
      <trkpt lat="45.50247" lon="5.90605">
        <ele>1225.6</ele>
        <time>2000-01-01T11:43:22.000Z</time>
      </trkpt>
      <trkpt lat="45.50255" lon="5.90613">
        <ele>1223.5</ele>
        <time>2000-01-01T11:43:32.000Z</time>
      </trkpt>
      <trkpt lat="45.50259" lon="5.90627">
        <ele>1221</ele>
        <time>2000-01-01T11:43:42.000Z</time>
      </trkpt>
      <trkpt lat="45.50261" lon="5.9064">
        <ele>1216.7</ele>
        <time>2000-01-01T11:43:52.000Z</time>
      </trkpt>
      <trkpt lat="45.50262" lon="5.90653">
        <ele>1213.4</ele>
        <time>2000-01-01T11:44:02.000Z</time>
      </trkpt>
      <trkpt lat="45.50266" lon="5.90662">
        <ele>1213</ele>
        <time>2000-01-01T11:44:12.000Z</time>
      </trkpt>
      <trkpt lat="45.50281" lon="5.90674">
        <ele>1207.4</ele>
        <time>2000-01-01T11:44:22.000Z</time>
      </trkpt>
      <trkpt lat="45.50292" lon="5.90684">
        <ele>1205</ele>
        <time>2000-01-01T11:44:32.000Z</time>
      </trkpt>
      <trkpt lat="45.50299" lon="5.90694">
        <ele>1202.6</ele>
        <time>2000-01-01T11:44:42.000Z</time>
      </trkpt>
      <trkpt lat="45.50304" lon="5.90704">
        <ele>1200.8</ele>
        <time>2000-01-01T11:44:52.000Z</time>
      </trkpt>
      <trkpt lat="45.50305" lon="5.90712">
        <ele>1199</ele>
        <time>2000-01-01T11:45:02.000Z</time>
      </trkpt>
      <trkpt lat="45.50305" lon="5.90715">
        <ele>1198.5</ele>
        <time>2000-01-01T11:45:12.000Z</time>
      </trkpt>
      <trkpt lat="45.50302" lon="5.90725">
        <ele>1196.2</ele>
        <time>2000-01-01T11:45:22.000Z</time>
      </trkpt>
      <trkpt lat="45.50301" lon="5.90735">
        <ele>1194.3</ele>
        <time>2000-01-01T11:45:32.000Z</time>
      </trkpt>
      <trkpt lat="45.50302" lon="5.90744">
        <ele>1193</ele>
        <time>2000-01-01T11:45:42.000Z</time>
      </trkpt>
      <trkpt lat="45.50299" lon="5.90763">
        <ele>1189.2</ele>
        <time>2000-01-01T11:45:52.000Z</time>
      </trkpt>
      <trkpt lat="45.503" lon="5.9077">
        <ele>1188.2</ele>
        <time>2000-01-01T11:46:02.000Z</time>
      </trkpt>
      <trkpt lat="45.5031" lon="5.90787">
        <ele>1187</ele>
        <time>2000-01-01T11:46:12.000Z</time>
      </trkpt>
      <trkpt lat="45.50316" lon="5.90802">
        <ele>1182.5</ele>
        <time>2000-01-01T11:46:22.000Z</time>
      </trkpt>
      <trkpt lat="45.5033" lon="5.90825">
        <ele>1178</ele>
        <time>2000-01-01T11:46:32.000Z</time>
      </trkpt>
      <trkpt lat="45.50337" lon="5.90842">
        <ele>1176.7</ele>
        <time>2000-01-01T11:46:42.000Z</time>
      </trkpt>
      <trkpt lat="45.5034" lon="5.90853">
        <ele>1175</ele>
        <time>2000-01-01T11:46:52.000Z</time>
      </trkpt>
      <trkpt lat="45.50344" lon="5.90874">
        <ele>1171.1</ele>
        <time>2000-01-01T11:47:02.000Z</time>
      </trkpt>
      <trkpt lat="45.50345" lon="5.90878">
        <ele>1170.5</ele>
        <time>2000-01-01T11:47:12.000Z</time>
      </trkpt>
      <trkpt lat="45.50348" lon="5.90885">
        <ele>1170</ele>
        <time>2000-01-01T11:47:22.000Z</time>
      </trkpt>
      <trkpt lat="45.50354" lon="5.90893">
        <ele>1168.9</ele>
        <time>2000-01-01T11:47:32.000Z</time>
      </trkpt>
      <trkpt lat="45.50373" lon="5.90931">
        <ele>1161</ele>
        <time>2000-01-01T11:47:42.000Z</time>
      </trkpt>
      <trkpt lat="45.50383" lon="5.90951">
        <ele>1156.2</ele>
        <time>2000-01-01T11:47:52.000Z</time>
      </trkpt>
      <trkpt lat="45.50386" lon="5.90954">
        <ele>1157</ele>
        <time>2000-01-01T11:48:02.000Z</time>
      </trkpt>
      <trkpt lat="45.50391" lon="5.90953">
        <ele>1154.2</ele>
        <time>2000-01-01T11:48:12.000Z</time>
      </trkpt>
      <trkpt lat="45.504" lon="5.90948">
        <ele>1151.4</ele>
        <time>2000-01-01T11:48:22.000Z</time>
      </trkpt>
      <trkpt lat="45.5042" lon="5.90923">
        <ele>1149</ele>
        <time>2000-01-01T11:48:32.000Z</time>
      </trkpt>
      <trkpt lat="45.50429" lon="5.90918">
        <ele>1143.4</ele>
        <time>2000-01-01T11:48:42.000Z</time>
      </trkpt>
      <trkpt lat="45.50438" lon="5.90915">
        <ele>1143</ele>
        <time>2000-01-01T11:48:52.000Z</time>
      </trkpt>
      <trkpt lat="45.5045" lon="5.90916">
        <ele>1135</ele>
        <time>2000-01-01T11:49:02.000Z</time>
      </trkpt>
      <trkpt lat="45.50453" lon="5.9092">
        <ele>1132.9</ele>
        <time>2000-01-01T11:49:12.000Z</time>
      </trkpt>
      <trkpt lat="45.50451" lon="5.9093">
        <ele>1136</ele>
        <time>2000-01-01T11:49:22.000Z</time>
      </trkpt>
      <trkpt lat="45.50448" lon="5.90943">
        <ele>1131.7</ele>
        <time>2000-01-01T11:49:32.000Z</time>
      </trkpt>
      <trkpt lat="45.50446" lon="5.90967">
        <ele>1130</ele>
        <time>2000-01-01T11:49:42.000Z</time>
      </trkpt>
      <trkpt lat="45.50442" lon="5.90989">
        <ele>1121.7</ele>
        <time>2000-01-01T11:49:52.000Z</time>
      </trkpt>
      <trkpt lat="45.50435" lon="5.91013">
        <ele>1117</ele>
        <time>2000-01-01T11:50:02.000Z</time>
      </trkpt>
      <trkpt lat="45.50432" lon="5.91031">
        <ele>1112.5</ele>
        <time>2000-01-01T11:50:12.000Z</time>
      </trkpt>
      <trkpt lat="45.50429" lon="5.9104">
        <ele>1112</ele>
        <time>2000-01-01T11:50:22.000Z</time>
      </trkpt>
      <trkpt lat="45.50428" lon="5.91048">
        <ele>1109.6</ele>
        <time>2000-01-01T11:50:32.000Z</time>
      </trkpt>
      <trkpt lat="45.50425" lon="5.91058">
        <ele>1107.9</ele>
        <time>2000-01-01T11:50:42.000Z</time>
      </trkpt>
      <trkpt lat="45.50414" lon="5.91098">
        <ele>1102</ele>
        <time>2000-01-01T11:50:52.000Z</time>
      </trkpt>
      <trkpt lat="45.5041" lon="5.9111">
        <ele>1098.5</ele>
        <time>2000-01-01T11:51:02.000Z</time>
      </trkpt>
      <trkpt lat="45.50401" lon="5.91143">
        <ele>1097</ele>
        <time>2000-01-01T11:51:12.000Z</time>
      </trkpt>
      <trkpt lat="45.50394" lon="5.91179">
        <ele>1091</ele>
        <time>2000-01-01T11:51:22.000Z</time>
      </trkpt>
      <trkpt lat="45.5039" lon="5.9119">
        <ele>1087.9</ele>
        <time>2000-01-01T11:51:32.000Z</time>
      </trkpt>
      <trkpt lat="45.50385" lon="5.91213">
        <ele>1084</ele>
        <time>2000-01-01T11:51:42.000Z</time>
      </trkpt>
      <trkpt lat="45.50384" lon="5.91218">
        <ele>1084.1</ele>
        <time>2000-01-01T11:51:52.000Z</time>
      </trkpt>
      <trkpt lat="45.50373" lon="5.91245">
        <ele>1081</ele>
        <time>2000-01-01T11:52:02.000Z</time>
      </trkpt>
      <trkpt lat="45.50362" lon="5.91262">
        <ele>1078.3</ele>
        <time>2000-01-01T11:52:12.000Z</time>
      </trkpt>
      <trkpt lat="45.50359" lon="5.91275">
        <ele>1075</ele>
        <time>2000-01-01T11:52:22.000Z</time>
      </trkpt>
      <trkpt lat="45.50359" lon="5.91287">
        <ele>1073.8</ele>
        <time>2000-01-01T11:52:32.000Z</time>
      </trkpt>
      <trkpt lat="45.50361" lon="5.91296">
        <ele>1072.7</ele>
        <time>2000-01-01T11:52:42.000Z</time>
      </trkpt>
      <trkpt lat="45.50366" lon="5.91308">
        <ele>1071</ele>
        <time>2000-01-01T11:52:52.000Z</time>
      </trkpt>
      <trkpt lat="45.50373" lon="5.91334">
        <ele>1067</ele>
        <time>2000-01-01T11:53:02.000Z</time>
      </trkpt>
      <trkpt lat="45.5039" lon="5.91388">
        <ele>1063</ele>
        <time>2000-01-01T11:53:12.000Z</time>
      </trkpt>
      <trkpt lat="45.50396" lon="5.91399">
        <ele>1061</ele>
        <time>2000-01-01T11:53:22.000Z</time>
      </trkpt>
      <trkpt lat="45.504" lon="5.91407">
        <ele>1060.6</ele>
        <time>2000-01-01T11:53:32.000Z</time>
      </trkpt>
      <trkpt lat="45.50409" lon="5.91417">
        <ele>1062</ele>
        <time>2000-01-01T11:53:42.000Z</time>
      </trkpt>
      <trkpt lat="45.50416" lon="5.91424">
        <ele>1060.1</ele>
        <time>2000-01-01T11:53:52.000Z</time>
      </trkpt>
      <trkpt lat="45.5045" lon="5.91446">
        <ele>1058</ele>
        <time>2000-01-01T11:54:02.000Z</time>
      </trkpt>
      <trkpt lat="45.5048" lon="5.9147">
        <ele>1057</ele>
        <time>2000-01-01T11:54:12.000Z</time>
      </trkpt>
      <trkpt lat="45.50502" lon="5.91483">
        <ele>1056</ele>
        <time>2000-01-01T11:54:22.000Z</time>
      </trkpt>
      <trkpt lat="45.50525" lon="5.91501">
        <ele>1056</ele>
        <time>2000-01-01T11:54:32.000Z</time>
      </trkpt>
      <trkpt lat="45.50534" lon="5.91509">
        <ele>1055.1</ele>
        <time>2000-01-01T11:54:42.000Z</time>
      </trkpt>
      <trkpt lat="45.50552" lon="5.91524">
        <ele>1053</ele>
        <time>2000-01-01T11:54:52.000Z</time>
      </trkpt>
      <trkpt lat="45.5056" lon="5.91533">
        <ele>1053</ele>
        <time>2000-01-01T11:55:02.000Z</time>
      </trkpt>
      <trkpt lat="45.50577" lon="5.91558">
        <ele>1053</ele>
        <time>2000-01-01T11:55:12.000Z</time>
      </trkpt>
      <trkpt lat="45.50587" lon="5.91578">
        <ele>1047.7</ele>
        <time>2000-01-01T11:55:22.000Z</time>
      </trkpt>
      <trkpt lat="45.50589" lon="5.91582">
        <ele>1051</ele>
        <time>2000-01-01T11:55:32.000Z</time>
      </trkpt>
      <trkpt lat="45.50602" lon="5.91599">
        <ele>1043.3</ele>
        <time>2000-01-01T11:55:42.000Z</time>
      </trkpt>
      <trkpt lat="45.50615" lon="5.9162">
        <ele>1041</ele>
        <time>2000-01-01T11:55:52.000Z</time>
      </trkpt>
      <trkpt lat="45.50626" lon="5.91632">
        <ele>1040.4</ele>
        <time>2000-01-01T11:56:02.000Z</time>
      </trkpt>
      <trkpt lat="45.50631" lon="5.91637">
        <ele>1041</ele>
        <time>2000-01-01T11:56:12.000Z</time>
      </trkpt>
      <trkpt lat="45.50635" lon="5.9164">
        <ele>1040.7</ele>
        <time>2000-01-01T11:56:22.000Z</time>
      </trkpt>
      <trkpt lat="45.50645" lon="5.91644">
        <ele>1040.3</ele>
        <time>2000-01-01T11:56:32.000Z</time>
      </trkpt>
      <trkpt lat="45.50667" lon="5.91648">
        <ele>1039</ele>
        <time>2000-01-01T11:56:42.000Z</time>
      </trkpt>
      <trkpt lat="45.5067" lon="5.9165">
        <ele>1037.3</ele>
        <time>2000-01-01T11:56:52.000Z</time>
      </trkpt>
      <trkpt lat="45.50676" lon="5.91658">
        <ele>1035.2</ele>
        <time>2000-01-01T11:57:02.000Z</time>
      </trkpt>
      <trkpt lat="45.5068" lon="5.91667">
        <ele>1037</ele>
        <time>2000-01-01T11:57:12.000Z</time>
      </trkpt>
      <trkpt lat="45.50683" lon="5.91673">
        <ele>1034.1</ele>
        <time>2000-01-01T11:57:22.000Z</time>
      </trkpt>
      <trkpt lat="45.50684" lon="5.9168">
        <ele>1034.6</ele>
        <time>2000-01-01T11:57:32.000Z</time>
      </trkpt>
      <trkpt lat="45.50685" lon="5.91694">
        <ele>1036</ele>
        <time>2000-01-01T11:57:42.000Z</time>
      </trkpt>
      <trkpt lat="45.50687" lon="5.91714">
        <ele>1032.8</ele>
        <time>2000-01-01T11:57:52.000Z</time>
      </trkpt>
      <trkpt lat="45.50688" lon="5.91722">
        <ele>1030</ele>
        <time>2000-01-01T11:58:02.000Z</time>
      </trkpt>
      <trkpt lat="45.50691" lon="5.91737">
        <ele>1028.5</ele>
        <time>2000-01-01T11:58:12.000Z</time>
      </trkpt>
      <trkpt lat="45.50698" lon="5.91753">
        <ele>1026</ele>
        <time>2000-01-01T11:58:22.000Z</time>
      </trkpt>
      <trkpt lat="45.50707" lon="5.91768">
        <ele>1022.1</ele>
        <time>2000-01-01T11:58:32.000Z</time>
      </trkpt>
      <trkpt lat="45.50711" lon="5.91774">
        <ele>1024</ele>
        <time>2000-01-01T11:58:42.000Z</time>
      </trkpt>
      <trkpt lat="45.50729" lon="5.91792">
        <ele>1021</ele>
        <time>2000-01-01T11:58:52.000Z</time>
      </trkpt>
      <trkpt lat="45.50742" lon="5.91816">
        <ele>1019</ele>
        <time>2000-01-01T11:59:02.000Z</time>
      </trkpt>
      <trkpt lat="45.50748" lon="5.91831">
        <ele>1014.2</ele>
        <time>2000-01-01T11:59:12.000Z</time>
      </trkpt>
      <trkpt lat="45.50752" lon="5.9185">
        <ele>1011</ele>
        <time>2000-01-01T11:59:22.000Z</time>
      </trkpt>
      <trkpt lat="45.50754" lon="5.91854">
        <ele>1008.8</ele>
        <time>2000-01-01T11:59:32.000Z</time>
      </trkpt>
      <trkpt lat="45.50755" lon="5.91872">
        <ele>1004.3</ele>
        <time>2000-01-01T11:59:42.000Z</time>
      </trkpt>
      <trkpt lat="45.50754" lon="5.91876">
        <ele>1003</ele>
        <time>2000-01-01T11:59:52.000Z</time>
      </trkpt>
      <trkpt lat="45.5075" lon="5.91878">
        <ele>1003</ele>
        <time>2000-01-01T12:00:02.000Z</time>
      </trkpt>
      <trkpt lat="45.50743" lon="5.9188">
        <ele>1000.3</ele>
        <time>2000-01-01T12:00:12.000Z</time>
      </trkpt>
      <trkpt lat="45.5074" lon="5.91884">
        <ele>998.7</ele>
        <time>2000-01-01T12:00:22.000Z</time>
      </trkpt>
      <trkpt lat="45.50739" lon="5.91888">
        <ele>997.9</ele>
        <time>2000-01-01T12:00:32.000Z</time>
      </trkpt>
      <trkpt lat="45.50742" lon="5.91901">
        <ele>996</ele>
        <time>2000-01-01T12:00:42.000Z</time>
      </trkpt>
      <trkpt lat="45.50744" lon="5.91909">
        <ele>993.5</ele>
        <time>2000-01-01T12:00:52.000Z</time>
      </trkpt>
      <trkpt lat="45.50748" lon="5.91914">
        <ele>993.2</ele>
        <time>2000-01-01T12:01:02.000Z</time>
      </trkpt>
      <trkpt lat="45.50759" lon="5.9192">
        <ele>992</ele>
        <time>2000-01-01T12:01:12.000Z</time>
      </trkpt>
      <trkpt lat="45.50782" lon="5.91923">
        <ele>986</ele>
        <time>2000-01-01T12:01:22.000Z</time>
      </trkpt>
      <trkpt lat="45.50797" lon="5.91922">
        <ele>982.9</ele>
        <time>2000-01-01T12:01:32.000Z</time>
      </trkpt>
      <trkpt lat="45.50814" lon="5.91924">
        <ele>980</ele>
        <time>2000-01-01T12:01:42.000Z</time>
      </trkpt>
      <trkpt lat="45.50842" lon="5.91929">
        <ele>976</ele>
        <time>2000-01-01T12:01:52.000Z</time>
      </trkpt>
      <trkpt lat="45.50874" lon="5.91936">
        <ele>968</ele>
        <time>2000-01-01T12:02:02.000Z</time>
      </trkpt>
      <trkpt lat="45.50875" lon="5.91937">
        <ele>965.6</ele>
        <time>2000-01-01T12:02:12.000Z</time>
      </trkpt>
      <trkpt lat="45.50889" lon="5.91939">
        <ele>962.5</ele>
        <time>2000-01-01T12:02:22.000Z</time>
      </trkpt>
      <trkpt lat="45.509" lon="5.9198">
        <ele>957</ele>
        <time>2000-01-01T12:02:32.000Z</time>
      </trkpt>
      <trkpt lat="45.50916" lon="5.92027">
        <ele>950</ele>
        <time>2000-01-01T12:02:42.000Z</time>
      </trkpt>
      <trkpt lat="45.50935" lon="5.92074">
        <ele>942</ele>
        <time>2000-01-01T12:02:52.000Z</time>
      </trkpt>
      <trkpt lat="45.50941" lon="5.92111">
        <ele>937</ele>
        <time>2000-01-01T12:03:02.000Z</time>
      </trkpt>
      <trkpt lat="45.50949" lon="5.9216">
        <ele>926</ele>
        <time>2000-01-01T12:03:12.000Z</time>
      </trkpt>
      <trkpt lat="45.50955" lon="5.92214">
        <ele>921</ele>
        <time>2000-01-01T12:03:22.000Z</time>
      </trkpt>
      <trkpt lat="45.50961" lon="5.92247">
        <ele>918</ele>
        <time>2000-01-01T12:03:32.000Z</time>
      </trkpt>
      <trkpt lat="45.50968" lon="5.92282">
        <ele>911</ele>
        <time>2000-01-01T12:03:42.000Z</time>
      </trkpt>
      <trkpt lat="45.5097" lon="5.92295">
        <ele>911.1</ele>
        <time>2000-01-01T12:03:52.000Z</time>
      </trkpt>
      <trkpt lat="45.50975" lon="5.92318">
        <ele>909</ele>
        <time>2000-01-01T12:04:02.000Z</time>
      </trkpt>
      <trkpt lat="45.50986" lon="5.92332">
        <ele>906.3</ele>
        <time>2000-01-01T12:04:12.000Z</time>
      </trkpt>
      <trkpt lat="45.51008" lon="5.92354">
        <ele>903</ele>
        <time>2000-01-01T12:04:22.000Z</time>
      </trkpt>
      <trkpt lat="45.51013" lon="5.92359">
        <ele>902.1</ele>
        <time>2000-01-01T12:04:32.000Z</time>
      </trkpt>
      <trkpt lat="45.51042" lon="5.92383">
        <ele>895</ele>
        <time>2000-01-01T12:04:42.000Z</time>
      </trkpt>
      <trkpt lat="45.51048" lon="5.92394">
        <ele>892.8</ele>
        <time>2000-01-01T12:04:52.000Z</time>
      </trkpt>
      <trkpt lat="45.51054" lon="5.924">
        <ele>891.5</ele>
        <time>2000-01-01T12:05:02.000Z</time>
      </trkpt>
      <trkpt lat="45.51059" lon="5.92401">
        <ele>891</ele>
        <time>2000-01-01T12:05:12.000Z</time>
      </trkpt>
      <trkpt lat="45.51064" lon="5.92398">
        <ele>888</ele>
        <time>2000-01-01T12:05:22.000Z</time>
      </trkpt>
      <trkpt lat="45.51068" lon="5.92391">
        <ele>887.3</ele>
        <time>2000-01-01T12:05:32.000Z</time>
      </trkpt>
      <trkpt lat="45.51074" lon="5.9238">
        <ele>886</ele>
        <time>2000-01-01T12:05:42.000Z</time>
      </trkpt>
      <trkpt lat="45.51082" lon="5.92374">
        <ele>883.7</ele>
        <time>2000-01-01T12:05:52.000Z</time>
      </trkpt>
      <trkpt lat="45.5109" lon="5.92367">
        <ele>883.1</ele>
        <time>2000-01-01T12:06:02.000Z</time>
      </trkpt>
      <trkpt lat="45.51094" lon="5.92365">
        <ele>883</ele>
        <time>2000-01-01T12:06:12.000Z</time>
      </trkpt>
      <trkpt lat="45.511" lon="5.92363">
        <ele>881.8</ele>
        <time>2000-01-01T12:06:22.000Z</time>
      </trkpt>
      <trkpt lat="45.51112" lon="5.9236">
        <ele>880.3</ele>
        <time>2000-01-01T12:06:32.000Z</time>
      </trkpt>
      <trkpt lat="45.51119" lon="5.92365">
        <ele>880</ele>
        <time>2000-01-01T12:06:42.000Z</time>
      </trkpt>
      <trkpt lat="45.51125" lon="5.92384">
        <ele>878.4</ele>
        <time>2000-01-01T12:06:52.000Z</time>
      </trkpt>
      <trkpt lat="45.51125" lon="5.92389">
        <ele>878</ele>
        <time>2000-01-01T12:07:02.000Z</time>
      </trkpt>
      <trkpt lat="45.51129" lon="5.92396">
        <ele>877</ele>
        <time>2000-01-01T12:07:12.000Z</time>
      </trkpt>
      <trkpt lat="45.51135" lon="5.92398">
        <ele>877.3</ele>
        <time>2000-01-01T12:07:22.000Z</time>
      </trkpt>
      <trkpt lat="45.51147" lon="5.92394">
        <ele>877.3</ele>
        <time>2000-01-01T12:07:32.000Z</time>
      </trkpt>
      <trkpt lat="45.51148" lon="5.92394">
        <ele>877</ele>
        <time>2000-01-01T12:07:42.000Z</time>
      </trkpt>
      <trkpt lat="45.51157" lon="5.92402">
        <ele>876.1</ele>
        <time>2000-01-01T12:07:52.000Z</time>
      </trkpt>
      <trkpt lat="45.51169" lon="5.92405">
        <ele>875</ele>
        <time>2000-01-01T12:08:02.000Z</time>
      </trkpt>
      <trkpt lat="45.51216" lon="5.92412">
        <ele>872</ele>
        <time>2000-01-01T12:08:12.000Z</time>
      </trkpt>
      <trkpt lat="45.5123" lon="5.92417">
        <ele>870.2</ele>
        <time>2000-01-01T12:08:22.000Z</time>
      </trkpt>
      <trkpt lat="45.51242" lon="5.92425">
        <ele>870</ele>
        <time>2000-01-01T12:08:32.000Z</time>
      </trkpt>
      <trkpt lat="45.51264" lon="5.92433">
        <ele>868</ele>
        <time>2000-01-01T12:08:42.000Z</time>
      </trkpt>
      <trkpt lat="45.51272" lon="5.92437">
        <ele>868.2</ele>
        <time>2000-01-01T12:08:52.000Z</time>
      </trkpt>
      <trkpt lat="45.51279" lon="5.92441">
        <ele>867.6</ele>
        <time>2000-01-01T12:09:02.000Z</time>
      </trkpt>
      <trkpt lat="45.51286" lon="5.92445">
        <ele>868</ele>
        <time>2000-01-01T12:09:12.000Z</time>
      </trkpt>
      <trkpt lat="45.51308" lon="5.92479">
        <ele>863</ele>
        <time>2000-01-01T12:09:22.000Z</time>
      </trkpt>
      <trkpt lat="45.51319" lon="5.92502">
        <ele>859</ele>
        <time>2000-01-01T12:09:32.000Z</time>
      </trkpt>
      <trkpt lat="45.51324" lon="5.92516">
        <ele>858.5</ele>
        <time>2000-01-01T12:09:42.000Z</time>
      </trkpt>
      <trkpt lat="45.51326" lon="5.92522">
        <ele>858.9</ele>
        <time>2000-01-01T12:09:52.000Z</time>
      </trkpt>
      <trkpt lat="45.51329" lon="5.92531">
        <ele>860</ele>
        <time>2000-01-01T12:10:02.000Z</time>
      </trkpt>
      <trkpt lat="45.51334" lon="5.92536">
        <ele>859.5</ele>
        <time>2000-01-01T12:10:12.000Z</time>
      </trkpt>
      <trkpt lat="45.51336" lon="5.92538">
        <ele>859.3</ele>
        <time>2000-01-01T12:10:22.000Z</time>
      </trkpt>
      <trkpt lat="45.51347" lon="5.92545">
        <ele>860</ele>
        <time>2000-01-01T12:10:32.000Z</time>
      </trkpt>
      <trkpt lat="45.51358" lon="5.92554">
        <ele>860.5</ele>
        <time>2000-01-01T12:10:42.000Z</time>
      </trkpt>
      <trkpt lat="45.51368" lon="5.92553">
        <ele>860</ele>
        <time>2000-01-01T12:10:52.000Z</time>
      </trkpt>
      <trkpt lat="45.51377" lon="5.9256">
        <ele>861.9</ele>
        <time>2000-01-01T12:11:02.000Z</time>
      </trkpt>
      <trkpt lat="45.51383" lon="5.92565">
        <ele>861.4</ele>
        <time>2000-01-01T12:11:12.000Z</time>
      </trkpt>
      <trkpt lat="45.51388" lon="5.92568">
        <ele>860</ele>
        <time>2000-01-01T12:11:22.000Z</time>
      </trkpt>
      <trkpt lat="45.51395" lon="5.92582">
        <ele>859.8</ele>
        <time>2000-01-01T12:11:32.000Z</time>
      </trkpt>
      <trkpt lat="45.51401" lon="5.926">
        <ele>857</ele>
        <time>2000-01-01T12:11:42.000Z</time>
      </trkpt>
      <trkpt lat="45.51405" lon="5.92614">
        <ele>856.2</ele>
        <time>2000-01-01T12:11:52.000Z</time>
      </trkpt>
      <trkpt lat="45.51409" lon="5.92642">
        <ele>854</ele>
        <time>2000-01-01T12:12:02.000Z</time>
      </trkpt>
      <trkpt lat="45.51411" lon="5.92654">
        <ele>852.6</ele>
        <time>2000-01-01T12:12:12.000Z</time>
      </trkpt>
      <trkpt lat="45.51415" lon="5.92666">
        <ele>852.7</ele>
        <time>2000-01-01T12:12:22.000Z</time>
      </trkpt>
      <trkpt lat="45.51422" lon="5.92693">
        <ele>852</ele>
        <time>2000-01-01T12:12:32.000Z</time>
      </trkpt>
      <trkpt lat="45.51421" lon="5.92704">
        <ele>850.9</ele>
        <time>2000-01-01T12:12:42.000Z</time>
      </trkpt>
      <trkpt lat="45.51421" lon="5.92718">
        <ele>848.7</ele>
        <time>2000-01-01T12:12:52.000Z</time>
      </trkpt>
      <trkpt lat="45.51421" lon="5.9273">
        <ele>848</ele>
        <time>2000-01-01T12:13:02.000Z</time>
      </trkpt>
      <trkpt lat="45.51423" lon="5.92737">
        <ele>842.9</ele>
        <time>2000-01-01T12:13:12.000Z</time>
      </trkpt>
      <trkpt lat="45.5143" lon="5.92756">
        <ele>837</ele>
        <time>2000-01-01T12:13:22.000Z</time>
      </trkpt>
      <trkpt lat="45.51437" lon="5.92775">
        <ele>833.9</ele>
        <time>2000-01-01T12:13:32.000Z</time>
      </trkpt>
      <trkpt lat="45.51451" lon="5.92822">
        <ele>820</ele>
        <time>2000-01-01T12:13:42.000Z</time>
      </trkpt>
      <trkpt lat="45.51457" lon="5.92867">
        <ele>817</ele>
        <time>2000-01-01T12:13:52.000Z</time>
      </trkpt>
      <trkpt lat="45.5146" lon="5.929">
        <ele>811</ele>
        <time>2000-01-01T12:14:02.000Z</time>
      </trkpt>
      <trkpt lat="45.51459" lon="5.92924">
        <ele>812.5</ele>
        <time>2000-01-01T12:14:12.000Z</time>
      </trkpt>
      <trkpt lat="45.51456" lon="5.92954">
        <ele>809</ele>
        <time>2000-01-01T12:14:22.000Z</time>
      </trkpt>
      <trkpt lat="45.51454" lon="5.92986">
        <ele>806</ele>
        <time>2000-01-01T12:14:32.000Z</time>
      </trkpt>
      <trkpt lat="45.51454" lon="5.93041">
        <ele>801</ele>
        <time>2000-01-01T12:14:42.000Z</time>
      </trkpt>
      <trkpt lat="45.51454" lon="5.93064">
        <ele>796.8</ele>
        <time>2000-01-01T12:14:52.000Z</time>
      </trkpt>
      <trkpt lat="45.51455" lon="5.93065">
        <ele>796.7</ele>
        <time>2000-01-01T12:15:02.000Z</time>
      </trkpt>
      <trkpt lat="45.51448" lon="5.93086">
        <ele>791</ele>
        <time>2000-01-01T12:15:12.000Z</time>
      </trkpt>
      <trkpt lat="45.51439" lon="5.93102">
        <ele>786.8</ele>
        <time>2000-01-01T12:15:22.000Z</time>
      </trkpt>
      <trkpt lat="45.51444" lon="5.93105">
        <ele>790</ele>
        <time>2000-01-01T12:15:32.000Z</time>
      </trkpt>
      <trkpt lat="45.51465" lon="5.93119">
        <ele>789</ele>
        <time>2000-01-01T12:15:42.000Z</time>
      </trkpt>
      <trkpt lat="45.51471" lon="5.93122">
        <ele>786.4</ele>
        <time>2000-01-01T12:15:52.000Z</time>
      </trkpt>
      <trkpt lat="45.51483" lon="5.93122">
        <ele>785.7</ele>
        <time>2000-01-01T12:16:02.000Z</time>
      </trkpt>
      <trkpt lat="45.51488" lon="5.93124">
        <ele>786</ele>
        <time>2000-01-01T12:16:12.000Z</time>
      </trkpt>
      <trkpt lat="45.51494" lon="5.93129">
        <ele>783.9</ele>
        <time>2000-01-01T12:16:22.000Z</time>
      </trkpt>
      <trkpt lat="45.51504" lon="5.93141">
        <ele>781</ele>
        <time>2000-01-01T12:16:32.000Z</time>
      </trkpt>
      <trkpt lat="45.51515" lon="5.93151">
        <ele>780.5</ele>
        <time>2000-01-01T12:16:42.000Z</time>
      </trkpt>
      <trkpt lat="45.51521" lon="5.93155">
        <ele>780</ele>
        <time>2000-01-01T12:16:52.000Z</time>
      </trkpt>
      <trkpt lat="45.51528" lon="5.9316">
        <ele>778.9</ele>
        <time>2000-01-01T12:17:02.000Z</time>
      </trkpt>
      <trkpt lat="45.51548" lon="5.93167">
        <ele>779</ele>
        <time>2000-01-01T12:17:12.000Z</time>
      </trkpt>
      <trkpt lat="45.5156" lon="5.93173">
        <ele>777.9</ele>
        <time>2000-01-01T12:17:22.000Z</time>
      </trkpt>
      <trkpt lat="45.51595" lon="5.93193">
        <ele>776</ele>
        <time>2000-01-01T12:17:32.000Z</time>
      </trkpt>
      <trkpt lat="45.51627" lon="5.93211">
        <ele>775</ele>
        <time>2000-01-01T12:17:42.000Z</time>
      </trkpt>
      <trkpt lat="45.5166" lon="5.93228">
        <ele>773</ele>
        <time>2000-01-01T12:17:52.000Z</time>
      </trkpt>
      <trkpt lat="45.51673" lon="5.93239">
        <ele>771.3</ele>
        <time>2000-01-01T12:18:02.000Z</time>
      </trkpt>
      <trkpt lat="45.51687" lon="5.93252">
        <ele>772</ele>
        <time>2000-01-01T12:18:12.000Z</time>
      </trkpt>
      <trkpt lat="45.51699" lon="5.93261">
        <ele>770.3</ele>
        <time>2000-01-01T12:18:22.000Z</time>
      </trkpt>
      <trkpt lat="45.51705" lon="5.9326">
        <ele>771</ele>
        <time>2000-01-01T12:18:32.000Z</time>
      </trkpt>
      <trkpt lat="45.5171" lon="5.93254">
        <ele>769.7</ele>
        <time>2000-01-01T12:18:42.000Z</time>
      </trkpt>
      <trkpt lat="45.51715" lon="5.93249">
        <ele>769.6</ele>
        <time>2000-01-01T12:18:52.000Z</time>
      </trkpt>
      <trkpt lat="45.5172" lon="5.93242">
        <ele>771</ele>
        <time>2000-01-01T12:19:02.000Z</time>
      </trkpt>
      <trkpt lat="45.51724" lon="5.93233">
        <ele>770.7</ele>
        <time>2000-01-01T12:19:12.000Z</time>
      </trkpt>
      <trkpt lat="45.51728" lon="5.93228">
        <ele>771.1</ele>
        <time>2000-01-01T12:19:22.000Z</time>
      </trkpt>
      <trkpt lat="45.51733" lon="5.93225">
        <ele>771.3</ele>
        <time>2000-01-01T12:19:32.000Z</time>
      </trkpt>
      <trkpt lat="45.51738" lon="5.93226">
        <ele>771</ele>
        <time>2000-01-01T12:19:42.000Z</time>
      </trkpt>
      <trkpt lat="45.51753" lon="5.93234">
        <ele>769.3</ele>
        <time>2000-01-01T12:19:52.000Z</time>
      </trkpt>
      <trkpt lat="45.51766" lon="5.93241">
        <ele>768</ele>
        <time>2000-01-01T12:20:02.000Z</time>
      </trkpt>
      <trkpt lat="45.51781" lon="5.93241">
        <ele>767.3</ele>
        <time>2000-01-01T12:20:12.000Z</time>
      </trkpt>
      <trkpt lat="45.51796" lon="5.93237">
        <ele>768</ele>
        <time>2000-01-01T12:20:22.000Z</time>
      </trkpt>
      <trkpt lat="45.51812" lon="5.93238">
        <ele>765</ele>
        <time>2000-01-01T12:20:32.000Z</time>
      </trkpt>
      <trkpt lat="45.51839" lon="5.93246">
        <ele>764</ele>
        <time>2000-01-01T12:20:42.000Z</time>
      </trkpt>
      <trkpt lat="45.51843" lon="5.93247">
        <ele>763</ele>
        <time>2000-01-01T12:20:52.000Z</time>
      </trkpt>
      <trkpt lat="45.51856" lon="5.93252">
        <ele>762.6</ele>
        <time>2000-01-01T12:21:02.000Z</time>
      </trkpt>
      <trkpt lat="45.51868" lon="5.93258">
        <ele>762</ele>
        <time>2000-01-01T12:21:12.000Z</time>
      </trkpt>
      <trkpt lat="45.51876" lon="5.93261">
        <ele>762.2</ele>
        <time>2000-01-01T12:21:22.000Z</time>
      </trkpt>
      <trkpt lat="45.51883" lon="5.93263">
        <ele>762.1</ele>
        <time>2000-01-01T12:21:32.000Z</time>
      </trkpt>
      <trkpt lat="45.51882" lon="5.93282">
        <ele>760</ele>
        <time>2000-01-01T12:21:42.000Z</time>
      </trkpt>
      <trkpt lat="45.51896" lon="5.93305">
        <ele>755</ele>
        <time>2000-01-01T12:21:52.000Z</time>
      </trkpt>
      <trkpt lat="45.51921" lon="5.93314">
        <ele>747</ele>
        <time>2000-01-01T12:22:02.000Z</time>
      </trkpt>
      <trkpt lat="45.51964" lon="5.93319">
        <ele>744</ele>
        <time>2000-01-01T12:22:12.000Z</time>
      </trkpt>
      <trkpt lat="45.51974" lon="5.9332">
        <ele>741.2</ele>
        <time>2000-01-01T12:22:22.000Z</time>
      </trkpt>
      <trkpt lat="45.51982" lon="5.93317">
        <ele>740.9</ele>
        <time>2000-01-01T12:22:32.000Z</time>
      </trkpt>
      <trkpt lat="45.51981" lon="5.93309">
        <ele>745</ele>
        <time>2000-01-01T12:22:42.000Z</time>
      </trkpt>
      <trkpt lat="45.51985" lon="5.93298">
        <ele>743.7</ele>
        <time>2000-01-01T12:22:52.000Z</time>
      </trkpt>
      <trkpt lat="45.51993" lon="5.9329">
        <ele>744</ele>
        <time>2000-01-01T12:23:02.000Z</time>
      </trkpt>
      <trkpt lat="45.52002" lon="5.93277">
        <ele>747</ele>
        <time>2000-01-01T12:23:12.000Z</time>
      </trkpt>
      <trkpt lat="45.52007" lon="5.93262">
        <ele>746.2</ele>
        <time>2000-01-01T12:23:22.000Z</time>
      </trkpt>
      <trkpt lat="45.5201" lon="5.93245">
        <ele>750</ele>
        <time>2000-01-01T12:23:32.000Z</time>
      </trkpt>
      <trkpt lat="45.52014" lon="5.93231">
        <ele>749.4</ele>
        <time>2000-01-01T12:23:42.000Z</time>
      </trkpt>
      <trkpt lat="45.52029" lon="5.93223">
        <ele>750</ele>
        <time>2000-01-01T12:23:52.000Z</time>
      </trkpt>
      <trkpt lat="45.52039" lon="5.93221">
        <ele>753.2</ele>
        <time>2000-01-01T12:24:02.000Z</time>
      </trkpt>
      <trkpt lat="45.52049" lon="5.93226">
        <ele>751</ele>
        <time>2000-01-01T12:24:12.000Z</time>
      </trkpt>
      <trkpt lat="45.52058" lon="5.93234">
        <ele>753</ele>
        <time>2000-01-01T12:24:22.000Z</time>
      </trkpt>
      <trkpt lat="45.52064" lon="5.93232">
        <ele>754.2</ele>
        <time>2000-01-01T12:24:32.000Z</time>
      </trkpt>
      <trkpt lat="45.52069" lon="5.93232">
        <ele>756</ele>
        <time>2000-01-01T12:24:42.000Z</time>
      </trkpt>
      <trkpt lat="45.52082" lon="5.93223">
        <ele>757.8</ele>
        <time>2000-01-01T12:24:52.000Z</time>
      </trkpt>
      <trkpt lat="45.52094" lon="5.93221">
        <ele>758</ele>
        <time>2000-01-01T12:25:02.000Z</time>
      </trkpt>
      <trkpt lat="45.52108" lon="5.9322">
        <ele>760.7</ele>
        <time>2000-01-01T12:25:12.000Z</time>
      </trkpt>
      <trkpt lat="45.52116" lon="5.9322">
        <ele>760</ele>
        <time>2000-01-01T12:25:22.000Z</time>
      </trkpt>
      <trkpt lat="45.52152" lon="5.93223">
        <ele>766</ele>
        <time>2000-01-01T12:25:32.000Z</time>
      </trkpt>
      <trkpt lat="45.52172" lon="5.93226">
        <ele>771</ele>
        <time>2000-01-01T12:25:42.000Z</time>
      </trkpt>
      <trkpt lat="45.52185" lon="5.93229">
        <ele>769.6</ele>
        <time>2000-01-01T12:25:52.000Z</time>
      </trkpt>
      <trkpt lat="45.52202" lon="5.93229">
        <ele>771</ele>
        <time>2000-01-01T12:26:02.000Z</time>
      </trkpt>
      <trkpt lat="45.52212" lon="5.93227">
        <ele>771.4</ele>
        <time>2000-01-01T12:26:12.000Z</time>
      </trkpt>
      <trkpt lat="45.52219" lon="5.93225">
        <ele>772.1</ele>
        <time>2000-01-01T12:26:22.000Z</time>
      </trkpt>
      <trkpt lat="45.52236" lon="5.9322">
        <ele>778</ele>
        <time>2000-01-01T12:26:32.000Z</time>
      </trkpt>
      <trkpt lat="45.52268" lon="5.93207">
        <ele>788</ele>
        <time>2000-01-01T12:26:42.000Z</time>
      </trkpt>
      <trkpt lat="45.52308" lon="5.93204">
        <ele>788</ele>
        <time>2000-01-01T12:26:52.000Z</time>
      </trkpt>
      <trkpt lat="45.52325" lon="5.93201">
        <ele>789.6</ele>
        <time>2000-01-01T12:27:02.000Z</time>
      </trkpt>
      <trkpt lat="45.52332" lon="5.93199">
        <ele>792</ele>
        <time>2000-01-01T12:27:12.000Z</time>
      </trkpt>
      <trkpt lat="45.52338" lon="5.93193">
        <ele>792</ele>
        <time>2000-01-01T12:27:22.000Z</time>
      </trkpt>
      <trkpt lat="45.52346" lon="5.93183">
        <ele>792.8</ele>
        <time>2000-01-01T12:27:32.000Z</time>
      </trkpt>
      <trkpt lat="45.52353" lon="5.93169">
        <ele>794</ele>
        <time>2000-01-01T12:27:42.000Z</time>
      </trkpt>
      <trkpt lat="45.52358" lon="5.93162">
        <ele>795.3</ele>
        <time>2000-01-01T12:27:52.000Z</time>
      </trkpt>
      <trkpt lat="45.52365" lon="5.93157">
        <ele>796.9</ele>
        <time>2000-01-01T12:28:02.000Z</time>
      </trkpt>
      <trkpt lat="45.52376" lon="5.93151">
        <ele>795</ele>
        <time>2000-01-01T12:28:12.000Z</time>
      </trkpt>
      <trkpt lat="45.52384" lon="5.93159">
        <ele>798.8</ele>
        <time>2000-01-01T12:28:22.000Z</time>
      </trkpt>
      <trkpt lat="45.52388" lon="5.93163">
        <ele>798.5</ele>
        <time>2000-01-01T12:28:32.000Z</time>
      </trkpt>
      <trkpt lat="45.52399" lon="5.93171">
        <ele>797</ele>
        <time>2000-01-01T12:28:42.000Z</time>
      </trkpt>
      <trkpt lat="45.52417" lon="5.93197">
        <ele>802</ele>
        <time>2000-01-01T12:28:52.000Z</time>
      </trkpt>
      <trkpt lat="45.52437" lon="5.93227">
        <ele>808</ele>
        <time>2000-01-01T12:29:02.000Z</time>
      </trkpt>
      <trkpt lat="45.52449" lon="5.93236">
        <ele>812.3</ele>
        <time>2000-01-01T12:29:12.000Z</time>
      </trkpt>
      <trkpt lat="45.52465" lon="5.93244">
        <ele>814</ele>
        <time>2000-01-01T12:29:22.000Z</time>
      </trkpt>
      <trkpt lat="45.52487" lon="5.93256">
        <ele>814</ele>
        <time>2000-01-01T12:29:32.000Z</time>
      </trkpt>
      <trkpt lat="45.5251" lon="5.93268">
        <ele>820</ele>
        <time>2000-01-01T12:29:42.000Z</time>
      </trkpt>
      <trkpt lat="45.52525" lon="5.93274">
        <ele>819</ele>
        <time>2000-01-01T12:29:52.000Z</time>
      </trkpt>
      <trkpt lat="45.5254" lon="5.93279">
        <ele>818</ele>
        <time>2000-01-01T12:30:02.000Z</time>
      </trkpt>
      <trkpt lat="45.52557" lon="5.93283">
        <ele>819.7</ele>
        <time>2000-01-01T12:30:12.000Z</time>
      </trkpt>
      <trkpt lat="45.52589" lon="5.93291">
        <ele>818</ele>
        <time>2000-01-01T12:30:22.000Z</time>
      </trkpt>
      <trkpt lat="45.52621" lon="5.93304">
        <ele>818</ele>
        <time>2000-01-01T12:30:32.000Z</time>
      </trkpt>
      <trkpt lat="45.52656" lon="5.93315">
        <ele>816</ele>
        <time>2000-01-01T12:30:42.000Z</time>
      </trkpt>
      <trkpt lat="45.52673" lon="5.93322">
        <ele>815.7</ele>
        <time>2000-01-01T12:30:52.000Z</time>
      </trkpt>
      <trkpt lat="45.52678" lon="5.93325">
        <ele>816</ele>
        <time>2000-01-01T12:31:02.000Z</time>
      </trkpt>
      <trkpt lat="45.527" lon="5.93328">
        <ele>815</ele>
        <time>2000-01-01T12:31:12.000Z</time>
      </trkpt>
      <trkpt lat="45.52713" lon="5.93326">
        <ele>813.6</ele>
        <time>2000-01-01T12:31:22.000Z</time>
      </trkpt>
      <trkpt lat="45.52728" lon="5.93322">
        <ele>814</ele>
        <time>2000-01-01T12:31:32.000Z</time>
      </trkpt>
      <trkpt lat="45.52735" lon="5.93325">
        <ele>813.3</ele>
        <time>2000-01-01T12:31:42.000Z</time>
      </trkpt>
      <trkpt lat="45.52739" lon="5.93329">
        <ele>812.9</ele>
        <time>2000-01-01T12:31:52.000Z</time>
      </trkpt>
      <trkpt lat="45.52745" lon="5.93338">
        <ele>812</ele>
        <time>2000-01-01T12:32:02.000Z</time>
      </trkpt>
      <trkpt lat="45.5275" lon="5.93342">
        <ele>811.1</ele>
        <time>2000-01-01T12:32:12.000Z</time>
      </trkpt>
      <trkpt lat="45.52755" lon="5.93344">
        <ele>810.6</ele>
        <time>2000-01-01T12:32:22.000Z</time>
      </trkpt>
      <trkpt lat="45.52762" lon="5.93346">
        <ele>810</ele>
        <time>2000-01-01T12:32:32.000Z</time>
      </trkpt>
      <trkpt lat="45.52769" lon="5.93347">
        <ele>811</ele>
        <time>2000-01-01T12:32:42.000Z</time>
      </trkpt>
      <trkpt lat="45.52775" lon="5.93346">
        <ele>809.8</ele>
        <time>2000-01-01T12:32:52.000Z</time>
      </trkpt>
      <trkpt lat="45.52784" lon="5.93345">
        <ele>809.5</ele>
        <time>2000-01-01T12:33:02.000Z</time>
      </trkpt>
      <trkpt lat="45.52793" lon="5.93345">
        <ele>810</ele>
        <time>2000-01-01T12:33:12.000Z</time>
      </trkpt>
      <trkpt lat="45.52802" lon="5.93345">
        <ele>808.2</ele>
        <time>2000-01-01T12:33:22.000Z</time>
      </trkpt>
      <trkpt lat="45.52813" lon="5.93346">
        <ele>807</ele>
        <time>2000-01-01T12:33:32.000Z</time>
      </trkpt>
      <trkpt lat="45.5283" lon="5.9335">
        <ele>806.5</ele>
        <time>2000-01-01T12:33:42.000Z</time>
      </trkpt>
      <trkpt lat="45.52844" lon="5.93353">
        <ele>805</ele>
        <time>2000-01-01T12:33:52.000Z</time>
      </trkpt>
      <trkpt lat="45.52853" lon="5.93355">
        <ele>805.7</ele>
        <time>2000-01-01T12:34:02.000Z</time>
      </trkpt>
      <trkpt lat="45.52859" lon="5.93358">
        <ele>805.4</ele>
        <time>2000-01-01T12:34:12.000Z</time>
      </trkpt>
      <trkpt lat="45.52868" lon="5.93361">
        <ele>805</ele>
        <time>2000-01-01T12:34:22.000Z</time>
      </trkpt>
      <trkpt lat="45.52874" lon="5.93361">
        <ele>804.1</ele>
        <time>2000-01-01T12:34:32.000Z</time>
      </trkpt>
      <trkpt lat="45.52882" lon="5.93359">
        <ele>803.7</ele>
        <time>2000-01-01T12:34:42.000Z</time>
      </trkpt>
      <trkpt lat="45.52886" lon="5.93357">
        <ele>803.5</ele>
        <time>2000-01-01T12:34:52.000Z</time>
      </trkpt>
      <trkpt lat="45.52889" lon="5.93352">
        <ele>803</ele>
        <time>2000-01-01T12:35:02.000Z</time>
      </trkpt>
      <trkpt lat="45.52891" lon="5.93344">
        <ele>803.4</ele>
        <time>2000-01-01T12:35:12.000Z</time>
      </trkpt>
      <trkpt lat="45.52892" lon="5.93337">
        <ele>803.6</ele>
        <time>2000-01-01T12:35:22.000Z</time>
      </trkpt>
      <trkpt lat="45.52901" lon="5.93311">
        <ele>802</ele>
        <time>2000-01-01T12:35:32.000Z</time>
      </trkpt>
      <trkpt lat="45.5291" lon="5.93298">
        <ele>802.1</ele>
        <time>2000-01-01T12:35:42.000Z</time>
      </trkpt>
      <trkpt lat="45.52939" lon="5.93298">
        <ele>802</ele>
        <time>2000-01-01T12:35:52.000Z</time>
      </trkpt>
      <trkpt lat="45.52949" lon="5.93296">
        <ele>797.5</ele>
        <time>2000-01-01T12:36:02.000Z</time>
      </trkpt>
      <trkpt lat="45.52956" lon="5.93293">
        <ele>795.8</ele>
        <time>2000-01-01T12:36:12.000Z</time>
      </trkpt>
      <trkpt lat="45.52974" lon="5.93282">
        <ele>793</ele>
        <time>2000-01-01T12:36:22.000Z</time>
      </trkpt>
      <trkpt lat="45.52994" lon="5.93279">
        <ele>787</ele>
        <time>2000-01-01T12:36:32.000Z</time>
      </trkpt>
      <trkpt lat="45.53003" lon="5.9328">
        <ele>783.1</ele>
        <time>2000-01-01T12:36:42.000Z</time>
      </trkpt>
      <trkpt lat="45.53019" lon="5.93281">
        <ele>785</ele>
        <time>2000-01-01T12:36:52.000Z</time>
      </trkpt>
      <trkpt lat="45.53046" lon="5.93273">
        <ele>783</ele>
        <time>2000-01-01T12:37:02.000Z</time>
      </trkpt>
      <trkpt lat="45.53085" lon="5.93262">
        <ele>770</ele>
        <time>2000-01-01T12:37:12.000Z</time>
      </trkpt>
      <trkpt lat="45.53111" lon="5.93259">
        <ele>758</ele>
        <time>2000-01-01T12:37:22.000Z</time>
      </trkpt>
      <trkpt lat="45.53145" lon="5.93251">
        <ele>750</ele>
        <time>2000-01-01T12:37:32.000Z</time>
      </trkpt>
      <trkpt lat="45.53172" lon="5.93249">
        <ele>747</ele>
        <time>2000-01-01T12:37:42.000Z</time>
      </trkpt>
      <trkpt lat="45.53195" lon="5.93264">
        <ele>742</ele>
        <time>2000-01-01T12:37:52.000Z</time>
      </trkpt>
      <trkpt lat="45.53222" lon="5.93281">
        <ele>738</ele>
        <time>2000-01-01T12:38:02.000Z</time>
      </trkpt>
      <trkpt lat="45.53247" lon="5.93307">
        <ele>735</ele>
        <time>2000-01-01T12:38:12.000Z</time>
      </trkpt>
      <trkpt lat="45.5326" lon="5.93306">
        <ele>732.2</ele>
        <time>2000-01-01T12:38:22.000Z</time>
      </trkpt>
      <trkpt lat="45.53275" lon="5.93308">
        <ele>733</ele>
        <time>2000-01-01T12:38:32.000Z</time>
      </trkpt>
      <trkpt lat="45.53283" lon="5.93309">
        <ele>730</ele>
        <time>2000-01-01T12:38:42.000Z</time>
      </trkpt>
      <trkpt lat="45.53295" lon="5.9331">
        <ele>732</ele>
        <time>2000-01-01T12:38:52.000Z</time>
      </trkpt>
      <trkpt lat="45.53306" lon="5.93309">
        <ele>728.1</ele>
        <time>2000-01-01T12:39:02.000Z</time>
      </trkpt>
      <trkpt lat="45.53316" lon="5.93308">
        <ele>730</ele>
        <time>2000-01-01T12:39:12.000Z</time>
      </trkpt>
      <trkpt lat="45.53327" lon="5.93305">
        <ele>726.8</ele>
        <time>2000-01-01T12:39:22.000Z</time>
      </trkpt>
      <trkpt lat="45.53339" lon="5.93302">
        <ele>727</ele>
        <time>2000-01-01T12:39:32.000Z</time>
      </trkpt>
      <trkpt lat="45.53351" lon="5.93299">
        <ele>723.5</ele>
        <time>2000-01-01T12:39:42.000Z</time>
      </trkpt>
      <trkpt lat="45.53377" lon="5.93312">
        <ele>718</ele>
        <time>2000-01-01T12:39:52.000Z</time>
      </trkpt>
      <trkpt lat="45.53395" lon="5.9332">
        <ele>715.3</ele>
        <time>2000-01-01T12:40:02.000Z</time>
      </trkpt>
      <trkpt lat="45.53414" lon="5.93324">
        <ele>713</ele>
        <time>2000-01-01T12:40:12.000Z</time>
      </trkpt>
      <trkpt lat="45.53442" lon="5.93335">
        <ele>708</ele>
        <time>2000-01-01T12:40:22.000Z</time>
      </trkpt>
      <trkpt lat="45.53488" lon="5.93335">
        <ele>704</ele>
        <time>2000-01-01T12:40:32.000Z</time>
      </trkpt>
      <trkpt lat="45.53506" lon="5.9333">
        <ele>695.6</ele>
        <time>2000-01-01T12:40:42.000Z</time>
      </trkpt>
      <trkpt lat="45.53517" lon="5.93327">
        <ele>696</ele>
        <time>2000-01-01T12:40:52.000Z</time>
      </trkpt>
      <trkpt lat="45.53526" lon="5.93322">
        <ele>693.6</ele>
        <time>2000-01-01T12:41:02.000Z</time>
      </trkpt>
      <trkpt lat="45.53531" lon="5.93319">
        <ele>693.6</ele>
        <time>2000-01-01T12:41:12.000Z</time>
      </trkpt>
      <trkpt lat="45.5354" lon="5.93311">
        <ele>694</ele>
        <time>2000-01-01T12:41:22.000Z</time>
      </trkpt>
      <trkpt lat="45.53553" lon="5.9331">
        <ele>692.3</ele>
        <time>2000-01-01T12:41:32.000Z</time>
      </trkpt>
      <trkpt lat="45.53554" lon="5.93336">
        <ele>687</ele>
        <time>2000-01-01T12:41:42.000Z</time>
      </trkpt>
      <trkpt lat="45.5356" lon="5.93363">
        <ele>679</ele>
        <time>2000-01-01T12:41:52.000Z</time>
      </trkpt>
      <trkpt lat="45.53569" lon="5.93406">
        <ele>670</ele>
        <time>2000-01-01T12:42:02.000Z</time>
      </trkpt>
      <trkpt lat="45.53573" lon="5.93442">
        <ele>658</ele>
        <time>2000-01-01T12:42:12.000Z</time>
      </trkpt>
      <trkpt lat="45.53573" lon="5.93456">
        <ele>656.1</ele>
        <time>2000-01-01T12:42:22.000Z</time>
      </trkpt>
      <trkpt lat="45.5357" lon="5.93467">
        <ele>654.8</ele>
        <time>2000-01-01T12:42:32.000Z</time>
      </trkpt>
      <trkpt lat="45.53563" lon="5.93487">
        <ele>653</ele>
        <time>2000-01-01T12:42:42.000Z</time>
      </trkpt>
      <trkpt lat="45.53564" lon="5.93493">
        <ele>651.4</ele>
        <time>2000-01-01T12:42:52.000Z</time>
      </trkpt>
      <trkpt lat="45.53568" lon="5.93511">
        <ele>650.3</ele>
        <time>2000-01-01T12:43:02.000Z</time>
      </trkpt>
      <trkpt lat="45.53571" lon="5.93516">
        <ele>651</ele>
        <time>2000-01-01T12:43:12.000Z</time>
      </trkpt>
      <trkpt lat="45.53595" lon="5.93535">
        <ele>645</ele>
        <time>2000-01-01T12:43:22.000Z</time>
      </trkpt>
      <trkpt lat="45.53611" lon="5.93542">
        <ele>634.6</ele>
        <time>2000-01-01T12:43:32.000Z</time>
      </trkpt>
      <trkpt lat="45.53621" lon="5.93546">
        <ele>632</ele>
        <time>2000-01-01T12:43:42.000Z</time>
      </trkpt>
      <trkpt lat="45.53628" lon="5.93548">
        <ele>630.5</ele>
        <time>2000-01-01T12:43:52.000Z</time>
      </trkpt>
      <trkpt lat="45.53642" lon="5.93549">
        <ele>623</ele>
        <time>2000-01-01T12:44:02.000Z</time>
      </trkpt>
      <trkpt lat="45.53658" lon="5.93548">
        <ele>622.3</ele>
        <time>2000-01-01T12:44:12.000Z</time>
      </trkpt>
      <trkpt lat="45.53679" lon="5.93544">
        <ele>621</ele>
        <time>2000-01-01T12:44:22.000Z</time>
      </trkpt>
      <trkpt lat="45.53693" lon="5.93538">
        <ele>618.7</ele>
        <time>2000-01-01T12:44:32.000Z</time>
      </trkpt>
      <trkpt lat="45.53695" lon="5.93506">
        <ele>610</ele>
        <time>2000-01-01T12:44:42.000Z</time>
      </trkpt>
      <trkpt lat="45.53698" lon="5.93482">
        <ele>606.9</ele>
        <time>2000-01-01T12:44:52.000Z</time>
      </trkpt>
      <trkpt lat="45.53699" lon="5.93455">
        <ele>601</ele>
        <time>2000-01-01T12:45:02.000Z</time>
      </trkpt>
      <trkpt lat="45.53698" lon="5.93425">
        <ele>594</ele>
        <time>2000-01-01T12:45:12.000Z</time>
      </trkpt>
      <trkpt lat="45.53695" lon="5.93395">
        <ele>592</ele>
        <time>2000-01-01T12:45:22.000Z</time>
      </trkpt>
      <trkpt lat="45.53697" lon="5.93372">
        <ele>585</ele>
        <time>2000-01-01T12:45:32.000Z</time>
      </trkpt>
      <trkpt lat="45.53704" lon="5.93311">
        <ele>576</ele>
        <time>2000-01-01T12:45:42.000Z</time>
      </trkpt>
      <trkpt lat="45.53709" lon="5.93274">
        <ele>571</ele>
        <time>2000-01-01T12:45:52.000Z</time>
      </trkpt>
      <trkpt lat="45.53722" lon="5.93239">
        <ele>564</ele>
        <time>2000-01-01T12:46:02.000Z</time>
      </trkpt>
      <trkpt lat="45.53754" lon="5.93196">
        <ele>549</ele>
        <time>2000-01-01T12:46:12.000Z</time>
      </trkpt>
      <trkpt lat="45.5376" lon="5.93204">
        <ele>544</ele>
        <time>2000-01-01T12:46:22.000Z</time>
      </trkpt>
      <trkpt lat="45.53766" lon="5.93183">
        <ele>544</ele>
        <time>2000-01-01T12:46:32.000Z</time>
      </trkpt>
      <trkpt lat="45.53767" lon="5.93178">
        <ele>540.3</ele>
        <time>2000-01-01T12:46:42.000Z</time>
      </trkpt>
      <trkpt lat="45.53778" lon="5.93164">
        <ele>536</ele>
        <time>2000-01-01T12:46:52.000Z</time>
      </trkpt>
      <trkpt lat="45.53788" lon="5.93153">
        <ele>542</ele>
        <time>2000-01-01T12:47:02.000Z</time>
      </trkpt>
      <trkpt lat="45.53784" lon="5.93137">
        <ele>535.4</ele>
        <time>2000-01-01T12:47:12.000Z</time>
      </trkpt>
      <trkpt lat="45.53778" lon="5.9311">
        <ele>540</ele>
        <time>2000-01-01T12:47:22.000Z</time>
      </trkpt>
      <trkpt lat="45.53781" lon="5.93102">
        <ele>539</ele>
        <time>2000-01-01T12:47:32.000Z</time>
      </trkpt>
      <trkpt lat="45.53782" lon="5.93099">
        <ele>539.1</ele>
        <time>2000-01-01T12:47:42.000Z</time>
      </trkpt>
      <trkpt lat="45.5378" lon="5.93095">
        <ele>539.8</ele>
        <time>2000-01-01T12:47:52.000Z</time>
      </trkpt>
      <trkpt lat="45.53782" lon="5.93086">
        <ele>540.2</ele>
        <time>2000-01-01T12:48:02.000Z</time>
      </trkpt>
      <trkpt lat="45.5379" lon="5.93076">
        <ele>540</ele>
        <time>2000-01-01T12:48:12.000Z</time>
      </trkpt>
      <trkpt lat="45.53797" lon="5.93066">
        <ele>539.9</ele>
        <time>2000-01-01T12:48:22.000Z</time>
      </trkpt>
      <trkpt lat="45.53803" lon="5.93048">
        <ele>541</ele>
        <time>2000-01-01T12:48:32.000Z</time>
      </trkpt>
      <trkpt lat="45.53805" lon="5.93029">
        <ele>542</ele>
        <time>2000-01-01T12:48:42.000Z</time>
      </trkpt>
      <trkpt lat="45.53808" lon="5.9302">
        <ele>544</ele>
        <time>2000-01-01T12:48:52.000Z</time>
      </trkpt>
      <trkpt lat="45.53812" lon="5.93012">
        <ele>543.4</ele>
        <time>2000-01-01T12:49:02.000Z</time>
      </trkpt>
      <trkpt lat="45.53809" lon="5.93009">
        <ele>543.9</ele>
        <time>2000-01-01T12:49:12.000Z</time>
      </trkpt>
      <trkpt lat="45.53806" lon="5.93009">
        <ele>544</ele>
        <time>2000-01-01T12:49:22.000Z</time>
      </trkpt>
      <trkpt lat="45.53799" lon="5.93012">
        <ele>546</ele>
        <time>2000-01-01T12:49:32.000Z</time>
      </trkpt>
      <trkpt lat="45.53788" lon="5.93018">
        <ele>546</ele>
        <time>2000-01-01T12:49:42.000Z</time>
      </trkpt>
      <trkpt lat="45.53777" lon="5.93023">
        <ele>548</ele>
        <time>2000-01-01T12:49:52.000Z</time>
      </trkpt>
      <trkpt lat="45.53772" lon="5.93026">
        <ele>548.6</ele>
        <time>2000-01-01T12:50:02.000Z</time>
      </trkpt>
      <trkpt lat="45.53767" lon="5.93033">
        <ele>549.3</ele>
        <time>2000-01-01T12:50:12.000Z</time>
      </trkpt>
      <trkpt lat="45.53761" lon="5.93035">
        <ele>550.6</ele>
        <time>2000-01-01T12:50:22.000Z</time>
      </trkpt>
      <trkpt lat="45.53758" lon="5.93034">
        <ele>553</ele>
        <time>2000-01-01T12:50:32.000Z</time>
      </trkpt>
      <trkpt lat="45.53757" lon="5.93026">
        <ele>552.3</ele>
        <time>2000-01-01T12:50:42.000Z</time>
      </trkpt>
      <trkpt lat="45.53757" lon="5.93014">
        <ele>552.9</ele>
        <time>2000-01-01T12:50:52.000Z</time>
      </trkpt>
      <trkpt lat="45.53758" lon="5.92999">
        <ele>556</ele>
        <time>2000-01-01T12:51:02.000Z</time>
      </trkpt>
      <trkpt lat="45.53764" lon="5.92981">
        <ele>554.4</ele>
        <time>2000-01-01T12:51:12.000Z</time>
      </trkpt>
      <trkpt lat="45.53771" lon="5.92961">
        <ele>556</ele>
        <time>2000-01-01T12:51:22.000Z</time>
      </trkpt>
      <trkpt lat="45.53778" lon="5.92945">
        <ele>557.9</ele>
        <time>2000-01-01T12:51:32.000Z</time>
      </trkpt>
      <trkpt lat="45.53779" lon="5.92939">
        <ele>558.9</ele>
        <time>2000-01-01T12:51:42.000Z</time>
      </trkpt>
      <trkpt lat="45.5377" lon="5.92918">
        <ele>566</ele>
        <time>2000-01-01T12:51:52.000Z</time>
      </trkpt>
      <trkpt lat="45.53745" lon="5.92877">
        <ele>576</ele>
        <time>2000-01-01T12:52:02.000Z</time>
      </trkpt>
      <trkpt lat="45.53729" lon="5.92846">
        <ele>581</ele>
        <time>2000-01-01T12:52:12.000Z</time>
      </trkpt>
      <trkpt lat="45.53707" lon="5.92803">
        <ele>584</ele>
        <time>2000-01-01T12:52:22.000Z</time>
      </trkpt>
      <trkpt lat="45.53731" lon="5.92811">
        <ele>584</ele>
        <time>2000-01-01T12:52:32.000Z</time>
      </trkpt>
      <trkpt lat="45.53745" lon="5.92816">
        <ele>587</ele>
        <time>2000-01-01T12:52:42.000Z</time>
      </trkpt>
      <trkpt lat="45.53759" lon="5.92821">
        <ele>584</ele>
        <time>2000-01-01T12:52:52.000Z</time>
      </trkpt>
      <trkpt lat="45.5378" lon="5.92829">
        <ele>583</ele>
        <time>2000-01-01T12:53:02.000Z</time>
      </trkpt>
      <trkpt lat="45.53803" lon="5.92835">
        <ele>581</ele>
        <time>2000-01-01T12:53:12.000Z</time>
      </trkpt>
      <trkpt lat="45.53827" lon="5.92842">
        <ele>579</ele>
        <time>2000-01-01T12:53:22.000Z</time>
      </trkpt>
      <trkpt lat="45.53854" lon="5.92849">
        <ele>579</ele>
        <time>2000-01-01T12:53:32.000Z</time>
      </trkpt>
      <trkpt lat="45.53876" lon="5.92858">
        <ele>575</ele>
        <time>2000-01-01T12:53:42.000Z</time>
      </trkpt>
      <trkpt lat="45.53892" lon="5.92868">
        <ele>572.4</ele>
        <time>2000-01-01T12:53:52.000Z</time>
      </trkpt>
      <trkpt lat="45.53901" lon="5.92874">
        <ele>573</ele>
        <time>2000-01-01T12:54:02.000Z</time>
      </trkpt>
      <trkpt lat="45.53926" lon="5.92891">
        <ele>569</ele>
        <time>2000-01-01T12:54:12.000Z</time>
      </trkpt>
      <trkpt lat="45.53932" lon="5.92893">
        <ele>569.3</ele>
        <time>2000-01-01T12:54:22.000Z</time>
      </trkpt>
      <trkpt lat="45.53949" lon="5.92901">
        <ele>569</ele>
        <time>2000-01-01T12:54:32.000Z</time>
      </trkpt>
      <trkpt lat="45.53961" lon="5.92904">
        <ele>566</ele>
        <time>2000-01-01T12:54:42.000Z</time>
      </trkpt>
      <trkpt lat="45.53964" lon="5.92902">
        <ele>566.5</ele>
        <time>2000-01-01T12:54:52.000Z</time>
      </trkpt>
      <trkpt lat="45.53975" lon="5.92899">
        <ele>569</ele>
        <time>2000-01-01T12:55:02.000Z</time>
      </trkpt>
      <trkpt lat="45.53986" lon="5.92894">
        <ele>567.7</ele>
        <time>2000-01-01T12:55:12.000Z</time>
      </trkpt>
      <trkpt lat="45.53991" lon="5.92889">
        <ele>568.6</ele>
        <time>2000-01-01T12:55:22.000Z</time>
      </trkpt>
      <trkpt lat="45.53994" lon="5.92885">
        <ele>571</ele>
        <time>2000-01-01T12:55:32.000Z</time>
      </trkpt>
      <trkpt lat="45.53998" lon="5.92876">
        <ele>571.5</ele>
        <time>2000-01-01T12:55:42.000Z</time>
      </trkpt>
      <trkpt lat="45.54005" lon="5.92848">
        <ele>572</ele>
        <time>2000-01-01T12:55:52.000Z</time>
      </trkpt>
      <trkpt lat="45.54008" lon="5.9284">
        <ele>576.3</ele>
        <time>2000-01-01T12:56:02.000Z</time>
      </trkpt>
      <trkpt lat="45.5401" lon="5.92837">
        <ele>576.3</ele>
        <time>2000-01-01T12:56:12.000Z</time>
      </trkpt>
      <trkpt lat="45.54012" lon="5.92835">
        <ele>576.1</ele>
        <time>2000-01-01T12:56:22.000Z</time>
      </trkpt>
      <trkpt lat="45.54017" lon="5.92834">
        <ele>575.5</ele>
        <time>2000-01-01T12:56:32.000Z</time>
      </trkpt>
      <trkpt lat="45.54038" lon="5.92838">
        <ele>574</ele>
        <time>2000-01-01T12:56:42.000Z</time>
      </trkpt>
      <trkpt lat="45.54044" lon="5.92838">
        <ele>573.7</ele>
        <time>2000-01-01T12:56:52.000Z</time>
      </trkpt>
      <trkpt lat="45.54049" lon="5.92835">
        <ele>573.9</ele>
        <time>2000-01-01T12:57:02.000Z</time>
      </trkpt>
      <trkpt lat="45.54064" lon="5.92813">
        <ele>576</ele>
        <time>2000-01-01T12:57:12.000Z</time>
      </trkpt>
      <trkpt lat="45.54069" lon="5.92803">
        <ele>575.7</ele>
        <time>2000-01-01T12:57:22.000Z</time>
      </trkpt>
      <trkpt lat="45.54079" lon="5.92786">
        <ele>575</ele>
        <time>2000-01-01T12:57:32.000Z</time>
      </trkpt>
      <trkpt lat="45.54086" lon="5.92777">
        <ele>573.4</ele>
        <time>2000-01-01T12:57:42.000Z</time>
      </trkpt>
      <trkpt lat="45.54087" lon="5.92768">
        <ele>573.2</ele>
        <time>2000-01-01T12:57:52.000Z</time>
      </trkpt>
      <trkpt lat="45.54085" lon="5.92751">
        <ele>575</ele>
        <time>2000-01-01T12:58:02.000Z</time>
      </trkpt>
      <trkpt lat="45.54083" lon="5.92731">
        <ele>573.4</ele>
        <time>2000-01-01T12:58:12.000Z</time>
      </trkpt>
      <trkpt lat="45.54083" lon="5.92716">
        <ele>573</ele>
        <time>2000-01-01T12:58:22.000Z</time>
      </trkpt>
      <trkpt lat="45.54085" lon="5.92708">
        <ele>572.7</ele>
        <time>2000-01-01T12:58:32.000Z</time>
      </trkpt>
      <trkpt lat="45.54088" lon="5.927">
        <ele>572.2</ele>
        <time>2000-01-01T12:58:42.000Z</time>
      </trkpt>
      <trkpt lat="45.54092" lon="5.92692">
        <ele>571.3</ele>
        <time>2000-01-01T12:58:52.000Z</time>
      </trkpt>
      <trkpt lat="45.54095" lon="5.92687">
        <ele>572</ele>
        <time>2000-01-01T12:59:02.000Z</time>
      </trkpt>
      <trkpt lat="45.54097" lon="5.92681">
        <ele>569.1</ele>
        <time>2000-01-01T12:59:12.000Z</time>
      </trkpt>
      <trkpt lat="45.54097" lon="5.92675">
        <ele>568.5</ele>
        <time>2000-01-01T12:59:22.000Z</time>
      </trkpt>
      <trkpt lat="45.54096" lon="5.92669">
        <ele>568.2</ele>
        <time>2000-01-01T12:59:32.000Z</time>
      </trkpt>
      <trkpt lat="45.54095" lon="5.92665">
        <ele>568</ele>
        <time>2000-01-01T12:59:42.000Z</time>
      </trkpt>
      <trkpt lat="45.54095" lon="5.9266">
        <ele>567</ele>
        <time>2000-01-01T12:59:52.000Z</time>
      </trkpt>
      <trkpt lat="45.54093" lon="5.92653">
        <ele>566.2</ele>
        <time>2000-01-01T13:00:02.000Z</time>
      </trkpt>
      <trkpt lat="45.54091" lon="5.92646">
        <ele>565.5</ele>
        <time>2000-01-01T13:00:12.000Z</time>
      </trkpt>
      <trkpt lat="45.54088" lon="5.92637">
        <ele>564.9</ele>
        <time>2000-01-01T13:00:22.000Z</time>
      </trkpt>
      <trkpt lat="45.54085" lon="5.92629">
        <ele>567</ele>
        <time>2000-01-01T13:00:32.000Z</time>
      </trkpt>
      <trkpt lat="45.54082" lon="5.9262">
        <ele>564.9</ele>
        <time>2000-01-01T13:00:42.000Z</time>
      </trkpt>
      <trkpt lat="45.54077" lon="5.92592">
        <ele>567</ele>
        <time>2000-01-01T13:00:52.000Z</time>
      </trkpt>
      <trkpt lat="45.54073" lon="5.92574">
        <ele>566.4</ele>
        <time>2000-01-01T13:01:02.000Z</time>
      </trkpt>
      <trkpt lat="45.5407" lon="5.92567">
        <ele>568</ele>
        <time>2000-01-01T13:01:12.000Z</time>
      </trkpt>
      <trkpt lat="45.54067" lon="5.9256">
        <ele>568</ele>
        <time>2000-01-01T13:01:22.000Z</time>
      </trkpt>
      <trkpt lat="45.5406" lon="5.92548">
        <ele>569.7</ele>
        <time>2000-01-01T13:01:32.000Z</time>
      </trkpt>
      <trkpt lat="45.54059" lon="5.92543">
        <ele>567</ele>
        <time>2000-01-01T13:01:42.000Z</time>
      </trkpt>
      <trkpt lat="45.54059" lon="5.92538">
        <ele>569.8</ele>
        <time>2000-01-01T13:01:52.000Z</time>
      </trkpt>
      <trkpt lat="45.54061" lon="5.92535">
        <ele>569.4</ele>
        <time>2000-01-01T13:02:02.000Z</time>
      </trkpt>
      <trkpt lat="45.5407" lon="5.92535">
        <ele>568</ele>
        <time>2000-01-01T13:02:12.000Z</time>
      </trkpt>
      <trkpt lat="45.5408" lon="5.92538">
        <ele>566</ele>
        <time>2000-01-01T13:02:22.000Z</time>
      </trkpt>
      <trkpt lat="45.54087" lon="5.92542">
        <ele>564.7</ele>
        <time>2000-01-01T13:02:32.000Z</time>
      </trkpt>
      <trkpt lat="45.54101" lon="5.92542">
        <ele>564</ele>
        <time>2000-01-01T13:02:42.000Z</time>
      </trkpt>
      <trkpt lat="45.54115" lon="5.92542">
        <ele>562.5</ele>
        <time>2000-01-01T13:02:52.000Z</time>
      </trkpt>
      <trkpt lat="45.54124" lon="5.92546">
        <ele>562</ele>
        <time>2000-01-01T13:03:02.000Z</time>
      </trkpt>
      <trkpt lat="45.54135" lon="5.92554">
        <ele>559.5</ele>
        <time>2000-01-01T13:03:12.000Z</time>
      </trkpt>
      <trkpt lat="45.5414" lon="5.92559">
        <ele>558.8</ele>
        <time>2000-01-01T13:03:22.000Z</time>
      </trkpt>
      <trkpt lat="45.54146" lon="5.9256">
        <ele>559</ele>
        <time>2000-01-01T13:03:32.000Z</time>
      </trkpt>
      <trkpt lat="45.54152" lon="5.92561">
        <ele>556.1</ele>
        <time>2000-01-01T13:03:42.000Z</time>
      </trkpt>
      <trkpt lat="45.54157" lon="5.92564">
        <ele>554.9</ele>
        <time>2000-01-01T13:03:52.000Z</time>
      </trkpt>
      <trkpt lat="45.54163" lon="5.92569">
        <ele>553</ele>
        <time>2000-01-01T13:04:02.000Z</time>
      </trkpt>
      <trkpt lat="45.54172" lon="5.92571">
        <ele>551.5</ele>
        <time>2000-01-01T13:04:12.000Z</time>
      </trkpt>
      <trkpt lat="45.54175" lon="5.92571">
        <ele>551</ele>
        <time>2000-01-01T13:04:22.000Z</time>
      </trkpt>
      <trkpt lat="45.54191" lon="5.92566">
        <ele>552</ele>
        <time>2000-01-01T13:04:32.000Z</time>
      </trkpt>
      <trkpt lat="45.542" lon="5.92562">
        <ele>548.4</ele>
        <time>2000-01-01T13:04:42.000Z</time>
      </trkpt>
      <trkpt lat="45.54209" lon="5.92554">
        <ele>551</ele>
        <time>2000-01-01T13:04:52.000Z</time>
      </trkpt>
      <trkpt lat="45.54217" lon="5.92549">
        <ele>547.3</ele>
        <time>2000-01-01T13:05:02.000Z</time>
      </trkpt>
      <trkpt lat="45.54226" lon="5.92538">
        <ele>546</ele>
        <time>2000-01-01T13:05:12.000Z</time>
      </trkpt>
      <trkpt lat="45.5423" lon="5.92527">
        <ele>542.3</ele>
        <time>2000-01-01T13:05:22.000Z</time>
      </trkpt>
      <trkpt lat="45.54232" lon="5.92521">
        <ele>540.1</ele>
        <time>2000-01-01T13:05:32.000Z</time>
      </trkpt>
      <trkpt lat="45.54231" lon="5.92513">
        <ele>537</ele>
        <time>2000-01-01T13:05:42.000Z</time>
      </trkpt>
      <trkpt lat="45.5422" lon="5.92493">
        <ele>537.2</ele>
        <time>2000-01-01T13:05:52.000Z</time>
      </trkpt>
      <trkpt lat="45.54212" lon="5.92477">
        <ele>534</ele>
        <time>2000-01-01T13:06:02.000Z</time>
      </trkpt>
      <trkpt lat="45.54209" lon="5.92464">
        <ele>532.8</ele>
        <time>2000-01-01T13:06:12.000Z</time>
      </trkpt>
      <trkpt lat="45.54206" lon="5.92454">
        <ele>530.4</ele>
        <time>2000-01-01T13:06:22.000Z</time>
      </trkpt>
      <trkpt lat="45.54204" lon="5.92444">
        <ele>528</ele>
        <time>2000-01-01T13:06:32.000Z</time>
      </trkpt>
      <trkpt lat="45.54201" lon="5.92437">
        <ele>527.5</ele>
        <time>2000-01-01T13:06:42.000Z</time>
      </trkpt>
      <trkpt lat="45.54199" lon="5.92424">
        <ele>524.4</ele>
        <time>2000-01-01T13:06:52.000Z</time>
      </trkpt>
      <trkpt lat="45.54199" lon="5.9241">
        <ele>523</ele>
        <time>2000-01-01T13:07:02.000Z</time>
      </trkpt>
      <trkpt lat="45.54198" lon="5.92398">
        <ele>518</ele>
        <time>2000-01-01T13:07:12.000Z</time>
      </trkpt>
      <trkpt lat="45.54191" lon="5.92385">
        <ele>515</ele>
        <time>2000-01-01T13:07:22.000Z</time>
      </trkpt>
      <trkpt lat="45.54184" lon="5.92376">
        <ele>517.7</ele>
        <time>2000-01-01T13:07:32.000Z</time>
      </trkpt>
      <trkpt lat="45.54186" lon="5.92366">
        <ele>514.9</ele>
        <time>2000-01-01T13:07:42.000Z</time>
      </trkpt>
      <trkpt lat="45.5419" lon="5.92358">
        <ele>513</ele>
        <time>2000-01-01T13:07:52.000Z</time>
      </trkpt>
      <trkpt lat="45.54195" lon="5.92353">
        <ele>510.7</ele>
        <time>2000-01-01T13:08:02.000Z</time>
      </trkpt>
      <trkpt lat="45.54218" lon="5.92372">
        <ele>509</ele>
        <time>2000-01-01T13:08:12.000Z</time>
      </trkpt>
      <trkpt lat="45.5423" lon="5.92383">
        <ele>504.7</ele>
        <time>2000-01-01T13:08:22.000Z</time>
      </trkpt>
      <trkpt lat="45.54245" lon="5.9239">
        <ele>503</ele>
        <time>2000-01-01T13:08:32.000Z</time>
      </trkpt>
      <trkpt lat="45.54267" lon="5.92399">
        <ele>498</ele>
        <time>2000-01-01T13:08:42.000Z</time>
      </trkpt>
      <trkpt lat="45.54289" lon="5.92408">
        <ele>490</ele>
        <time>2000-01-01T13:08:52.000Z</time>
      </trkpt>
      <trkpt lat="45.54297" lon="5.92415">
        <ele>486.3</ele>
        <time>2000-01-01T13:09:02.000Z</time>
      </trkpt>
      <trkpt lat="45.54305" lon="5.92428">
        <ele>486</ele>
        <time>2000-01-01T13:09:12.000Z</time>
      </trkpt>
      <trkpt lat="45.54313" lon="5.92444">
        <ele>485.1</ele>
        <time>2000-01-01T13:09:22.000Z</time>
      </trkpt>
      <trkpt lat="45.54322" lon="5.92461">
        <ele>485</ele>
        <time>2000-01-01T13:09:32.000Z</time>
      </trkpt>
      <trkpt lat="45.5433" lon="5.92473">
        <ele>485</ele>
        <time>2000-01-01T13:09:42.000Z</time>
      </trkpt>
      <trkpt lat="45.54337" lon="5.92481">
        <ele>485</ele>
        <time>2000-01-01T13:09:52.000Z</time>
      </trkpt>
      <trkpt lat="45.54345" lon="5.92492">
        <ele>484.1</ele>
        <time>2000-01-01T13:10:02.000Z</time>
      </trkpt>
      <trkpt lat="45.54361" lon="5.92506">
        <ele>481</ele>
        <time>2000-01-01T13:10:12.000Z</time>
      </trkpt>
      <trkpt lat="45.54376" lon="5.92517">
        <ele>481.2</ele>
        <time>2000-01-01T13:10:22.000Z</time>
      </trkpt>
      <trkpt lat="45.54388" lon="5.92526">
        <ele>480</ele>
        <time>2000-01-01T13:10:32.000Z</time>
      </trkpt>
      <trkpt lat="45.54412" lon="5.92547">
        <ele>478</ele>
        <time>2000-01-01T13:10:42.000Z</time>
      </trkpt>
      <trkpt lat="45.54422" lon="5.92554">
        <ele>478.6</ele>
        <time>2000-01-01T13:10:52.000Z</time>
      </trkpt>
      <trkpt lat="45.54432" lon="5.92561">
        <ele>478</ele>
        <time>2000-01-01T13:11:02.000Z</time>
      </trkpt>
      <trkpt lat="45.54437" lon="5.92566">
        <ele>478.1</ele>
        <time>2000-01-01T13:11:12.000Z</time>
      </trkpt>
      <trkpt lat="45.54442" lon="5.92569">
        <ele>477.7</ele>
        <time>2000-01-01T13:11:22.000Z</time>
      </trkpt>
      <trkpt lat="45.54453" lon="5.92571">
        <ele>477</ele>
        <time>2000-01-01T13:11:32.000Z</time>
      </trkpt>
      <trkpt lat="45.54465" lon="5.92573">
        <ele>476.4</ele>
        <time>2000-01-01T13:11:42.000Z</time>
      </trkpt>
      <trkpt lat="45.54479" lon="5.9257">
        <ele>476</ele>
        <time>2000-01-01T13:11:52.000Z</time>
      </trkpt>
      <trkpt lat="45.54493" lon="5.92561">
        <ele>474.7</ele>
        <time>2000-01-01T13:12:02.000Z</time>
      </trkpt>
      <trkpt lat="45.54503" lon="5.92552">
        <ele>474</ele>
        <time>2000-01-01T13:12:12.000Z</time>
      </trkpt>
      <trkpt lat="45.54506" lon="5.92551">
        <ele>474.2</ele>
        <time>2000-01-01T13:12:22.000Z</time>
      </trkpt>
      <trkpt lat="45.54531" lon="5.92549">
        <ele>474</ele>
        <time>2000-01-01T13:12:32.000Z</time>
      </trkpt>
      <trkpt lat="45.54533" lon="5.92569">
        <ele>473.8</ele>
        <time>2000-01-01T13:12:42.000Z</time>
      </trkpt>
      <trkpt lat="45.54535" lon="5.92585">
        <ele>473</ele>
        <time>2000-01-01T13:12:52.000Z</time>
      </trkpt>
      <trkpt lat="45.54539" lon="5.92604">
        <ele>471.8</ele>
        <time>2000-01-01T13:13:02.000Z</time>
      </trkpt>
      <trkpt lat="45.54543" lon="5.92618">
        <ele>471</ele>
        <time>2000-01-01T13:13:12.000Z</time>
      </trkpt>
      <trkpt lat="45.54549" lon="5.92632">
        <ele>469.4</ele>
        <time>2000-01-01T13:13:22.000Z</time>
      </trkpt>
      <trkpt lat="45.54551" lon="5.9264">
        <ele>468.9</ele>
        <time>2000-01-01T13:13:32.000Z</time>
      </trkpt>
      <trkpt lat="45.5456" lon="5.92658">
        <ele>468</ele>
        <time>2000-01-01T13:13:42.000Z</time>
      </trkpt>
      <trkpt lat="45.54565" lon="5.92667">
        <ele>467.6</ele>
        <time>2000-01-01T13:13:52.000Z</time>
      </trkpt>
      <trkpt lat="45.54572" lon="5.9267">
        <ele>466.6</ele>
        <time>2000-01-01T13:14:02.000Z</time>
      </trkpt>
      <trkpt lat="45.5458" lon="5.92672">
        <ele>464</ele>
        <time>2000-01-01T13:14:12.000Z</time>
      </trkpt>
      <trkpt lat="45.54591" lon="5.92675">
        <ele>463.9</ele>
        <time>2000-01-01T13:14:22.000Z</time>
      </trkpt>
      <trkpt lat="45.54602" lon="5.92679">
        <ele>462</ele>
        <time>2000-01-01T13:14:32.000Z</time>
      </trkpt>
      <trkpt lat="45.5461" lon="5.92684">
        <ele>461.5</ele>
        <time>2000-01-01T13:14:42.000Z</time>
      </trkpt>
      <trkpt lat="45.54621" lon="5.92691">
        <ele>459</ele>
        <time>2000-01-01T13:14:52.000Z</time>
      </trkpt>
      <trkpt lat="45.54633" lon="5.92701">
        <ele>458.6</ele>
        <time>2000-01-01T13:15:02.000Z</time>
      </trkpt>
      <trkpt lat="45.54645" lon="5.92709">
        <ele>456</ele>
        <time>2000-01-01T13:15:12.000Z</time>
      </trkpt>
      <trkpt lat="45.54658" lon="5.92716">
        <ele>456.1</ele>
        <time>2000-01-01T13:15:22.000Z</time>
      </trkpt>
      <trkpt lat="45.54673" lon="5.92725">
        <ele>454</ele>
        <time>2000-01-01T13:15:32.000Z</time>
      </trkpt>
      <trkpt lat="45.54686" lon="5.92735">
        <ele>453.8</ele>
        <time>2000-01-01T13:15:42.000Z</time>
      </trkpt>
      <trkpt lat="45.54701" lon="5.92751">
        <ele>452</ele>
        <time>2000-01-01T13:15:52.000Z</time>
      </trkpt>
      <trkpt lat="45.54725" lon="5.92763">
        <ele>451</ele>
        <time>2000-01-01T13:16:02.000Z</time>
      </trkpt>
      <trkpt lat="45.54768" lon="5.92791">
        <ele>446</ele>
        <time>2000-01-01T13:16:12.000Z</time>
      </trkpt>
      <trkpt lat="45.54788" lon="5.92804">
        <ele>444</ele>
        <time>2000-01-01T13:16:22.000Z</time>
      </trkpt>
      <trkpt lat="45.54793" lon="5.92807">
        <ele>443</ele>
        <time>2000-01-01T13:16:32.000Z</time>
      </trkpt>
      <trkpt lat="45.54831" lon="5.92833">
        <ele>438</ele>
        <time>2000-01-01T13:16:42.000Z</time>
      </trkpt>
      <trkpt lat="45.54846" lon="5.92843">
        <ele>438.2</ele>
        <time>2000-01-01T13:16:52.000Z</time>
      </trkpt>
      <trkpt lat="45.54862" lon="5.92853">
        <ele>436</ele>
        <time>2000-01-01T13:17:02.000Z</time>
      </trkpt>
      <trkpt lat="45.54881" lon="5.92862">
        <ele>434</ele>
        <time>2000-01-01T13:17:12.000Z</time>
      </trkpt>
      <trkpt lat="45.54906" lon="5.92871">
        <ele>432</ele>
        <time>2000-01-01T13:17:22.000Z</time>
      </trkpt>
      <trkpt lat="45.54908" lon="5.92874">
        <ele>432.5</ele>
        <time>2000-01-01T13:17:32.000Z</time>
      </trkpt>
      <trkpt lat="45.54913" lon="5.92877">
        <ele>432.2</ele>
        <time>2000-01-01T13:17:42.000Z</time>
      </trkpt>
      <trkpt lat="45.54918" lon="5.92879">
        <ele>431.7</ele>
        <time>2000-01-01T13:17:52.000Z</time>
      </trkpt>
      <trkpt lat="45.54931" lon="5.92882">
        <ele>428</ele>
        <time>2000-01-01T13:18:02.000Z</time>
      </trkpt>
      <trkpt lat="45.54951" lon="5.92886">
        <ele>425</ele>
        <time>2000-01-01T13:18:12.000Z</time>
      </trkpt>
      <trkpt lat="45.54957" lon="5.92888">
        <ele>425.8</ele>
        <time>2000-01-01T13:18:22.000Z</time>
      </trkpt>
      <trkpt lat="45.54964" lon="5.92892">
        <ele>424.9</ele>
        <time>2000-01-01T13:18:32.000Z</time>
      </trkpt>
      <trkpt lat="45.54971" lon="5.92896">
        <ele>423</ele>
        <time>2000-01-01T13:18:42.000Z</time>
      </trkpt>
      <trkpt lat="45.54985" lon="5.92903">
        <ele>422.4</ele>
        <time>2000-01-01T13:18:52.000Z</time>
      </trkpt>
      <trkpt lat="45.54994" lon="5.92908">
        <ele>420</ele>
        <time>2000-01-01T13:19:02.000Z</time>
      </trkpt>
      <trkpt lat="45.55002" lon="5.9291">
        <ele>419.7</ele>
        <time>2000-01-01T13:19:12.000Z</time>
      </trkpt>
      <trkpt lat="45.55009" lon="5.92909">
        <ele>418.6</ele>
        <time>2000-01-01T13:19:22.000Z</time>
      </trkpt>
      <trkpt lat="45.5502" lon="5.92904">
        <ele>418</ele>
        <time>2000-01-01T13:19:32.000Z</time>
      </trkpt>
      <trkpt lat="45.55024" lon="5.92904">
        <ele>416.5</ele>
        <time>2000-01-01T13:19:42.000Z</time>
      </trkpt>
      <trkpt lat="45.55025" lon="5.92897">
        <ele>416.8</ele>
        <time>2000-01-01T13:19:52.000Z</time>
      </trkpt>
      <trkpt lat="45.5503" lon="5.92889">
        <ele>416.8</ele>
        <time>2000-01-01T13:20:02.000Z</time>
      </trkpt>
      <trkpt lat="45.55034" lon="5.92886">
        <ele>418</ele>
        <time>2000-01-01T13:20:12.000Z</time>
      </trkpt>
      <trkpt lat="45.55036" lon="5.92884">
        <ele>417.4</ele>
        <time>2000-01-01T13:20:22.000Z</time>
      </trkpt>
      <trkpt lat="45.55042" lon="5.92882">
        <ele>417.3</ele>
        <time>2000-01-01T13:20:32.000Z</time>
      </trkpt>
      <trkpt lat="45.55036" lon="5.92884">
        <ele>417.4</ele>
        <time>2000-01-01T13:20:42.000Z</time>
      </trkpt>
      <trkpt lat="45.55034" lon="5.92886">
        <ele>417.2</ele>
        <time>2000-01-01T13:20:52.000Z</time>
      </trkpt>
      <trkpt lat="45.55034" lon="5.92878">
        <ele>421</ele>
        <time>2000-01-01T13:21:02.000Z</time>
      </trkpt>
      <trkpt lat="45.55036" lon="5.92871">
        <ele>420.1</ele>
        <time>2000-01-01T13:21:12.000Z</time>
      </trkpt>
      <trkpt lat="45.55039" lon="5.92864">
        <ele>421.2</ele>
        <time>2000-01-01T13:21:22.000Z</time>
      </trkpt>
      <trkpt lat="45.55042" lon="5.92857">
        <ele>422.3</ele>
        <time>2000-01-01T13:21:32.000Z</time>
      </trkpt>
      <trkpt lat="45.55048" lon="5.92851">
        <ele>421</ele>
        <time>2000-01-01T13:21:42.000Z</time>
      </trkpt>
      <trkpt lat="45.55054" lon="5.92848">
        <ele>423</ele>
        <time>2000-01-01T13:21:52.000Z</time>
      </trkpt>
      <trkpt lat="45.55069" lon="5.92843">
        <ele>424</ele>
        <time>2000-01-01T13:22:02.000Z</time>
      </trkpt>
      <trkpt lat="45.55081" lon="5.92836">
        <ele>425.4</ele>
        <time>2000-01-01T13:22:12.000Z</time>
      </trkpt>
      <trkpt lat="45.55099" lon="5.92823">
        <ele>428</ele>
        <time>2000-01-01T13:22:22.000Z</time>
      </trkpt>
      <trkpt lat="45.55114" lon="5.92806">
        <ele>432</ele>
        <time>2000-01-01T13:22:32.000Z</time>
      </trkpt>
      <trkpt lat="45.5513" lon="5.9279">
        <ele>433</ele>
        <time>2000-01-01T13:22:42.000Z</time>
      </trkpt>
      <trkpt lat="45.55148" lon="5.92774">
        <ele>437</ele>
        <time>2000-01-01T13:22:52.000Z</time>
      </trkpt>
      <trkpt lat="45.55169" lon="5.92763">
        <ele>438</ele>
        <time>2000-01-01T13:23:02.000Z</time>
      </trkpt>
      <trkpt lat="45.55184" lon="5.92758">
        <ele>438.4</ele>
        <time>2000-01-01T13:23:12.000Z</time>
      </trkpt>
      <trkpt lat="45.55192" lon="5.92755">
        <ele>440</ele>
        <time>2000-01-01T13:23:22.000Z</time>
      </trkpt>
      <trkpt lat="45.55202" lon="5.92755">
        <ele>439.2</ele>
        <time>2000-01-01T13:23:32.000Z</time>
      </trkpt>
      <trkpt lat="45.55212" lon="5.92754">
        <ele>440</ele>
        <time>2000-01-01T13:23:42.000Z</time>
      </trkpt>
      <trkpt lat="45.55219" lon="5.92753">
        <ele>440.2</ele>
        <time>2000-01-01T13:23:52.000Z</time>
      </trkpt>
      <trkpt lat="45.55226" lon="5.92743">
        <ele>442.2</ele>
        <time>2000-01-01T13:24:02.000Z</time>
      </trkpt>
      <trkpt lat="45.55229" lon="5.92735">
        <ele>443</ele>
        <time>2000-01-01T13:24:12.000Z</time>
      </trkpt>
      <trkpt lat="45.55228" lon="5.92726">
        <ele>445.1</ele>
        <time>2000-01-01T13:24:22.000Z</time>
      </trkpt>
      <trkpt lat="45.55221" lon="5.92682">
        <ele>447</ele>
        <time>2000-01-01T13:24:32.000Z</time>
      </trkpt>
      <trkpt lat="45.55219" lon="5.92672">
        <ele>448</ele>
        <time>2000-01-01T13:24:42.000Z</time>
      </trkpt>
      <trkpt lat="45.55217" lon="5.92662">
        <ele>448.6</ele>
        <time>2000-01-01T13:24:52.000Z</time>
      </trkpt>
      <trkpt lat="45.55217" lon="5.92655">
        <ele>451</ele>
        <time>2000-01-01T13:25:02.000Z</time>
      </trkpt>
      <trkpt lat="45.55215" lon="5.92645">
        <ele>449.7</ele>
        <time>2000-01-01T13:25:12.000Z</time>
      </trkpt>
      <trkpt lat="45.55208" lon="5.92621">
        <ele>454</ele>
        <time>2000-01-01T13:25:22.000Z</time>
      </trkpt>
      <trkpt lat="45.55205" lon="5.92608">
        <ele>453.6</ele>
        <time>2000-01-01T13:25:32.000Z</time>
      </trkpt>
      <trkpt lat="45.552" lon="5.92594">
        <ele>454</ele>
        <time>2000-01-01T13:25:42.000Z</time>
      </trkpt>
      <trkpt lat="45.55187" lon="5.92572">
        <ele>458</ele>
        <time>2000-01-01T13:25:52.000Z</time>
      </trkpt>
      <trkpt lat="45.55181" lon="5.92566">
        <ele>457.9</ele>
        <time>2000-01-01T13:26:02.000Z</time>
      </trkpt>
      <trkpt lat="45.55176" lon="5.92562">
        <ele>458.7</ele>
        <time>2000-01-01T13:26:12.000Z</time>
      </trkpt>
      <trkpt lat="45.55175" lon="5.92558">
        <ele>458.8</ele>
        <time>2000-01-01T13:26:22.000Z</time>
      </trkpt>
      <trkpt lat="45.55185" lon="5.92543">
        <ele>458</ele>
        <time>2000-01-01T13:26:32.000Z</time>
      </trkpt>
      <trkpt lat="45.55212" lon="5.92499">
        <ele>454</ele>
        <time>2000-01-01T13:26:42.000Z</time>
      </trkpt>
      <trkpt lat="45.55238" lon="5.92453">
        <ele>452</ele>
        <time>2000-01-01T13:26:52.000Z</time>
      </trkpt>
      <trkpt lat="45.55246" lon="5.92451">
        <ele>452.3</ele>
        <time>2000-01-01T13:27:02.000Z</time>
      </trkpt>
      <trkpt lat="45.55287" lon="5.92463">
        <ele>451</ele>
        <time>2000-01-01T13:27:12.000Z</time>
      </trkpt>
      <trkpt lat="45.55329" lon="5.92483">
        <ele>451</ele>
        <time>2000-01-01T13:27:22.000Z</time>
      </trkpt>
      <trkpt lat="45.55349" lon="5.92493">
        <ele>450</ele>
        <time>2000-01-01T13:27:32.000Z</time>
      </trkpt>
      <trkpt lat="45.55375" lon="5.92506">
        <ele>450</ele>
        <time>2000-01-01T13:27:42.000Z</time>
      </trkpt>
      <trkpt lat="45.55393" lon="5.92516">
        <ele>450.2</ele>
        <time>2000-01-01T13:27:52.000Z</time>
      </trkpt>
      <trkpt lat="45.55402" lon="5.92523">
        <ele>449</ele>
        <time>2000-01-01T13:28:02.000Z</time>
      </trkpt>
      <trkpt lat="45.55416" lon="5.92531">
        <ele>448.8</ele>
        <time>2000-01-01T13:28:12.000Z</time>
      </trkpt>
      <trkpt lat="45.55429" lon="5.92539">
        <ele>448</ele>
        <time>2000-01-01T13:28:22.000Z</time>
      </trkpt>
      <trkpt lat="45.55442" lon="5.92548">
        <ele>446.4</ele>
        <time>2000-01-01T13:28:32.000Z</time>
      </trkpt>
      <trkpt lat="45.55457" lon="5.92559">
        <ele>445</ele>
        <time>2000-01-01T13:28:42.000Z</time>
      </trkpt>
      <trkpt lat="45.55465" lon="5.92565">
        <ele>444.1</ele>
        <time>2000-01-01T13:28:52.000Z</time>
      </trkpt>
      <trkpt lat="45.55473" lon="5.92574">
        <ele>443</ele>
        <time>2000-01-01T13:29:02.000Z</time>
      </trkpt>
      <trkpt lat="45.55483" lon="5.92584">
        <ele>442.1</ele>
        <time>2000-01-01T13:29:12.000Z</time>
      </trkpt>
      <trkpt lat="45.55485" lon="5.92586">
        <ele>441.8</ele>
        <time>2000-01-01T13:29:22.000Z</time>
      </trkpt>
      <trkpt lat="45.55492" lon="5.92592">
        <ele>441</ele>
        <time>2000-01-01T13:29:32.000Z</time>
      </trkpt>
      <trkpt lat="45.55507" lon="5.92598">
        <ele>439.1</ele>
        <time>2000-01-01T13:29:42.000Z</time>
      </trkpt>
      <trkpt lat="45.55524" lon="5.92604">
        <ele>436</ele>
        <time>2000-01-01T13:29:52.000Z</time>
      </trkpt>
      <trkpt lat="45.55533" lon="5.92606">
        <ele>435</ele>
        <time>2000-01-01T13:30:02.000Z</time>
      </trkpt>
      <trkpt lat="45.55542" lon="5.92606">
        <ele>433.9</ele>
        <time>2000-01-01T13:30:12.000Z</time>
      </trkpt>
      <trkpt lat="45.55566" lon="5.92605">
        <ele>432</ele>
        <time>2000-01-01T13:30:22.000Z</time>
      </trkpt>
      <trkpt lat="45.55575" lon="5.92604">
        <ele>429.5</ele>
        <time>2000-01-01T13:30:32.000Z</time>
      </trkpt>
      <trkpt lat="45.55608" lon="5.92598">
        <ele>426</ele>
        <time>2000-01-01T13:30:42.000Z</time>
      </trkpt>
      <trkpt lat="45.55611" lon="5.92595">
        <ele>424.2</ele>
        <time>2000-01-01T13:30:52.000Z</time>
      </trkpt>
      <trkpt lat="45.55624" lon="5.92573">
        <ele>423</ele>
        <time>2000-01-01T13:31:02.000Z</time>
      </trkpt>
      <trkpt lat="45.55632" lon="5.92562">
        <ele>422</ele>
        <time>2000-01-01T13:31:12.000Z</time>
      </trkpt>
      <trkpt lat="45.55633" lon="5.92561">
        <ele>421.8</ele>
        <time>2000-01-01T13:31:22.000Z</time>
      </trkpt>
      <trkpt lat="45.55636" lon="5.92555">
        <ele>421.4</ele>
        <time>2000-01-01T13:31:32.000Z</time>
      </trkpt>
      <trkpt lat="45.55641" lon="5.92547">
        <ele>420</ele>
        <time>2000-01-01T13:31:42.000Z</time>
      </trkpt>
      <trkpt lat="45.55647" lon="5.92541">
        <ele>420</ele>
        <time>2000-01-01T13:31:52.000Z</time>
      </trkpt>
      <trkpt lat="45.55658" lon="5.92531">
        <ele>419</ele>
        <time>2000-01-01T13:32:02.000Z</time>
      </trkpt>
      <trkpt lat="45.55669" lon="5.92523">
        <ele>416.6</ele>
        <time>2000-01-01T13:32:12.000Z</time>
      </trkpt>
      <trkpt lat="45.55674" lon="5.9252">
        <ele>415.9</ele>
        <time>2000-01-01T13:32:22.000Z</time>
      </trkpt>
      <trkpt lat="45.55706" lon="5.92504">
        <ele>411</ele>
        <time>2000-01-01T13:32:32.000Z</time>
      </trkpt>
      <trkpt lat="45.5571" lon="5.92503">
        <ele>411.4</ele>
        <time>2000-01-01T13:32:42.000Z</time>
      </trkpt>
      <trkpt lat="45.55759" lon="5.92499">
        <ele>407</ele>
        <time>2000-01-01T13:32:52.000Z</time>
      </trkpt>
      <trkpt lat="45.55791" lon="5.925">
        <ele>402</ele>
        <time>2000-01-01T13:33:02.000Z</time>
      </trkpt>
      <trkpt lat="45.55813" lon="5.92502">
        <ele>400</ele>
        <time>2000-01-01T13:33:12.000Z</time>
      </trkpt>
      <trkpt lat="45.55824" lon="5.92504">
        <ele>399</ele>
        <time>2000-01-01T13:33:22.000Z</time>
      </trkpt>
      <trkpt lat="45.55827" lon="5.92507">
        <ele>398.7</ele>
        <time>2000-01-01T13:33:32.000Z</time>
      </trkpt>
      <trkpt lat="45.55827" lon="5.92509">
        <ele>398.7</ele>
        <time>2000-01-01T13:33:42.000Z</time>
      </trkpt>
      <trkpt lat="45.5583" lon="5.92503">
        <ele>397</ele>
        <time>2000-01-01T13:33:52.000Z</time>
      </trkpt>
      <trkpt lat="45.55834" lon="5.92498">
        <ele>397.8</ele>
        <time>2000-01-01T13:34:02.000Z</time>
      </trkpt>
      <trkpt lat="45.55838" lon="5.92494">
        <ele>397.1</ele>
        <time>2000-01-01T13:34:12.000Z</time>
      </trkpt>
      <trkpt lat="45.55843" lon="5.9249">
        <ele>396.4</ele>
        <time>2000-01-01T13:34:22.000Z</time>
      </trkpt>
      <trkpt lat="45.55854" lon="5.92486">
        <ele>395</ele>
        <time>2000-01-01T13:34:32.000Z</time>
      </trkpt>
      <trkpt lat="45.5586" lon="5.92486">
        <ele>394.1</ele>
        <time>2000-01-01T13:34:42.000Z</time>
      </trkpt>
      <trkpt lat="45.55871" lon="5.92488">
        <ele>392.6</ele>
        <time>2000-01-01T13:34:52.000Z</time>
      </trkpt>
      <trkpt lat="45.5588" lon="5.92491">
        <ele>390</ele>
        <time>2000-01-01T13:35:02.000Z</time>
      </trkpt>
      <trkpt lat="45.55887" lon="5.92495">
        <ele>390.3</ele>
        <time>2000-01-01T13:35:12.000Z</time>
      </trkpt>
      <trkpt lat="45.55898" lon="5.92505">
        <ele>389</ele>
        <time>2000-01-01T13:35:22.000Z</time>
      </trkpt>
      <trkpt lat="45.55909" lon="5.92518">
        <ele>387.6</ele>
        <time>2000-01-01T13:35:32.000Z</time>
      </trkpt>
      <trkpt lat="45.55916" lon="5.92524">
        <ele>387</ele>
        <time>2000-01-01T13:35:42.000Z</time>
      </trkpt>
      <trkpt lat="45.55919" lon="5.92523">
        <ele>386.1</ele>
        <time>2000-01-01T13:35:52.000Z</time>
      </trkpt>
      <trkpt lat="45.5592" lon="5.92521">
        <ele>385.7</ele>
        <time>2000-01-01T13:36:02.000Z</time>
      </trkpt>
      <trkpt lat="45.55922" lon="5.92518">
        <ele>385</ele>
        <time>2000-01-01T13:36:12.000Z</time>
      </trkpt>
      <trkpt lat="45.55931" lon="5.92497">
        <ele>382</ele>
        <time>2000-01-01T13:36:22.000Z</time>
      </trkpt>
      <trkpt lat="45.55934" lon="5.92491">
        <ele>381.2</ele>
        <time>2000-01-01T13:36:32.000Z</time>
      </trkpt>
      <trkpt lat="45.55936" lon="5.92488">
        <ele>380.7</ele>
        <time>2000-01-01T13:36:42.000Z</time>
      </trkpt>
      <trkpt lat="45.55937" lon="5.92487">
        <ele>380.5</ele>
        <time>2000-01-01T13:36:52.000Z</time>
      </trkpt>
      <trkpt lat="45.55941" lon="5.92488">
        <ele>379.4</ele>
        <time>2000-01-01T13:37:02.000Z</time>
      </trkpt>
      <trkpt lat="45.55952" lon="5.92501">
        <ele>377</ele>
        <time>2000-01-01T13:37:12.000Z</time>
      </trkpt>
      <trkpt lat="45.5597" lon="5.92518">
        <ele>372</ele>
        <time>2000-01-01T13:37:22.000Z</time>
      </trkpt>
      <trkpt lat="45.55973" lon="5.9252">
        <ele>368.3</ele>
        <time>2000-01-01T13:37:32.000Z</time>
      </trkpt>
      <trkpt lat="45.55977" lon="5.92526">
        <ele>366.3</ele>
        <time>2000-01-01T13:37:42.000Z</time>
      </trkpt>
      <trkpt lat="45.55979" lon="5.9254">
        <ele>369</ele>
        <time>2000-01-01T13:37:52.000Z</time>
      </trkpt>
      <trkpt lat="45.55983" lon="5.9255">
        <ele>363.8</ele>
        <time>2000-01-01T13:38:02.000Z</time>
      </trkpt>
      <trkpt lat="45.55997" lon="5.92558">
        <ele>362</ele>
        <time>2000-01-01T13:38:12.000Z</time>
      </trkpt>
      <trkpt lat="45.56008" lon="5.92567">
        <ele>355.7</ele>
        <time>2000-01-01T13:38:22.000Z</time>
      </trkpt>
      <trkpt lat="45.56019" lon="5.92577">
        <ele>356</ele>
        <time>2000-01-01T13:38:32.000Z</time>
      </trkpt>
      <trkpt lat="45.56034" lon="5.92594">
        <ele>351</ele>
        <time>2000-01-01T13:38:42.000Z</time>
      </trkpt>
      <trkpt lat="45.56042" lon="5.92603">
        <ele>346.8</ele>
        <time>2000-01-01T13:38:52.000Z</time>
      </trkpt>
      <trkpt lat="45.5605" lon="5.92612">
        <ele>345</ele>
        <time>2000-01-01T13:39:02.000Z</time>
      </trkpt>
      <trkpt lat="45.56054" lon="5.92617">
        <ele>344.9</ele>
        <time>2000-01-01T13:39:12.000Z</time>
      </trkpt>
      <trkpt lat="45.5606" lon="5.92617">
        <ele>342.2</ele>
        <time>2000-01-01T13:39:22.000Z</time>
      </trkpt>
      <trkpt lat="45.56046" lon="5.92586">
        <ele>344</ele>
        <time>2000-01-01T13:39:32.000Z</time>
      </trkpt>
      <trkpt lat="45.56029" lon="5.92527">
        <ele>343</ele>
        <time>2000-01-01T13:39:42.000Z</time>
      </trkpt>
      <trkpt lat="45.56028" lon="5.92507">
        <ele>339.4</ele>
        <time>2000-01-01T13:39:52.000Z</time>
      </trkpt>
      <trkpt lat="45.56031" lon="5.92515">
        <ele>339</ele>
        <time>2000-01-01T13:40:02.000Z</time>
      </trkpt>
      <trkpt lat="45.56041" lon="5.9254">
        <ele>339</ele>
        <time>2000-01-01T13:40:12.000Z</time>
      </trkpt>
      <trkpt lat="45.56043" lon="5.92538">
        <ele>334.6</ele>
        <time>2000-01-01T13:40:22.000Z</time>
      </trkpt>
      <trkpt lat="45.56043" lon="5.92534">
        <ele>334.1</ele>
        <time>2000-01-01T13:40:32.000Z</time>
      </trkpt>
      <trkpt lat="45.56042" lon="5.92529">
        <ele>334</ele>
        <time>2000-01-01T13:40:42.000Z</time>
      </trkpt>
      <trkpt lat="45.56039" lon="5.92523">
        <ele>334.9</ele>
        <time>2000-01-01T13:40:52.000Z</time>
      </trkpt>
      <trkpt lat="45.56038" lon="5.92515">
        <ele>339</ele>
        <time>2000-01-01T13:41:02.000Z</time>
      </trkpt>
      <trkpt lat="45.56038" lon="5.92511">
        <ele>334.4</ele>
        <time>2000-01-01T13:41:12.000Z</time>
      </trkpt>
      <trkpt lat="45.56036" lon="5.92504">
        <ele>334.9</ele>
        <time>2000-01-01T13:41:22.000Z</time>
      </trkpt>
      <trkpt lat="45.56032" lon="5.92496">
        <ele>336.1</ele>
        <time>2000-01-01T13:41:32.000Z</time>
      </trkpt>
      <trkpt lat="45.56027" lon="5.92485">
        <ele>337</ele>
        <time>2000-01-01T13:41:42.000Z</time>
      </trkpt>
      <trkpt lat="45.56025" lon="5.92472">
        <ele>336.2</ele>
        <time>2000-01-01T13:41:52.000Z</time>
      </trkpt>
      <trkpt lat="45.56025" lon="5.92463">
        <ele>334.3</ele>
        <time>2000-01-01T13:42:02.000Z</time>
      </trkpt>
      <trkpt lat="45.56024" lon="5.92454">
        <ele>335</ele>
        <time>2000-01-01T13:42:12.000Z</time>
      </trkpt>
      <trkpt lat="45.56021" lon="5.92444">
        <ele>332.6</ele>
        <time>2000-01-01T13:42:22.000Z</time>
      </trkpt>
      <trkpt lat="45.56018" lon="5.92433">
        <ele>332.4</ele>
        <time>2000-01-01T13:42:32.000Z</time>
      </trkpt>
      <trkpt lat="45.56014" lon="5.92423">
        <ele>333</ele>
        <time>2000-01-01T13:42:42.000Z</time>
      </trkpt>
      <trkpt lat="45.56012" lon="5.92413">
        <ele>332.8</ele>
        <time>2000-01-01T13:42:52.000Z</time>
      </trkpt>
      <trkpt lat="45.56012" lon="5.924">
        <ele>331.8</ele>
        <time>2000-01-01T13:43:02.000Z</time>
      </trkpt>
      <trkpt lat="45.56015" lon="5.92387">
        <ele>333</ele>
        <time>2000-01-01T13:43:12.000Z</time>
      </trkpt>
      <trkpt lat="45.56021" lon="5.92373">
        <ele>328.9</ele>
        <time>2000-01-01T13:43:22.000Z</time>
      </trkpt>
      <trkpt lat="45.56024" lon="5.92371">
        <ele>327.9</ele>
        <time>2000-01-01T13:43:32.000Z</time>
      </trkpt>
      <trkpt lat="45.56026" lon="5.92371">
        <ele>327</ele>
        <time>2000-01-01T13:43:42.000Z</time>
      </trkpt>
      <trkpt lat="45.56027" lon="5.92366">
        <ele>333</ele>
        <time>2000-01-01T13:43:52.000Z</time>
      </trkpt>
      <trkpt lat="45.56028" lon="5.92355">
        <ele>328.3</ele>
        <time>2000-01-01T13:44:02.000Z</time>
      </trkpt>
      <trkpt lat="45.56028" lon="5.9234">
        <ele>329.4</ele>
        <time>2000-01-01T13:44:12.000Z</time>
      </trkpt>
      <trkpt lat="45.56027" lon="5.9233">
        <ele>335</ele>
        <time>2000-01-01T13:44:22.000Z</time>
      </trkpt>
      <trkpt lat="45.56025" lon="5.9232">
        <ele>329.4</ele>
        <time>2000-01-01T13:44:32.000Z</time>
      </trkpt>
      <trkpt lat="45.5602" lon="5.92307">
        <ele>330.6</ele>
        <time>2000-01-01T13:44:42.000Z</time>
      </trkpt>
      <trkpt lat="45.56016" lon="5.92297">
        <ele>335</ele>
        <time>2000-01-01T13:44:52.000Z</time>
      </trkpt>
      <trkpt lat="45.56014" lon="5.92287">
        <ele>334.6</ele>
        <time>2000-01-01T13:45:02.000Z</time>
      </trkpt>
      <trkpt lat="45.56014" lon="5.92281">
        <ele>334.9</ele>
        <time>2000-01-01T13:45:12.000Z</time>
      </trkpt>
      <trkpt lat="45.56014" lon="5.92279">
        <ele>334.9</ele>
        <time>2000-01-01T13:45:22.000Z</time>
      </trkpt>
      <trkpt lat="45.56016" lon="5.92278">
        <ele>334.5</ele>
        <time>2000-01-01T13:45:32.000Z</time>
      </trkpt>
      <trkpt lat="45.56023" lon="5.9228">
        <ele>332</ele>
        <time>2000-01-01T13:45:42.000Z</time>
      </trkpt>
      <trkpt lat="45.56029" lon="5.92281">
        <ele>331.2</ele>
        <time>2000-01-01T13:45:52.000Z</time>
      </trkpt>
      <trkpt lat="45.56036" lon="5.92283">
        <ele>329.8</ele>
        <time>2000-01-01T13:46:02.000Z</time>
      </trkpt>
      <trkpt lat="45.56044" lon="5.92288">
        <ele>329</ele>
        <time>2000-01-01T13:46:12.000Z</time>
      </trkpt>
      <trkpt lat="45.5605" lon="5.92291">
        <ele>325.6</ele>
        <time>2000-01-01T13:46:22.000Z</time>
      </trkpt>
      <trkpt lat="45.56055" lon="5.92296">
        <ele>323.2</ele>
        <time>2000-01-01T13:46:32.000Z</time>
      </trkpt>
      <trkpt lat="45.56061" lon="5.923">
        <ele>321.1</ele>
        <time>2000-01-01T13:46:42.000Z</time>
      </trkpt>
      <trkpt lat="45.56067" lon="5.92302">
        <ele>322</ele>
        <time>2000-01-01T13:46:52.000Z</time>
      </trkpt>
      <trkpt lat="45.56073" lon="5.92301">
        <ele>319.4</ele>
        <time>2000-01-01T13:47:02.000Z</time>
      </trkpt>
      <trkpt lat="45.56079" lon="5.92299">
        <ele>319.2</ele>
        <time>2000-01-01T13:47:12.000Z</time>
      </trkpt>
      <trkpt lat="45.56086" lon="5.92293">
        <ele>321</ele>
        <time>2000-01-01T13:47:22.000Z</time>
      </trkpt>
      <trkpt lat="45.5609" lon="5.92289">
        <ele>317.1</ele>
        <time>2000-01-01T13:47:32.000Z</time>
      </trkpt>
      <trkpt lat="45.56094" lon="5.9229">
        <ele>314.4</ele>
        <time>2000-01-01T13:47:42.000Z</time>
      </trkpt>
      <trkpt lat="45.56098" lon="5.92296">
        <ele>310.4</ele>
        <time>2000-01-01T13:47:52.000Z</time>
      </trkpt>
      <trkpt lat="45.56097" lon="5.92307">
        <ele>317</ele>
        <time>2000-01-01T13:48:02.000Z</time>
      </trkpt>
      <trkpt lat="45.56094" lon="5.92322">
        <ele>305.1</ele>
        <time>2000-01-01T13:48:12.000Z</time>
      </trkpt>
      <trkpt lat="45.56089" lon="5.9234">
        <ele>310</ele>
        <time>2000-01-01T13:48:22.000Z</time>
      </trkpt>
      <trkpt lat="45.56083" lon="5.92362">
        <ele>299.9</ele>
        <time>2000-01-01T13:48:32.000Z</time>
      </trkpt>
      <trkpt lat="45.56079" lon="5.92375">
        <ele>299</ele>
        <time>2000-01-01T13:48:42.000Z</time>
      </trkpt>
      <trkpt lat="45.56076" lon="5.92383">
        <ele>299.1</ele>
        <time>2000-01-01T13:48:52.000Z</time>
      </trkpt>
      <trkpt lat="45.56074" lon="5.92393">
        <ele>299.8</ele>
        <time>2000-01-01T13:49:02.000Z</time>
      </trkpt>
      <trkpt lat="45.56077" lon="5.92393">
        <ele>298.4</ele>
        <time>2000-01-01T13:49:12.000Z</time>
      </trkpt>
      <trkpt lat="45.5608" lon="5.92397">
        <ele>299</ele>
        <time>2000-01-01T13:49:22.000Z</time>
      </trkpt>
      <trkpt lat="45.56087" lon="5.92406">
        <ele>295.5</ele>
        <time>2000-01-01T13:49:32.000Z</time>
      </trkpt>
      <trkpt lat="45.56096" lon="5.92418">
        <ele>294</ele>
        <time>2000-01-01T13:49:42.000Z</time>
      </trkpt>
      <trkpt lat="45.56106" lon="5.92426">
        <ele>291.5</ele>
        <time>2000-01-01T13:49:52.000Z</time>
      </trkpt>
      <trkpt lat="45.56112" lon="5.92431">
        <ele>290.4</ele>
        <time>2000-01-01T13:50:02.000Z</time>
      </trkpt>
      <trkpt lat="45.5612" lon="5.92433">
        <ele>288</ele>
        <time>2000-01-01T13:50:12.000Z</time>
      </trkpt>
      <trkpt lat="45.56125" lon="5.92432">
        <ele>287.2</ele>
        <time>2000-01-01T13:50:22.000Z</time>
      </trkpt>
      <trkpt lat="45.56132" lon="5.92432">
        <ele>285.4</ele>
        <time>2000-01-01T13:50:32.000Z</time>
      </trkpt>
      <trkpt lat="45.56136" lon="5.92432">
        <ele>284.4</ele>
        <time>2000-01-01T13:50:42.000Z</time>
      </trkpt>
      <trkpt lat="45.5614" lon="5.92428">
        <ele>283</ele>
        <time>2000-01-01T13:50:52.000Z</time>
      </trkpt>
      <trkpt lat="45.56135" lon="5.92417">
        <ele>282.9</ele>
        <time>2000-01-01T13:51:02.000Z</time>
      </trkpt>
      <trkpt lat="45.56134" lon="5.92411">
        <ele>282.9</ele>
        <time>2000-01-01T13:51:12.000Z</time>
      </trkpt>
      <trkpt lat="45.56133" lon="5.92404">
        <ele>283</ele>
        <time>2000-01-01T13:51:22.000Z</time>
      </trkpt>
      <trkpt lat="45.56135" lon="5.92395">
        <ele>283</ele>
        <time>2000-01-01T13:51:32.000Z</time>
      </trkpt>
      <trkpt lat="45.56139" lon="5.92385">
        <ele>282.1</ele>
        <time>2000-01-01T13:51:42.000Z</time>
      </trkpt>
      <trkpt lat="45.56141" lon="5.92383">
        <ele>282</ele>
        <time>2000-01-01T13:51:52.000Z</time>
      </trkpt>
      <trkpt lat="45.56143" lon="5.92381">
        <ele>281.8</ele>
        <time>2000-01-01T13:52:02.000Z</time>
      </trkpt>
      <trkpt lat="45.56152" lon="5.92379">
        <ele>280</ele>
        <time>2000-01-01T13:52:12.000Z</time>
      </trkpt>
      <trkpt lat="45.56182" lon="5.92378">
        <ele>277</ele>
        <time>2000-01-01T13:52:22.000Z</time>
      </trkpt>
      <trkpt lat="45.56204" lon="5.9238">
        <ele>275</ele>
        <time>2000-01-01T13:52:32.000Z</time>
      </trkpt>
      <trkpt lat="45.5622" lon="5.92382">
        <ele>274.2</ele>
        <time>2000-01-01T13:52:42.000Z</time>
      </trkpt>
      <trkpt lat="45.56246" lon="5.92382">
        <ele>273</ele>
        <time>2000-01-01T13:52:52.000Z</time>
      </trkpt>
      <trkpt lat="45.56285" lon="5.92383">
        <ele>273</ele>
        <time>2000-01-01T13:53:02.000Z</time>
      </trkpt>
      <trkpt lat="45.56289" lon="5.92378">
        <ele>273</ele>
        <time>2000-01-01T13:53:12.000Z</time>
      </trkpt>
      <trkpt lat="45.5629" lon="5.92377">
        <ele>273</ele>
        <time>2000-01-01T13:53:22.000Z</time>
      </trkpt>
      <trkpt lat="45.56307" lon="5.92376">
        <ele>272</ele>
        <time>2000-01-01T13:53:32.000Z</time>
      </trkpt>
      <trkpt lat="45.56334" lon="5.92377">
        <ele>272</ele>
        <time>2000-01-01T13:53:42.000Z</time>
      </trkpt>
      <trkpt lat="45.56371" lon="5.92378">
        <ele>272</ele>
        <time>2000-01-01T13:53:52.000Z</time>
      </trkpt>
      <trkpt lat="45.56384" lon="5.92378">
        <ele>273</ele>
        <time>2000-01-01T13:54:02.000Z</time>
      </trkpt>
      <trkpt lat="45.56388" lon="5.92391">
        <ele>272</ele>
        <time>2000-01-01T13:54:12.000Z</time>
      </trkpt>
      <trkpt lat="45.56392" lon="5.92399">
        <ele>272.9</ele>
        <time>2000-01-01T13:54:22.000Z</time>
      </trkpt>
      <trkpt lat="45.56398" lon="5.92403">
        <ele>272.7</ele>
        <time>2000-01-01T13:54:32.000Z</time>
      </trkpt>
      <trkpt lat="45.56402" lon="5.92412">
        <ele>272</ele>
        <time>2000-01-01T13:54:42.000Z</time>
      </trkpt>
      <trkpt lat="45.56407" lon="5.92431">
        <ele>272.3</ele>
        <time>2000-01-01T13:54:52.000Z</time>
      </trkpt>
      <trkpt lat="45.56411" lon="5.92451">
        <ele>272</ele>
        <time>2000-01-01T13:55:02.000Z</time>
      </trkpt>
      <trkpt lat="45.56423" lon="5.92448">
        <ele>272</ele>
        <time>2000-01-01T13:55:12.000Z</time>
      </trkpt>
      <trkpt lat="45.56462" lon="5.92432">
        <ele>271</ele>
        <time>2000-01-01T13:55:22.000Z</time>
      </trkpt>
      <trkpt lat="45.56477" lon="5.92427">
        <ele>272</ele>
        <time>2000-01-01T13:55:32.000Z</time>
      </trkpt>
      <trkpt lat="45.56491" lon="5.92418">
        <ele>271</ele>
        <time>2000-01-01T13:55:42.000Z</time>
      </trkpt>
      <trkpt lat="45.56514" lon="5.92398">
        <ele>271</ele>
        <time>2000-01-01T13:55:52.000Z</time>
      </trkpt>
      <trkpt lat="45.56535" lon="5.92381">
        <ele>272</ele>
        <time>2000-01-01T13:56:02.000Z</time>
      </trkpt>
      <trkpt lat="45.56567" lon="5.92354">
        <ele>272</ele>
        <time>2000-01-01T13:56:12.000Z</time>
      </trkpt>
      <trkpt lat="45.56577" lon="5.92347">
        <ele>272</ele>
        <time>2000-01-01T13:56:22.000Z</time>
      </trkpt>
      <trkpt lat="45.56623" lon="5.92309">
        <ele>272</ele>
        <time>2000-01-01T13:56:32.000Z</time>
      </trkpt>
      <trkpt lat="45.56633" lon="5.92301">
        <ele>272.7</ele>
        <time>2000-01-01T13:56:42.000Z</time>
      </trkpt>
      <trkpt lat="45.56647" lon="5.92287">
        <ele>272</ele>
        <time>2000-01-01T13:56:52.000Z</time>
      </trkpt>
      <trkpt lat="45.56653" lon="5.92301">
        <ele>272.4</ele>
        <time>2000-01-01T13:57:02.000Z</time>
      </trkpt>
      <trkpt lat="45.56659" lon="5.92303">
        <ele>272.3</ele>
        <time>2000-01-01T13:57:12.000Z</time>
      </trkpt>
      <trkpt lat="45.56665" lon="5.92302">
        <ele>272</ele>
        <time>2000-01-01T13:57:22.000Z</time>
      </trkpt>
      <trkpt lat="45.5667" lon="5.92296">
        <ele>272.1</ele>
        <time>2000-01-01T13:57:32.000Z</time>
      </trkpt>
      <trkpt lat="45.56681" lon="5.92286">
        <ele>272</ele>
        <time>2000-01-01T13:57:42.000Z</time>
      </trkpt>
      <trkpt lat="45.56698" lon="5.9227">
        <ele>272</ele>
        <time>2000-01-01T13:57:52.000Z</time>
      </trkpt>
      <trkpt lat="45.56709" lon="5.92256">
        <ele>272.6</ele>
        <time>2000-01-01T13:58:02.000Z</time>
      </trkpt>
      <trkpt lat="45.56742" lon="5.92213">
        <ele>272</ele>
        <time>2000-01-01T13:58:12.000Z</time>
      </trkpt>
      <trkpt lat="45.56748" lon="5.92204">
        <ele>273</ele>
        <time>2000-01-01T13:58:22.000Z</time>
      </trkpt>
      <trkpt lat="45.56774" lon="5.92172">
        <ele>272</ele>
        <time>2000-01-01T13:58:32.000Z</time>
      </trkpt>
      <trkpt lat="45.56797" lon="5.92142">
        <ele>272</ele>
        <time>2000-01-01T13:58:42.000Z</time>
      </trkpt>
      <trkpt lat="45.56812" lon="5.92124">
        <ele>272</ele>
        <time>2000-01-01T13:58:52.000Z</time>
      </trkpt>
      <trkpt lat="45.56816" lon="5.9212">
        <ele>272.4</ele>
        <time>2000-01-01T13:59:02.000Z</time>
      </trkpt>
      <trkpt lat="45.56824" lon="5.92132">
        <ele>272.7</ele>
        <time>2000-01-01T13:59:12.000Z</time>
      </trkpt>
      <trkpt lat="45.56827" lon="5.92136">
        <ele>272</ele>
        <time>2000-01-01T13:59:22.000Z</time>
      </trkpt>
      <trkpt lat="45.56835" lon="5.92141">
        <ele>273</ele>
        <time>2000-01-01T13:59:32.000Z</time>
      </trkpt>
      <trkpt lat="45.56841" lon="5.92144">
        <ele>273</ele>
        <time>2000-01-01T13:59:42.000Z</time>
      </trkpt>
      <trkpt lat="45.56848" lon="5.92145">
        <ele>272</ele>
        <time>2000-01-01T13:59:52.000Z</time>
      </trkpt>
      <trkpt lat="45.56856" lon="5.92146">
        <ele>273</ele>
        <time>2000-01-01T14:00:02.000Z</time>
      </trkpt>
      <trkpt lat="45.56863" lon="5.92146">
        <ele>273</ele>
        <time>2000-01-01T14:00:12.000Z</time>
      </trkpt>
      <trkpt lat="45.56868" lon="5.92149">
        <ele>272</ele>
        <time>2000-01-01T14:00:22.000Z</time>
      </trkpt>
      <trkpt lat="45.56877" lon="5.92154">
        <ele>273</ele>
        <time>2000-01-01T14:00:32.000Z</time>
      </trkpt>
      <trkpt lat="45.5689" lon="5.92161">
        <ele>273</ele>
        <time>2000-01-01T14:00:42.000Z</time>
      </trkpt>
      <trkpt lat="45.56901" lon="5.92164">
        <ele>273.8</ele>
        <time>2000-01-01T14:00:52.000Z</time>
      </trkpt>
      <trkpt lat="45.5691" lon="5.92166">
        <ele>273</ele>
        <time>2000-01-01T14:01:02.000Z</time>
      </trkpt>
      <trkpt lat="45.56923" lon="5.92166">
        <ele>274.7</ele>
        <time>2000-01-01T14:01:12.000Z</time>
      </trkpt>
      <trkpt lat="45.56923" lon="5.92162">
        <ele>274.5</ele>
        <time>2000-01-01T14:01:22.000Z</time>
      </trkpt>
      <trkpt lat="45.56924" lon="5.9216">
        <ele>274.3</ele>
        <time>2000-01-01T14:01:32.000Z</time>
      </trkpt>
      <trkpt lat="45.56926" lon="5.92159">
        <ele>274.2</ele>
        <time>2000-01-01T14:01:42.000Z</time>
      </trkpt>
      <trkpt lat="45.56929" lon="5.92159">
        <ele>271</ele>
        <time>2000-01-01T14:01:52.000Z</time>
      </trkpt>
      <trkpt lat="45.5693" lon="5.9216">
        <ele>274.2</ele>
        <time>2000-01-01T14:02:02.000Z</time>
      </trkpt>
      <trkpt lat="45.56932" lon="5.92162">
        <ele>274.2</ele>
        <time>2000-01-01T14:02:12.000Z</time>
      </trkpt>
      <trkpt lat="45.56932" lon="5.92165">
        <ele>274.4</ele>
        <time>2000-01-01T14:02:22.000Z</time>
      </trkpt>
      <trkpt lat="45.56938" lon="5.92164">
        <ele>274.1</ele>
        <time>2000-01-01T14:02:32.000Z</time>
      </trkpt>
      <trkpt lat="45.56941" lon="5.92164">
        <ele>274</ele>
        <time>2000-01-01T14:02:42.000Z</time>
      </trkpt>
      <trkpt lat="45.56945" lon="5.92165">
        <ele>274.1</ele>
        <time>2000-01-01T14:02:52.000Z</time>
      </trkpt>
      <trkpt lat="45.56968" lon="5.92163">
        <ele>275</ele>
        <time>2000-01-01T14:03:02.000Z</time>
      </trkpt>
      <trkpt lat="45.56979" lon="5.92164">
        <ele>280.9</ele>
        <time>2000-01-01T14:03:12.000Z</time>
      </trkpt>
      <trkpt lat="45.56989" lon="5.92164">
        <ele>280</ele>
        <time>2000-01-01T14:03:22.000Z</time>
      </trkpt>
      <trkpt lat="45.57015" lon="5.92168">
        <ele>284</ele>
        <time>2000-01-01T14:03:32.000Z</time>
      </trkpt>
      <trkpt lat="45.57028" lon="5.92171">
        <ele>286.3</ele>
        <time>2000-01-01T14:03:42.000Z</time>
      </trkpt>
      <trkpt lat="45.57047" lon="5.92177">
        <ele>285</ele>
        <time>2000-01-01T14:03:52.000Z</time>
      </trkpt>
      <trkpt lat="45.57063" lon="5.92177">
        <ele>290.3</ele>
        <time>2000-01-01T14:04:02.000Z</time>
      </trkpt>
      <trkpt lat="45.57107" lon="5.92175">
        <ele>291</ele>
        <time>2000-01-01T14:04:12.000Z</time>
      </trkpt>
      <trkpt lat="45.57135" lon="5.92124">
        <ele>278</ele>
      </trkpt>
    </trkseg>
  </trk>
</gpx>